<?xml version="1.0" encoding="UTF-8" standalone="no" ?>
<gpx xmlns="http://www.topografix.com/GPX/1/1" xmlns:xsi="http://www.w3.org/2001/XMLSchema-instance" xsi:schemaLocation="http://www.topografix.com/GPX/1/1 http://www.topografix.com/GPX/1/1/gpx.xsd" version="1.1" creator="VisuGPX - https://www.visugpx.com">
  <metadata>
    <name>Croix de la justice 1</name>
    <desc><![CDATA[Tour Croix de la Justice Gilles 1]]></desc>
  </metadata>
  <trk>
    <name><![CDATA[Croix de la justice 1_1]]></name>
    <trkseg>
      <trkpt lat="46.16543" lon="2.573">
        <ele>496</ele>
        <time>2015-10-23T12:36:59Z</time>
      </trkpt>
      <trkpt lat="46.16542" lon="2.57278">
        <ele>493</ele>
        <time>2015-10-23T12:37:03Z</time>
      </trkpt>
      <trkpt lat="46.16541" lon="2.57247">
        <ele>491</ele>
        <time>2015-10-23T12:37:07Z</time>
      </trkpt>
      <trkpt lat="46.16535" lon="2.5721">
        <ele>489</ele>
        <time>2015-10-23T12:37:11Z</time>
      </trkpt>
      <trkpt lat="46.1653" lon="2.57177">
        <ele>489</ele>
        <time>2015-10-23T12:37:15Z</time>
      </trkpt>
      <trkpt lat="46.16525" lon="2.57145">
        <ele>489</ele>
        <time>2015-10-23T12:37:19Z</time>
      </trkpt>
      <trkpt lat="46.16522" lon="2.5712">
        <ele>489</ele>
        <time>2015-10-23T12:37:23Z</time>
      </trkpt>
      <trkpt lat="46.16513" lon="2.57104">
        <ele>488</ele>
        <time>2015-10-23T12:37:27Z</time>
      </trkpt>
      <trkpt lat="46.16498" lon="2.57093">
        <ele>488</ele>
        <time>2015-10-23T12:37:31Z</time>
      </trkpt>
      <trkpt lat="46.16482" lon="2.57088">
        <ele>487</ele>
        <time>2015-10-23T12:37:35Z</time>
      </trkpt>
      <trkpt lat="46.16464" lon="2.57093">
        <ele>487</ele>
        <time>2015-10-23T12:37:39Z</time>
      </trkpt>
      <trkpt lat="46.16446" lon="2.57098">
        <ele>486</ele>
        <time>2015-10-23T12:37:43Z</time>
      </trkpt>
      <trkpt lat="46.16428" lon="2.57095">
        <ele>486</ele>
        <time>2015-10-23T12:37:47Z</time>
      </trkpt>
      <trkpt lat="46.16411" lon="2.57097">
        <ele>485</ele>
        <time>2015-10-23T12:38:03Z</time>
      </trkpt>
      <trkpt lat="46.16405" lon="2.57096">
        <ele>485</ele>
        <time>2015-10-23T12:38:07Z</time>
      </trkpt>
      <trkpt lat="46.16397" lon="2.57097">
        <ele>484</ele>
        <time>2015-10-23T12:38:11Z</time>
      </trkpt>
      <trkpt lat="46.16385" lon="2.571">
        <ele>483</ele>
        <time>2015-10-23T12:38:15Z</time>
      </trkpt>
      <trkpt lat="46.16367" lon="2.57106">
        <ele>483</ele>
        <time>2015-10-23T12:38:19Z</time>
      </trkpt>
      <trkpt lat="46.16348" lon="2.57117">
        <ele>483</ele>
        <time>2015-10-23T12:38:23Z</time>
      </trkpt>
      <trkpt lat="46.16331" lon="2.57132">
        <ele>483</ele>
        <time>2015-10-23T12:38:27Z</time>
      </trkpt>
      <trkpt lat="46.16319" lon="2.57153">
        <ele>484</ele>
        <time>2015-10-23T12:38:31Z</time>
      </trkpt>
      <trkpt lat="46.16308" lon="2.57173">
        <ele>485</ele>
        <time>2015-10-23T12:38:35Z</time>
      </trkpt>
      <trkpt lat="46.16298" lon="2.57192">
        <ele>486</ele>
        <time>2015-10-23T12:38:39Z</time>
      </trkpt>
      <trkpt lat="46.16289" lon="2.5721">
        <ele>486</ele>
        <time>2015-10-23T12:38:43Z</time>
      </trkpt>
      <trkpt lat="46.1628" lon="2.57228">
        <ele>487</ele>
        <time>2015-10-23T12:38:47Z</time>
      </trkpt>
      <trkpt lat="46.1627" lon="2.57245">
        <ele>488</ele>
        <time>2015-10-23T12:38:51Z</time>
      </trkpt>
      <trkpt lat="46.16261" lon="2.57262">
        <ele>489</ele>
        <time>2015-10-23T12:38:55Z</time>
      </trkpt>
      <trkpt lat="46.16252" lon="2.57277">
        <ele>491</ele>
        <time>2015-10-23T12:38:59Z</time>
      </trkpt>
      <trkpt lat="46.16244" lon="2.57291">
        <ele>492</ele>
        <time>2015-10-23T12:39:03Z</time>
      </trkpt>
      <trkpt lat="46.16236" lon="2.57305">
        <ele>492</ele>
        <time>2015-10-23T12:39:07Z</time>
      </trkpt>
      <trkpt lat="46.16227" lon="2.57319">
        <ele>493</ele>
        <time>2015-10-23T12:39:11Z</time>
      </trkpt>
      <trkpt lat="46.16219" lon="2.57333">
        <ele>494</ele>
        <time>2015-10-23T12:39:15Z</time>
      </trkpt>
      <trkpt lat="46.1621" lon="2.57347">
        <ele>494</ele>
        <time>2015-10-23T12:39:19Z</time>
      </trkpt>
      <trkpt lat="46.16202" lon="2.57362">
        <ele>495</ele>
        <time>2015-10-23T12:39:23Z</time>
      </trkpt>
      <trkpt lat="46.16192" lon="2.57377">
        <ele>495</ele>
        <time>2015-10-23T12:39:27Z</time>
      </trkpt>
      <trkpt lat="46.16182" lon="2.57391">
        <ele>495</ele>
        <time>2015-10-23T12:39:31Z</time>
      </trkpt>
      <trkpt lat="46.16171" lon="2.57403">
        <ele>495</ele>
        <time>2015-10-23T12:39:35Z</time>
      </trkpt>
      <trkpt lat="46.16158" lon="2.57414">
        <ele>496</ele>
        <time>2015-10-23T12:39:39Z</time>
      </trkpt>
      <trkpt lat="46.16145" lon="2.57422">
        <ele>496</ele>
        <time>2015-10-23T12:39:43Z</time>
      </trkpt>
      <trkpt lat="46.16131" lon="2.5743">
        <ele>497</ele>
        <time>2015-10-23T12:39:47Z</time>
      </trkpt>
      <trkpt lat="46.16116" lon="2.57438">
        <ele>497</ele>
        <time>2015-10-23T12:39:51Z</time>
      </trkpt>
      <trkpt lat="46.16101" lon="2.57447">
        <ele>497</ele>
        <time>2015-10-23T12:39:55Z</time>
      </trkpt>
      <trkpt lat="46.16087" lon="2.57456">
        <ele>497</ele>
        <time>2015-10-23T12:39:59Z</time>
      </trkpt>
      <trkpt lat="46.16072" lon="2.57464">
        <ele>498</ele>
        <time>2015-10-23T12:40:03Z</time>
      </trkpt>
      <trkpt lat="46.16057" lon="2.57473">
        <ele>498</ele>
        <time>2015-10-23T12:40:07Z</time>
      </trkpt>
      <trkpt lat="46.16043" lon="2.57482">
        <ele>498</ele>
        <time>2015-10-23T12:40:11Z</time>
      </trkpt>
      <trkpt lat="46.16027" lon="2.5749">
        <ele>499</ele>
        <time>2015-10-23T12:40:15Z</time>
      </trkpt>
      <trkpt lat="46.16012" lon="2.57499">
        <ele>499</ele>
        <time>2015-10-23T12:40:19Z</time>
      </trkpt>
      <trkpt lat="46.15997" lon="2.57509">
        <ele>499</ele>
        <time>2015-10-23T12:40:23Z</time>
      </trkpt>
      <trkpt lat="46.15982" lon="2.57518">
        <ele>499</ele>
        <time>2015-10-23T12:40:27Z</time>
      </trkpt>
      <trkpt lat="46.15968" lon="2.57527">
        <ele>500</ele>
        <time>2015-10-23T12:40:31Z</time>
      </trkpt>
      <trkpt lat="46.15953" lon="2.57537">
        <ele>501</ele>
        <time>2015-10-23T12:40:35Z</time>
      </trkpt>
      <trkpt lat="46.1594" lon="2.57546">
        <ele>502</ele>
        <time>2015-10-23T12:40:39Z</time>
      </trkpt>
      <trkpt lat="46.15926" lon="2.57556">
        <ele>502</ele>
        <time>2015-10-23T12:40:43Z</time>
      </trkpt>
      <trkpt lat="46.15912" lon="2.57567">
        <ele>503</ele>
        <time>2015-10-23T12:40:47Z</time>
      </trkpt>
      <trkpt lat="46.15899" lon="2.5758">
        <ele>503</ele>
        <time>2015-10-23T12:40:51Z</time>
      </trkpt>
      <trkpt lat="46.15886" lon="2.57593">
        <ele>504</ele>
        <time>2015-10-23T12:40:55Z</time>
      </trkpt>
      <trkpt lat="46.15874" lon="2.57607">
        <ele>505</ele>
        <time>2015-10-23T12:40:59Z</time>
      </trkpt>
      <trkpt lat="46.15863" lon="2.57624">
        <ele>505</ele>
        <time>2015-10-23T12:41:03Z</time>
      </trkpt>
      <trkpt lat="46.15854" lon="2.5764">
        <ele>506</ele>
        <time>2015-10-23T12:41:07Z</time>
      </trkpt>
      <trkpt lat="46.15846" lon="2.57658">
        <ele>506</ele>
        <time>2015-10-23T12:41:11Z</time>
      </trkpt>
      <trkpt lat="46.1584" lon="2.57675">
        <ele>508</ele>
        <time>2015-10-23T12:41:15Z</time>
      </trkpt>
      <trkpt lat="46.15835" lon="2.57694">
        <ele>508</ele>
        <time>2015-10-23T12:41:19Z</time>
      </trkpt>
      <trkpt lat="46.1583" lon="2.57713">
        <ele>508</ele>
        <time>2015-10-23T12:41:23Z</time>
      </trkpt>
      <trkpt lat="46.15825" lon="2.57733">
        <ele>508</ele>
        <time>2015-10-23T12:41:27Z</time>
      </trkpt>
      <trkpt lat="46.15821" lon="2.57753">
        <ele>509</ele>
        <time>2015-10-23T12:41:31Z</time>
      </trkpt>
      <trkpt lat="46.15816" lon="2.57772">
        <ele>510</ele>
        <time>2015-10-23T12:41:35Z</time>
      </trkpt>
      <trkpt lat="46.15815" lon="2.57791">
        <ele>510</ele>
        <time>2015-10-23T12:41:39Z</time>
      </trkpt>
      <trkpt lat="46.15816" lon="2.57811">
        <ele>511</ele>
        <time>2015-10-23T12:41:43Z</time>
      </trkpt>
      <trkpt lat="46.15819" lon="2.5783">
        <ele>511</ele>
        <time>2015-10-23T12:41:47Z</time>
      </trkpt>
      <trkpt lat="46.15823" lon="2.5785">
        <ele>511</ele>
        <time>2015-10-23T12:41:51Z</time>
      </trkpt>
      <trkpt lat="46.15827" lon="2.57871">
        <ele>512</ele>
        <time>2015-10-23T12:41:55Z</time>
      </trkpt>
      <trkpt lat="46.1583" lon="2.57892">
        <ele>512</ele>
        <time>2015-10-23T12:41:59Z</time>
      </trkpt>
      <trkpt lat="46.15831" lon="2.57913">
        <ele>513</ele>
        <time>2015-10-23T12:42:03Z</time>
      </trkpt>
      <trkpt lat="46.15831" lon="2.57934">
        <ele>513</ele>
        <time>2015-10-23T12:42:07Z</time>
      </trkpt>
      <trkpt lat="46.15831" lon="2.57955">
        <ele>514</ele>
        <time>2015-10-23T12:42:11Z</time>
      </trkpt>
      <trkpt lat="46.15831" lon="2.57977">
        <ele>514</ele>
        <time>2015-10-23T12:42:15Z</time>
      </trkpt>
      <trkpt lat="46.15831" lon="2.57998">
        <ele>515</ele>
        <time>2015-10-23T12:42:19Z</time>
      </trkpt>
      <trkpt lat="46.15831" lon="2.58019">
        <ele>515</ele>
        <time>2015-10-23T12:42:23Z</time>
      </trkpt>
      <trkpt lat="46.15831" lon="2.58041">
        <ele>516</ele>
        <time>2015-10-23T12:42:27Z</time>
      </trkpt>
      <trkpt lat="46.15831" lon="2.58063">
        <ele>516</ele>
        <time>2015-10-23T12:42:31Z</time>
      </trkpt>
      <trkpt lat="46.15831" lon="2.58084">
        <ele>516</ele>
        <time>2015-10-23T12:42:35Z</time>
      </trkpt>
      <trkpt lat="46.15831" lon="2.58106">
        <ele>517</ele>
        <time>2015-10-23T12:42:39Z</time>
      </trkpt>
      <trkpt lat="46.15831" lon="2.58127">
        <ele>518</ele>
        <time>2015-10-23T12:42:43Z</time>
      </trkpt>
      <trkpt lat="46.15831" lon="2.58148">
        <ele>519</ele>
        <time>2015-10-23T12:42:47Z</time>
      </trkpt>
      <trkpt lat="46.15832" lon="2.58169">
        <ele>520</ele>
        <time>2015-10-23T12:42:51Z</time>
      </trkpt>
      <trkpt lat="46.15833" lon="2.5819">
        <ele>520</ele>
        <time>2015-10-23T12:42:55Z</time>
      </trkpt>
      <trkpt lat="46.15835" lon="2.58211">
        <ele>521</ele>
        <time>2015-10-23T12:42:59Z</time>
      </trkpt>
      <trkpt lat="46.15838" lon="2.58233">
        <ele>521</ele>
        <time>2015-10-23T12:43:03Z</time>
      </trkpt>
      <trkpt lat="46.1584" lon="2.58257">
        <ele>521</ele>
        <time>2015-10-23T12:43:07Z</time>
      </trkpt>
      <trkpt lat="46.15842" lon="2.58281">
        <ele>521</ele>
        <time>2015-10-23T12:43:11Z</time>
      </trkpt>
      <trkpt lat="46.15843" lon="2.58306">
        <ele>521</ele>
        <time>2015-10-23T12:43:15Z</time>
      </trkpt>
      <trkpt lat="46.15841" lon="2.5833">
        <ele>521</ele>
        <time>2015-10-23T12:43:19Z</time>
      </trkpt>
      <trkpt lat="46.15839" lon="2.58354">
        <ele>521</ele>
        <time>2015-10-23T12:43:23Z</time>
      </trkpt>
      <trkpt lat="46.15837" lon="2.58378">
        <ele>522</ele>
        <time>2015-10-23T12:43:27Z</time>
      </trkpt>
      <trkpt lat="46.15833" lon="2.58401">
        <ele>522</ele>
        <time>2015-10-23T12:43:31Z</time>
      </trkpt>
      <trkpt lat="46.15829" lon="2.58423">
        <ele>522</ele>
        <time>2015-10-23T12:43:35Z</time>
      </trkpt>
      <trkpt lat="46.15825" lon="2.58445">
        <ele>523</ele>
        <time>2015-10-23T12:43:39Z</time>
      </trkpt>
      <trkpt lat="46.1582" lon="2.58466">
        <ele>523</ele>
        <time>2015-10-23T12:43:43Z</time>
      </trkpt>
      <trkpt lat="46.15815" lon="2.58487">
        <ele>524</ele>
        <time>2015-10-23T12:43:47Z</time>
      </trkpt>
      <trkpt lat="46.1581" lon="2.58509">
        <ele>524</ele>
        <time>2015-10-23T12:43:51Z</time>
      </trkpt>
      <trkpt lat="46.15807" lon="2.58531">
        <ele>524</ele>
        <time>2015-10-23T12:43:55Z</time>
      </trkpt>
      <trkpt lat="46.15804" lon="2.58553">
        <ele>524</ele>
        <time>2015-10-23T12:43:59Z</time>
      </trkpt>
      <trkpt lat="46.158" lon="2.58576">
        <ele>525</ele>
        <time>2015-10-23T12:44:03Z</time>
      </trkpt>
      <trkpt lat="46.15796" lon="2.58598">
        <ele>525</ele>
        <time>2015-10-23T12:44:07Z</time>
      </trkpt>
      <trkpt lat="46.15791" lon="2.58619">
        <ele>525</ele>
        <time>2015-10-23T12:44:11Z</time>
      </trkpt>
      <trkpt lat="46.15786" lon="2.58641">
        <ele>525</ele>
        <time>2015-10-23T12:44:15Z</time>
      </trkpt>
      <trkpt lat="46.1578" lon="2.58663">
        <ele>525</ele>
        <time>2015-10-23T12:44:19Z</time>
      </trkpt>
      <trkpt lat="46.15776" lon="2.58685">
        <ele>525</ele>
        <time>2015-10-23T12:44:23Z</time>
      </trkpt>
      <trkpt lat="46.15771" lon="2.58706">
        <ele>526</ele>
        <time>2015-10-23T12:44:27Z</time>
      </trkpt>
      <trkpt lat="46.15766" lon="2.58727">
        <ele>526</ele>
        <time>2015-10-23T12:44:31Z</time>
      </trkpt>
      <trkpt lat="46.1576" lon="2.58751">
        <ele>526</ele>
        <time>2015-10-23T12:44:35Z</time>
      </trkpt>
      <trkpt lat="46.15749" lon="2.58761">
        <ele>525</ele>
        <time>2015-10-23T12:44:39Z</time>
      </trkpt>
      <trkpt lat="46.15733" lon="2.58759">
        <ele>525</ele>
        <time>2015-10-23T12:44:43Z</time>
      </trkpt>
      <trkpt lat="46.15716" lon="2.5875">
        <ele>525</ele>
        <time>2015-10-23T12:44:47Z</time>
      </trkpt>
      <trkpt lat="46.157" lon="2.58748">
        <ele>526</ele>
        <time>2015-10-23T12:44:51Z</time>
      </trkpt>
      <trkpt lat="46.15683" lon="2.58747">
        <ele>526</ele>
        <time>2015-10-23T12:44:55Z</time>
      </trkpt>
      <trkpt lat="46.15666" lon="2.58743">
        <ele>527</ele>
        <time>2015-10-23T12:44:59Z</time>
      </trkpt>
      <trkpt lat="46.15649" lon="2.5874">
        <ele>527</ele>
        <time>2015-10-23T12:45:03Z</time>
      </trkpt>
      <trkpt lat="46.15627" lon="2.58735">
        <ele>527</ele>
        <time>2015-10-23T12:45:07Z</time>
      </trkpt>
      <trkpt lat="46.15608" lon="2.58725">
        <ele>527</ele>
        <time>2015-10-23T12:45:11Z</time>
      </trkpt>
      <trkpt lat="46.15587" lon="2.58719">
        <ele>527</ele>
        <time>2015-10-23T12:45:15Z</time>
      </trkpt>
      <trkpt lat="46.15567" lon="2.58712">
        <ele>528</ele>
        <time>2015-10-23T12:45:19Z</time>
      </trkpt>
      <trkpt lat="46.15552" lon="2.58708">
        <ele>528</ele>
        <time>2015-10-23T12:45:23Z</time>
      </trkpt>
      <trkpt lat="46.15532" lon="2.58702">
        <ele>529</ele>
        <time>2015-10-23T12:45:27Z</time>
      </trkpt>
      <trkpt lat="46.15516" lon="2.58701">
        <ele>529</ele>
        <time>2015-10-23T12:45:31Z</time>
      </trkpt>
      <trkpt lat="46.15499" lon="2.58697">
        <ele>529</ele>
        <time>2015-10-23T12:45:35Z</time>
      </trkpt>
      <trkpt lat="46.15481" lon="2.58698">
        <ele>530</ele>
        <time>2015-10-23T12:45:39Z</time>
      </trkpt>
      <trkpt lat="46.15464" lon="2.58698">
        <ele>530</ele>
        <time>2015-10-23T12:45:43Z</time>
      </trkpt>
      <trkpt lat="46.15447" lon="2.58696">
        <ele>531</ele>
        <time>2015-10-23T12:45:47Z</time>
      </trkpt>
      <trkpt lat="46.1543" lon="2.58698">
        <ele>532</ele>
        <time>2015-10-23T12:45:51Z</time>
      </trkpt>
      <trkpt lat="46.15412" lon="2.58698">
        <ele>532</ele>
        <time>2015-10-23T12:45:55Z</time>
      </trkpt>
      <trkpt lat="46.15393" lon="2.58698">
        <ele>533</ele>
        <time>2015-10-23T12:45:59Z</time>
      </trkpt>
      <trkpt lat="46.15378" lon="2.58701">
        <ele>533</ele>
        <time>2015-10-23T12:46:03Z</time>
      </trkpt>
      <trkpt lat="46.1536" lon="2.58695">
        <ele>533</ele>
        <time>2015-10-23T12:46:07Z</time>
      </trkpt>
      <trkpt lat="46.15346" lon="2.58688">
        <ele>533</ele>
        <time>2015-10-23T12:46:11Z</time>
      </trkpt>
      <trkpt lat="46.15331" lon="2.58686">
        <ele>534</ele>
        <time>2015-10-23T12:46:15Z</time>
      </trkpt>
      <trkpt lat="46.15316" lon="2.58682">
        <ele>534</ele>
        <time>2015-10-23T12:46:19Z</time>
      </trkpt>
      <trkpt lat="46.15298" lon="2.58677">
        <ele>534</ele>
        <time>2015-10-23T12:46:23Z</time>
      </trkpt>
      <trkpt lat="46.15282" lon="2.58671">
        <ele>533</ele>
        <time>2015-10-23T12:46:27Z</time>
      </trkpt>
      <trkpt lat="46.15264" lon="2.5866">
        <ele>533</ele>
        <time>2015-10-23T12:46:31Z</time>
      </trkpt>
      <trkpt lat="46.15253" lon="2.58646">
        <ele>533</ele>
        <time>2015-10-23T12:46:35Z</time>
      </trkpt>
      <trkpt lat="46.15236" lon="2.58623">
        <ele>532</ele>
        <time>2015-10-23T12:46:39Z</time>
      </trkpt>
      <trkpt lat="46.15219" lon="2.5861">
        <ele>531</ele>
        <time>2015-10-23T12:46:43Z</time>
      </trkpt>
      <trkpt lat="46.15202" lon="2.58596">
        <ele>532</ele>
        <time>2015-10-23T12:46:47Z</time>
      </trkpt>
      <trkpt lat="46.15189" lon="2.58594">
        <ele>531</ele>
        <time>2015-10-23T12:46:51Z</time>
      </trkpt>
      <trkpt lat="46.15175" lon="2.58594">
        <ele>532</ele>
        <time>2015-10-23T12:46:55Z</time>
      </trkpt>
      <trkpt lat="46.1516" lon="2.58585">
        <ele>532</ele>
        <time>2015-10-23T12:46:59Z</time>
      </trkpt>
      <trkpt lat="46.1515" lon="2.58571">
        <ele>532</ele>
        <time>2015-10-23T12:47:03Z</time>
      </trkpt>
      <trkpt lat="46.15137" lon="2.58553">
        <ele>532</ele>
        <time>2015-10-23T12:47:07Z</time>
      </trkpt>
      <trkpt lat="46.15123" lon="2.58537">
        <ele>531</ele>
        <time>2015-10-23T12:47:11Z</time>
      </trkpt>
      <trkpt lat="46.1511" lon="2.58524">
        <ele>531</ele>
        <time>2015-10-23T12:47:15Z</time>
      </trkpt>
      <trkpt lat="46.15096" lon="2.58506">
        <ele>531</ele>
        <time>2015-10-23T12:47:19Z</time>
      </trkpt>
      <trkpt lat="46.15081" lon="2.58487">
        <ele>531</ele>
        <time>2015-10-23T12:47:23Z</time>
      </trkpt>
      <trkpt lat="46.15069" lon="2.58476">
        <ele>532</ele>
        <time>2015-10-23T12:47:27Z</time>
      </trkpt>
      <trkpt lat="46.15055" lon="2.58462">
        <ele>532</ele>
        <time>2015-10-23T12:47:31Z</time>
      </trkpt>
      <trkpt lat="46.15042" lon="2.58448">
        <ele>532</ele>
        <time>2015-10-23T12:47:35Z</time>
      </trkpt>
      <trkpt lat="46.15026" lon="2.58434">
        <ele>532</ele>
        <time>2015-10-23T12:47:39Z</time>
      </trkpt>
      <trkpt lat="46.15011" lon="2.58418">
        <ele>531</ele>
        <time>2015-10-23T12:47:43Z</time>
      </trkpt>
      <trkpt lat="46.14993" lon="2.58405">
        <ele>531</ele>
        <time>2015-10-23T12:47:47Z</time>
      </trkpt>
      <trkpt lat="46.14977" lon="2.58389">
        <ele>531</ele>
        <time>2015-10-23T12:47:51Z</time>
      </trkpt>
      <trkpt lat="46.14962" lon="2.58378">
        <ele>531</ele>
        <time>2015-10-23T12:47:55Z</time>
      </trkpt>
      <trkpt lat="46.14944" lon="2.58367">
        <ele>530</ele>
        <time>2015-10-23T12:47:59Z</time>
      </trkpt>
      <trkpt lat="46.14929" lon="2.58353">
        <ele>529</ele>
        <time>2015-10-23T12:48:03Z</time>
      </trkpt>
      <trkpt lat="46.14914" lon="2.58348">
        <ele>529</ele>
        <time>2015-10-23T12:48:07Z</time>
      </trkpt>
      <trkpt lat="46.14901" lon="2.5836">
        <ele>529</ele>
        <time>2015-10-23T12:48:11Z</time>
      </trkpt>
      <trkpt lat="46.14888" lon="2.58368">
        <ele>530</ele>
        <time>2015-10-23T12:48:15Z</time>
      </trkpt>
      <trkpt lat="46.14876" lon="2.58374">
        <ele>530</ele>
        <time>2015-10-23T12:48:19Z</time>
      </trkpt>
      <trkpt lat="46.14865" lon="2.58382">
        <ele>531</ele>
        <time>2015-10-23T12:48:23Z</time>
      </trkpt>
      <trkpt lat="46.14857" lon="2.58392">
        <ele>531</ele>
        <time>2015-10-23T12:48:27Z</time>
      </trkpt>
      <trkpt lat="46.14849" lon="2.58401">
        <ele>532</ele>
        <time>2015-10-23T12:48:31Z</time>
      </trkpt>
      <trkpt lat="46.14834" lon="2.58413">
        <ele>531</ele>
        <time>2015-10-23T12:48:35Z</time>
      </trkpt>
      <trkpt lat="46.14818" lon="2.58425">
        <ele>530</ele>
        <time>2015-10-23T12:48:39Z</time>
      </trkpt>
      <trkpt lat="46.14808" lon="2.58442">
        <ele>531</ele>
        <time>2015-10-23T12:48:43Z</time>
      </trkpt>
      <trkpt lat="46.1479" lon="2.58458">
        <ele>531</ele>
        <time>2015-10-23T12:48:47Z</time>
      </trkpt>
      <trkpt lat="46.14778" lon="2.58461">
        <ele>531</ele>
        <time>2015-10-23T12:48:51Z</time>
      </trkpt>
      <trkpt lat="46.1476" lon="2.58473">
        <ele>531</ele>
        <time>2015-10-23T12:48:55Z</time>
      </trkpt>
      <trkpt lat="46.14748" lon="2.58493">
        <ele>531</ele>
        <time>2015-10-23T12:48:59Z</time>
      </trkpt>
      <trkpt lat="46.14739" lon="2.58511">
        <ele>531</ele>
        <time>2015-10-23T12:49:03Z</time>
      </trkpt>
      <trkpt lat="46.14734" lon="2.58531">
        <ele>532</ele>
        <time>2015-10-23T12:49:07Z</time>
      </trkpt>
      <trkpt lat="46.1473" lon="2.58554">
        <ele>532</ele>
        <time>2015-10-23T12:49:11Z</time>
      </trkpt>
      <trkpt lat="46.14725" lon="2.58574">
        <ele>532</ele>
        <time>2015-10-23T12:49:15Z</time>
      </trkpt>
      <trkpt lat="46.14723" lon="2.58591">
        <ele>534</ele>
        <time>2015-10-23T12:49:19Z</time>
      </trkpt>
      <trkpt lat="46.14718" lon="2.58611">
        <ele>534</ele>
        <time>2015-10-23T12:49:23Z</time>
      </trkpt>
      <trkpt lat="46.14713" lon="2.58632">
        <ele>535</ele>
        <time>2015-10-23T12:49:27Z</time>
      </trkpt>
      <trkpt lat="46.14708" lon="2.58652">
        <ele>535</ele>
        <time>2015-10-23T12:49:31Z</time>
      </trkpt>
      <trkpt lat="46.14703" lon="2.58671">
        <ele>536</ele>
        <time>2015-10-23T12:49:35Z</time>
      </trkpt>
      <trkpt lat="46.14695" lon="2.58683">
        <ele>537</ele>
        <time>2015-10-23T12:49:39Z</time>
      </trkpt>
      <trkpt lat="46.14687" lon="2.58699">
        <ele>537</ele>
        <time>2015-10-23T12:49:43Z</time>
      </trkpt>
      <trkpt lat="46.14679" lon="2.58714">
        <ele>538</ele>
        <time>2015-10-23T12:49:47Z</time>
      </trkpt>
      <trkpt lat="46.14668" lon="2.58729">
        <ele>538</ele>
        <time>2015-10-23T12:49:51Z</time>
      </trkpt>
      <trkpt lat="46.14657" lon="2.58743">
        <ele>539</ele>
        <time>2015-10-23T12:49:55Z</time>
      </trkpt>
      <trkpt lat="46.14646" lon="2.58758">
        <ele>539</ele>
        <time>2015-10-23T12:49:59Z</time>
      </trkpt>
      <trkpt lat="46.14636" lon="2.58773">
        <ele>540</ele>
        <time>2015-10-23T12:50:03Z</time>
      </trkpt>
      <trkpt lat="46.14625" lon="2.58785">
        <ele>541</ele>
        <time>2015-10-23T12:50:07Z</time>
      </trkpt>
      <trkpt lat="46.14614" lon="2.58798">
        <ele>542</ele>
        <time>2015-10-23T12:50:11Z</time>
      </trkpt>
      <trkpt lat="46.14607" lon="2.58814">
        <ele>542</ele>
        <time>2015-10-23T12:50:15Z</time>
      </trkpt>
      <trkpt lat="46.14599" lon="2.58829">
        <ele>542</ele>
        <time>2015-10-23T12:50:19Z</time>
      </trkpt>
      <trkpt lat="46.14588" lon="2.58836">
        <ele>542</ele>
        <time>2015-10-23T12:50:23Z</time>
      </trkpt>
      <trkpt lat="46.14577" lon="2.58844">
        <ele>542</ele>
        <time>2015-10-23T12:50:27Z</time>
      </trkpt>
      <trkpt lat="46.14571" lon="2.58859">
        <ele>541</ele>
        <time>2015-10-23T12:50:31Z</time>
      </trkpt>
      <trkpt lat="46.14562" lon="2.58869">
        <ele>541</ele>
        <time>2015-10-23T12:50:35Z</time>
      </trkpt>
      <trkpt lat="46.14551" lon="2.58877">
        <ele>541</ele>
        <time>2015-10-23T12:50:39Z</time>
      </trkpt>
      <trkpt lat="46.14536" lon="2.58887">
        <ele>541</ele>
        <time>2015-10-23T12:50:43Z</time>
      </trkpt>
      <trkpt lat="46.14525" lon="2.58899">
        <ele>541</ele>
        <time>2015-10-23T12:50:47Z</time>
      </trkpt>
      <trkpt lat="46.14522" lon="2.58917">
        <ele>543</ele>
        <time>2015-10-23T12:50:51Z</time>
      </trkpt>
      <trkpt lat="46.1452" lon="2.5894">
        <ele>544</ele>
        <time>2015-10-23T12:50:55Z</time>
      </trkpt>
      <trkpt lat="46.14518" lon="2.5896">
        <ele>544</ele>
        <time>2015-10-23T12:50:59Z</time>
      </trkpt>
      <trkpt lat="46.14514" lon="2.58976">
        <ele>545</ele>
        <time>2015-10-23T12:51:03Z</time>
      </trkpt>
      <trkpt lat="46.14508" lon="2.58994">
        <ele>545</ele>
        <time>2015-10-23T12:51:07Z</time>
      </trkpt>
      <trkpt lat="46.14507" lon="2.59014">
        <ele>546</ele>
        <time>2015-10-23T12:51:11Z</time>
      </trkpt>
      <trkpt lat="46.14503" lon="2.59035">
        <ele>546</ele>
        <time>2015-10-23T12:51:15Z</time>
      </trkpt>
      <trkpt lat="46.14499" lon="2.59056">
        <ele>547</ele>
        <time>2015-10-23T12:51:19Z</time>
      </trkpt>
      <trkpt lat="46.14489" lon="2.59077">
        <ele>547</ele>
        <time>2015-10-23T12:51:23Z</time>
      </trkpt>
      <trkpt lat="46.1448" lon="2.59094">
        <ele>547</ele>
        <time>2015-10-23T12:51:27Z</time>
      </trkpt>
      <trkpt lat="46.1447" lon="2.59109">
        <ele>547</ele>
        <time>2015-10-23T12:51:31Z</time>
      </trkpt>
      <trkpt lat="46.14461" lon="2.59131">
        <ele>547</ele>
        <time>2015-10-23T12:51:35Z</time>
      </trkpt>
      <trkpt lat="46.14452" lon="2.59147">
        <ele>547</ele>
        <time>2015-10-23T12:51:39Z</time>
      </trkpt>
      <trkpt lat="46.14454" lon="2.59166">
        <ele>548</ele>
        <time>2015-10-23T12:51:43Z</time>
      </trkpt>
      <trkpt lat="46.1446" lon="2.59182">
        <ele>548</ele>
        <time>2015-10-23T12:51:47Z</time>
      </trkpt>
      <trkpt lat="46.14465" lon="2.59199">
        <ele>549</ele>
        <time>2015-10-23T12:51:51Z</time>
      </trkpt>
      <trkpt lat="46.14472" lon="2.59223">
        <ele>549</ele>
        <time>2015-10-23T12:51:55Z</time>
      </trkpt>
      <trkpt lat="46.14478" lon="2.59245">
        <ele>550</ele>
        <time>2015-10-23T12:51:59Z</time>
      </trkpt>
      <trkpt lat="46.14491" lon="2.5926">
        <ele>550</ele>
        <time>2015-10-23T12:52:03Z</time>
      </trkpt>
      <trkpt lat="46.145" lon="2.59278">
        <ele>551</ele>
        <time>2015-10-23T12:52:07Z</time>
      </trkpt>
      <trkpt lat="46.14508" lon="2.5929">
        <ele>552</ele>
        <time>2015-10-23T12:52:11Z</time>
      </trkpt>
      <trkpt lat="46.14517" lon="2.59303">
        <ele>553</ele>
        <time>2015-10-23T12:52:15Z</time>
      </trkpt>
      <trkpt lat="46.14528" lon="2.59316">
        <ele>553</ele>
        <time>2015-10-23T12:52:19Z</time>
      </trkpt>
      <trkpt lat="46.14537" lon="2.59329">
        <ele>554</ele>
        <time>2015-10-23T12:52:23Z</time>
      </trkpt>
      <trkpt lat="46.14546" lon="2.59346">
        <ele>554</ele>
        <time>2015-10-23T12:52:27Z</time>
      </trkpt>
      <trkpt lat="46.14557" lon="2.59358">
        <ele>554</ele>
        <time>2015-10-23T12:52:31Z</time>
      </trkpt>
      <trkpt lat="46.14564" lon="2.59375">
        <ele>555</ele>
        <time>2015-10-23T12:52:35Z</time>
      </trkpt>
      <trkpt lat="46.1457" lon="2.59392">
        <ele>555</ele>
        <time>2015-10-23T12:52:39Z</time>
      </trkpt>
      <trkpt lat="46.1458" lon="2.59407">
        <ele>556</ele>
        <time>2015-10-23T12:52:43Z</time>
      </trkpt>
      <trkpt lat="46.14587" lon="2.59428">
        <ele>555</ele>
        <time>2015-10-23T12:52:47Z</time>
      </trkpt>
      <trkpt lat="46.14595" lon="2.59446">
        <ele>555</ele>
        <time>2015-10-23T12:52:51Z</time>
      </trkpt>
      <trkpt lat="46.146" lon="2.59469">
        <ele>556</ele>
        <time>2015-10-23T12:52:55Z</time>
      </trkpt>
      <trkpt lat="46.14606" lon="2.5949">
        <ele>556</ele>
        <time>2015-10-23T12:52:59Z</time>
      </trkpt>
      <trkpt lat="46.14611" lon="2.59511">
        <ele>556</ele>
        <time>2015-10-23T12:53:03Z</time>
      </trkpt>
      <trkpt lat="46.14619" lon="2.59529">
        <ele>555</ele>
        <time>2015-10-23T12:53:07Z</time>
      </trkpt>
      <trkpt lat="46.14627" lon="2.5955">
        <ele>555</ele>
        <time>2015-10-23T12:53:11Z</time>
      </trkpt>
      <trkpt lat="46.14634" lon="2.59571">
        <ele>555</ele>
        <time>2015-10-23T12:53:15Z</time>
      </trkpt>
      <trkpt lat="46.14641" lon="2.59592">
        <ele>555</ele>
        <time>2015-10-23T12:53:19Z</time>
      </trkpt>
      <trkpt lat="46.1465" lon="2.59613">
        <ele>555</ele>
        <time>2015-10-23T12:53:23Z</time>
      </trkpt>
      <trkpt lat="46.14655" lon="2.59634">
        <ele>555</ele>
        <time>2015-10-23T12:53:27Z</time>
      </trkpt>
      <trkpt lat="46.14666" lon="2.59657">
        <ele>554</ele>
        <time>2015-10-23T12:53:31Z</time>
      </trkpt>
      <trkpt lat="46.14679" lon="2.59676">
        <ele>552</ele>
        <time>2015-10-23T12:53:35Z</time>
      </trkpt>
      <trkpt lat="46.14693" lon="2.59701">
        <ele>551</ele>
        <time>2015-10-23T12:53:39Z</time>
      </trkpt>
      <trkpt lat="46.14708" lon="2.59726">
        <ele>550</ele>
        <time>2015-10-23T12:53:43Z</time>
      </trkpt>
      <trkpt lat="46.14726" lon="2.59748">
        <ele>550</ele>
        <time>2015-10-23T12:53:47Z</time>
      </trkpt>
      <trkpt lat="46.14744" lon="2.59771">
        <ele>549</ele>
        <time>2015-10-23T12:53:51Z</time>
      </trkpt>
      <trkpt lat="46.1476" lon="2.5979">
        <ele>549</ele>
        <time>2015-10-23T12:53:55Z</time>
      </trkpt>
      <trkpt lat="46.14766" lon="2.59812">
        <ele>549</ele>
        <time>2015-10-23T12:53:59Z</time>
      </trkpt>
      <trkpt lat="46.14779" lon="2.5983">
        <ele>549</ele>
        <time>2015-10-23T12:54:03Z</time>
      </trkpt>
      <trkpt lat="46.14788" lon="2.59851">
        <ele>548</ele>
        <time>2015-10-23T12:54:07Z</time>
      </trkpt>
      <trkpt lat="46.14792" lon="2.59878">
        <ele>548</ele>
        <time>2015-10-23T12:54:11Z</time>
      </trkpt>
      <trkpt lat="46.14796" lon="2.59906">
        <ele>549</ele>
        <time>2015-10-23T12:54:15Z</time>
      </trkpt>
      <trkpt lat="46.14806" lon="2.59926">
        <ele>549</ele>
        <time>2015-10-23T12:54:19Z</time>
      </trkpt>
      <trkpt lat="46.14819" lon="2.59954">
        <ele>549</ele>
        <time>2015-10-23T12:54:23Z</time>
      </trkpt>
      <trkpt lat="46.14831" lon="2.59979">
        <ele>548</ele>
        <time>2015-10-23T12:54:27Z</time>
      </trkpt>
      <trkpt lat="46.14841" lon="2.59996">
        <ele>548</ele>
        <time>2015-10-23T12:54:31Z</time>
      </trkpt>
      <trkpt lat="46.14856" lon="2.60013">
        <ele>548</ele>
        <time>2015-10-23T12:54:35Z</time>
      </trkpt>
      <trkpt lat="46.14871" lon="2.60032">
        <ele>547</ele>
        <time>2015-10-23T12:54:39Z</time>
      </trkpt>
      <trkpt lat="46.14886" lon="2.60042">
        <ele>545</ele>
        <time>2015-10-23T12:54:43Z</time>
      </trkpt>
      <trkpt lat="46.14893" lon="2.60065">
        <ele>544</ele>
        <time>2015-10-23T12:54:47Z</time>
      </trkpt>
      <trkpt lat="46.14894" lon="2.60094">
        <ele>544</ele>
        <time>2015-10-23T12:54:51Z</time>
      </trkpt>
      <trkpt lat="46.149" lon="2.60118">
        <ele>543</ele>
        <time>2015-10-23T12:54:55Z</time>
      </trkpt>
      <trkpt lat="46.14906" lon="2.60139">
        <ele>543</ele>
        <time>2015-10-23T12:54:59Z</time>
      </trkpt>
      <trkpt lat="46.14917" lon="2.60161">
        <ele>541</ele>
        <time>2015-10-23T12:55:03Z</time>
      </trkpt>
      <trkpt lat="46.14924" lon="2.60187">
        <ele>539</ele>
        <time>2015-10-23T12:55:07Z</time>
      </trkpt>
      <trkpt lat="46.14927" lon="2.60215">
        <ele>537</ele>
        <time>2015-10-23T12:55:11Z</time>
      </trkpt>
      <trkpt lat="46.14931" lon="2.60249">
        <ele>534</ele>
        <time>2015-10-23T12:55:15Z</time>
      </trkpt>
      <trkpt lat="46.14941" lon="2.60283">
        <ele>531</ele>
        <time>2015-10-23T12:55:19Z</time>
      </trkpt>
      <trkpt lat="46.14954" lon="2.60314">
        <ele>528</ele>
        <time>2015-10-23T12:55:23Z</time>
      </trkpt>
      <trkpt lat="46.14963" lon="2.60353">
        <ele>527</ele>
        <time>2015-10-23T12:55:27Z</time>
      </trkpt>
      <trkpt lat="46.1498" lon="2.60386">
        <ele>525</ele>
        <time>2015-10-23T12:55:31Z</time>
      </trkpt>
      <trkpt lat="46.14995" lon="2.60413">
        <ele>526</ele>
        <time>2015-10-23T12:55:35Z</time>
      </trkpt>
      <trkpt lat="46.15007" lon="2.60436">
        <ele>526</ele>
        <time>2015-10-23T12:55:39Z</time>
      </trkpt>
      <trkpt lat="46.15023" lon="2.60461">
        <ele>527</ele>
        <time>2015-10-23T12:55:43Z</time>
      </trkpt>
      <trkpt lat="46.15027" lon="2.60472">
        <ele>528</ele>
        <time>2015-10-23T12:55:47Z</time>
      </trkpt>
      <trkpt lat="46.15029" lon="2.60492">
        <ele>529</ele>
        <time>2015-10-23T12:55:51Z</time>
      </trkpt>
      <trkpt lat="46.15033" lon="2.60514">
        <ele>529</ele>
        <time>2015-10-23T12:55:55Z</time>
      </trkpt>
      <trkpt lat="46.15044" lon="2.60533">
        <ele>530</ele>
        <time>2015-10-23T12:55:59Z</time>
      </trkpt>
      <trkpt lat="46.15047" lon="2.60551">
        <ele>529</ele>
        <time>2015-10-23T12:56:03Z</time>
      </trkpt>
      <trkpt lat="46.15057" lon="2.6058">
        <ele>528</ele>
        <time>2015-10-23T12:56:07Z</time>
      </trkpt>
      <trkpt lat="46.15066" lon="2.60599">
        <ele>526</ele>
        <time>2015-10-23T12:56:11Z</time>
      </trkpt>
      <trkpt lat="46.1508" lon="2.60634">
        <ele>525</ele>
        <time>2015-10-23T12:56:15Z</time>
      </trkpt>
      <trkpt lat="46.15094" lon="2.60665">
        <ele>523</ele>
        <time>2015-10-23T12:56:19Z</time>
      </trkpt>
      <trkpt lat="46.15104" lon="2.60695">
        <ele>521</ele>
        <time>2015-10-23T12:56:23Z</time>
      </trkpt>
      <trkpt lat="46.15109" lon="2.60726">
        <ele>520</ele>
        <time>2015-10-23T12:56:27Z</time>
      </trkpt>
      <trkpt lat="46.15113" lon="2.6076">
        <ele>519</ele>
        <time>2015-10-23T12:56:31Z</time>
      </trkpt>
      <trkpt lat="46.15106" lon="2.6079">
        <ele>518</ele>
        <time>2015-10-23T12:56:35Z</time>
      </trkpt>
      <trkpt lat="46.15102" lon="2.60822">
        <ele>518</ele>
        <time>2015-10-23T12:56:39Z</time>
      </trkpt>
      <trkpt lat="46.1511" lon="2.60844">
        <ele>518</ele>
        <time>2015-10-23T12:56:43Z</time>
      </trkpt>
      <trkpt lat="46.15121" lon="2.60862">
        <ele>518</ele>
        <time>2015-10-23T12:56:47Z</time>
      </trkpt>
      <trkpt lat="46.15135" lon="2.60872">
        <ele>519</ele>
        <time>2015-10-23T12:56:51Z</time>
      </trkpt>
      <trkpt lat="46.15149" lon="2.6087">
        <ele>520</ele>
        <time>2015-10-23T12:56:55Z</time>
      </trkpt>
      <trkpt lat="46.15164" lon="2.60874">
        <ele>520</ele>
        <time>2015-10-23T12:56:59Z</time>
      </trkpt>
      <trkpt lat="46.15176" lon="2.60868">
        <ele>521</ele>
        <time>2015-10-23T12:57:03Z</time>
      </trkpt>
      <trkpt lat="46.15187" lon="2.60873">
        <ele>523</ele>
        <time>2015-10-23T12:57:07Z</time>
      </trkpt>
      <trkpt lat="46.15203" lon="2.60878">
        <ele>524</ele>
        <time>2015-10-23T12:57:11Z</time>
      </trkpt>
      <trkpt lat="46.15215" lon="2.60889">
        <ele>525</ele>
        <time>2015-10-23T12:57:15Z</time>
      </trkpt>
      <trkpt lat="46.15226" lon="2.60892">
        <ele>526</ele>
        <time>2015-10-23T12:57:19Z</time>
      </trkpt>
      <trkpt lat="46.15234" lon="2.60897">
        <ele>527</ele>
        <time>2015-10-23T12:57:23Z</time>
      </trkpt>
      <trkpt lat="46.15247" lon="2.60906">
        <ele>527</ele>
        <time>2015-10-23T12:57:27Z</time>
      </trkpt>
      <trkpt lat="46.15257" lon="2.60916">
        <ele>527</ele>
        <time>2015-10-23T12:57:31Z</time>
      </trkpt>
      <trkpt lat="46.15259" lon="2.60928">
        <ele>528</ele>
        <time>2015-10-23T12:57:35Z</time>
      </trkpt>
      <trkpt lat="46.15251" lon="2.60937">
        <ele>528</ele>
        <time>2015-10-23T12:57:39Z</time>
      </trkpt>
      <trkpt lat="46.15242" lon="2.60947">
        <ele>528</ele>
        <time>2015-10-23T12:57:43Z</time>
      </trkpt>
      <trkpt lat="46.15228" lon="2.60953">
        <ele>529</ele>
        <time>2015-10-23T12:57:47Z</time>
      </trkpt>
      <trkpt lat="46.1522" lon="2.60962">
        <ele>529</ele>
        <time>2015-10-23T12:57:51Z</time>
      </trkpt>
      <trkpt lat="46.15208" lon="2.60968">
        <ele>529</ele>
        <time>2015-10-23T12:57:55Z</time>
      </trkpt>
      <trkpt lat="46.15195" lon="2.60976">
        <ele>530</ele>
        <time>2015-10-23T12:57:59Z</time>
      </trkpt>
      <trkpt lat="46.15183" lon="2.60983">
        <ele>531</ele>
        <time>2015-10-23T12:58:03Z</time>
      </trkpt>
      <trkpt lat="46.15173" lon="2.60994">
        <ele>531</ele>
        <time>2015-10-23T12:58:07Z</time>
      </trkpt>
      <trkpt lat="46.15166" lon="2.61007">
        <ele>532</ele>
        <time>2015-10-23T12:58:11Z</time>
      </trkpt>
      <trkpt lat="46.15162" lon="2.61017">
        <ele>532</ele>
        <time>2015-10-23T12:58:15Z</time>
      </trkpt>
      <trkpt lat="46.15151" lon="2.61023">
        <ele>533</ele>
        <time>2015-10-23T12:58:19Z</time>
      </trkpt>
      <trkpt lat="46.15141" lon="2.61031">
        <ele>533</ele>
        <time>2015-10-23T12:58:23Z</time>
      </trkpt>
      <trkpt lat="46.1513" lon="2.61037">
        <ele>533</ele>
        <time>2015-10-23T12:58:27Z</time>
      </trkpt>
      <trkpt lat="46.15117" lon="2.61044">
        <ele>534</ele>
        <time>2015-10-23T12:58:31Z</time>
      </trkpt>
      <trkpt lat="46.15104" lon="2.61053">
        <ele>534</ele>
        <time>2015-10-23T12:58:35Z</time>
      </trkpt>
      <trkpt lat="46.15093" lon="2.61057">
        <ele>535</ele>
        <time>2015-10-23T12:58:39Z</time>
      </trkpt>
      <trkpt lat="46.15084" lon="2.61065">
        <ele>535</ele>
        <time>2015-10-23T12:58:43Z</time>
      </trkpt>
      <trkpt lat="46.15074" lon="2.6107">
        <ele>535</ele>
        <time>2015-10-23T12:58:47Z</time>
      </trkpt>
      <trkpt lat="46.1506" lon="2.61075">
        <ele>535</ele>
        <time>2015-10-23T12:58:51Z</time>
      </trkpt>
      <trkpt lat="46.15048" lon="2.61086">
        <ele>534</ele>
        <time>2015-10-23T12:58:55Z</time>
      </trkpt>
      <trkpt lat="46.15041" lon="2.61098">
        <ele>535</ele>
        <time>2015-10-23T12:59:03Z</time>
      </trkpt>
      <trkpt lat="46.15039" lon="2.61103">
        <ele>535</ele>
        <time>2015-10-23T12:59:07Z</time>
      </trkpt>
      <trkpt lat="46.15021" lon="2.61114">
        <ele>535</ele>
        <time>2015-10-23T12:59:11Z</time>
      </trkpt>
      <trkpt lat="46.15004" lon="2.61129">
        <ele>535</ele>
        <time>2015-10-23T12:59:15Z</time>
      </trkpt>
      <trkpt lat="46.1499" lon="2.61138">
        <ele>535</ele>
        <time>2015-10-23T12:59:19Z</time>
      </trkpt>
      <trkpt lat="46.14981" lon="2.61142">
        <ele>535</ele>
        <time>2015-10-23T12:59:23Z</time>
      </trkpt>
      <trkpt lat="46.14962" lon="2.61148">
        <ele>536</ele>
        <time>2015-10-23T12:59:27Z</time>
      </trkpt>
      <trkpt lat="46.14946" lon="2.61157">
        <ele>537</ele>
        <time>2015-10-23T12:59:31Z</time>
      </trkpt>
      <trkpt lat="46.14936" lon="2.61168">
        <ele>537</ele>
        <time>2015-10-23T12:59:35Z</time>
      </trkpt>
      <trkpt lat="46.14926" lon="2.61178">
        <ele>537</ele>
        <time>2015-10-23T12:59:39Z</time>
      </trkpt>
      <trkpt lat="46.1491" lon="2.61187">
        <ele>538</ele>
        <time>2015-10-23T12:59:43Z</time>
      </trkpt>
      <trkpt lat="46.14904" lon="2.61198">
        <ele>539</ele>
        <time>2015-10-23T12:59:47Z</time>
      </trkpt>
      <trkpt lat="46.14898" lon="2.61208">
        <ele>539</ele>
        <time>2015-10-23T12:59:51Z</time>
      </trkpt>
      <trkpt lat="46.1488" lon="2.61218">
        <ele>540</ele>
        <time>2015-10-23T12:59:55Z</time>
      </trkpt>
      <trkpt lat="46.14866" lon="2.61229">
        <ele>540</ele>
        <time>2015-10-23T12:59:59Z</time>
      </trkpt>
      <trkpt lat="46.14851" lon="2.61239">
        <ele>542</ele>
        <time>2015-10-23T13:00:03Z</time>
      </trkpt>
      <trkpt lat="46.14839" lon="2.61247">
        <ele>542</ele>
        <time>2015-10-23T13:00:07Z</time>
      </trkpt>
      <trkpt lat="46.14826" lon="2.61257">
        <ele>542</ele>
        <time>2015-10-23T13:00:11Z</time>
      </trkpt>
      <trkpt lat="46.14817" lon="2.61263">
        <ele>543</ele>
        <time>2015-10-23T13:00:15Z</time>
      </trkpt>
      <trkpt lat="46.14807" lon="2.61269">
        <ele>543</ele>
        <time>2015-10-23T13:00:19Z</time>
      </trkpt>
      <trkpt lat="46.14798" lon="2.61274">
        <ele>544</ele>
        <time>2015-10-23T13:00:23Z</time>
      </trkpt>
      <trkpt lat="46.14788" lon="2.61281">
        <ele>544</ele>
        <time>2015-10-23T13:00:27Z</time>
      </trkpt>
      <trkpt lat="46.14779" lon="2.61288">
        <ele>545</ele>
        <time>2015-10-23T13:00:31Z</time>
      </trkpt>
      <trkpt lat="46.14768" lon="2.61296">
        <ele>545</ele>
        <time>2015-10-23T13:00:35Z</time>
      </trkpt>
      <trkpt lat="46.14757" lon="2.61303">
        <ele>546</ele>
        <time>2015-10-23T13:00:39Z</time>
      </trkpt>
      <trkpt lat="46.14743" lon="2.61315">
        <ele>546</ele>
        <time>2015-10-23T13:00:43Z</time>
      </trkpt>
      <trkpt lat="46.14734" lon="2.61325">
        <ele>546</ele>
        <time>2015-10-23T13:00:47Z</time>
      </trkpt>
      <trkpt lat="46.14716" lon="2.61335">
        <ele>546</ele>
        <time>2015-10-23T13:00:51Z</time>
      </trkpt>
      <trkpt lat="46.14702" lon="2.61346">
        <ele>546</ele>
        <time>2015-10-23T13:00:55Z</time>
      </trkpt>
      <trkpt lat="46.14694" lon="2.61359">
        <ele>547</ele>
        <time>2015-10-23T13:00:59Z</time>
      </trkpt>
      <trkpt lat="46.1469" lon="2.61367">
        <ele>546</ele>
        <time>2015-10-23T13:01:03Z</time>
      </trkpt>
      <trkpt lat="46.14673" lon="2.61385">
        <ele>547</ele>
        <time>2015-10-23T13:01:07Z</time>
      </trkpt>
      <trkpt lat="46.14669" lon="2.61395">
        <ele>548</ele>
        <time>2015-10-23T13:01:11Z</time>
      </trkpt>
      <trkpt lat="46.14655" lon="2.61413">
        <ele>548</ele>
        <time>2015-10-23T13:01:15Z</time>
      </trkpt>
      <trkpt lat="46.14647" lon="2.61425">
        <ele>548</ele>
        <time>2015-10-23T13:01:19Z</time>
      </trkpt>
      <trkpt lat="46.14645" lon="2.61437">
        <ele>549</ele>
        <time>2015-10-23T13:01:23Z</time>
      </trkpt>
      <trkpt lat="46.14633" lon="2.61454">
        <ele>549</ele>
        <time>2015-10-23T13:01:27Z</time>
      </trkpt>
      <trkpt lat="46.14627" lon="2.61468">
        <ele>549</ele>
        <time>2015-10-23T13:01:31Z</time>
      </trkpt>
      <trkpt lat="46.14616" lon="2.61481">
        <ele>550</ele>
        <time>2015-10-23T13:01:35Z</time>
      </trkpt>
      <trkpt lat="46.1461" lon="2.61494">
        <ele>550</ele>
        <time>2015-10-23T13:01:39Z</time>
      </trkpt>
      <trkpt lat="46.14599" lon="2.6151">
        <ele>551</ele>
        <time>2015-10-23T13:01:43Z</time>
      </trkpt>
      <trkpt lat="46.14586" lon="2.61519">
        <ele>552</ele>
        <time>2015-10-23T13:01:47Z</time>
      </trkpt>
      <trkpt lat="46.14581" lon="2.6153">
        <ele>552</ele>
        <time>2015-10-23T13:01:51Z</time>
      </trkpt>
      <trkpt lat="46.14568" lon="2.61546">
        <ele>553</ele>
        <time>2015-10-23T13:01:55Z</time>
      </trkpt>
      <trkpt lat="46.14556" lon="2.61568">
        <ele>554</ele>
        <time>2015-10-23T13:01:59Z</time>
      </trkpt>
      <trkpt lat="46.14548" lon="2.61588">
        <ele>555</ele>
        <time>2015-10-23T13:02:03Z</time>
      </trkpt>
      <trkpt lat="46.14542" lon="2.61602">
        <ele>555</ele>
        <time>2015-10-23T13:02:07Z</time>
      </trkpt>
      <trkpt lat="46.14535" lon="2.61613">
        <ele>554</ele>
        <time>2015-10-23T13:02:11Z</time>
      </trkpt>
      <trkpt lat="46.14528" lon="2.61629">
        <ele>554</ele>
        <time>2015-10-23T13:02:15Z</time>
      </trkpt>
      <trkpt lat="46.14516" lon="2.61653">
        <ele>553</ele>
        <time>2015-10-23T13:02:19Z</time>
      </trkpt>
      <trkpt lat="46.14502" lon="2.61679">
        <ele>553</ele>
        <time>2015-10-23T13:02:23Z</time>
      </trkpt>
      <trkpt lat="46.14493" lon="2.61701">
        <ele>553</ele>
        <time>2015-10-23T13:02:27Z</time>
      </trkpt>
      <trkpt lat="46.14482" lon="2.6172">
        <ele>553</ele>
        <time>2015-10-23T13:02:31Z</time>
      </trkpt>
      <trkpt lat="46.14474" lon="2.6174">
        <ele>553</ele>
        <time>2015-10-23T13:02:35Z</time>
      </trkpt>
      <trkpt lat="46.14468" lon="2.61754">
        <ele>553</ele>
        <time>2015-10-23T13:02:39Z</time>
      </trkpt>
      <trkpt lat="46.14459" lon="2.61767">
        <ele>552</ele>
        <time>2015-10-23T13:02:43Z</time>
      </trkpt>
      <trkpt lat="46.14449" lon="2.61784">
        <ele>552</ele>
        <time>2015-10-23T13:02:47Z</time>
      </trkpt>
      <trkpt lat="46.14441" lon="2.61802">
        <ele>551</ele>
        <time>2015-10-23T13:02:51Z</time>
      </trkpt>
      <trkpt lat="46.14436" lon="2.61821">
        <ele>552</ele>
        <time>2015-10-23T13:02:55Z</time>
      </trkpt>
      <trkpt lat="46.14426" lon="2.61837">
        <ele>552</ele>
        <time>2015-10-23T13:02:59Z</time>
      </trkpt>
      <trkpt lat="46.14414" lon="2.61855">
        <ele>552</ele>
        <time>2015-10-23T13:03:03Z</time>
      </trkpt>
      <trkpt lat="46.14402" lon="2.61872">
        <ele>552</ele>
        <time>2015-10-23T13:03:07Z</time>
      </trkpt>
      <trkpt lat="46.14388" lon="2.61892">
        <ele>552</ele>
        <time>2015-10-23T13:03:11Z</time>
      </trkpt>
      <trkpt lat="46.14373" lon="2.61908">
        <ele>552</ele>
        <time>2015-10-23T13:03:15Z</time>
      </trkpt>
      <trkpt lat="46.14364" lon="2.61917">
        <ele>552</ele>
        <time>2015-10-23T13:03:19Z</time>
      </trkpt>
      <trkpt lat="46.14355" lon="2.61935">
        <ele>553</ele>
        <time>2015-10-23T13:03:23Z</time>
      </trkpt>
      <trkpt lat="46.14348" lon="2.61946">
        <ele>553</ele>
        <time>2015-10-23T13:03:27Z</time>
      </trkpt>
      <trkpt lat="46.14342" lon="2.61961">
        <ele>553</ele>
        <time>2015-10-23T13:03:31Z</time>
      </trkpt>
      <trkpt lat="46.1433" lon="2.61977">
        <ele>553</ele>
        <time>2015-10-23T13:03:35Z</time>
      </trkpt>
      <trkpt lat="46.14318" lon="2.61996">
        <ele>553</ele>
        <time>2015-10-23T13:03:39Z</time>
      </trkpt>
      <trkpt lat="46.14308" lon="2.62012">
        <ele>553</ele>
        <time>2015-10-23T13:03:43Z</time>
      </trkpt>
      <trkpt lat="46.14298" lon="2.62032">
        <ele>554</ele>
        <time>2015-10-23T13:03:47Z</time>
      </trkpt>
      <trkpt lat="46.14286" lon="2.6205">
        <ele>553</ele>
        <time>2015-10-23T13:03:51Z</time>
      </trkpt>
      <trkpt lat="46.14275" lon="2.62069">
        <ele>553</ele>
        <time>2015-10-23T13:03:55Z</time>
      </trkpt>
      <trkpt lat="46.14262" lon="2.62088">
        <ele>553</ele>
        <time>2015-10-23T13:03:59Z</time>
      </trkpt>
      <trkpt lat="46.14256" lon="2.6211">
        <ele>554</ele>
        <time>2015-10-23T13:04:03Z</time>
      </trkpt>
      <trkpt lat="46.14248" lon="2.62132">
        <ele>554</ele>
        <time>2015-10-23T13:04:07Z</time>
      </trkpt>
      <trkpt lat="46.14234" lon="2.62147">
        <ele>554</ele>
        <time>2015-10-23T13:04:11Z</time>
      </trkpt>
      <trkpt lat="46.14217" lon="2.62166">
        <ele>554</ele>
        <time>2015-10-23T13:04:15Z</time>
      </trkpt>
      <trkpt lat="46.14201" lon="2.62184">
        <ele>554</ele>
        <time>2015-10-23T13:04:19Z</time>
      </trkpt>
      <trkpt lat="46.14183" lon="2.62202">
        <ele>554</ele>
        <time>2015-10-23T13:04:23Z</time>
      </trkpt>
      <trkpt lat="46.14166" lon="2.6222">
        <ele>555</ele>
        <time>2015-10-23T13:04:27Z</time>
      </trkpt>
      <trkpt lat="46.14151" lon="2.6224">
        <ele>555</ele>
        <time>2015-10-23T13:04:31Z</time>
      </trkpt>
      <trkpt lat="46.14139" lon="2.62257">
        <ele>555</ele>
        <time>2015-10-23T13:04:35Z</time>
      </trkpt>
      <trkpt lat="46.14125" lon="2.62275">
        <ele>556</ele>
        <time>2015-10-23T13:04:39Z</time>
      </trkpt>
      <trkpt lat="46.1411" lon="2.62291">
        <ele>556</ele>
        <time>2015-10-23T13:04:43Z</time>
      </trkpt>
      <trkpt lat="46.14095" lon="2.6231">
        <ele>556</ele>
        <time>2015-10-23T13:04:47Z</time>
      </trkpt>
      <trkpt lat="46.14081" lon="2.6233">
        <ele>557</ele>
        <time>2015-10-23T13:04:51Z</time>
      </trkpt>
      <trkpt lat="46.1407" lon="2.62349">
        <ele>558</ele>
        <time>2015-10-23T13:04:55Z</time>
      </trkpt>
      <trkpt lat="46.14061" lon="2.62365">
        <ele>558</ele>
        <time>2015-10-23T13:04:59Z</time>
      </trkpt>
      <trkpt lat="46.14053" lon="2.62386">
        <ele>558</ele>
        <time>2015-10-23T13:05:03Z</time>
      </trkpt>
      <trkpt lat="46.14045" lon="2.62405">
        <ele>559</ele>
        <time>2015-10-23T13:05:07Z</time>
      </trkpt>
      <trkpt lat="46.14037" lon="2.62421">
        <ele>560</ele>
        <time>2015-10-23T13:05:11Z</time>
      </trkpt>
      <trkpt lat="46.14027" lon="2.62434">
        <ele>560</ele>
        <time>2015-10-23T13:05:15Z</time>
      </trkpt>
      <trkpt lat="46.14013" lon="2.6245">
        <ele>560</ele>
        <time>2015-10-23T13:05:19Z</time>
      </trkpt>
      <trkpt lat="46.13997" lon="2.62465">
        <ele>561</ele>
        <time>2015-10-23T13:05:23Z</time>
      </trkpt>
      <trkpt lat="46.13982" lon="2.62474">
        <ele>561</ele>
        <time>2015-10-23T13:05:27Z</time>
      </trkpt>
      <trkpt lat="46.1397" lon="2.62491">
        <ele>562</ele>
        <time>2015-10-23T13:05:31Z</time>
      </trkpt>
      <trkpt lat="46.13955" lon="2.62506">
        <ele>563</ele>
        <time>2015-10-23T13:05:35Z</time>
      </trkpt>
      <trkpt lat="46.13942" lon="2.62519">
        <ele>563</ele>
        <time>2015-10-23T13:05:39Z</time>
      </trkpt>
      <trkpt lat="46.1393" lon="2.62535">
        <ele>564</ele>
        <time>2015-10-23T13:05:43Z</time>
      </trkpt>
      <trkpt lat="46.13919" lon="2.62554">
        <ele>565</ele>
        <time>2015-10-23T13:05:47Z</time>
      </trkpt>
      <trkpt lat="46.13909" lon="2.62571">
        <ele>566</ele>
        <time>2015-10-23T13:05:51Z</time>
      </trkpt>
      <trkpt lat="46.13901" lon="2.62587">
        <ele>567</ele>
        <time>2015-10-23T13:05:55Z</time>
      </trkpt>
      <trkpt lat="46.13887" lon="2.62601">
        <ele>568</ele>
        <time>2015-10-23T13:05:59Z</time>
      </trkpt>
      <trkpt lat="46.13876" lon="2.6262">
        <ele>569</ele>
        <time>2015-10-23T13:06:03Z</time>
      </trkpt>
      <trkpt lat="46.13866" lon="2.62636">
        <ele>569</ele>
        <time>2015-10-23T13:06:07Z</time>
      </trkpt>
      <trkpt lat="46.1386" lon="2.62653">
        <ele>569</ele>
        <time>2015-10-23T13:06:11Z</time>
      </trkpt>
      <trkpt lat="46.13849" lon="2.62673">
        <ele>570</ele>
        <time>2015-10-23T13:06:15Z</time>
      </trkpt>
      <trkpt lat="46.13836" lon="2.6269">
        <ele>571</ele>
        <time>2015-10-23T13:06:19Z</time>
      </trkpt>
      <trkpt lat="46.1382" lon="2.62703">
        <ele>571</ele>
        <time>2015-10-23T13:06:23Z</time>
      </trkpt>
      <trkpt lat="46.13805" lon="2.62711">
        <ele>571</ele>
        <time>2015-10-23T13:06:27Z</time>
      </trkpt>
      <trkpt lat="46.13792" lon="2.62723">
        <ele>571</ele>
        <time>2015-10-23T13:06:31Z</time>
      </trkpt>
      <trkpt lat="46.13785" lon="2.62745">
        <ele>571</ele>
        <time>2015-10-23T13:06:35Z</time>
      </trkpt>
      <trkpt lat="46.13789" lon="2.62763">
        <ele>571</ele>
        <time>2015-10-23T13:06:39Z</time>
      </trkpt>
      <trkpt lat="46.13794" lon="2.62782">
        <ele>571</ele>
        <time>2015-10-23T13:06:43Z</time>
      </trkpt>
      <trkpt lat="46.13791" lon="2.62803">
        <ele>571</ele>
        <time>2015-10-23T13:06:47Z</time>
      </trkpt>
      <trkpt lat="46.13783" lon="2.62827">
        <ele>571</ele>
        <time>2015-10-23T13:06:51Z</time>
      </trkpt>
      <trkpt lat="46.13775" lon="2.62849">
        <ele>571</ele>
        <time>2015-10-23T13:06:55Z</time>
      </trkpt>
      <trkpt lat="46.13765" lon="2.62872">
        <ele>571</ele>
        <time>2015-10-23T13:06:59Z</time>
      </trkpt>
      <trkpt lat="46.13756" lon="2.62893">
        <ele>571</ele>
        <time>2015-10-23T13:07:03Z</time>
      </trkpt>
      <trkpt lat="46.1374" lon="2.62897">
        <ele>571</ele>
        <time>2015-10-23T13:07:07Z</time>
      </trkpt>
      <trkpt lat="46.13725" lon="2.62883">
        <ele>571</ele>
        <time>2015-10-23T13:07:11Z</time>
      </trkpt>
      <trkpt lat="46.13713" lon="2.62868">
        <ele>571</ele>
        <time>2015-10-23T13:07:15Z</time>
      </trkpt>
      <trkpt lat="46.13697" lon="2.62848">
        <ele>571</ele>
        <time>2015-10-23T13:07:19Z</time>
      </trkpt>
      <trkpt lat="46.13684" lon="2.62827">
        <ele>571</ele>
        <time>2015-10-23T13:07:23Z</time>
      </trkpt>
      <trkpt lat="46.13672" lon="2.62807">
        <ele>570</ele>
        <time>2015-10-23T13:07:27Z</time>
      </trkpt>
      <trkpt lat="46.13658" lon="2.62789">
        <ele>570</ele>
        <time>2015-10-23T13:07:31Z</time>
      </trkpt>
      <trkpt lat="46.13644" lon="2.6277">
        <ele>570</ele>
        <time>2015-10-23T13:07:35Z</time>
      </trkpt>
      <trkpt lat="46.13629" lon="2.62748">
        <ele>570</ele>
        <time>2015-10-23T13:07:39Z</time>
      </trkpt>
      <trkpt lat="46.1361" lon="2.62752">
        <ele>570</ele>
        <time>2015-10-23T13:07:43Z</time>
      </trkpt>
      <trkpt lat="46.13596" lon="2.62765">
        <ele>571</ele>
        <time>2015-10-23T13:07:47Z</time>
      </trkpt>
      <trkpt lat="46.13582" lon="2.62777">
        <ele>571</ele>
        <time>2015-10-23T13:07:51Z</time>
      </trkpt>
      <trkpt lat="46.13572" lon="2.6279">
        <ele>570</ele>
        <time>2015-10-23T13:07:55Z</time>
      </trkpt>
      <trkpt lat="46.13555" lon="2.62803">
        <ele>570</ele>
        <time>2015-10-23T13:07:59Z</time>
      </trkpt>
      <trkpt lat="46.1354" lon="2.62821">
        <ele>570</ele>
        <time>2015-10-23T13:08:03Z</time>
      </trkpt>
      <trkpt lat="46.13525" lon="2.62832">
        <ele>569</ele>
        <time>2015-10-23T13:08:07Z</time>
      </trkpt>
      <trkpt lat="46.13505" lon="2.62842">
        <ele>567</ele>
        <time>2015-10-23T13:08:11Z</time>
      </trkpt>
      <trkpt lat="46.13486" lon="2.62854">
        <ele>564</ele>
        <time>2015-10-23T13:08:15Z</time>
      </trkpt>
      <trkpt lat="46.13463" lon="2.62867">
        <ele>564</ele>
        <time>2015-10-23T13:08:19Z</time>
      </trkpt>
      <trkpt lat="46.13438" lon="2.62882">
        <ele>562</ele>
        <time>2015-10-23T13:08:23Z</time>
      </trkpt>
      <trkpt lat="46.13417" lon="2.62899">
        <ele>561</ele>
        <time>2015-10-23T13:08:27Z</time>
      </trkpt>
      <trkpt lat="46.13392" lon="2.62912">
        <ele>560</ele>
        <time>2015-10-23T13:08:31Z</time>
      </trkpt>
      <trkpt lat="46.13369" lon="2.62926">
        <ele>559</ele>
        <time>2015-10-23T13:08:35Z</time>
      </trkpt>
      <trkpt lat="46.13347" lon="2.62946">
        <ele>559</ele>
        <time>2015-10-23T13:08:39Z</time>
      </trkpt>
      <trkpt lat="46.13331" lon="2.62961">
        <ele>559</ele>
        <time>2015-10-23T13:08:43Z</time>
      </trkpt>
      <trkpt lat="46.13315" lon="2.62958">
        <ele>559</ele>
        <time>2015-10-23T13:08:47Z</time>
      </trkpt>
      <trkpt lat="46.13293" lon="2.62955">
        <ele>559</ele>
        <time>2015-10-23T13:08:51Z</time>
      </trkpt>
      <trkpt lat="46.13274" lon="2.62957">
        <ele>559</ele>
        <time>2015-10-23T13:08:55Z</time>
      </trkpt>
      <trkpt lat="46.13259" lon="2.62964">
        <ele>560</ele>
        <time>2015-10-23T13:08:59Z</time>
      </trkpt>
      <trkpt lat="46.13248" lon="2.62969">
        <ele>561</ele>
        <time>2015-10-23T13:09:03Z</time>
      </trkpt>
      <trkpt lat="46.13238" lon="2.6298">
        <ele>562</ele>
        <time>2015-10-23T13:09:07Z</time>
      </trkpt>
      <trkpt lat="46.13223" lon="2.62982">
        <ele>563</ele>
        <time>2015-10-23T13:09:11Z</time>
      </trkpt>
      <trkpt lat="46.13204" lon="2.62992">
        <ele>563</ele>
        <time>2015-10-23T13:09:15Z</time>
      </trkpt>
      <trkpt lat="46.13187" lon="2.63004">
        <ele>564</ele>
        <time>2015-10-23T13:09:19Z</time>
      </trkpt>
      <trkpt lat="46.13174" lon="2.63007">
        <ele>565</ele>
        <time>2015-10-23T13:09:23Z</time>
      </trkpt>
      <trkpt lat="46.13159" lon="2.63016">
        <ele>567</ele>
        <time>2015-10-23T13:09:27Z</time>
      </trkpt>
      <trkpt lat="46.13145" lon="2.63026">
        <ele>568</ele>
        <time>2015-10-23T13:09:31Z</time>
      </trkpt>
      <trkpt lat="46.13135" lon="2.63035">
        <ele>569</ele>
        <time>2015-10-23T13:09:35Z</time>
      </trkpt>
      <trkpt lat="46.13125" lon="2.63046">
        <ele>570</ele>
        <time>2015-10-23T13:09:39Z</time>
      </trkpt>
      <trkpt lat="46.13115" lon="2.63059">
        <ele>570</ele>
        <time>2015-10-23T13:09:43Z</time>
      </trkpt>
      <trkpt lat="46.13104" lon="2.63074">
        <ele>570</ele>
        <time>2015-10-23T13:09:47Z</time>
      </trkpt>
      <trkpt lat="46.13094" lon="2.63088">
        <ele>571</ele>
        <time>2015-10-23T13:09:51Z</time>
      </trkpt>
      <trkpt lat="46.13082" lon="2.63104">
        <ele>570</ele>
        <time>2015-10-23T13:09:55Z</time>
      </trkpt>
      <trkpt lat="46.1307" lon="2.63117">
        <ele>569</ele>
        <time>2015-10-23T13:09:59Z</time>
      </trkpt>
      <trkpt lat="46.13056" lon="2.63132">
        <ele>568</ele>
        <time>2015-10-23T13:10:03Z</time>
      </trkpt>
      <trkpt lat="46.13041" lon="2.63145">
        <ele>566</ele>
        <time>2015-10-23T13:10:07Z</time>
      </trkpt>
      <trkpt lat="46.13024" lon="2.63164">
        <ele>565</ele>
        <time>2015-10-23T13:10:11Z</time>
      </trkpt>
      <trkpt lat="46.13013" lon="2.6319">
        <ele>564</ele>
        <time>2015-10-23T13:10:15Z</time>
      </trkpt>
      <trkpt lat="46.13003" lon="2.63214">
        <ele>563</ele>
        <time>2015-10-23T13:10:19Z</time>
      </trkpt>
      <trkpt lat="46.12996" lon="2.63235">
        <ele>563</ele>
        <time>2015-10-23T13:10:23Z</time>
      </trkpt>
      <trkpt lat="46.12988" lon="2.63258">
        <ele>563</ele>
        <time>2015-10-23T13:10:27Z</time>
      </trkpt>
      <trkpt lat="46.12976" lon="2.63278">
        <ele>563</ele>
        <time>2015-10-23T13:10:31Z</time>
      </trkpt>
      <trkpt lat="46.1296" lon="2.63295">
        <ele>563</ele>
        <time>2015-10-23T13:10:35Z</time>
      </trkpt>
      <trkpt lat="46.12944" lon="2.63309">
        <ele>562</ele>
        <time>2015-10-23T13:10:39Z</time>
      </trkpt>
      <trkpt lat="46.12933" lon="2.63328">
        <ele>562</ele>
        <time>2015-10-23T13:10:43Z</time>
      </trkpt>
      <trkpt lat="46.12929" lon="2.63352">
        <ele>561</ele>
        <time>2015-10-23T13:10:47Z</time>
      </trkpt>
      <trkpt lat="46.12918" lon="2.63373">
        <ele>560</ele>
        <time>2015-10-23T13:10:51Z</time>
      </trkpt>
      <trkpt lat="46.12909" lon="2.63395">
        <ele>560</ele>
        <time>2015-10-23T13:10:55Z</time>
      </trkpt>
      <trkpt lat="46.12899" lon="2.63414">
        <ele>560</ele>
        <time>2015-10-23T13:10:59Z</time>
      </trkpt>
      <trkpt lat="46.12888" lon="2.63425">
        <ele>559</ele>
        <time>2015-10-23T13:11:03Z</time>
      </trkpt>
      <trkpt lat="46.12865" lon="2.63425">
        <ele>558</ele>
        <time>2015-10-23T13:11:07Z</time>
      </trkpt>
      <trkpt lat="46.12842" lon="2.63431">
        <ele>557</ele>
        <time>2015-10-23T13:11:11Z</time>
      </trkpt>
      <trkpt lat="46.12822" lon="2.63441">
        <ele>556</ele>
        <time>2015-10-23T13:11:15Z</time>
      </trkpt>
      <trkpt lat="46.12799" lon="2.63466">
        <ele>554</ele>
        <time>2015-10-23T13:11:19Z</time>
      </trkpt>
      <trkpt lat="46.12775" lon="2.63484">
        <ele>552</ele>
        <time>2015-10-23T13:11:23Z</time>
      </trkpt>
      <trkpt lat="46.12744" lon="2.63503">
        <ele>549</ele>
        <time>2015-10-23T13:11:27Z</time>
      </trkpt>
      <trkpt lat="46.12722" lon="2.63539">
        <ele>548</ele>
        <time>2015-10-23T13:11:31Z</time>
      </trkpt>
      <trkpt lat="46.12699" lon="2.63571">
        <ele>548</ele>
        <time>2015-10-23T13:11:35Z</time>
      </trkpt>
      <trkpt lat="46.12682" lon="2.63604">
        <ele>549</ele>
        <time>2015-10-23T13:11:39Z</time>
      </trkpt>
      <trkpt lat="46.12667" lon="2.63624">
        <ele>551</ele>
        <time>2015-10-23T13:11:43Z</time>
      </trkpt>
      <trkpt lat="46.1266" lon="2.63637">
        <ele>552</ele>
        <time>2015-10-23T13:11:47Z</time>
      </trkpt>
      <trkpt lat="46.12651" lon="2.63647">
        <ele>553</ele>
        <time>2015-10-23T13:11:51Z</time>
      </trkpt>
      <trkpt lat="46.12646" lon="2.63661">
        <ele>555</ele>
        <time>2015-10-23T13:11:55Z</time>
      </trkpt>
      <trkpt lat="46.12644" lon="2.63676">
        <ele>557</ele>
        <time>2015-10-23T13:11:59Z</time>
      </trkpt>
      <trkpt lat="46.1264" lon="2.6369">
        <ele>558</ele>
        <time>2015-10-23T13:12:03Z</time>
      </trkpt>
      <trkpt lat="46.12636" lon="2.63704">
        <ele>558</ele>
        <time>2015-10-23T13:12:07Z</time>
      </trkpt>
      <trkpt lat="46.12631" lon="2.63718">
        <ele>558</ele>
        <time>2015-10-23T13:12:11Z</time>
      </trkpt>
      <trkpt lat="46.12625" lon="2.6373">
        <ele>559</ele>
        <time>2015-10-23T13:12:15Z</time>
      </trkpt>
      <trkpt lat="46.12619" lon="2.63745">
        <ele>560</ele>
        <time>2015-10-23T13:12:19Z</time>
      </trkpt>
      <trkpt lat="46.12613" lon="2.63757">
        <ele>561</ele>
        <time>2015-10-23T13:12:23Z</time>
      </trkpt>
      <trkpt lat="46.12606" lon="2.63768">
        <ele>562</ele>
        <time>2015-10-23T13:12:27Z</time>
      </trkpt>
      <trkpt lat="46.126" lon="2.63779">
        <ele>563</ele>
        <time>2015-10-23T13:12:31Z</time>
      </trkpt>
      <trkpt lat="46.12589" lon="2.63788">
        <ele>564</ele>
        <time>2015-10-23T13:12:35Z</time>
      </trkpt>
      <trkpt lat="46.12585" lon="2.63798">
        <ele>564</ele>
        <time>2015-10-23T13:12:39Z</time>
      </trkpt>
      <trkpt lat="46.12578" lon="2.63812">
        <ele>565</ele>
        <time>2015-10-23T13:12:43Z</time>
      </trkpt>
      <trkpt lat="46.12571" lon="2.63827">
        <ele>566</ele>
        <time>2015-10-23T13:12:47Z</time>
      </trkpt>
      <trkpt lat="46.12565" lon="2.63834">
        <ele>567</ele>
        <time>2015-10-23T13:12:51Z</time>
      </trkpt>
      <trkpt lat="46.12566" lon="2.63845">
        <ele>568</ele>
        <time>2015-10-23T13:12:55Z</time>
      </trkpt>
      <trkpt lat="46.1256" lon="2.63856">
        <ele>568</ele>
        <time>2015-10-23T13:12:59Z</time>
      </trkpt>
      <trkpt lat="46.12554" lon="2.63861">
        <ele>569</ele>
        <time>2015-10-23T13:13:03Z</time>
      </trkpt>
      <trkpt lat="46.12543" lon="2.6387">
        <ele>569</ele>
        <time>2015-10-23T13:13:07Z</time>
      </trkpt>
      <trkpt lat="46.12532" lon="2.63875">
        <ele>569</ele>
        <time>2015-10-23T13:13:11Z</time>
      </trkpt>
      <trkpt lat="46.12519" lon="2.63883">
        <ele>569</ele>
        <time>2015-10-23T13:13:15Z</time>
      </trkpt>
      <trkpt lat="46.12507" lon="2.63894">
        <ele>569</ele>
        <time>2015-10-23T13:13:19Z</time>
      </trkpt>
      <trkpt lat="46.12496" lon="2.63907">
        <ele>569</ele>
        <time>2015-10-23T13:13:23Z</time>
      </trkpt>
      <trkpt lat="46.12485" lon="2.63919">
        <ele>567</ele>
        <time>2015-10-23T13:13:27Z</time>
      </trkpt>
      <trkpt lat="46.12474" lon="2.63932">
        <ele>565</ele>
        <time>2015-10-23T13:13:31Z</time>
      </trkpt>
      <trkpt lat="46.12463" lon="2.63951">
        <ele>562</ele>
        <time>2015-10-23T13:13:35Z</time>
      </trkpt>
      <trkpt lat="46.12449" lon="2.63972">
        <ele>560</ele>
        <time>2015-10-23T13:13:39Z</time>
      </trkpt>
      <trkpt lat="46.12437" lon="2.63996">
        <ele>557</ele>
        <time>2015-10-23T13:13:43Z</time>
      </trkpt>
      <trkpt lat="46.12427" lon="2.64024">
        <ele>555</ele>
        <time>2015-10-23T13:13:47Z</time>
      </trkpt>
      <trkpt lat="46.12412" lon="2.64052">
        <ele>553</ele>
        <time>2015-10-23T13:13:51Z</time>
      </trkpt>
      <trkpt lat="46.12399" lon="2.64085">
        <ele>551</ele>
        <time>2015-10-23T13:13:55Z</time>
      </trkpt>
      <trkpt lat="46.12393" lon="2.64129">
        <ele>550</ele>
        <time>2015-10-23T13:13:59Z</time>
      </trkpt>
      <trkpt lat="46.12395" lon="2.64169">
        <ele>549</ele>
        <time>2015-10-23T13:14:03Z</time>
      </trkpt>
      <trkpt lat="46.12392" lon="2.64206">
        <ele>549</ele>
        <time>2015-10-23T13:14:07Z</time>
      </trkpt>
      <trkpt lat="46.12375" lon="2.6424">
        <ele>547</ele>
        <time>2015-10-23T13:14:11Z</time>
      </trkpt>
      <trkpt lat="46.12361" lon="2.64276">
        <ele>547</ele>
        <time>2015-10-23T13:14:15Z</time>
      </trkpt>
      <trkpt lat="46.12345" lon="2.64305">
        <ele>547</ele>
        <time>2015-10-23T13:14:19Z</time>
      </trkpt>
      <trkpt lat="46.12332" lon="2.64329">
        <ele>548</ele>
        <time>2015-10-23T13:14:23Z</time>
      </trkpt>
      <trkpt lat="46.12323" lon="2.6435">
        <ele>548</ele>
        <time>2015-10-23T13:14:27Z</time>
      </trkpt>
      <trkpt lat="46.12314" lon="2.64372">
        <ele>549</ele>
        <time>2015-10-23T13:14:31Z</time>
      </trkpt>
      <trkpt lat="46.12304" lon="2.64393">
        <ele>549</ele>
        <time>2015-10-23T13:14:35Z</time>
      </trkpt>
      <trkpt lat="46.12299" lon="2.64409">
        <ele>547</ele>
        <time>2015-10-23T13:14:39Z</time>
      </trkpt>
      <trkpt lat="46.12288" lon="2.6441">
        <ele>546</ele>
        <time>2015-10-23T13:14:43Z</time>
      </trkpt>
      <trkpt lat="46.12273" lon="2.64409">
        <ele>545</ele>
        <time>2015-10-23T13:14:47Z</time>
      </trkpt>
      <trkpt lat="46.12254" lon="2.64412">
        <ele>543</ele>
        <time>2015-10-23T13:14:51Z</time>
      </trkpt>
      <trkpt lat="46.12235" lon="2.64417">
        <ele>541</ele>
        <time>2015-10-23T13:14:55Z</time>
      </trkpt>
      <trkpt lat="46.12213" lon="2.64425">
        <ele>538</ele>
        <time>2015-10-23T13:14:59Z</time>
      </trkpt>
      <trkpt lat="46.1219" lon="2.64435">
        <ele>535</ele>
        <time>2015-10-23T13:15:03Z</time>
      </trkpt>
      <trkpt lat="46.12164" lon="2.64439">
        <ele>533</ele>
        <time>2015-10-23T13:15:07Z</time>
      </trkpt>
      <trkpt lat="46.12136" lon="2.64444">
        <ele>532</ele>
        <time>2015-10-23T13:15:11Z</time>
      </trkpt>
      <trkpt lat="46.12111" lon="2.64446">
        <ele>531</ele>
        <time>2015-10-23T13:15:15Z</time>
      </trkpt>
      <trkpt lat="46.12084" lon="2.64458">
        <ele>529</ele>
        <time>2015-10-23T13:15:19Z</time>
      </trkpt>
      <trkpt lat="46.12064" lon="2.64474">
        <ele>525</ele>
        <time>2015-10-23T13:15:23Z</time>
      </trkpt>
      <trkpt lat="46.12049" lon="2.64489">
        <ele>522</ele>
        <time>2015-10-23T13:15:27Z</time>
      </trkpt>
      <trkpt lat="46.12023" lon="2.64502">
        <ele>521</ele>
        <time>2015-10-23T13:15:31Z</time>
      </trkpt>
      <trkpt lat="46.12001" lon="2.64502">
        <ele>519</ele>
        <time>2015-10-23T13:15:35Z</time>
      </trkpt>
      <trkpt lat="46.11977" lon="2.64496">
        <ele>518</ele>
        <time>2015-10-23T13:15:39Z</time>
      </trkpt>
      <trkpt lat="46.1195" lon="2.64486">
        <ele>517</ele>
        <time>2015-10-23T13:15:43Z</time>
      </trkpt>
      <trkpt lat="46.11928" lon="2.64467">
        <ele>514</ele>
        <time>2015-10-23T13:15:47Z</time>
      </trkpt>
      <trkpt lat="46.11906" lon="2.64451">
        <ele>514</ele>
        <time>2015-10-23T13:15:51Z</time>
      </trkpt>
      <trkpt lat="46.11877" lon="2.64442">
        <ele>511</ele>
        <time>2015-10-23T13:15:55Z</time>
      </trkpt>
      <trkpt lat="46.11862" lon="2.64426">
        <ele>509</ele>
        <time>2015-10-23T13:15:59Z</time>
      </trkpt>
      <trkpt lat="46.11844" lon="2.64421">
        <ele>507</ele>
        <time>2015-10-23T13:16:03Z</time>
      </trkpt>
      <trkpt lat="46.1183" lon="2.64422">
        <ele>506</ele>
        <time>2015-10-23T13:16:07Z</time>
      </trkpt>
      <trkpt lat="46.11815" lon="2.64426">
        <ele>504</ele>
        <time>2015-10-23T13:16:11Z</time>
      </trkpt>
      <trkpt lat="46.11789" lon="2.64432">
        <ele>504</ele>
        <time>2015-10-23T13:16:15Z</time>
      </trkpt>
      <trkpt lat="46.11772" lon="2.64447">
        <ele>504</ele>
        <time>2015-10-23T13:16:19Z</time>
      </trkpt>
      <trkpt lat="46.11761" lon="2.64467">
        <ele>505</ele>
        <time>2015-10-23T13:16:23Z</time>
      </trkpt>
      <trkpt lat="46.11751" lon="2.64476">
        <ele>505</ele>
        <time>2015-10-23T13:16:27Z</time>
      </trkpt>
      <trkpt lat="46.11743" lon="2.64494">
        <ele>507</ele>
        <time>2015-10-23T13:16:31Z</time>
      </trkpt>
      <trkpt lat="46.11733" lon="2.64511">
        <ele>508</ele>
        <time>2015-10-23T13:16:35Z</time>
      </trkpt>
      <trkpt lat="46.11727" lon="2.64521">
        <ele>509</ele>
        <time>2015-10-23T13:16:39Z</time>
      </trkpt>
      <trkpt lat="46.11721" lon="2.64534">
        <ele>510</ele>
        <time>2015-10-23T13:16:43Z</time>
      </trkpt>
      <trkpt lat="46.1171" lon="2.64551">
        <ele>511</ele>
        <time>2015-10-23T13:16:47Z</time>
      </trkpt>
      <trkpt lat="46.11704" lon="2.64564">
        <ele>512</ele>
        <time>2015-10-23T13:16:51Z</time>
      </trkpt>
      <trkpt lat="46.11695" lon="2.64581">
        <ele>513</ele>
        <time>2015-10-23T13:16:55Z</time>
      </trkpt>
      <trkpt lat="46.11687" lon="2.64591">
        <ele>514</ele>
        <time>2015-10-23T13:16:59Z</time>
      </trkpt>
      <trkpt lat="46.1168" lon="2.64609">
        <ele>514</ele>
        <time>2015-10-23T13:17:03Z</time>
      </trkpt>
      <trkpt lat="46.11673" lon="2.64627">
        <ele>514</ele>
        <time>2015-10-23T13:17:07Z</time>
      </trkpt>
      <trkpt lat="46.11666" lon="2.64632">
        <ele>514</ele>
        <time>2015-10-23T13:17:11Z</time>
      </trkpt>
      <trkpt lat="46.11652" lon="2.64626">
        <ele>515</ele>
        <time>2015-10-23T13:17:15Z</time>
      </trkpt>
      <trkpt lat="46.11641" lon="2.64618">
        <ele>516</ele>
        <time>2015-10-23T13:17:19Z</time>
      </trkpt>
      <trkpt lat="46.11635" lon="2.6462">
        <ele>517</ele>
        <time>2015-10-23T13:17:23Z</time>
      </trkpt>
      <trkpt lat="46.11623" lon="2.64623">
        <ele>518</ele>
        <time>2015-10-23T13:17:27Z</time>
      </trkpt>
      <trkpt lat="46.11627" lon="2.64628">
        <ele>519</ele>
        <time>2015-10-23T13:17:31Z</time>
      </trkpt>
      <trkpt lat="46.11639" lon="2.64641">
        <ele>521</ele>
        <time>2015-10-23T13:17:35Z</time>
      </trkpt>
      <trkpt lat="46.11647" lon="2.64638">
        <ele>521</ele>
        <time>2015-10-23T13:17:39Z</time>
      </trkpt>
      <trkpt lat="46.11656" lon="2.64638">
        <ele>522</ele>
        <time>2015-10-23T13:17:43Z</time>
      </trkpt>
      <trkpt lat="46.11659" lon="2.64651">
        <ele>523</ele>
        <time>2015-10-23T13:17:47Z</time>
      </trkpt>
      <trkpt lat="46.11664" lon="2.64658">
        <ele>524</ele>
        <time>2015-10-23T13:17:51Z</time>
      </trkpt>
      <trkpt lat="46.11667" lon="2.64668">
        <ele>524</ele>
        <time>2015-10-23T13:17:55Z</time>
      </trkpt>
      <trkpt lat="46.11668" lon="2.64675">
        <ele>525</ele>
        <time>2015-10-23T13:17:59Z</time>
      </trkpt>
      <trkpt lat="46.11672" lon="2.64694">
        <ele>525</ele>
        <time>2015-10-23T13:18:03Z</time>
      </trkpt>
      <trkpt lat="46.11672" lon="2.64701">
        <ele>527</ele>
        <time>2015-10-23T13:18:07Z</time>
      </trkpt>
      <trkpt lat="46.11679" lon="2.64709">
        <ele>528</ele>
        <time>2015-10-23T13:18:11Z</time>
      </trkpt>
      <trkpt lat="46.11682" lon="2.64717">
        <ele>529</ele>
        <time>2015-10-23T13:18:15Z</time>
      </trkpt>
      <trkpt lat="46.11689" lon="2.64728">
        <ele>529</ele>
        <time>2015-10-23T13:18:19Z</time>
      </trkpt>
      <trkpt lat="46.11691" lon="2.64733">
        <ele>531</ele>
        <time>2015-10-23T13:18:23Z</time>
      </trkpt>
      <trkpt lat="46.11693" lon="2.6474">
        <ele>533</ele>
        <time>2015-10-23T13:18:31Z</time>
      </trkpt>
      <trkpt lat="46.11696" lon="2.64747">
        <ele>534</ele>
        <time>2015-10-23T13:18:35Z</time>
      </trkpt>
      <trkpt lat="46.11698" lon="2.64757">
        <ele>535</ele>
        <time>2015-10-23T13:18:39Z</time>
      </trkpt>
      <trkpt lat="46.11705" lon="2.64762">
        <ele>536</ele>
        <time>2015-10-23T13:18:43Z</time>
      </trkpt>
      <trkpt lat="46.11708" lon="2.64769">
        <ele>537</ele>
        <time>2015-10-23T13:18:51Z</time>
      </trkpt>
      <trkpt lat="46.11708" lon="2.64779">
        <ele>538</ele>
        <time>2015-10-23T13:19:27Z</time>
      </trkpt>
      <trkpt lat="46.11697" lon="2.64792">
        <ele>539</ele>
        <time>2015-10-23T13:19:31Z</time>
      </trkpt>
      <trkpt lat="46.11693" lon="2.64796">
        <ele>539</ele>
        <time>2015-10-23T13:19:35Z</time>
      </trkpt>
      <trkpt lat="46.11689" lon="2.64803">
        <ele>540</ele>
        <time>2015-10-23T13:19:39Z</time>
      </trkpt>
      <trkpt lat="46.11685" lon="2.64809">
        <ele>541</ele>
        <time>2015-10-23T13:19:43Z</time>
      </trkpt>
      <trkpt lat="46.1168" lon="2.64815">
        <ele>542</ele>
        <time>2015-10-23T13:19:47Z</time>
      </trkpt>
      <trkpt lat="46.11674" lon="2.64819">
        <ele>543</ele>
        <time>2015-10-23T13:19:51Z</time>
      </trkpt>
      <trkpt lat="46.11671" lon="2.6483">
        <ele>544</ele>
        <time>2015-10-23T13:19:55Z</time>
      </trkpt>
      <trkpt lat="46.11667" lon="2.64838">
        <ele>545</ele>
        <time>2015-10-23T13:19:59Z</time>
      </trkpt>
      <trkpt lat="46.11662" lon="2.64847">
        <ele>546</ele>
        <time>2015-10-23T13:20:03Z</time>
      </trkpt>
      <trkpt lat="46.11655" lon="2.64852">
        <ele>546</ele>
        <time>2015-10-23T13:20:07Z</time>
      </trkpt>
      <trkpt lat="46.1165" lon="2.64859">
        <ele>547</ele>
        <time>2015-10-23T13:20:11Z</time>
      </trkpt>
      <trkpt lat="46.11643" lon="2.64867">
        <ele>547</ele>
        <time>2015-10-23T13:20:15Z</time>
      </trkpt>
      <trkpt lat="46.11637" lon="2.64871">
        <ele>548</ele>
        <time>2015-10-23T13:20:19Z</time>
      </trkpt>
      <trkpt lat="46.11632" lon="2.6488">
        <ele>547</ele>
        <time>2015-10-23T13:20:23Z</time>
      </trkpt>
      <trkpt lat="46.11626" lon="2.64888">
        <ele>547</ele>
        <time>2015-10-23T13:20:27Z</time>
      </trkpt>
      <trkpt lat="46.11618" lon="2.649">
        <ele>547</ele>
        <time>2015-10-23T13:20:31Z</time>
      </trkpt>
      <trkpt lat="46.11609" lon="2.64912">
        <ele>548</ele>
        <time>2015-10-23T13:20:35Z</time>
      </trkpt>
      <trkpt lat="46.116" lon="2.64923">
        <ele>547</ele>
        <time>2015-10-23T13:20:39Z</time>
      </trkpt>
      <trkpt lat="46.11595" lon="2.64935">
        <ele>547</ele>
        <time>2015-10-23T13:20:43Z</time>
      </trkpt>
      <trkpt lat="46.1159" lon="2.64951">
        <ele>548</ele>
        <time>2015-10-23T13:20:47Z</time>
      </trkpt>
      <trkpt lat="46.11582" lon="2.64961">
        <ele>548</ele>
        <time>2015-10-23T13:20:51Z</time>
      </trkpt>
      <trkpt lat="46.11577" lon="2.6497">
        <ele>548</ele>
        <time>2015-10-23T13:20:55Z</time>
      </trkpt>
      <trkpt lat="46.11575" lon="2.64987">
        <ele>549</ele>
        <time>2015-10-23T13:20:59Z</time>
      </trkpt>
      <trkpt lat="46.1157" lon="2.64997">
        <ele>548</ele>
        <time>2015-10-23T13:21:03Z</time>
      </trkpt>
      <trkpt lat="46.11567" lon="2.65005">
        <ele>548</ele>
        <time>2015-10-23T13:21:07Z</time>
      </trkpt>
      <trkpt lat="46.11569" lon="2.65021">
        <ele>548</ele>
        <time>2015-10-23T13:21:11Z</time>
      </trkpt>
      <trkpt lat="46.11571" lon="2.65023">
        <ele>548</ele>
        <time>2015-10-23T13:21:15Z</time>
      </trkpt>
      <trkpt lat="46.11562" lon="2.65019">
        <ele>547</ele>
        <time>2015-10-23T13:21:19Z</time>
      </trkpt>
      <trkpt lat="46.11546" lon="2.65008">
        <ele>546</ele>
        <time>2015-10-23T13:21:23Z</time>
      </trkpt>
      <trkpt lat="46.11526" lon="2.65009">
        <ele>544</ele>
        <time>2015-10-23T13:21:27Z</time>
      </trkpt>
      <trkpt lat="46.11511" lon="2.65036">
        <ele>543</ele>
        <time>2015-10-23T13:21:31Z</time>
      </trkpt>
      <trkpt lat="46.11497" lon="2.65056">
        <ele>543</ele>
        <time>2015-10-23T13:21:35Z</time>
      </trkpt>
      <trkpt lat="46.11486" lon="2.6508">
        <ele>542</ele>
        <time>2015-10-23T13:21:39Z</time>
      </trkpt>
      <trkpt lat="46.11486" lon="2.65101">
        <ele>540</ele>
        <time>2015-10-23T13:21:43Z</time>
      </trkpt>
      <trkpt lat="46.11492" lon="2.65127">
        <ele>539</ele>
        <time>2015-10-23T13:21:47Z</time>
      </trkpt>
      <trkpt lat="46.11505" lon="2.65151">
        <ele>539</ele>
        <time>2015-10-23T13:21:51Z</time>
      </trkpt>
      <trkpt lat="46.11515" lon="2.65175">
        <ele>539</ele>
        <time>2015-10-23T13:21:55Z</time>
      </trkpt>
      <trkpt lat="46.11522" lon="2.65197">
        <ele>538</ele>
        <time>2015-10-23T13:21:59Z</time>
      </trkpt>
      <trkpt lat="46.11536" lon="2.65218">
        <ele>539</ele>
        <time>2015-10-23T13:22:03Z</time>
      </trkpt>
      <trkpt lat="46.11541" lon="2.6524">
        <ele>539</ele>
        <time>2015-10-23T13:22:07Z</time>
      </trkpt>
      <trkpt lat="46.11544" lon="2.65264">
        <ele>539</ele>
        <time>2015-10-23T13:22:11Z</time>
      </trkpt>
      <trkpt lat="46.11547" lon="2.65282">
        <ele>538</ele>
        <time>2015-10-23T13:22:15Z</time>
      </trkpt>
      <trkpt lat="46.11552" lon="2.65305">
        <ele>539</ele>
        <time>2015-10-23T13:22:19Z</time>
      </trkpt>
      <trkpt lat="46.1156" lon="2.65323">
        <ele>540</ele>
        <time>2015-10-23T13:22:23Z</time>
      </trkpt>
      <trkpt lat="46.11566" lon="2.65335">
        <ele>540</ele>
        <time>2015-10-23T13:22:27Z</time>
      </trkpt>
      <trkpt lat="46.11575" lon="2.65345">
        <ele>540</ele>
        <time>2015-10-23T13:22:31Z</time>
      </trkpt>
      <trkpt lat="46.11587" lon="2.65358">
        <ele>540</ele>
        <time>2015-10-23T13:22:35Z</time>
      </trkpt>
      <trkpt lat="46.11596" lon="2.65369">
        <ele>540</ele>
        <time>2015-10-23T13:22:39Z</time>
      </trkpt>
      <trkpt lat="46.11602" lon="2.65388">
        <ele>540</ele>
        <time>2015-10-23T13:22:43Z</time>
      </trkpt>
      <trkpt lat="46.116" lon="2.65411">
        <ele>540</ele>
        <time>2015-10-23T13:22:47Z</time>
      </trkpt>
      <trkpt lat="46.116" lon="2.65426">
        <ele>542</ele>
        <time>2015-10-23T13:22:51Z</time>
      </trkpt>
      <trkpt lat="46.116" lon="2.65437">
        <ele>543</ele>
        <time>2015-10-23T13:22:55Z</time>
      </trkpt>
      <trkpt lat="46.11603" lon="2.65446">
        <ele>544</ele>
        <time>2015-10-23T13:22:59Z</time>
      </trkpt>
      <trkpt lat="46.1161" lon="2.65456">
        <ele>545</ele>
        <time>2015-10-23T13:23:03Z</time>
      </trkpt>
      <trkpt lat="46.11611" lon="2.65466">
        <ele>547</ele>
        <time>2015-10-23T13:23:07Z</time>
      </trkpt>
      <trkpt lat="46.11615" lon="2.65478">
        <ele>548</ele>
        <time>2015-10-23T13:23:11Z</time>
      </trkpt>
      <trkpt lat="46.11618" lon="2.65491">
        <ele>549</ele>
        <time>2015-10-23T13:23:15Z</time>
      </trkpt>
      <trkpt lat="46.11621" lon="2.65501">
        <ele>550</ele>
        <time>2015-10-23T13:23:19Z</time>
      </trkpt>
      <trkpt lat="46.11624" lon="2.65506">
        <ele>551</ele>
        <time>2015-10-23T13:23:23Z</time>
      </trkpt>
      <trkpt lat="46.11623" lon="2.65518">
        <ele>552</ele>
        <time>2015-10-23T13:23:27Z</time>
      </trkpt>
      <trkpt lat="46.11622" lon="2.65529">
        <ele>553</ele>
        <time>2015-10-23T13:23:31Z</time>
      </trkpt>
      <trkpt lat="46.11623" lon="2.65541">
        <ele>554</ele>
        <time>2015-10-23T13:23:35Z</time>
      </trkpt>
      <trkpt lat="46.11623" lon="2.65551">
        <ele>556</ele>
        <time>2015-10-23T13:23:39Z</time>
      </trkpt>
      <trkpt lat="46.11622" lon="2.65564">
        <ele>557</ele>
        <time>2015-10-23T13:23:43Z</time>
      </trkpt>
      <trkpt lat="46.11623" lon="2.65575">
        <ele>558</ele>
        <time>2015-10-23T13:23:47Z</time>
      </trkpt>
      <trkpt lat="46.11626" lon="2.65585">
        <ele>559</ele>
        <time>2015-10-23T13:23:51Z</time>
      </trkpt>
      <trkpt lat="46.1163" lon="2.65594">
        <ele>560</ele>
        <time>2015-10-23T13:23:55Z</time>
      </trkpt>
      <trkpt lat="46.1163" lon="2.65609">
        <ele>560</ele>
        <time>2015-10-23T13:23:59Z</time>
      </trkpt>
      <trkpt lat="46.11631" lon="2.65623">
        <ele>561</ele>
        <time>2015-10-23T13:24:03Z</time>
      </trkpt>
      <trkpt lat="46.11633" lon="2.65636">
        <ele>561</ele>
        <time>2015-10-23T13:24:07Z</time>
      </trkpt>
      <trkpt lat="46.11637" lon="2.65645">
        <ele>561</ele>
        <time>2015-10-23T13:24:11Z</time>
      </trkpt>
      <trkpt lat="46.1164" lon="2.65657">
        <ele>561</ele>
        <time>2015-10-23T13:24:15Z</time>
      </trkpt>
      <trkpt lat="46.11644" lon="2.65669">
        <ele>562</ele>
        <time>2015-10-23T13:24:19Z</time>
      </trkpt>
      <trkpt lat="46.11648" lon="2.65679">
        <ele>562</ele>
        <time>2015-10-23T13:24:23Z</time>
      </trkpt>
      <trkpt lat="46.11651" lon="2.65694">
        <ele>562</ele>
        <time>2015-10-23T13:24:27Z</time>
      </trkpt>
      <trkpt lat="46.11661" lon="2.65703">
        <ele>563</ele>
        <time>2015-10-23T13:24:31Z</time>
      </trkpt>
      <trkpt lat="46.11665" lon="2.65717">
        <ele>563</ele>
        <time>2015-10-23T13:24:35Z</time>
      </trkpt>
      <trkpt lat="46.11667" lon="2.65735">
        <ele>564</ele>
        <time>2015-10-23T13:24:39Z</time>
      </trkpt>
      <trkpt lat="46.11673" lon="2.65751">
        <ele>564</ele>
        <time>2015-10-23T13:24:43Z</time>
      </trkpt>
      <trkpt lat="46.11676" lon="2.65763">
        <ele>565</ele>
        <time>2015-10-23T13:24:47Z</time>
      </trkpt>
      <trkpt lat="46.11679" lon="2.65777">
        <ele>565</ele>
        <time>2015-10-23T13:24:51Z</time>
      </trkpt>
      <trkpt lat="46.11684" lon="2.65792">
        <ele>567</ele>
        <time>2015-10-23T13:24:55Z</time>
      </trkpt>
      <trkpt lat="46.11687" lon="2.65805">
        <ele>567</ele>
        <time>2015-10-23T13:24:59Z</time>
      </trkpt>
      <trkpt lat="46.11691" lon="2.65818">
        <ele>568</ele>
        <time>2015-10-23T13:25:03Z</time>
      </trkpt>
      <trkpt lat="46.11692" lon="2.65828">
        <ele>569</ele>
        <time>2015-10-23T13:25:07Z</time>
      </trkpt>
      <trkpt lat="46.11694" lon="2.65837">
        <ele>570</ele>
        <time>2015-10-23T13:25:11Z</time>
      </trkpt>
      <trkpt lat="46.11696" lon="2.65848">
        <ele>570</ele>
        <time>2015-10-23T13:25:15Z</time>
      </trkpt>
      <trkpt lat="46.11701" lon="2.65862">
        <ele>571</ele>
        <time>2015-10-23T13:25:19Z</time>
      </trkpt>
      <trkpt lat="46.11703" lon="2.65871">
        <ele>571</ele>
        <time>2015-10-23T13:25:23Z</time>
      </trkpt>
      <trkpt lat="46.11704" lon="2.65884">
        <ele>572</ele>
        <time>2015-10-23T13:25:27Z</time>
      </trkpt>
      <trkpt lat="46.11705" lon="2.659">
        <ele>573</ele>
        <time>2015-10-23T13:25:31Z</time>
      </trkpt>
      <trkpt lat="46.11706" lon="2.65918">
        <ele>573</ele>
        <time>2015-10-23T13:25:35Z</time>
      </trkpt>
      <trkpt lat="46.11709" lon="2.65932">
        <ele>574</ele>
        <time>2015-10-23T13:25:39Z</time>
      </trkpt>
      <trkpt lat="46.11712" lon="2.65938">
        <ele>575</ele>
        <time>2015-10-23T13:25:43Z</time>
      </trkpt>
      <trkpt lat="46.11715" lon="2.65952">
        <ele>576</ele>
        <time>2015-10-23T13:25:47Z</time>
      </trkpt>
      <trkpt lat="46.11717" lon="2.65962">
        <ele>576</ele>
        <time>2015-10-23T13:25:51Z</time>
      </trkpt>
      <trkpt lat="46.11717" lon="2.65978">
        <ele>577</ele>
        <time>2015-10-23T13:25:55Z</time>
      </trkpt>
      <trkpt lat="46.11718" lon="2.65989">
        <ele>578</ele>
        <time>2015-10-23T13:25:59Z</time>
      </trkpt>
      <trkpt lat="46.11719" lon="2.66001">
        <ele>579</ele>
        <time>2015-10-23T13:26:03Z</time>
      </trkpt>
      <trkpt lat="46.11723" lon="2.66014">
        <ele>579</ele>
        <time>2015-10-23T13:26:07Z</time>
      </trkpt>
      <trkpt lat="46.11724" lon="2.66026">
        <ele>580</ele>
        <time>2015-10-23T13:26:11Z</time>
      </trkpt>
      <trkpt lat="46.11723" lon="2.66033">
        <ele>581</ele>
        <time>2015-10-23T13:26:15Z</time>
      </trkpt>
      <trkpt lat="46.11724" lon="2.66051">
        <ele>582</ele>
        <time>2015-10-23T13:26:19Z</time>
      </trkpt>
      <trkpt lat="46.11726" lon="2.66065">
        <ele>583</ele>
        <time>2015-10-23T13:26:23Z</time>
      </trkpt>
      <trkpt lat="46.11722" lon="2.66084">
        <ele>583</ele>
        <time>2015-10-23T13:26:27Z</time>
      </trkpt>
      <trkpt lat="46.11718" lon="2.66098">
        <ele>583</ele>
        <time>2015-10-23T13:26:31Z</time>
      </trkpt>
      <trkpt lat="46.11717" lon="2.66113">
        <ele>583</ele>
        <time>2015-10-23T13:26:35Z</time>
      </trkpt>
      <trkpt lat="46.11718" lon="2.6613">
        <ele>584</ele>
        <time>2015-10-23T13:26:39Z</time>
      </trkpt>
      <trkpt lat="46.11718" lon="2.66146">
        <ele>584</ele>
        <time>2015-10-23T13:26:43Z</time>
      </trkpt>
      <trkpt lat="46.11713" lon="2.66163">
        <ele>585</ele>
        <time>2015-10-23T13:26:47Z</time>
      </trkpt>
      <trkpt lat="46.11713" lon="2.66177">
        <ele>586</ele>
        <time>2015-10-23T13:26:51Z</time>
      </trkpt>
      <trkpt lat="46.11714" lon="2.66191">
        <ele>586</ele>
        <time>2015-10-23T13:26:55Z</time>
      </trkpt>
      <trkpt lat="46.11715" lon="2.66196">
        <ele>586</ele>
        <time>2015-10-23T13:26:59Z</time>
      </trkpt>
      <trkpt lat="46.11717" lon="2.66208">
        <ele>587</ele>
        <time>2015-10-23T13:27:03Z</time>
      </trkpt>
      <trkpt lat="46.11719" lon="2.66216">
        <ele>587</ele>
        <time>2015-10-23T13:27:07Z</time>
      </trkpt>
      <trkpt lat="46.11724" lon="2.66233">
        <ele>587</ele>
        <time>2015-10-23T13:27:11Z</time>
      </trkpt>
      <trkpt lat="46.11727" lon="2.66244">
        <ele>587</ele>
        <time>2015-10-23T13:27:15Z</time>
      </trkpt>
      <trkpt lat="46.1174" lon="2.66256">
        <ele>586</ele>
        <time>2015-10-23T13:27:19Z</time>
      </trkpt>
      <trkpt lat="46.11748" lon="2.66279">
        <ele>585</ele>
        <time>2015-10-23T13:27:23Z</time>
      </trkpt>
      <trkpt lat="46.11758" lon="2.66302">
        <ele>585</ele>
        <time>2015-10-23T13:27:27Z</time>
      </trkpt>
      <trkpt lat="46.1176" lon="2.66329">
        <ele>585</ele>
        <time>2015-10-23T13:27:31Z</time>
      </trkpt>
      <trkpt lat="46.11759" lon="2.66356">
        <ele>585</ele>
        <time>2015-10-23T13:27:35Z</time>
      </trkpt>
      <trkpt lat="46.11763" lon="2.66379">
        <ele>586</ele>
        <time>2015-10-23T13:27:39Z</time>
      </trkpt>
      <trkpt lat="46.11762" lon="2.66402">
        <ele>585</ele>
        <time>2015-10-23T13:27:43Z</time>
      </trkpt>
      <trkpt lat="46.1177" lon="2.66414">
        <ele>585</ele>
        <time>2015-10-23T13:27:47Z</time>
      </trkpt>
      <trkpt lat="46.11771" lon="2.66439">
        <ele>584</ele>
        <time>2015-10-23T13:27:51Z</time>
      </trkpt>
      <trkpt lat="46.11771" lon="2.66471">
        <ele>582</ele>
        <time>2015-10-23T13:27:55Z</time>
      </trkpt>
      <trkpt lat="46.11773" lon="2.66499">
        <ele>582</ele>
        <time>2015-10-23T13:27:59Z</time>
      </trkpt>
      <trkpt lat="46.11779" lon="2.66529">
        <ele>582</ele>
        <time>2015-10-23T13:28:03Z</time>
      </trkpt>
      <trkpt lat="46.11789" lon="2.66556">
        <ele>582</ele>
        <time>2015-10-23T13:28:07Z</time>
      </trkpt>
      <trkpt lat="46.11797" lon="2.66584">
        <ele>581</ele>
        <time>2015-10-23T13:28:11Z</time>
      </trkpt>
      <trkpt lat="46.11804" lon="2.66614">
        <ele>581</ele>
        <time>2015-10-23T13:28:15Z</time>
      </trkpt>
      <trkpt lat="46.11814" lon="2.66635">
        <ele>581</ele>
        <time>2015-10-23T13:28:19Z</time>
      </trkpt>
      <trkpt lat="46.11823" lon="2.6666">
        <ele>581</ele>
        <time>2015-10-23T13:28:23Z</time>
      </trkpt>
      <trkpt lat="46.11834" lon="2.66683">
        <ele>581</ele>
        <time>2015-10-23T13:28:27Z</time>
      </trkpt>
      <trkpt lat="46.11845" lon="2.66709">
        <ele>581</ele>
        <time>2015-10-23T13:28:31Z</time>
      </trkpt>
      <trkpt lat="46.11852" lon="2.66733">
        <ele>581</ele>
        <time>2015-10-23T13:28:35Z</time>
      </trkpt>
      <trkpt lat="46.11862" lon="2.66753">
        <ele>581</ele>
        <time>2015-10-23T13:28:39Z</time>
      </trkpt>
      <trkpt lat="46.11873" lon="2.66769">
        <ele>579</ele>
        <time>2015-10-23T13:28:43Z</time>
      </trkpt>
      <trkpt lat="46.11884" lon="2.6679">
        <ele>578</ele>
        <time>2015-10-23T13:28:47Z</time>
      </trkpt>
      <trkpt lat="46.11891" lon="2.66821">
        <ele>577</ele>
        <time>2015-10-23T13:28:51Z</time>
      </trkpt>
      <trkpt lat="46.11897" lon="2.66858">
        <ele>576</ele>
        <time>2015-10-23T13:28:55Z</time>
      </trkpt>
      <trkpt lat="46.11902" lon="2.66894">
        <ele>576</ele>
        <time>2015-10-23T13:28:59Z</time>
      </trkpt>
      <trkpt lat="46.11915" lon="2.6692">
        <ele>576</ele>
        <time>2015-10-23T13:29:03Z</time>
      </trkpt>
      <trkpt lat="46.11927" lon="2.66946">
        <ele>576</ele>
        <time>2015-10-23T13:29:07Z</time>
      </trkpt>
      <trkpt lat="46.11941" lon="2.66972">
        <ele>576</ele>
        <time>2015-10-23T13:29:11Z</time>
      </trkpt>
      <trkpt lat="46.11954" lon="2.66999">
        <ele>577</ele>
        <time>2015-10-23T13:29:15Z</time>
      </trkpt>
      <trkpt lat="46.11962" lon="2.6702">
        <ele>578</ele>
        <time>2015-10-23T13:29:19Z</time>
      </trkpt>
      <trkpt lat="46.1197" lon="2.67042">
        <ele>578</ele>
        <time>2015-10-23T13:29:23Z</time>
      </trkpt>
      <trkpt lat="46.11975" lon="2.67063">
        <ele>579</ele>
        <time>2015-10-23T13:29:27Z</time>
      </trkpt>
      <trkpt lat="46.11967" lon="2.67084">
        <ele>580</ele>
        <time>2015-10-23T13:29:31Z</time>
      </trkpt>
      <trkpt lat="46.11958" lon="2.67104">
        <ele>580</ele>
        <time>2015-10-23T13:29:35Z</time>
      </trkpt>
      <trkpt lat="46.11948" lon="2.6712">
        <ele>580</ele>
        <time>2015-10-23T13:29:39Z</time>
      </trkpt>
      <trkpt lat="46.11937" lon="2.67134">
        <ele>581</ele>
        <time>2015-10-23T13:29:43Z</time>
      </trkpt>
      <trkpt lat="46.11926" lon="2.67152">
        <ele>581</ele>
        <time>2015-10-23T13:29:47Z</time>
      </trkpt>
      <trkpt lat="46.11912" lon="2.6716">
        <ele>582</ele>
        <time>2015-10-23T13:29:51Z</time>
      </trkpt>
      <trkpt lat="46.11903" lon="2.67173">
        <ele>582</ele>
        <time>2015-10-23T13:29:55Z</time>
      </trkpt>
      <trkpt lat="46.11891" lon="2.67191">
        <ele>583</ele>
        <time>2015-10-23T13:29:59Z</time>
      </trkpt>
      <trkpt lat="46.11879" lon="2.67206">
        <ele>584</ele>
        <time>2015-10-23T13:30:03Z</time>
      </trkpt>
      <trkpt lat="46.1187" lon="2.67219">
        <ele>584</ele>
        <time>2015-10-23T13:30:07Z</time>
      </trkpt>
      <trkpt lat="46.11861" lon="2.67233">
        <ele>584</ele>
        <time>2015-10-23T13:30:11Z</time>
      </trkpt>
      <trkpt lat="46.11852" lon="2.67251">
        <ele>585</ele>
        <time>2015-10-23T13:30:15Z</time>
      </trkpt>
      <trkpt lat="46.11846" lon="2.67269">
        <ele>585</ele>
        <time>2015-10-23T13:30:19Z</time>
      </trkpt>
      <trkpt lat="46.11841" lon="2.67287">
        <ele>586</ele>
        <time>2015-10-23T13:30:23Z</time>
      </trkpt>
      <trkpt lat="46.11843" lon="2.67306">
        <ele>587</ele>
        <time>2015-10-23T13:30:27Z</time>
      </trkpt>
      <trkpt lat="46.1185" lon="2.67322">
        <ele>588</ele>
        <time>2015-10-23T13:30:31Z</time>
      </trkpt>
      <trkpt lat="46.11854" lon="2.67338">
        <ele>588</ele>
        <time>2015-10-23T13:30:35Z</time>
      </trkpt>
      <trkpt lat="46.11858" lon="2.67353">
        <ele>588</ele>
        <time>2015-10-23T13:30:39Z</time>
      </trkpt>
      <trkpt lat="46.11864" lon="2.67371">
        <ele>589</ele>
        <time>2015-10-23T13:30:43Z</time>
      </trkpt>
      <trkpt lat="46.11869" lon="2.67393">
        <ele>590</ele>
        <time>2015-10-23T13:30:47Z</time>
      </trkpt>
      <trkpt lat="46.11875" lon="2.67411">
        <ele>591</ele>
        <time>2015-10-23T13:30:51Z</time>
      </trkpt>
      <trkpt lat="46.11885" lon="2.67428">
        <ele>591</ele>
        <time>2015-10-23T13:30:55Z</time>
      </trkpt>
      <trkpt lat="46.11895" lon="2.67442">
        <ele>592</ele>
        <time>2015-10-23T13:30:59Z</time>
      </trkpt>
      <trkpt lat="46.11905" lon="2.6746">
        <ele>592</ele>
        <time>2015-10-23T13:31:03Z</time>
      </trkpt>
      <trkpt lat="46.11914" lon="2.67472">
        <ele>593</ele>
        <time>2015-10-23T13:31:07Z</time>
      </trkpt>
      <trkpt lat="46.11924" lon="2.67484">
        <ele>593</ele>
        <time>2015-10-23T13:31:11Z</time>
      </trkpt>
      <trkpt lat="46.11937" lon="2.67497">
        <ele>594</ele>
        <time>2015-10-23T13:31:15Z</time>
      </trkpt>
      <trkpt lat="46.11949" lon="2.67511">
        <ele>594</ele>
        <time>2015-10-23T13:31:19Z</time>
      </trkpt>
      <trkpt lat="46.11959" lon="2.67522">
        <ele>596</ele>
        <time>2015-10-23T13:31:23Z</time>
      </trkpt>
      <trkpt lat="46.1197" lon="2.67537">
        <ele>596</ele>
        <time>2015-10-23T13:31:27Z</time>
      </trkpt>
      <trkpt lat="46.11978" lon="2.67552">
        <ele>597</ele>
        <time>2015-10-23T13:31:31Z</time>
      </trkpt>
      <trkpt lat="46.11989" lon="2.67571">
        <ele>597</ele>
        <time>2015-10-23T13:31:35Z</time>
      </trkpt>
      <trkpt lat="46.11998" lon="2.6759">
        <ele>596</ele>
        <time>2015-10-23T13:31:39Z</time>
      </trkpt>
      <trkpt lat="46.12004" lon="2.6761">
        <ele>596</ele>
        <time>2015-10-23T13:31:43Z</time>
      </trkpt>
      <trkpt lat="46.12014" lon="2.67629">
        <ele>596</ele>
        <time>2015-10-23T13:31:47Z</time>
      </trkpt>
      <trkpt lat="46.12021" lon="2.67649">
        <ele>595</ele>
        <time>2015-10-23T13:31:51Z</time>
      </trkpt>
      <trkpt lat="46.12031" lon="2.67673">
        <ele>596</ele>
        <time>2015-10-23T13:31:55Z</time>
      </trkpt>
      <trkpt lat="46.12038" lon="2.67694">
        <ele>596</ele>
        <time>2015-10-23T13:31:59Z</time>
      </trkpt>
      <trkpt lat="46.12045" lon="2.67715">
        <ele>596</ele>
        <time>2015-10-23T13:32:03Z</time>
      </trkpt>
      <trkpt lat="46.1205" lon="2.67741">
        <ele>597</ele>
        <time>2015-10-23T13:32:07Z</time>
      </trkpt>
      <trkpt lat="46.12051" lon="2.67764">
        <ele>597</ele>
        <time>2015-10-23T13:32:11Z</time>
      </trkpt>
      <trkpt lat="46.12056" lon="2.6779">
        <ele>596</ele>
        <time>2015-10-23T13:32:15Z</time>
      </trkpt>
      <trkpt lat="46.12063" lon="2.67816">
        <ele>596</ele>
        <time>2015-10-23T13:32:19Z</time>
      </trkpt>
      <trkpt lat="46.1207" lon="2.67842">
        <ele>596</ele>
        <time>2015-10-23T13:32:23Z</time>
      </trkpt>
      <trkpt lat="46.12071" lon="2.67871">
        <ele>596</ele>
        <time>2015-10-23T13:32:27Z</time>
      </trkpt>
      <trkpt lat="46.12076" lon="2.679">
        <ele>596</ele>
        <time>2015-10-23T13:32:31Z</time>
      </trkpt>
      <trkpt lat="46.12084" lon="2.67919">
        <ele>596</ele>
        <time>2015-10-23T13:32:35Z</time>
      </trkpt>
      <trkpt lat="46.12094" lon="2.67942">
        <ele>596</ele>
        <time>2015-10-23T13:32:39Z</time>
      </trkpt>
      <trkpt lat="46.12105" lon="2.6797">
        <ele>595</ele>
        <time>2015-10-23T13:32:43Z</time>
      </trkpt>
      <trkpt lat="46.12116" lon="2.68002">
        <ele>595</ele>
        <time>2015-10-23T13:32:47Z</time>
      </trkpt>
      <trkpt lat="46.12119" lon="2.68028">
        <ele>595</ele>
        <time>2015-10-23T13:32:51Z</time>
      </trkpt>
      <trkpt lat="46.12127" lon="2.68044">
        <ele>595</ele>
        <time>2015-10-23T13:32:55Z</time>
      </trkpt>
      <trkpt lat="46.12133" lon="2.68065">
        <ele>595</ele>
        <time>2015-10-23T13:32:59Z</time>
      </trkpt>
      <trkpt lat="46.12138" lon="2.68084">
        <ele>595</ele>
        <time>2015-10-23T13:33:03Z</time>
      </trkpt>
      <trkpt lat="46.12142" lon="2.68103">
        <ele>595</ele>
        <time>2015-10-23T13:33:07Z</time>
      </trkpt>
      <trkpt lat="46.12145" lon="2.68128">
        <ele>596</ele>
        <time>2015-10-23T13:33:11Z</time>
      </trkpt>
      <trkpt lat="46.12149" lon="2.68144">
        <ele>597</ele>
        <time>2015-10-23T13:33:15Z</time>
      </trkpt>
      <trkpt lat="46.12154" lon="2.68162">
        <ele>597</ele>
        <time>2015-10-23T13:33:19Z</time>
      </trkpt>
      <trkpt lat="46.12158" lon="2.6819">
        <ele>596</ele>
        <time>2015-10-23T13:33:23Z</time>
      </trkpt>
      <trkpt lat="46.12166" lon="2.68212">
        <ele>596</ele>
        <time>2015-10-23T13:33:27Z</time>
      </trkpt>
      <trkpt lat="46.1217" lon="2.68234">
        <ele>597</ele>
        <time>2015-10-23T13:33:31Z</time>
      </trkpt>
      <trkpt lat="46.1218" lon="2.68252">
        <ele>598</ele>
        <time>2015-10-23T13:33:35Z</time>
      </trkpt>
      <trkpt lat="46.12187" lon="2.68272">
        <ele>598</ele>
        <time>2015-10-23T13:33:39Z</time>
      </trkpt>
      <trkpt lat="46.12197" lon="2.68291">
        <ele>598</ele>
        <time>2015-10-23T13:33:43Z</time>
      </trkpt>
      <trkpt lat="46.12208" lon="2.6831">
        <ele>598</ele>
        <time>2015-10-23T13:33:47Z</time>
      </trkpt>
      <trkpt lat="46.12218" lon="2.68333">
        <ele>598</ele>
        <time>2015-10-23T13:33:51Z</time>
      </trkpt>
      <trkpt lat="46.12227" lon="2.68353">
        <ele>598</ele>
        <time>2015-10-23T13:33:55Z</time>
      </trkpt>
      <trkpt lat="46.12237" lon="2.68373">
        <ele>598</ele>
        <time>2015-10-23T13:33:59Z</time>
      </trkpt>
      <trkpt lat="46.12247" lon="2.68398">
        <ele>598</ele>
        <time>2015-10-23T13:34:03Z</time>
      </trkpt>
      <trkpt lat="46.12256" lon="2.68419">
        <ele>598</ele>
        <time>2015-10-23T13:34:07Z</time>
      </trkpt>
      <trkpt lat="46.12265" lon="2.68439">
        <ele>598</ele>
        <time>2015-10-23T13:34:11Z</time>
      </trkpt>
      <trkpt lat="46.12272" lon="2.68464">
        <ele>598</ele>
        <time>2015-10-23T13:34:15Z</time>
      </trkpt>
      <trkpt lat="46.1228" lon="2.68491">
        <ele>598</ele>
        <time>2015-10-23T13:34:19Z</time>
      </trkpt>
      <trkpt lat="46.12288" lon="2.68516">
        <ele>599</ele>
        <time>2015-10-23T13:34:23Z</time>
      </trkpt>
      <trkpt lat="46.12294" lon="2.68536">
        <ele>598</ele>
        <time>2015-10-23T13:34:27Z</time>
      </trkpt>
      <trkpt lat="46.12303" lon="2.68557">
        <ele>599</ele>
        <time>2015-10-23T13:34:31Z</time>
      </trkpt>
      <trkpt lat="46.12311" lon="2.68574">
        <ele>599</ele>
        <time>2015-10-23T13:34:35Z</time>
      </trkpt>
      <trkpt lat="46.12323" lon="2.68591">
        <ele>599</ele>
        <time>2015-10-23T13:34:39Z</time>
      </trkpt>
      <trkpt lat="46.12337" lon="2.68609">
        <ele>600</ele>
        <time>2015-10-23T13:34:43Z</time>
      </trkpt>
      <trkpt lat="46.12349" lon="2.68628">
        <ele>600</ele>
        <time>2015-10-23T13:34:47Z</time>
      </trkpt>
      <trkpt lat="46.12361" lon="2.68647">
        <ele>600</ele>
        <time>2015-10-23T13:34:51Z</time>
      </trkpt>
      <trkpt lat="46.12369" lon="2.68664">
        <ele>600</ele>
        <time>2015-10-23T13:34:55Z</time>
      </trkpt>
      <trkpt lat="46.12378" lon="2.68683">
        <ele>600</ele>
        <time>2015-10-23T13:34:59Z</time>
      </trkpt>
      <trkpt lat="46.12391" lon="2.68702">
        <ele>600</ele>
        <time>2015-10-23T13:35:03Z</time>
      </trkpt>
      <trkpt lat="46.12403" lon="2.68719">
        <ele>600</ele>
        <time>2015-10-23T13:35:07Z</time>
      </trkpt>
      <trkpt lat="46.12412" lon="2.68741">
        <ele>601</ele>
        <time>2015-10-23T13:35:11Z</time>
      </trkpt>
      <trkpt lat="46.12416" lon="2.68767">
        <ele>601</ele>
        <time>2015-10-23T13:35:15Z</time>
      </trkpt>
      <trkpt lat="46.12423" lon="2.68785">
        <ele>601</ele>
        <time>2015-10-23T13:35:19Z</time>
      </trkpt>
      <trkpt lat="46.12431" lon="2.68803">
        <ele>601</ele>
        <time>2015-10-23T13:35:23Z</time>
      </trkpt>
      <trkpt lat="46.12444" lon="2.68821">
        <ele>602</ele>
        <time>2015-10-23T13:35:27Z</time>
      </trkpt>
      <trkpt lat="46.12452" lon="2.68841">
        <ele>602</ele>
        <time>2015-10-23T13:35:31Z</time>
      </trkpt>
      <trkpt lat="46.12458" lon="2.68861">
        <ele>603</ele>
        <time>2015-10-23T13:35:35Z</time>
      </trkpt>
      <trkpt lat="46.12467" lon="2.68878">
        <ele>603</ele>
        <time>2015-10-23T13:35:39Z</time>
      </trkpt>
      <trkpt lat="46.12474" lon="2.68898">
        <ele>603</ele>
        <time>2015-10-23T13:35:43Z</time>
      </trkpt>
      <trkpt lat="46.1248" lon="2.68914">
        <ele>603</ele>
        <time>2015-10-23T13:35:47Z</time>
      </trkpt>
      <trkpt lat="46.12488" lon="2.68931">
        <ele>603</ele>
        <time>2015-10-23T13:35:51Z</time>
      </trkpt>
      <trkpt lat="46.12496" lon="2.68949">
        <ele>603</ele>
        <time>2015-10-23T13:35:55Z</time>
      </trkpt>
      <trkpt lat="46.12503" lon="2.68971">
        <ele>603</ele>
        <time>2015-10-23T13:35:59Z</time>
      </trkpt>
      <trkpt lat="46.12507" lon="2.68991">
        <ele>603</ele>
        <time>2015-10-23T13:36:03Z</time>
      </trkpt>
      <trkpt lat="46.12517" lon="2.69007">
        <ele>604</ele>
        <time>2015-10-23T13:36:07Z</time>
      </trkpt>
      <trkpt lat="46.12524" lon="2.6902">
        <ele>604</ele>
        <time>2015-10-23T13:36:11Z</time>
      </trkpt>
      <trkpt lat="46.1253" lon="2.69033">
        <ele>605</ele>
        <time>2015-10-23T13:36:15Z</time>
      </trkpt>
      <trkpt lat="46.12536" lon="2.69047">
        <ele>605</ele>
        <time>2015-10-23T13:36:19Z</time>
      </trkpt>
      <trkpt lat="46.12542" lon="2.69056">
        <ele>605</ele>
        <time>2015-10-23T13:36:23Z</time>
      </trkpt>
      <trkpt lat="46.12551" lon="2.6906">
        <ele>604</ele>
        <time>2015-10-23T13:36:27Z</time>
      </trkpt>
      <trkpt lat="46.12567" lon="2.69069">
        <ele>604</ele>
        <time>2015-10-23T13:36:31Z</time>
      </trkpt>
      <trkpt lat="46.12587" lon="2.69077">
        <ele>604</ele>
        <time>2015-10-23T13:36:35Z</time>
      </trkpt>
      <trkpt lat="46.12607" lon="2.69085">
        <ele>604</ele>
        <time>2015-10-23T13:36:39Z</time>
      </trkpt>
      <trkpt lat="46.12623" lon="2.69096">
        <ele>604</ele>
        <time>2015-10-23T13:36:43Z</time>
      </trkpt>
      <trkpt lat="46.1264" lon="2.69108">
        <ele>604</ele>
        <time>2015-10-23T13:36:47Z</time>
      </trkpt>
      <trkpt lat="46.12658" lon="2.69122">
        <ele>605</ele>
        <time>2015-10-23T13:36:51Z</time>
      </trkpt>
      <trkpt lat="46.12677" lon="2.69136">
        <ele>605</ele>
        <time>2015-10-23T13:36:55Z</time>
      </trkpt>
      <trkpt lat="46.12694" lon="2.69148">
        <ele>606</ele>
        <time>2015-10-23T13:36:59Z</time>
      </trkpt>
      <trkpt lat="46.12708" lon="2.69155">
        <ele>606</ele>
        <time>2015-10-23T13:37:03Z</time>
      </trkpt>
      <trkpt lat="46.12726" lon="2.69162">
        <ele>607</ele>
        <time>2015-10-23T13:37:07Z</time>
      </trkpt>
      <trkpt lat="46.12741" lon="2.69162">
        <ele>607</ele>
        <time>2015-10-23T13:37:11Z</time>
      </trkpt>
      <trkpt lat="46.12755" lon="2.69158">
        <ele>608</ele>
        <time>2015-10-23T13:37:15Z</time>
      </trkpt>
      <trkpt lat="46.12772" lon="2.69151">
        <ele>608</ele>
        <time>2015-10-23T13:37:19Z</time>
      </trkpt>
      <trkpt lat="46.12788" lon="2.69145">
        <ele>609</ele>
        <time>2015-10-23T13:37:23Z</time>
      </trkpt>
      <trkpt lat="46.12803" lon="2.6914">
        <ele>609</ele>
        <time>2015-10-23T13:37:27Z</time>
      </trkpt>
      <trkpt lat="46.12821" lon="2.69132">
        <ele>610</ele>
        <time>2015-10-23T13:37:31Z</time>
      </trkpt>
      <trkpt lat="46.12836" lon="2.69127">
        <ele>610</ele>
        <time>2015-10-23T13:37:35Z</time>
      </trkpt>
      <trkpt lat="46.1285" lon="2.69121">
        <ele>611</ele>
        <time>2015-10-23T13:37:39Z</time>
      </trkpt>
      <trkpt lat="46.12864" lon="2.69116">
        <ele>611</ele>
        <time>2015-10-23T13:37:43Z</time>
      </trkpt>
      <trkpt lat="46.12876" lon="2.69113">
        <ele>612</ele>
        <time>2015-10-23T13:37:47Z</time>
      </trkpt>
      <trkpt lat="46.12891" lon="2.69114">
        <ele>612</ele>
        <time>2015-10-23T13:37:51Z</time>
      </trkpt>
      <trkpt lat="46.12903" lon="2.69124">
        <ele>612</ele>
        <time>2015-10-23T13:37:55Z</time>
      </trkpt>
      <trkpt lat="46.1291" lon="2.69143">
        <ele>613</ele>
        <time>2015-10-23T13:37:59Z</time>
      </trkpt>
      <trkpt lat="46.12916" lon="2.69163">
        <ele>614</ele>
        <time>2015-10-23T13:38:03Z</time>
      </trkpt>
      <trkpt lat="46.12918" lon="2.69184">
        <ele>613</ele>
        <time>2015-10-23T13:38:07Z</time>
      </trkpt>
      <trkpt lat="46.12919" lon="2.69201">
        <ele>613</ele>
        <time>2015-10-23T13:38:11Z</time>
      </trkpt>
      <trkpt lat="46.12921" lon="2.69218">
        <ele>613</ele>
        <time>2015-10-23T13:38:15Z</time>
      </trkpt>
      <trkpt lat="46.12924" lon="2.69234">
        <ele>614</ele>
        <time>2015-10-23T13:38:19Z</time>
      </trkpt>
      <trkpt lat="46.12928" lon="2.6925">
        <ele>614</ele>
        <time>2015-10-23T13:38:23Z</time>
      </trkpt>
      <trkpt lat="46.12931" lon="2.69273">
        <ele>615</ele>
        <time>2015-10-23T13:38:27Z</time>
      </trkpt>
      <trkpt lat="46.12935" lon="2.69291">
        <ele>615</ele>
        <time>2015-10-23T13:38:31Z</time>
      </trkpt>
      <trkpt lat="46.1294" lon="2.69308">
        <ele>616</ele>
        <time>2015-10-23T13:38:35Z</time>
      </trkpt>
      <trkpt lat="46.12941" lon="2.69326">
        <ele>617</ele>
        <time>2015-10-23T13:38:39Z</time>
      </trkpt>
      <trkpt lat="46.12938" lon="2.69347">
        <ele>617</ele>
        <time>2015-10-23T13:38:43Z</time>
      </trkpt>
      <trkpt lat="46.12936" lon="2.69366">
        <ele>618</ele>
        <time>2015-10-23T13:38:47Z</time>
      </trkpt>
      <trkpt lat="46.12935" lon="2.69388">
        <ele>619</ele>
        <time>2015-10-23T13:38:51Z</time>
      </trkpt>
      <trkpt lat="46.12934" lon="2.69405">
        <ele>620</ele>
        <time>2015-10-23T13:38:55Z</time>
      </trkpt>
      <trkpt lat="46.12929" lon="2.69428">
        <ele>620</ele>
        <time>2015-10-23T13:38:59Z</time>
      </trkpt>
      <trkpt lat="46.12928" lon="2.69445">
        <ele>620</ele>
        <time>2015-10-23T13:39:03Z</time>
      </trkpt>
      <trkpt lat="46.12927" lon="2.69463">
        <ele>621</ele>
        <time>2015-10-23T13:39:07Z</time>
      </trkpt>
      <trkpt lat="46.12924" lon="2.69483">
        <ele>621</ele>
        <time>2015-10-23T13:39:11Z</time>
      </trkpt>
      <trkpt lat="46.12924" lon="2.69504">
        <ele>621</ele>
        <time>2015-10-23T13:39:15Z</time>
      </trkpt>
      <trkpt lat="46.1292" lon="2.69525">
        <ele>622</ele>
        <time>2015-10-23T13:39:19Z</time>
      </trkpt>
      <trkpt lat="46.12919" lon="2.69548">
        <ele>622</ele>
        <time>2015-10-23T13:39:23Z</time>
      </trkpt>
      <trkpt lat="46.12916" lon="2.69572">
        <ele>623</ele>
        <time>2015-10-23T13:39:27Z</time>
      </trkpt>
      <trkpt lat="46.12915" lon="2.69597">
        <ele>624</ele>
        <time>2015-10-23T13:39:31Z</time>
      </trkpt>
      <trkpt lat="46.12913" lon="2.69614">
        <ele>624</ele>
        <time>2015-10-23T13:39:35Z</time>
      </trkpt>
      <trkpt lat="46.12907" lon="2.69629">
        <ele>623</ele>
        <time>2015-10-23T13:39:39Z</time>
      </trkpt>
      <trkpt lat="46.12905" lon="2.69649">
        <ele>623</ele>
        <time>2015-10-23T13:39:43Z</time>
      </trkpt>
      <trkpt lat="46.12905" lon="2.69667">
        <ele>623</ele>
        <time>2015-10-23T13:39:47Z</time>
      </trkpt>
      <trkpt lat="46.12903" lon="2.69682">
        <ele>622</ele>
        <time>2015-10-23T13:39:51Z</time>
      </trkpt>
      <trkpt lat="46.12901" lon="2.69699">
        <ele>620</ele>
        <time>2015-10-23T13:39:55Z</time>
      </trkpt>
      <trkpt lat="46.12891" lon="2.69724">
        <ele>619</ele>
        <time>2015-10-23T13:39:59Z</time>
      </trkpt>
      <trkpt lat="46.12872" lon="2.69755">
        <ele>618</ele>
        <time>2015-10-23T13:40:03Z</time>
      </trkpt>
      <trkpt lat="46.12851" lon="2.69778">
        <ele>617</ele>
        <time>2015-10-23T13:40:07Z</time>
      </trkpt>
      <trkpt lat="46.12834" lon="2.69797">
        <ele>617</ele>
        <time>2015-10-23T13:40:11Z</time>
      </trkpt>
      <trkpt lat="46.12822" lon="2.69819">
        <ele>618</ele>
        <time>2015-10-23T13:40:15Z</time>
      </trkpt>
      <trkpt lat="46.12812" lon="2.69841">
        <ele>619</ele>
        <time>2015-10-23T13:40:19Z</time>
      </trkpt>
      <trkpt lat="46.12803" lon="2.69863">
        <ele>619</ele>
        <time>2015-10-23T13:40:23Z</time>
      </trkpt>
      <trkpt lat="46.12796" lon="2.69882">
        <ele>620</ele>
        <time>2015-10-23T13:40:27Z</time>
      </trkpt>
      <trkpt lat="46.12785" lon="2.69896">
        <ele>621</ele>
        <time>2015-10-23T13:40:31Z</time>
      </trkpt>
      <trkpt lat="46.12773" lon="2.69902">
        <ele>623</ele>
        <time>2015-10-23T13:40:35Z</time>
      </trkpt>
      <trkpt lat="46.12759" lon="2.69905">
        <ele>623</ele>
        <time>2015-10-23T13:40:39Z</time>
      </trkpt>
      <trkpt lat="46.12753" lon="2.69916">
        <ele>624</ele>
        <time>2015-10-23T13:40:43Z</time>
      </trkpt>
      <trkpt lat="46.12755" lon="2.69927">
        <ele>625</ele>
        <time>2015-10-23T13:40:47Z</time>
      </trkpt>
      <trkpt lat="46.12757" lon="2.6994">
        <ele>626</ele>
        <time>2015-10-23T13:40:51Z</time>
      </trkpt>
      <trkpt lat="46.1276" lon="2.69953">
        <ele>627</ele>
        <time>2015-10-23T13:40:55Z</time>
      </trkpt>
      <trkpt lat="46.12763" lon="2.69966">
        <ele>628</ele>
        <time>2015-10-23T13:40:59Z</time>
      </trkpt>
      <trkpt lat="46.12761" lon="2.69981">
        <ele>629</ele>
        <time>2015-10-23T13:41:03Z</time>
      </trkpt>
      <trkpt lat="46.12761" lon="2.70001">
        <ele>629</ele>
        <time>2015-10-23T13:41:07Z</time>
      </trkpt>
      <trkpt lat="46.12763" lon="2.70007">
        <ele>630</ele>
        <time>2015-10-23T13:41:11Z</time>
      </trkpt>
      <trkpt lat="46.12764" lon="2.70025">
        <ele>631</ele>
        <time>2015-10-23T13:41:15Z</time>
      </trkpt>
      <trkpt lat="46.12764" lon="2.70037">
        <ele>631</ele>
        <time>2015-10-23T13:41:19Z</time>
      </trkpt>
      <trkpt lat="46.12763" lon="2.70052">
        <ele>632</ele>
        <time>2015-10-23T13:41:23Z</time>
      </trkpt>
      <trkpt lat="46.12754" lon="2.7006">
        <ele>632</ele>
        <time>2015-10-23T13:41:27Z</time>
      </trkpt>
      <trkpt lat="46.12745" lon="2.70063">
        <ele>632</ele>
        <time>2015-10-23T13:41:31Z</time>
      </trkpt>
      <trkpt lat="46.12737" lon="2.70067">
        <ele>633</ele>
        <time>2015-10-23T13:41:35Z</time>
      </trkpt>
      <trkpt lat="46.1273" lon="2.70069">
        <ele>633</ele>
        <time>2015-10-23T13:41:51Z</time>
      </trkpt>
      <trkpt lat="46.12734" lon="2.70063">
        <ele>633</ele>
        <time>2015-10-23T13:41:55Z</time>
      </trkpt>
      <trkpt lat="46.12743" lon="2.70058">
        <ele>633</ele>
        <time>2015-10-23T13:41:59Z</time>
      </trkpt>
      <trkpt lat="46.12755" lon="2.70058">
        <ele>632</ele>
        <time>2015-10-23T13:42:03Z</time>
      </trkpt>
      <trkpt lat="46.12763" lon="2.70069">
        <ele>633</ele>
        <time>2015-10-23T13:42:07Z</time>
      </trkpt>
      <trkpt lat="46.12761" lon="2.70085">
        <ele>633</ele>
        <time>2015-10-23T13:42:11Z</time>
      </trkpt>
      <trkpt lat="46.12761" lon="2.70102">
        <ele>634</ele>
        <time>2015-10-23T13:42:15Z</time>
      </trkpt>
      <trkpt lat="46.12757" lon="2.70117">
        <ele>635</ele>
        <time>2015-10-23T13:42:19Z</time>
      </trkpt>
      <trkpt lat="46.12757" lon="2.70127">
        <ele>636</ele>
        <time>2015-10-23T13:42:23Z</time>
      </trkpt>
      <trkpt lat="46.12759" lon="2.70141">
        <ele>637</ele>
        <time>2015-10-23T13:42:27Z</time>
      </trkpt>
      <trkpt lat="46.1276" lon="2.70153">
        <ele>637</ele>
        <time>2015-10-23T13:42:31Z</time>
      </trkpt>
      <trkpt lat="46.12759" lon="2.70171">
        <ele>638</ele>
        <time>2015-10-23T13:42:35Z</time>
      </trkpt>
      <trkpt lat="46.12758" lon="2.70185">
        <ele>639</ele>
        <time>2015-10-23T13:42:39Z</time>
      </trkpt>
      <trkpt lat="46.12758" lon="2.70201">
        <ele>639</ele>
        <time>2015-10-23T13:42:43Z</time>
      </trkpt>
      <trkpt lat="46.12756" lon="2.7022">
        <ele>639</ele>
        <time>2015-10-23T13:42:47Z</time>
      </trkpt>
      <trkpt lat="46.12757" lon="2.70236">
        <ele>639</ele>
        <time>2015-10-23T13:42:51Z</time>
      </trkpt>
      <trkpt lat="46.12758" lon="2.70247">
        <ele>640</ele>
        <time>2015-10-23T13:42:55Z</time>
      </trkpt>
      <trkpt lat="46.12758" lon="2.70265">
        <ele>640</ele>
        <time>2015-10-23T13:42:59Z</time>
      </trkpt>
      <trkpt lat="46.12757" lon="2.70283">
        <ele>640</ele>
        <time>2015-10-23T13:43:03Z</time>
      </trkpt>
      <trkpt lat="46.12757" lon="2.70299">
        <ele>641</ele>
        <time>2015-10-23T13:43:07Z</time>
      </trkpt>
      <trkpt lat="46.12756" lon="2.70318">
        <ele>641</ele>
        <time>2015-10-23T13:43:11Z</time>
      </trkpt>
      <trkpt lat="46.12753" lon="2.70337">
        <ele>642</ele>
        <time>2015-10-23T13:43:15Z</time>
      </trkpt>
      <trkpt lat="46.12753" lon="2.70356">
        <ele>642</ele>
        <time>2015-10-23T13:43:19Z</time>
      </trkpt>
      <trkpt lat="46.12753" lon="2.70376">
        <ele>642</ele>
        <time>2015-10-23T13:43:23Z</time>
      </trkpt>
      <trkpt lat="46.12755" lon="2.70396">
        <ele>642</ele>
        <time>2015-10-23T13:43:27Z</time>
      </trkpt>
      <trkpt lat="46.12755" lon="2.70416">
        <ele>642</ele>
        <time>2015-10-23T13:43:31Z</time>
      </trkpt>
      <trkpt lat="46.12755" lon="2.70435">
        <ele>641</ele>
        <time>2015-10-23T13:43:35Z</time>
      </trkpt>
      <trkpt lat="46.12752" lon="2.70457">
        <ele>641</ele>
        <time>2015-10-23T13:43:39Z</time>
      </trkpt>
      <trkpt lat="46.12751" lon="2.70481">
        <ele>640</ele>
        <time>2015-10-23T13:43:43Z</time>
      </trkpt>
      <trkpt lat="46.12752" lon="2.70507">
        <ele>639</ele>
        <time>2015-10-23T13:43:47Z</time>
      </trkpt>
      <trkpt lat="46.12751" lon="2.70529">
        <ele>639</ele>
        <time>2015-10-23T13:43:51Z</time>
      </trkpt>
      <trkpt lat="46.12751" lon="2.70551">
        <ele>639</ele>
        <time>2015-10-23T13:43:55Z</time>
      </trkpt>
      <trkpt lat="46.12749" lon="2.70575">
        <ele>639</ele>
        <time>2015-10-23T13:43:59Z</time>
      </trkpt>
      <trkpt lat="46.12746" lon="2.70596">
        <ele>639</ele>
        <time>2015-10-23T13:44:03Z</time>
      </trkpt>
      <trkpt lat="46.12747" lon="2.70618">
        <ele>639</ele>
        <time>2015-10-23T13:44:07Z</time>
      </trkpt>
      <trkpt lat="46.12747" lon="2.70642">
        <ele>640</ele>
        <time>2015-10-23T13:44:11Z</time>
      </trkpt>
      <trkpt lat="46.12743" lon="2.70665">
        <ele>641</ele>
        <time>2015-10-23T13:44:15Z</time>
      </trkpt>
      <trkpt lat="46.12742" lon="2.7069">
        <ele>641</ele>
        <time>2015-10-23T13:44:19Z</time>
      </trkpt>
      <trkpt lat="46.12737" lon="2.70717">
        <ele>641</ele>
        <time>2015-10-23T13:44:23Z</time>
      </trkpt>
      <trkpt lat="46.12735" lon="2.70738">
        <ele>641</ele>
        <time>2015-10-23T13:44:27Z</time>
      </trkpt>
      <trkpt lat="46.12733" lon="2.70761">
        <ele>641</ele>
        <time>2015-10-23T13:44:31Z</time>
      </trkpt>
      <trkpt lat="46.12732" lon="2.70783">
        <ele>641</ele>
        <time>2015-10-23T13:44:35Z</time>
      </trkpt>
      <trkpt lat="46.12732" lon="2.70807">
        <ele>641</ele>
        <time>2015-10-23T13:44:39Z</time>
      </trkpt>
      <trkpt lat="46.1273" lon="2.70831">
        <ele>641</ele>
        <time>2015-10-23T13:44:43Z</time>
      </trkpt>
      <trkpt lat="46.12728" lon="2.70856">
        <ele>641</ele>
        <time>2015-10-23T13:44:47Z</time>
      </trkpt>
      <trkpt lat="46.12726" lon="2.70877">
        <ele>641</ele>
        <time>2015-10-23T13:44:51Z</time>
      </trkpt>
      <trkpt lat="46.12725" lon="2.709">
        <ele>642</ele>
        <time>2015-10-23T13:44:55Z</time>
      </trkpt>
      <trkpt lat="46.12723" lon="2.70922">
        <ele>642</ele>
        <time>2015-10-23T13:44:59Z</time>
      </trkpt>
      <trkpt lat="46.12722" lon="2.7094">
        <ele>643</ele>
        <time>2015-10-23T13:45:03Z</time>
      </trkpt>
      <trkpt lat="46.12723" lon="2.7096">
        <ele>643</ele>
        <time>2015-10-23T13:45:07Z</time>
      </trkpt>
      <trkpt lat="46.12722" lon="2.70982">
        <ele>644</ele>
        <time>2015-10-23T13:45:11Z</time>
      </trkpt>
      <trkpt lat="46.12721" lon="2.70998">
        <ele>644</ele>
        <time>2015-10-23T13:45:15Z</time>
      </trkpt>
      <trkpt lat="46.12719" lon="2.71015">
        <ele>645</ele>
        <time>2015-10-23T13:45:19Z</time>
      </trkpt>
      <trkpt lat="46.12719" lon="2.71032">
        <ele>644</ele>
        <time>2015-10-23T13:45:23Z</time>
      </trkpt>
      <trkpt lat="46.12722" lon="2.71047">
        <ele>644</ele>
        <time>2015-10-23T13:45:27Z</time>
      </trkpt>
      <trkpt lat="46.12724" lon="2.7107">
        <ele>642</ele>
        <time>2015-10-23T13:45:31Z</time>
      </trkpt>
      <trkpt lat="46.12724" lon="2.71086">
        <ele>642</ele>
        <time>2015-10-23T13:45:35Z</time>
      </trkpt>
      <trkpt lat="46.12729" lon="2.71102">
        <ele>642</ele>
        <time>2015-10-23T13:45:39Z</time>
      </trkpt>
      <trkpt lat="46.12737" lon="2.71119">
        <ele>641</ele>
        <time>2015-10-23T13:45:43Z</time>
      </trkpt>
      <trkpt lat="46.12742" lon="2.71136">
        <ele>641</ele>
        <time>2015-10-23T13:45:47Z</time>
      </trkpt>
      <trkpt lat="46.12744" lon="2.71155">
        <ele>640</ele>
        <time>2015-10-23T13:45:51Z</time>
      </trkpt>
      <trkpt lat="46.12748" lon="2.71176">
        <ele>641</ele>
        <time>2015-10-23T13:45:55Z</time>
      </trkpt>
      <trkpt lat="46.12753" lon="2.71197">
        <ele>641</ele>
        <time>2015-10-23T13:45:59Z</time>
      </trkpt>
      <trkpt lat="46.12754" lon="2.71216">
        <ele>642</ele>
        <time>2015-10-23T13:46:03Z</time>
      </trkpt>
      <trkpt lat="46.12753" lon="2.71238">
        <ele>642</ele>
        <time>2015-10-23T13:46:07Z</time>
      </trkpt>
      <trkpt lat="46.12755" lon="2.71261">
        <ele>642</ele>
        <time>2015-10-23T13:46:11Z</time>
      </trkpt>
      <trkpt lat="46.12758" lon="2.71282">
        <ele>642</ele>
        <time>2015-10-23T13:46:15Z</time>
      </trkpt>
      <trkpt lat="46.12765" lon="2.71301">
        <ele>642</ele>
        <time>2015-10-23T13:46:19Z</time>
      </trkpt>
      <trkpt lat="46.12768" lon="2.71318">
        <ele>643</ele>
        <time>2015-10-23T13:46:23Z</time>
      </trkpt>
      <trkpt lat="46.12773" lon="2.71341">
        <ele>643</ele>
        <time>2015-10-23T13:46:27Z</time>
      </trkpt>
      <trkpt lat="46.12777" lon="2.7136">
        <ele>642</ele>
        <time>2015-10-23T13:46:31Z</time>
      </trkpt>
      <trkpt lat="46.12782" lon="2.7138">
        <ele>642</ele>
        <time>2015-10-23T13:46:35Z</time>
      </trkpt>
      <trkpt lat="46.12785" lon="2.71398">
        <ele>642</ele>
        <time>2015-10-23T13:46:39Z</time>
      </trkpt>
      <trkpt lat="46.12791" lon="2.7141">
        <ele>643</ele>
        <time>2015-10-23T13:46:43Z</time>
      </trkpt>
      <trkpt lat="46.12791" lon="2.71426">
        <ele>643</ele>
        <time>2015-10-23T13:46:47Z</time>
      </trkpt>
      <trkpt lat="46.12799" lon="2.71443">
        <ele>643</ele>
        <time>2015-10-23T13:46:51Z</time>
      </trkpt>
      <trkpt lat="46.12806" lon="2.71458">
        <ele>643</ele>
        <time>2015-10-23T13:46:55Z</time>
      </trkpt>
      <trkpt lat="46.12808" lon="2.71473">
        <ele>645</ele>
        <time>2015-10-23T13:46:59Z</time>
      </trkpt>
      <trkpt lat="46.1281" lon="2.7149">
        <ele>646</ele>
        <time>2015-10-23T13:47:03Z</time>
      </trkpt>
      <trkpt lat="46.12812" lon="2.71499">
        <ele>646</ele>
        <time>2015-10-23T13:47:07Z</time>
      </trkpt>
      <trkpt lat="46.12816" lon="2.71515">
        <ele>647</ele>
        <time>2015-10-23T13:47:11Z</time>
      </trkpt>
      <trkpt lat="46.12819" lon="2.71528">
        <ele>648</ele>
        <time>2015-10-23T13:47:15Z</time>
      </trkpt>
      <trkpt lat="46.12824" lon="2.71546">
        <ele>649</ele>
        <time>2015-10-23T13:47:19Z</time>
      </trkpt>
      <trkpt lat="46.1283" lon="2.71561">
        <ele>650</ele>
        <time>2015-10-23T13:47:23Z</time>
      </trkpt>
      <trkpt lat="46.12835" lon="2.71574">
        <ele>651</ele>
        <time>2015-10-23T13:47:27Z</time>
      </trkpt>
      <trkpt lat="46.12837" lon="2.71589">
        <ele>651</ele>
        <time>2015-10-23T13:47:31Z</time>
      </trkpt>
      <trkpt lat="46.12844" lon="2.71603">
        <ele>651</ele>
        <time>2015-10-23T13:47:35Z</time>
      </trkpt>
      <trkpt lat="46.12846" lon="2.71623">
        <ele>651</ele>
        <time>2015-10-23T13:47:39Z</time>
      </trkpt>
      <trkpt lat="46.1285" lon="2.7164">
        <ele>652</ele>
        <time>2015-10-23T13:47:43Z</time>
      </trkpt>
      <trkpt lat="46.12857" lon="2.71661">
        <ele>652</ele>
        <time>2015-10-23T13:47:47Z</time>
      </trkpt>
      <trkpt lat="46.12856" lon="2.71674">
        <ele>652</ele>
        <time>2015-10-23T13:47:51Z</time>
      </trkpt>
      <trkpt lat="46.12864" lon="2.71684">
        <ele>652</ele>
        <time>2015-10-23T13:47:55Z</time>
      </trkpt>
      <trkpt lat="46.1287" lon="2.71699">
        <ele>652</ele>
        <time>2015-10-23T13:47:59Z</time>
      </trkpt>
      <trkpt lat="46.12881" lon="2.71718">
        <ele>652</ele>
        <time>2015-10-23T13:48:03Z</time>
      </trkpt>
      <trkpt lat="46.12889" lon="2.71737">
        <ele>652</ele>
        <time>2015-10-23T13:48:07Z</time>
      </trkpt>
      <trkpt lat="46.12898" lon="2.71755">
        <ele>652</ele>
        <time>2015-10-23T13:48:11Z</time>
      </trkpt>
      <trkpt lat="46.129" lon="2.71775">
        <ele>651</ele>
        <time>2015-10-23T13:48:15Z</time>
      </trkpt>
      <trkpt lat="46.12908" lon="2.71791">
        <ele>651</ele>
        <time>2015-10-23T13:48:19Z</time>
      </trkpt>
      <trkpt lat="46.12913" lon="2.71808">
        <ele>651</ele>
        <time>2015-10-23T13:48:23Z</time>
      </trkpt>
      <trkpt lat="46.12917" lon="2.71828">
        <ele>652</ele>
        <time>2015-10-23T13:48:27Z</time>
      </trkpt>
      <trkpt lat="46.12924" lon="2.71846">
        <ele>652</ele>
        <time>2015-10-23T13:48:31Z</time>
      </trkpt>
      <trkpt lat="46.12934" lon="2.71859">
        <ele>652</ele>
        <time>2015-10-23T13:48:35Z</time>
      </trkpt>
      <trkpt lat="46.1294" lon="2.71873">
        <ele>652</ele>
        <time>2015-10-23T13:48:39Z</time>
      </trkpt>
      <trkpt lat="46.12946" lon="2.71894">
        <ele>651</ele>
        <time>2015-10-23T13:48:43Z</time>
      </trkpt>
      <trkpt lat="46.12957" lon="2.71914">
        <ele>650</ele>
        <time>2015-10-23T13:48:47Z</time>
      </trkpt>
      <trkpt lat="46.12964" lon="2.71934">
        <ele>650</ele>
        <time>2015-10-23T13:48:51Z</time>
      </trkpt>
      <trkpt lat="46.1297" lon="2.71948">
        <ele>649</ele>
        <time>2015-10-23T13:48:55Z</time>
      </trkpt>
      <trkpt lat="46.1298" lon="2.71968">
        <ele>649</ele>
        <time>2015-10-23T13:48:59Z</time>
      </trkpt>
      <trkpt lat="46.12988" lon="2.7198">
        <ele>649</ele>
        <time>2015-10-23T13:49:03Z</time>
      </trkpt>
      <trkpt lat="46.12998" lon="2.71993">
        <ele>649</ele>
        <time>2015-10-23T13:49:07Z</time>
      </trkpt>
      <trkpt lat="46.13007" lon="2.72006">
        <ele>649</ele>
        <time>2015-10-23T13:49:11Z</time>
      </trkpt>
      <trkpt lat="46.13011" lon="2.72017">
        <ele>648</ele>
        <time>2015-10-23T13:49:15Z</time>
      </trkpt>
      <trkpt lat="46.13016" lon="2.72029">
        <ele>648</ele>
        <time>2015-10-23T13:49:19Z</time>
      </trkpt>
      <trkpt lat="46.13021" lon="2.72036">
        <ele>648</ele>
        <time>2015-10-23T13:49:23Z</time>
      </trkpt>
      <trkpt lat="46.13026" lon="2.72044">
        <ele>649</ele>
        <time>2015-10-23T13:49:27Z</time>
      </trkpt>
      <trkpt lat="46.13032" lon="2.72057">
        <ele>649</ele>
        <time>2015-10-23T13:49:31Z</time>
      </trkpt>
      <trkpt lat="46.13033" lon="2.72069">
        <ele>649</ele>
        <time>2015-10-23T13:49:35Z</time>
      </trkpt>
      <trkpt lat="46.13042" lon="2.7208">
        <ele>650</ele>
        <time>2015-10-23T13:49:39Z</time>
      </trkpt>
      <trkpt lat="46.13048" lon="2.7209">
        <ele>650</ele>
        <time>2015-10-23T13:49:43Z</time>
      </trkpt>
      <trkpt lat="46.13055" lon="2.721">
        <ele>650</ele>
        <time>2015-10-23T13:49:47Z</time>
      </trkpt>
      <trkpt lat="46.13064" lon="2.72105">
        <ele>650</ele>
        <time>2015-10-23T13:49:51Z</time>
      </trkpt>
      <trkpt lat="46.13069" lon="2.72118">
        <ele>651</ele>
        <time>2015-10-23T13:49:55Z</time>
      </trkpt>
      <trkpt lat="46.13071" lon="2.72133">
        <ele>650</ele>
        <time>2015-10-23T13:49:59Z</time>
      </trkpt>
      <trkpt lat="46.13075" lon="2.72148">
        <ele>650</ele>
        <time>2015-10-23T13:50:03Z</time>
      </trkpt>
      <trkpt lat="46.13079" lon="2.72161">
        <ele>650</ele>
        <time>2015-10-23T13:50:07Z</time>
      </trkpt>
      <trkpt lat="46.13083" lon="2.72175">
        <ele>651</ele>
        <time>2015-10-23T13:50:11Z</time>
      </trkpt>
      <trkpt lat="46.13086" lon="2.7219">
        <ele>651</ele>
        <time>2015-10-23T13:50:15Z</time>
      </trkpt>
      <trkpt lat="46.13089" lon="2.72209">
        <ele>651</ele>
        <time>2015-10-23T13:50:19Z</time>
      </trkpt>
      <trkpt lat="46.13094" lon="2.72225">
        <ele>651</ele>
        <time>2015-10-23T13:50:23Z</time>
      </trkpt>
      <trkpt lat="46.13098" lon="2.72247">
        <ele>652</ele>
        <time>2015-10-23T13:50:27Z</time>
      </trkpt>
      <trkpt lat="46.13102" lon="2.72262">
        <ele>652</ele>
        <time>2015-10-23T13:50:31Z</time>
      </trkpt>
      <trkpt lat="46.13106" lon="2.72276">
        <ele>653</ele>
        <time>2015-10-23T13:50:35Z</time>
      </trkpt>
      <trkpt lat="46.13115" lon="2.72286">
        <ele>653</ele>
        <time>2015-10-23T13:50:39Z</time>
      </trkpt>
      <trkpt lat="46.13115" lon="2.72301">
        <ele>654</ele>
        <time>2015-10-23T13:50:43Z</time>
      </trkpt>
      <trkpt lat="46.13118" lon="2.72315">
        <ele>655</ele>
        <time>2015-10-23T13:50:47Z</time>
      </trkpt>
      <trkpt lat="46.13117" lon="2.72324">
        <ele>656</ele>
        <time>2015-10-23T13:50:51Z</time>
      </trkpt>
      <trkpt lat="46.1312" lon="2.72332">
        <ele>657</ele>
        <time>2015-10-23T13:50:59Z</time>
      </trkpt>
      <trkpt lat="46.13115" lon="2.72345">
        <ele>658</ele>
        <time>2015-10-23T13:51:19Z</time>
      </trkpt>
      <trkpt lat="46.13112" lon="2.72356">
        <ele>657</ele>
        <time>2015-10-23T13:51:23Z</time>
      </trkpt>
      <trkpt lat="46.1311" lon="2.72363">
        <ele>658</ele>
        <time>2015-10-23T13:51:27Z</time>
      </trkpt>
      <trkpt lat="46.13107" lon="2.72369">
        <ele>658</ele>
        <time>2015-10-23T13:51:31Z</time>
      </trkpt>
      <trkpt lat="46.13106" lon="2.72377">
        <ele>659</ele>
        <time>2015-10-23T13:51:35Z</time>
      </trkpt>
      <trkpt lat="46.13103" lon="2.72386">
        <ele>660</ele>
        <time>2015-10-23T13:51:39Z</time>
      </trkpt>
      <trkpt lat="46.13101" lon="2.72396">
        <ele>660</ele>
        <time>2015-10-23T13:51:43Z</time>
      </trkpt>
      <trkpt lat="46.13098" lon="2.72404">
        <ele>661</ele>
        <time>2015-10-23T13:51:47Z</time>
      </trkpt>
      <trkpt lat="46.13095" lon="2.72413">
        <ele>661</ele>
        <time>2015-10-23T13:51:51Z</time>
      </trkpt>
      <trkpt lat="46.13093" lon="2.72422">
        <ele>662</ele>
        <time>2015-10-23T13:51:55Z</time>
      </trkpt>
      <trkpt lat="46.13091" lon="2.72432">
        <ele>663</ele>
        <time>2015-10-23T13:51:59Z</time>
      </trkpt>
      <trkpt lat="46.13089" lon="2.72441">
        <ele>664</ele>
        <time>2015-10-23T13:52:03Z</time>
      </trkpt>
      <trkpt lat="46.13085" lon="2.72451">
        <ele>665</ele>
        <time>2015-10-23T13:52:07Z</time>
      </trkpt>
      <trkpt lat="46.13083" lon="2.72461">
        <ele>666</ele>
        <time>2015-10-23T13:52:11Z</time>
      </trkpt>
      <trkpt lat="46.13082" lon="2.72469">
        <ele>667</ele>
        <time>2015-10-23T13:52:15Z</time>
      </trkpt>
      <trkpt lat="46.13079" lon="2.72477">
        <ele>667</ele>
        <time>2015-10-23T13:52:19Z</time>
      </trkpt>
      <trkpt lat="46.13078" lon="2.72487">
        <ele>668</ele>
        <time>2015-10-23T13:52:23Z</time>
      </trkpt>
      <trkpt lat="46.13077" lon="2.72497">
        <ele>669</ele>
        <time>2015-10-23T13:52:27Z</time>
      </trkpt>
      <trkpt lat="46.13075" lon="2.72511">
        <ele>669</ele>
        <time>2015-10-23T13:52:31Z</time>
      </trkpt>
      <trkpt lat="46.13069" lon="2.7252">
        <ele>670</ele>
        <time>2015-10-23T13:52:35Z</time>
      </trkpt>
      <trkpt lat="46.13068" lon="2.72531">
        <ele>670</ele>
        <time>2015-10-23T13:52:39Z</time>
      </trkpt>
      <trkpt lat="46.13067" lon="2.72541">
        <ele>671</ele>
        <time>2015-10-23T13:52:43Z</time>
      </trkpt>
      <trkpt lat="46.13066" lon="2.72553">
        <ele>672</ele>
        <time>2015-10-23T13:52:47Z</time>
      </trkpt>
      <trkpt lat="46.13063" lon="2.72562">
        <ele>672</ele>
        <time>2015-10-23T13:52:51Z</time>
      </trkpt>
      <trkpt lat="46.13063" lon="2.7257">
        <ele>672</ele>
        <time>2015-10-23T13:52:55Z</time>
      </trkpt>
      <trkpt lat="46.13062" lon="2.72576">
        <ele>673</ele>
        <time>2015-10-23T13:52:59Z</time>
      </trkpt>
      <trkpt lat="46.13062" lon="2.72592">
        <ele>673</ele>
        <time>2015-10-23T13:53:03Z</time>
      </trkpt>
      <trkpt lat="46.1306" lon="2.726">
        <ele>673</ele>
        <time>2015-10-23T13:53:07Z</time>
      </trkpt>
      <trkpt lat="46.13057" lon="2.72614">
        <ele>674</ele>
        <time>2015-10-23T13:53:11Z</time>
      </trkpt>
      <trkpt lat="46.13059" lon="2.72623">
        <ele>674</ele>
        <time>2015-10-23T13:53:15Z</time>
      </trkpt>
      <trkpt lat="46.13057" lon="2.72636">
        <ele>674</ele>
        <time>2015-10-23T13:53:19Z</time>
      </trkpt>
      <trkpt lat="46.13057" lon="2.7265">
        <ele>674</ele>
        <time>2015-10-23T13:53:23Z</time>
      </trkpt>
      <trkpt lat="46.13054" lon="2.72661">
        <ele>674</ele>
        <time>2015-10-23T13:53:27Z</time>
      </trkpt>
      <trkpt lat="46.13053" lon="2.72677">
        <ele>675</ele>
        <time>2015-10-23T13:53:31Z</time>
      </trkpt>
      <trkpt lat="46.13054" lon="2.72691">
        <ele>675</ele>
        <time>2015-10-23T13:53:35Z</time>
      </trkpt>
      <trkpt lat="46.13053" lon="2.72705">
        <ele>675</ele>
        <time>2015-10-23T13:53:39Z</time>
      </trkpt>
      <trkpt lat="46.13055" lon="2.7272">
        <ele>675</ele>
        <time>2015-10-23T13:53:43Z</time>
      </trkpt>
      <trkpt lat="46.13055" lon="2.7274">
        <ele>676</ele>
        <time>2015-10-23T13:53:47Z</time>
      </trkpt>
      <trkpt lat="46.13055" lon="2.72759">
        <ele>676</ele>
        <time>2015-10-23T13:53:51Z</time>
      </trkpt>
      <trkpt lat="46.13057" lon="2.72778">
        <ele>676</ele>
        <time>2015-10-23T13:53:55Z</time>
      </trkpt>
      <trkpt lat="46.13057" lon="2.72798">
        <ele>676</ele>
        <time>2015-10-23T13:53:59Z</time>
      </trkpt>
      <trkpt lat="46.13061" lon="2.7282">
        <ele>676</ele>
        <time>2015-10-23T13:54:03Z</time>
      </trkpt>
      <trkpt lat="46.13062" lon="2.72834">
        <ele>677</ele>
        <time>2015-10-23T13:54:07Z</time>
      </trkpt>
      <trkpt lat="46.13062" lon="2.72851">
        <ele>677</ele>
        <time>2015-10-23T13:54:11Z</time>
      </trkpt>
      <trkpt lat="46.13062" lon="2.7287">
        <ele>677</ele>
        <time>2015-10-23T13:54:15Z</time>
      </trkpt>
      <trkpt lat="46.13068" lon="2.72886">
        <ele>678</ele>
        <time>2015-10-23T13:54:19Z</time>
      </trkpt>
      <trkpt lat="46.1307" lon="2.729">
        <ele>678</ele>
        <time>2015-10-23T13:54:23Z</time>
      </trkpt>
      <trkpt lat="46.13073" lon="2.72923">
        <ele>679</ele>
        <time>2015-10-23T13:54:27Z</time>
      </trkpt>
      <trkpt lat="46.13076" lon="2.7294">
        <ele>678</ele>
        <time>2015-10-23T13:54:31Z</time>
      </trkpt>
      <trkpt lat="46.1308" lon="2.72955">
        <ele>679</ele>
        <time>2015-10-23T13:54:35Z</time>
      </trkpt>
      <trkpt lat="46.13083" lon="2.72969">
        <ele>679</ele>
        <time>2015-10-23T13:54:39Z</time>
      </trkpt>
      <trkpt lat="46.13086" lon="2.72986">
        <ele>679</ele>
        <time>2015-10-23T13:54:43Z</time>
      </trkpt>
      <trkpt lat="46.13091" lon="2.73001">
        <ele>679</ele>
        <time>2015-10-23T13:54:47Z</time>
      </trkpt>
      <trkpt lat="46.13095" lon="2.73016">
        <ele>680</ele>
        <time>2015-10-23T13:54:51Z</time>
      </trkpt>
      <trkpt lat="46.13098" lon="2.73033">
        <ele>679</ele>
        <time>2015-10-23T13:54:55Z</time>
      </trkpt>
      <trkpt lat="46.13104" lon="2.73046">
        <ele>679</ele>
        <time>2015-10-23T13:54:59Z</time>
      </trkpt>
      <trkpt lat="46.13106" lon="2.73064">
        <ele>679</ele>
        <time>2015-10-23T13:55:03Z</time>
      </trkpt>
      <trkpt lat="46.13115" lon="2.73082">
        <ele>678</ele>
        <time>2015-10-23T13:55:07Z</time>
      </trkpt>
      <trkpt lat="46.13124" lon="2.73107">
        <ele>677</ele>
        <time>2015-10-23T13:55:11Z</time>
      </trkpt>
      <trkpt lat="46.13127" lon="2.73129">
        <ele>675</ele>
        <time>2015-10-23T13:55:15Z</time>
      </trkpt>
      <trkpt lat="46.13137" lon="2.73159">
        <ele>673</ele>
        <time>2015-10-23T13:55:19Z</time>
      </trkpt>
      <trkpt lat="46.13149" lon="2.7319">
        <ele>672</ele>
        <time>2015-10-23T13:55:23Z</time>
      </trkpt>
      <trkpt lat="46.13162" lon="2.73219">
        <ele>671</ele>
        <time>2015-10-23T13:55:27Z</time>
      </trkpt>
      <trkpt lat="46.13177" lon="2.73248">
        <ele>670</ele>
        <time>2015-10-23T13:55:31Z</time>
      </trkpt>
      <trkpt lat="46.13193" lon="2.73276">
        <ele>669</ele>
        <time>2015-10-23T13:55:35Z</time>
      </trkpt>
      <trkpt lat="46.13206" lon="2.73302">
        <ele>669</ele>
        <time>2015-10-23T13:55:39Z</time>
      </trkpt>
      <trkpt lat="46.13217" lon="2.73324">
        <ele>669</ele>
        <time>2015-10-23T13:55:43Z</time>
      </trkpt>
      <trkpt lat="46.13221" lon="2.73345">
        <ele>669</ele>
        <time>2015-10-23T13:55:47Z</time>
      </trkpt>
      <trkpt lat="46.13228" lon="2.73368">
        <ele>669</ele>
        <time>2015-10-23T13:55:51Z</time>
      </trkpt>
      <trkpt lat="46.13232" lon="2.7339">
        <ele>669</ele>
        <time>2015-10-23T13:55:55Z</time>
      </trkpt>
      <trkpt lat="46.13238" lon="2.73416">
        <ele>670</ele>
        <time>2015-10-23T13:55:59Z</time>
      </trkpt>
      <trkpt lat="46.13241" lon="2.73434">
        <ele>670</ele>
        <time>2015-10-23T13:56:03Z</time>
      </trkpt>
      <trkpt lat="46.13242" lon="2.73455">
        <ele>670</ele>
        <time>2015-10-23T13:56:07Z</time>
      </trkpt>
      <trkpt lat="46.1324" lon="2.73483">
        <ele>670</ele>
        <time>2015-10-23T13:56:11Z</time>
      </trkpt>
      <trkpt lat="46.13238" lon="2.73507">
        <ele>671</ele>
        <time>2015-10-23T13:56:15Z</time>
      </trkpt>
      <trkpt lat="46.13236" lon="2.73529">
        <ele>671</ele>
        <time>2015-10-23T13:56:19Z</time>
      </trkpt>
      <trkpt lat="46.13233" lon="2.73547">
        <ele>672</ele>
        <time>2015-10-23T13:56:23Z</time>
      </trkpt>
      <trkpt lat="46.1323" lon="2.73563">
        <ele>672</ele>
        <time>2015-10-23T13:59:07Z</time>
      </trkpt>
      <trkpt lat="46.13239" lon="2.73587">
        <ele>673</ele>
        <time>2015-10-23T13:59:55Z</time>
      </trkpt>
      <trkpt lat="46.13228" lon="2.73583">
        <ele>673</ele>
        <time>2015-10-23T13:59:59Z</time>
      </trkpt>
      <trkpt lat="46.13227" lon="2.73598">
        <ele>673</ele>
        <time>2015-10-23T14:00:03Z</time>
      </trkpt>
      <trkpt lat="46.13224" lon="2.73617">
        <ele>673</ele>
        <time>2015-10-23T14:00:07Z</time>
      </trkpt>
      <trkpt lat="46.13222" lon="2.73639">
        <ele>673</ele>
        <time>2015-10-23T14:00:11Z</time>
      </trkpt>
      <trkpt lat="46.13218" lon="2.73662">
        <ele>673</ele>
        <time>2015-10-23T14:00:15Z</time>
      </trkpt>
      <trkpt lat="46.13212" lon="2.73687">
        <ele>672</ele>
        <time>2015-10-23T14:00:19Z</time>
      </trkpt>
      <trkpt lat="46.13206" lon="2.73713">
        <ele>672</ele>
        <time>2015-10-23T14:00:23Z</time>
      </trkpt>
      <trkpt lat="46.132" lon="2.73737">
        <ele>671</ele>
        <time>2015-10-23T14:00:27Z</time>
      </trkpt>
      <trkpt lat="46.13194" lon="2.73762">
        <ele>671</ele>
        <time>2015-10-23T14:00:31Z</time>
      </trkpt>
      <trkpt lat="46.13188" lon="2.73788">
        <ele>671</ele>
        <time>2015-10-23T14:00:35Z</time>
      </trkpt>
      <trkpt lat="46.13182" lon="2.73811">
        <ele>671</ele>
        <time>2015-10-23T14:00:39Z</time>
      </trkpt>
      <trkpt lat="46.13175" lon="2.73832">
        <ele>671</ele>
        <time>2015-10-23T14:00:43Z</time>
      </trkpt>
      <trkpt lat="46.1317" lon="2.73852">
        <ele>671</ele>
        <time>2015-10-23T14:00:47Z</time>
      </trkpt>
      <trkpt lat="46.13162" lon="2.73872">
        <ele>671</ele>
        <time>2015-10-23T14:00:51Z</time>
      </trkpt>
      <trkpt lat="46.13156" lon="2.73892">
        <ele>670</ele>
        <time>2015-10-23T14:00:55Z</time>
      </trkpt>
      <trkpt lat="46.13149" lon="2.73909">
        <ele>670</ele>
        <time>2015-10-23T14:00:59Z</time>
      </trkpt>
      <trkpt lat="46.13142" lon="2.7393">
        <ele>669</ele>
        <time>2015-10-23T14:01:03Z</time>
      </trkpt>
      <trkpt lat="46.13138" lon="2.73953">
        <ele>669</ele>
        <time>2015-10-23T14:01:07Z</time>
      </trkpt>
      <trkpt lat="46.13135" lon="2.73974">
        <ele>668</ele>
        <time>2015-10-23T14:01:11Z</time>
      </trkpt>
      <trkpt lat="46.13132" lon="2.73995">
        <ele>668</ele>
        <time>2015-10-23T14:01:15Z</time>
      </trkpt>
      <trkpt lat="46.13128" lon="2.74015">
        <ele>668</ele>
        <time>2015-10-23T14:01:19Z</time>
      </trkpt>
      <trkpt lat="46.13127" lon="2.74031">
        <ele>668</ele>
        <time>2015-10-23T14:01:23Z</time>
      </trkpt>
      <trkpt lat="46.13122" lon="2.74048">
        <ele>669</ele>
        <time>2015-10-23T14:01:27Z</time>
      </trkpt>
      <trkpt lat="46.13118" lon="2.74064">
        <ele>669</ele>
        <time>2015-10-23T14:01:31Z</time>
      </trkpt>
      <trkpt lat="46.13115" lon="2.74082">
        <ele>669</ele>
        <time>2015-10-23T14:01:35Z</time>
      </trkpt>
      <trkpt lat="46.13111" lon="2.74101">
        <ele>669</ele>
        <time>2015-10-23T14:01:39Z</time>
      </trkpt>
      <trkpt lat="46.13112" lon="2.74118">
        <ele>670</ele>
        <time>2015-10-23T14:01:43Z</time>
      </trkpt>
      <trkpt lat="46.13115" lon="2.74135">
        <ele>670</ele>
        <time>2015-10-23T14:01:47Z</time>
      </trkpt>
      <trkpt lat="46.13117" lon="2.74154">
        <ele>670</ele>
        <time>2015-10-23T14:01:51Z</time>
      </trkpt>
      <trkpt lat="46.1312" lon="2.74172">
        <ele>670</ele>
        <time>2015-10-23T14:01:55Z</time>
      </trkpt>
      <trkpt lat="46.13124" lon="2.74195">
        <ele>670</ele>
        <time>2015-10-23T14:01:59Z</time>
      </trkpt>
      <trkpt lat="46.13125" lon="2.74217">
        <ele>670</ele>
        <time>2015-10-23T14:02:03Z</time>
      </trkpt>
      <trkpt lat="46.1313" lon="2.74236">
        <ele>670</ele>
        <time>2015-10-23T14:02:07Z</time>
      </trkpt>
      <trkpt lat="46.1313" lon="2.74254">
        <ele>670</ele>
        <time>2015-10-23T14:02:11Z</time>
      </trkpt>
      <trkpt lat="46.13137" lon="2.74275">
        <ele>670</ele>
        <time>2015-10-23T14:02:15Z</time>
      </trkpt>
      <trkpt lat="46.1314" lon="2.74297">
        <ele>670</ele>
        <time>2015-10-23T14:02:19Z</time>
      </trkpt>
      <trkpt lat="46.13145" lon="2.74316">
        <ele>670</ele>
        <time>2015-10-23T14:02:23Z</time>
      </trkpt>
      <trkpt lat="46.1315" lon="2.74331">
        <ele>670</ele>
        <time>2015-10-23T14:02:27Z</time>
      </trkpt>
      <trkpt lat="46.1315" lon="2.74346">
        <ele>670</ele>
        <time>2015-10-23T14:02:31Z</time>
      </trkpt>
      <trkpt lat="46.13148" lon="2.74357">
        <ele>670</ele>
        <time>2015-10-23T14:02:35Z</time>
      </trkpt>
      <trkpt lat="46.13149" lon="2.74373">
        <ele>670</ele>
        <time>2015-10-23T14:02:39Z</time>
      </trkpt>
      <trkpt lat="46.13147" lon="2.74391">
        <ele>670</ele>
        <time>2015-10-23T14:02:43Z</time>
      </trkpt>
      <trkpt lat="46.13146" lon="2.7441">
        <ele>670</ele>
        <time>2015-10-23T14:02:47Z</time>
      </trkpt>
      <trkpt lat="46.13148" lon="2.74431">
        <ele>671</ele>
        <time>2015-10-23T14:02:51Z</time>
      </trkpt>
      <trkpt lat="46.13151" lon="2.74452">
        <ele>671</ele>
        <time>2015-10-23T14:02:55Z</time>
      </trkpt>
      <trkpt lat="46.13155" lon="2.74471">
        <ele>672</ele>
        <time>2015-10-23T14:02:59Z</time>
      </trkpt>
      <trkpt lat="46.13157" lon="2.74488">
        <ele>672</ele>
        <time>2015-10-23T14:03:03Z</time>
      </trkpt>
      <trkpt lat="46.13163" lon="2.74507">
        <ele>673</ele>
        <time>2015-10-23T14:03:07Z</time>
      </trkpt>
      <trkpt lat="46.13171" lon="2.74523">
        <ele>674</ele>
        <time>2015-10-23T14:03:11Z</time>
      </trkpt>
      <trkpt lat="46.13171" lon="2.7454">
        <ele>674</ele>
        <time>2015-10-23T14:03:15Z</time>
      </trkpt>
      <trkpt lat="46.13176" lon="2.74559">
        <ele>674</ele>
        <time>2015-10-23T14:03:19Z</time>
      </trkpt>
      <trkpt lat="46.1318" lon="2.74574">
        <ele>674</ele>
        <time>2015-10-23T14:03:23Z</time>
      </trkpt>
      <trkpt lat="46.13186" lon="2.74595">
        <ele>674</ele>
        <time>2015-10-23T14:03:27Z</time>
      </trkpt>
      <trkpt lat="46.13184" lon="2.74608">
        <ele>674</ele>
        <time>2015-10-23T14:03:31Z</time>
      </trkpt>
      <trkpt lat="46.13187" lon="2.74623">
        <ele>675</ele>
        <time>2015-10-23T14:03:35Z</time>
      </trkpt>
      <trkpt lat="46.13191" lon="2.74643">
        <ele>675</ele>
        <time>2015-10-23T14:03:39Z</time>
      </trkpt>
      <trkpt lat="46.13192" lon="2.74663">
        <ele>675</ele>
        <time>2015-10-23T14:03:43Z</time>
      </trkpt>
      <trkpt lat="46.13199" lon="2.7468">
        <ele>676</ele>
        <time>2015-10-23T14:03:47Z</time>
      </trkpt>
      <trkpt lat="46.13206" lon="2.74705">
        <ele>676</ele>
        <time>2015-10-23T14:03:51Z</time>
      </trkpt>
      <trkpt lat="46.13204" lon="2.74724">
        <ele>677</ele>
        <time>2015-10-23T14:03:55Z</time>
      </trkpt>
      <trkpt lat="46.13205" lon="2.74743">
        <ele>678</ele>
        <time>2015-10-23T14:03:59Z</time>
      </trkpt>
      <trkpt lat="46.13203" lon="2.74765">
        <ele>679</ele>
        <time>2015-10-23T14:04:03Z</time>
      </trkpt>
      <trkpt lat="46.13205" lon="2.74784">
        <ele>679</ele>
        <time>2015-10-23T14:04:07Z</time>
      </trkpt>
      <trkpt lat="46.13207" lon="2.74803">
        <ele>679</ele>
        <time>2015-10-23T14:04:11Z</time>
      </trkpt>
      <trkpt lat="46.13207" lon="2.74822">
        <ele>679</ele>
        <time>2015-10-23T14:04:15Z</time>
      </trkpt>
      <trkpt lat="46.13208" lon="2.7485">
        <ele>680</ele>
        <time>2015-10-23T14:04:19Z</time>
      </trkpt>
      <trkpt lat="46.13207" lon="2.74873">
        <ele>679</ele>
        <time>2015-10-23T14:04:23Z</time>
      </trkpt>
      <trkpt lat="46.1321" lon="2.74902">
        <ele>679</ele>
        <time>2015-10-23T14:04:27Z</time>
      </trkpt>
      <trkpt lat="46.13209" lon="2.74925">
        <ele>679</ele>
        <time>2015-10-23T14:04:31Z</time>
      </trkpt>
      <trkpt lat="46.13209" lon="2.74952">
        <ele>680</ele>
        <time>2015-10-23T14:04:35Z</time>
      </trkpt>
      <trkpt lat="46.13213" lon="2.74978">
        <ele>680</ele>
        <time>2015-10-23T14:04:39Z</time>
      </trkpt>
      <trkpt lat="46.13213" lon="2.75001">
        <ele>681</ele>
        <time>2015-10-23T14:04:43Z</time>
      </trkpt>
      <trkpt lat="46.13209" lon="2.75026">
        <ele>681</ele>
        <time>2015-10-23T14:04:47Z</time>
      </trkpt>
      <trkpt lat="46.13206" lon="2.75044">
        <ele>681</ele>
        <time>2015-10-23T14:04:51Z</time>
      </trkpt>
      <trkpt lat="46.13204" lon="2.75063">
        <ele>682</ele>
        <time>2015-10-23T14:04:55Z</time>
      </trkpt>
      <trkpt lat="46.13201" lon="2.75078">
        <ele>683</ele>
        <time>2015-10-23T14:04:59Z</time>
      </trkpt>
      <trkpt lat="46.13203" lon="2.75093">
        <ele>684</ele>
        <time>2015-10-23T14:05:03Z</time>
      </trkpt>
      <trkpt lat="46.13203" lon="2.75103">
        <ele>685</ele>
        <time>2015-10-23T14:05:07Z</time>
      </trkpt>
      <trkpt lat="46.13206" lon="2.75123">
        <ele>685</ele>
        <time>2015-10-23T14:05:47Z</time>
      </trkpt>
      <trkpt lat="46.13203" lon="2.75134">
        <ele>685</ele>
        <time>2015-10-23T14:05:51Z</time>
      </trkpt>
      <trkpt lat="46.132" lon="2.75146">
        <ele>686</ele>
        <time>2015-10-23T14:05:55Z</time>
      </trkpt>
      <trkpt lat="46.132" lon="2.75152">
        <ele>686</ele>
        <time>2015-10-23T14:05:59Z</time>
      </trkpt>
      <trkpt lat="46.13198" lon="2.75169">
        <ele>687</ele>
        <time>2015-10-23T14:06:03Z</time>
      </trkpt>
      <trkpt lat="46.13198" lon="2.75183">
        <ele>688</ele>
        <time>2015-10-23T14:06:07Z</time>
      </trkpt>
      <trkpt lat="46.13194" lon="2.75198">
        <ele>688</ele>
        <time>2015-10-23T14:06:11Z</time>
      </trkpt>
      <trkpt lat="46.13189" lon="2.75217">
        <ele>689</ele>
        <time>2015-10-23T14:06:15Z</time>
      </trkpt>
      <trkpt lat="46.13187" lon="2.75233">
        <ele>690</ele>
        <time>2015-10-23T14:06:19Z</time>
      </trkpt>
      <trkpt lat="46.13186" lon="2.75251">
        <ele>690</ele>
        <time>2015-10-23T14:06:23Z</time>
      </trkpt>
      <trkpt lat="46.13185" lon="2.75268">
        <ele>690</ele>
        <time>2015-10-23T14:06:27Z</time>
      </trkpt>
      <trkpt lat="46.13182" lon="2.75282">
        <ele>692</ele>
        <time>2015-10-23T14:06:31Z</time>
      </trkpt>
      <trkpt lat="46.13183" lon="2.75298">
        <ele>692</ele>
        <time>2015-10-23T14:06:35Z</time>
      </trkpt>
      <trkpt lat="46.1318" lon="2.75313">
        <ele>693</ele>
        <time>2015-10-23T14:06:39Z</time>
      </trkpt>
      <trkpt lat="46.13178" lon="2.75329">
        <ele>695</ele>
        <time>2015-10-23T14:06:43Z</time>
      </trkpt>
      <trkpt lat="46.13176" lon="2.75344">
        <ele>695</ele>
        <time>2015-10-23T14:06:47Z</time>
      </trkpt>
      <trkpt lat="46.13176" lon="2.75357">
        <ele>697</ele>
        <time>2015-10-23T14:06:51Z</time>
      </trkpt>
      <trkpt lat="46.13177" lon="2.75371">
        <ele>697</ele>
        <time>2015-10-23T14:06:55Z</time>
      </trkpt>
      <trkpt lat="46.13176" lon="2.75389">
        <ele>697</ele>
        <time>2015-10-23T14:06:59Z</time>
      </trkpt>
      <trkpt lat="46.13179" lon="2.75405">
        <ele>698</ele>
        <time>2015-10-23T14:07:03Z</time>
      </trkpt>
      <trkpt lat="46.1318" lon="2.75421">
        <ele>699</ele>
        <time>2015-10-23T14:07:07Z</time>
      </trkpt>
      <trkpt lat="46.13181" lon="2.75433">
        <ele>700</ele>
        <time>2015-10-23T14:07:11Z</time>
      </trkpt>
      <trkpt lat="46.1318" lon="2.75453">
        <ele>700</ele>
        <time>2015-10-23T14:07:15Z</time>
      </trkpt>
      <trkpt lat="46.13183" lon="2.75471">
        <ele>701</ele>
        <time>2015-10-23T14:07:19Z</time>
      </trkpt>
      <trkpt lat="46.13184" lon="2.75488">
        <ele>702</ele>
        <time>2015-10-23T14:07:23Z</time>
      </trkpt>
      <trkpt lat="46.13188" lon="2.75505">
        <ele>702</ele>
        <time>2015-10-23T14:07:27Z</time>
      </trkpt>
      <trkpt lat="46.13186" lon="2.75519">
        <ele>702</ele>
        <time>2015-10-23T14:07:31Z</time>
      </trkpt>
      <trkpt lat="46.13187" lon="2.75538">
        <ele>702</ele>
        <time>2015-10-23T14:07:35Z</time>
      </trkpt>
      <trkpt lat="46.13187" lon="2.75558">
        <ele>702</ele>
        <time>2015-10-23T14:07:39Z</time>
      </trkpt>
      <trkpt lat="46.13192" lon="2.75574">
        <ele>702</ele>
        <time>2015-10-23T14:07:43Z</time>
      </trkpt>
      <trkpt lat="46.13193" lon="2.75593">
        <ele>703</ele>
        <time>2015-10-23T14:07:47Z</time>
      </trkpt>
      <trkpt lat="46.13194" lon="2.75612">
        <ele>703</ele>
        <time>2015-10-23T14:07:51Z</time>
      </trkpt>
      <trkpt lat="46.13197" lon="2.75628">
        <ele>703</ele>
        <time>2015-10-23T14:07:55Z</time>
      </trkpt>
      <trkpt lat="46.13198" lon="2.75646">
        <ele>704</ele>
        <time>2015-10-23T14:07:59Z</time>
      </trkpt>
      <trkpt lat="46.13202" lon="2.7567">
        <ele>704</ele>
        <time>2015-10-23T14:08:03Z</time>
      </trkpt>
      <trkpt lat="46.13205" lon="2.75689">
        <ele>704</ele>
        <time>2015-10-23T14:08:07Z</time>
      </trkpt>
      <trkpt lat="46.13211" lon="2.7571">
        <ele>704</ele>
        <time>2015-10-23T14:08:11Z</time>
      </trkpt>
      <trkpt lat="46.13212" lon="2.75725">
        <ele>704</ele>
        <time>2015-10-23T14:08:15Z</time>
      </trkpt>
      <trkpt lat="46.13212" lon="2.75742">
        <ele>705</ele>
        <time>2015-10-23T14:08:19Z</time>
      </trkpt>
      <trkpt lat="46.13214" lon="2.7576">
        <ele>705</ele>
        <time>2015-10-23T14:08:23Z</time>
      </trkpt>
      <trkpt lat="46.13215" lon="2.75779">
        <ele>706</ele>
        <time>2015-10-23T14:08:27Z</time>
      </trkpt>
      <trkpt lat="46.13217" lon="2.75797">
        <ele>706</ele>
        <time>2015-10-23T14:08:31Z</time>
      </trkpt>
      <trkpt lat="46.13218" lon="2.75815">
        <ele>707</ele>
        <time>2015-10-23T14:08:35Z</time>
      </trkpt>
      <trkpt lat="46.13219" lon="2.75833">
        <ele>707</ele>
        <time>2015-10-23T14:08:39Z</time>
      </trkpt>
      <trkpt lat="46.1322" lon="2.75849">
        <ele>708</ele>
        <time>2015-10-23T14:08:43Z</time>
      </trkpt>
      <trkpt lat="46.1322" lon="2.75864">
        <ele>710</ele>
        <time>2015-10-23T14:08:47Z</time>
      </trkpt>
      <trkpt lat="46.1322" lon="2.75879">
        <ele>711</ele>
        <time>2015-10-23T14:08:51Z</time>
      </trkpt>
      <trkpt lat="46.13221" lon="2.75896">
        <ele>711</ele>
        <time>2015-10-23T14:08:55Z</time>
      </trkpt>
      <trkpt lat="46.1322" lon="2.75913">
        <ele>712</ele>
        <time>2015-10-23T14:08:59Z</time>
      </trkpt>
      <trkpt lat="46.13218" lon="2.7593">
        <ele>712</ele>
        <time>2015-10-23T14:09:03Z</time>
      </trkpt>
      <trkpt lat="46.13216" lon="2.75947">
        <ele>713</ele>
        <time>2015-10-23T14:09:07Z</time>
      </trkpt>
      <trkpt lat="46.13214" lon="2.75963">
        <ele>713</ele>
        <time>2015-10-23T14:09:11Z</time>
      </trkpt>
      <trkpt lat="46.13212" lon="2.75978">
        <ele>713</ele>
        <time>2015-10-23T14:09:15Z</time>
      </trkpt>
      <trkpt lat="46.13211" lon="2.75995">
        <ele>713</ele>
        <time>2015-10-23T14:09:19Z</time>
      </trkpt>
      <trkpt lat="46.1321" lon="2.76011">
        <ele>713</ele>
        <time>2015-10-23T14:09:23Z</time>
      </trkpt>
      <trkpt lat="46.13206" lon="2.76028">
        <ele>713</ele>
        <time>2015-10-23T14:09:27Z</time>
      </trkpt>
      <trkpt lat="46.13205" lon="2.76043">
        <ele>714</ele>
        <time>2015-10-23T14:09:31Z</time>
      </trkpt>
      <trkpt lat="46.13205" lon="2.76057">
        <ele>714</ele>
        <time>2015-10-23T14:10:15Z</time>
      </trkpt>
      <trkpt lat="46.13197" lon="2.76065">
        <ele>715</ele>
        <time>2015-10-23T14:12:15Z</time>
      </trkpt>
      <trkpt lat="46.13188" lon="2.76058">
        <ele>715</ele>
        <time>2015-10-23T14:12:19Z</time>
      </trkpt>
      <trkpt lat="46.1319" lon="2.76065">
        <ele>715</ele>
        <time>2015-10-23T14:12:23Z</time>
      </trkpt>
      <trkpt lat="46.1319" lon="2.76078">
        <ele>715</ele>
        <time>2015-10-23T14:12:27Z</time>
      </trkpt>
      <trkpt lat="46.13184" lon="2.76087">
        <ele>715</ele>
        <time>2015-10-23T14:12:31Z</time>
      </trkpt>
      <trkpt lat="46.13178" lon="2.76093">
        <ele>717</ele>
        <time>2015-10-23T14:12:35Z</time>
      </trkpt>
      <trkpt lat="46.13179" lon="2.76109">
        <ele>718</ele>
        <time>2015-10-23T14:12:39Z</time>
      </trkpt>
      <trkpt lat="46.13181" lon="2.76122">
        <ele>719</ele>
        <time>2015-10-23T14:12:43Z</time>
      </trkpt>
      <trkpt lat="46.13173" lon="2.7613">
        <ele>720</ele>
        <time>2015-10-23T14:12:47Z</time>
      </trkpt>
      <trkpt lat="46.13171" lon="2.76141">
        <ele>721</ele>
        <time>2015-10-23T14:12:51Z</time>
      </trkpt>
      <trkpt lat="46.13172" lon="2.76157">
        <ele>721</ele>
        <time>2015-10-23T14:12:55Z</time>
      </trkpt>
      <trkpt lat="46.13164" lon="2.76165">
        <ele>722</ele>
        <time>2015-10-23T14:12:59Z</time>
      </trkpt>
      <trkpt lat="46.13165" lon="2.76176">
        <ele>724</ele>
        <time>2015-10-23T14:13:07Z</time>
      </trkpt>
      <trkpt lat="46.13156" lon="2.76189">
        <ele>725</ele>
        <time>2015-10-23T14:13:11Z</time>
      </trkpt>
      <trkpt lat="46.13155" lon="2.76198">
        <ele>726</ele>
        <time>2015-10-23T14:13:15Z</time>
      </trkpt>
      <trkpt lat="46.13149" lon="2.76204">
        <ele>726</ele>
        <time>2015-10-23T14:13:19Z</time>
      </trkpt>
      <trkpt lat="46.13143" lon="2.76213">
        <ele>727</ele>
        <time>2015-10-23T14:13:23Z</time>
      </trkpt>
      <trkpt lat="46.13138" lon="2.76224">
        <ele>728</ele>
        <time>2015-10-23T14:13:27Z</time>
      </trkpt>
      <trkpt lat="46.13133" lon="2.76233">
        <ele>728</ele>
        <time>2015-10-23T14:13:31Z</time>
      </trkpt>
      <trkpt lat="46.13128" lon="2.76243">
        <ele>728</ele>
        <time>2015-10-23T14:13:35Z</time>
      </trkpt>
      <trkpt lat="46.13122" lon="2.76251">
        <ele>728</ele>
        <time>2015-10-23T14:13:39Z</time>
      </trkpt>
      <trkpt lat="46.13117" lon="2.76259">
        <ele>729</ele>
        <time>2015-10-23T14:13:43Z</time>
      </trkpt>
      <trkpt lat="46.13112" lon="2.76267">
        <ele>729</ele>
        <time>2015-10-23T14:13:47Z</time>
      </trkpt>
      <trkpt lat="46.13107" lon="2.76277">
        <ele>729</ele>
        <time>2015-10-23T14:13:51Z</time>
      </trkpt>
      <trkpt lat="46.13102" lon="2.76287">
        <ele>728</ele>
        <time>2015-10-23T14:13:55Z</time>
      </trkpt>
      <trkpt lat="46.13096" lon="2.76295">
        <ele>727</ele>
        <time>2015-10-23T14:13:59Z</time>
      </trkpt>
      <trkpt lat="46.13091" lon="2.76306">
        <ele>726</ele>
        <time>2015-10-23T14:14:03Z</time>
      </trkpt>
      <trkpt lat="46.13085" lon="2.76316">
        <ele>724</ele>
        <time>2015-10-23T14:14:07Z</time>
      </trkpt>
      <trkpt lat="46.13081" lon="2.76327">
        <ele>725</ele>
        <time>2015-10-23T14:14:51Z</time>
      </trkpt>
      <trkpt lat="46.13076" lon="2.76334">
        <ele>726</ele>
        <time>2015-10-23T14:14:55Z</time>
      </trkpt>
      <trkpt lat="46.13078" lon="2.76329">
        <ele>727</ele>
        <time>2015-10-23T14:14:59Z</time>
      </trkpt>
      <trkpt lat="46.13082" lon="2.76326">
        <ele>728</ele>
        <time>2015-10-23T14:15:03Z</time>
      </trkpt>
      <trkpt lat="46.13084" lon="2.76321">
        <ele>729</ele>
        <time>2015-10-23T14:15:07Z</time>
      </trkpt>
      <trkpt lat="46.13087" lon="2.76316">
        <ele>729</ele>
        <time>2015-10-23T14:15:11Z</time>
      </trkpt>
      <trkpt lat="46.13092" lon="2.76312">
        <ele>730</ele>
        <time>2015-10-23T14:15:15Z</time>
      </trkpt>
      <trkpt lat="46.13097" lon="2.76297">
        <ele>729</ele>
        <time>2015-10-23T14:15:19Z</time>
      </trkpt>
      <trkpt lat="46.13103" lon="2.76285">
        <ele>729</ele>
        <time>2015-10-23T14:15:27Z</time>
      </trkpt>
      <trkpt lat="46.13106" lon="2.76274">
        <ele>728</ele>
        <time>2015-10-23T14:15:31Z</time>
      </trkpt>
      <trkpt lat="46.13113" lon="2.76262">
        <ele>728</ele>
        <time>2015-10-23T14:15:35Z</time>
      </trkpt>
      <trkpt lat="46.13116" lon="2.76256">
        <ele>727</ele>
        <time>2015-10-23T14:15:39Z</time>
      </trkpt>
      <trkpt lat="46.13123" lon="2.76242">
        <ele>726</ele>
        <time>2015-10-23T14:15:43Z</time>
      </trkpt>
      <trkpt lat="46.1313" lon="2.76223">
        <ele>724</ele>
        <time>2015-10-23T14:15:47Z</time>
      </trkpt>
      <trkpt lat="46.1314" lon="2.76201">
        <ele>723</ele>
        <time>2015-10-23T14:15:51Z</time>
      </trkpt>
      <trkpt lat="46.13145" lon="2.76185">
        <ele>721</ele>
        <time>2015-10-23T14:15:55Z</time>
      </trkpt>
      <trkpt lat="46.13159" lon="2.76164">
        <ele>718</ele>
        <time>2015-10-23T14:15:59Z</time>
      </trkpt>
      <trkpt lat="46.13165" lon="2.76146">
        <ele>717</ele>
        <time>2015-10-23T14:16:03Z</time>
      </trkpt>
      <trkpt lat="46.13169" lon="2.76122">
        <ele>715</ele>
        <time>2015-10-23T14:16:07Z</time>
      </trkpt>
      <trkpt lat="46.13186" lon="2.76097">
        <ele>715</ele>
        <time>2015-10-23T14:16:11Z</time>
      </trkpt>
      <trkpt lat="46.13187" lon="2.76075">
        <ele>714</ele>
        <time>2015-10-23T14:16:15Z</time>
      </trkpt>
      <trkpt lat="46.13184" lon="2.76068">
        <ele>715</ele>
        <time>2015-10-23T14:16:19Z</time>
      </trkpt>
      <trkpt lat="46.13176" lon="2.76068">
        <ele>715</ele>
        <time>2015-10-23T14:16:23Z</time>
      </trkpt>
      <trkpt lat="46.13169" lon="2.76069">
        <ele>715</ele>
        <time>2015-10-23T14:16:27Z</time>
      </trkpt>
      <trkpt lat="46.13163" lon="2.76066">
        <ele>715</ele>
        <time>2015-10-23T14:16:31Z</time>
      </trkpt>
      <trkpt lat="46.13153" lon="2.76063">
        <ele>715</ele>
        <time>2015-10-23T14:16:35Z</time>
      </trkpt>
      <trkpt lat="46.1314" lon="2.76053">
        <ele>715</ele>
        <time>2015-10-23T14:16:39Z</time>
      </trkpt>
      <trkpt lat="46.13124" lon="2.76045">
        <ele>714</ele>
        <time>2015-10-23T14:16:43Z</time>
      </trkpt>
      <trkpt lat="46.13107" lon="2.76039">
        <ele>714</ele>
        <time>2015-10-23T14:16:47Z</time>
      </trkpt>
      <trkpt lat="46.13089" lon="2.76033">
        <ele>714</ele>
        <time>2015-10-23T14:16:51Z</time>
      </trkpt>
      <trkpt lat="46.13075" lon="2.76027">
        <ele>714</ele>
        <time>2015-10-23T14:16:55Z</time>
      </trkpt>
      <trkpt lat="46.13065" lon="2.76015">
        <ele>713</ele>
        <time>2015-10-23T14:16:59Z</time>
      </trkpt>
      <trkpt lat="46.1305" lon="2.76007">
        <ele>714</ele>
        <time>2015-10-23T14:17:03Z</time>
      </trkpt>
      <trkpt lat="46.13039" lon="2.75999">
        <ele>713</ele>
        <time>2015-10-23T14:17:07Z</time>
      </trkpt>
      <trkpt lat="46.13028" lon="2.75995">
        <ele>713</ele>
        <time>2015-10-23T14:17:11Z</time>
      </trkpt>
      <trkpt lat="46.13" lon="2.75994">
        <ele>713</ele>
        <time>2015-10-23T14:17:15Z</time>
      </trkpt>
      <trkpt lat="46.12983" lon="2.75992">
        <ele>713</ele>
        <time>2015-10-23T14:17:19Z</time>
      </trkpt>
      <trkpt lat="46.12971" lon="2.75995">
        <ele>713</ele>
        <time>2015-10-23T14:17:23Z</time>
      </trkpt>
      <trkpt lat="46.12955" lon="2.75994">
        <ele>712</ele>
        <time>2015-10-23T14:17:27Z</time>
      </trkpt>
      <trkpt lat="46.12936" lon="2.76001">
        <ele>712</ele>
        <time>2015-10-23T14:17:31Z</time>
      </trkpt>
      <trkpt lat="46.1292" lon="2.75997">
        <ele>712</ele>
        <time>2015-10-23T14:17:35Z</time>
      </trkpt>
      <trkpt lat="46.12907" lon="2.76008">
        <ele>710</ele>
        <time>2015-10-23T14:17:39Z</time>
      </trkpt>
      <trkpt lat="46.12884" lon="2.76018">
        <ele>708</ele>
        <time>2015-10-23T14:17:43Z</time>
      </trkpt>
      <trkpt lat="46.12868" lon="2.7602">
        <ele>707</ele>
        <time>2015-10-23T14:17:47Z</time>
      </trkpt>
      <trkpt lat="46.12859" lon="2.76022">
        <ele>707</ele>
        <time>2015-10-23T14:17:51Z</time>
      </trkpt>
      <trkpt lat="46.12847" lon="2.76023">
        <ele>705</ele>
        <time>2015-10-23T14:17:55Z</time>
      </trkpt>
      <trkpt lat="46.12829" lon="2.76025">
        <ele>703</ele>
        <time>2015-10-23T14:17:59Z</time>
      </trkpt>
      <trkpt lat="46.12815" lon="2.76018">
        <ele>701</ele>
        <time>2015-10-23T14:18:03Z</time>
      </trkpt>
      <trkpt lat="46.12802" lon="2.76014">
        <ele>698</ele>
        <time>2015-10-23T14:18:07Z</time>
      </trkpt>
      <trkpt lat="46.12784" lon="2.76009">
        <ele>696</ele>
        <time>2015-10-23T14:18:11Z</time>
      </trkpt>
      <trkpt lat="46.12771" lon="2.76004">
        <ele>693</ele>
        <time>2015-10-23T14:18:15Z</time>
      </trkpt>
      <trkpt lat="46.12756" lon="2.76">
        <ele>690</ele>
        <time>2015-10-23T14:18:19Z</time>
      </trkpt>
      <trkpt lat="46.12737" lon="2.75996">
        <ele>685</ele>
        <time>2015-10-23T14:18:23Z</time>
      </trkpt>
      <trkpt lat="46.1272" lon="2.7599">
        <ele>683</ele>
        <time>2015-10-23T14:18:27Z</time>
      </trkpt>
      <trkpt lat="46.12707" lon="2.75983">
        <ele>681</ele>
        <time>2015-10-23T14:18:31Z</time>
      </trkpt>
      <trkpt lat="46.12693" lon="2.75981">
        <ele>679</ele>
        <time>2015-10-23T14:18:35Z</time>
      </trkpt>
      <trkpt lat="46.12684" lon="2.75976">
        <ele>676</ele>
        <time>2015-10-23T14:18:39Z</time>
      </trkpt>
      <trkpt lat="46.12669" lon="2.75974">
        <ele>674</ele>
        <time>2015-10-23T14:18:43Z</time>
      </trkpt>
      <trkpt lat="46.12658" lon="2.75972">
        <ele>674</ele>
        <time>2015-10-23T14:18:59Z</time>
      </trkpt>
      <trkpt lat="46.12648" lon="2.75972">
        <ele>674</ele>
        <time>2015-10-23T14:19:23Z</time>
      </trkpt>
      <trkpt lat="46.12645" lon="2.75969">
        <ele>674</ele>
        <time>2015-10-23T14:19:27Z</time>
      </trkpt>
      <trkpt lat="46.12658" lon="2.75988">
        <ele>675</ele>
        <time>2015-10-23T14:19:31Z</time>
      </trkpt>
      <trkpt lat="46.1267" lon="2.76001">
        <ele>675</ele>
        <time>2015-10-23T14:19:35Z</time>
      </trkpt>
      <trkpt lat="46.12681" lon="2.7601">
        <ele>675</ele>
        <time>2015-10-23T14:19:39Z</time>
      </trkpt>
      <trkpt lat="46.12691" lon="2.76016">
        <ele>676</ele>
        <time>2015-10-23T14:19:43Z</time>
      </trkpt>
      <trkpt lat="46.12702" lon="2.76032">
        <ele>676</ele>
        <time>2015-10-23T14:19:47Z</time>
      </trkpt>
      <trkpt lat="46.12713" lon="2.76053">
        <ele>676</ele>
        <time>2015-10-23T14:19:51Z</time>
      </trkpt>
      <trkpt lat="46.12724" lon="2.76073">
        <ele>677</ele>
        <time>2015-10-23T14:19:55Z</time>
      </trkpt>
      <trkpt lat="46.12733" lon="2.76093">
        <ele>677</ele>
        <time>2015-10-23T14:19:59Z</time>
      </trkpt>
      <trkpt lat="46.12741" lon="2.76113">
        <ele>678</ele>
        <time>2015-10-23T14:20:03Z</time>
      </trkpt>
      <trkpt lat="46.12748" lon="2.76135">
        <ele>678</ele>
        <time>2015-10-23T14:20:07Z</time>
      </trkpt>
      <trkpt lat="46.12753" lon="2.76155">
        <ele>679</ele>
        <time>2015-10-23T14:20:11Z</time>
      </trkpt>
      <trkpt lat="46.1276" lon="2.76177">
        <ele>679</ele>
        <time>2015-10-23T14:20:15Z</time>
      </trkpt>
      <trkpt lat="46.12775" lon="2.76196">
        <ele>680</ele>
        <time>2015-10-23T14:20:19Z</time>
      </trkpt>
      <trkpt lat="46.12785" lon="2.76213">
        <ele>680</ele>
        <time>2015-10-23T14:20:23Z</time>
      </trkpt>
      <trkpt lat="46.12792" lon="2.76229">
        <ele>681</ele>
        <time>2015-10-23T14:20:27Z</time>
      </trkpt>
      <trkpt lat="46.12801" lon="2.76248">
        <ele>681</ele>
        <time>2015-10-23T14:20:31Z</time>
      </trkpt>
      <trkpt lat="46.12812" lon="2.76259">
        <ele>681</ele>
        <time>2015-10-23T14:20:35Z</time>
      </trkpt>
      <trkpt lat="46.12829" lon="2.76263">
        <ele>681</ele>
        <time>2015-10-23T14:20:39Z</time>
      </trkpt>
      <trkpt lat="46.12847" lon="2.76264">
        <ele>682</ele>
        <time>2015-10-23T14:20:43Z</time>
      </trkpt>
      <trkpt lat="46.12863" lon="2.76268">
        <ele>682</ele>
        <time>2015-10-23T14:20:47Z</time>
      </trkpt>
      <trkpt lat="46.12876" lon="2.76278">
        <ele>682</ele>
        <time>2015-10-23T14:20:51Z</time>
      </trkpt>
      <trkpt lat="46.12888" lon="2.76298">
        <ele>683</ele>
        <time>2015-10-23T14:20:55Z</time>
      </trkpt>
      <trkpt lat="46.12889" lon="2.76322">
        <ele>683</ele>
        <time>2015-10-23T14:20:59Z</time>
      </trkpt>
      <trkpt lat="46.12887" lon="2.76346">
        <ele>684</ele>
        <time>2015-10-23T14:21:03Z</time>
      </trkpt>
      <trkpt lat="46.12879" lon="2.76371">
        <ele>684</ele>
        <time>2015-10-23T14:21:07Z</time>
      </trkpt>
      <trkpt lat="46.12875" lon="2.76395">
        <ele>684</ele>
        <time>2015-10-23T14:21:11Z</time>
      </trkpt>
      <trkpt lat="46.12874" lon="2.76424">
        <ele>685</ele>
        <time>2015-10-23T14:21:15Z</time>
      </trkpt>
      <trkpt lat="46.12872" lon="2.76443">
        <ele>685</ele>
        <time>2015-10-23T14:21:19Z</time>
      </trkpt>
      <trkpt lat="46.12881" lon="2.76466">
        <ele>685</ele>
        <time>2015-10-23T14:21:23Z</time>
      </trkpt>
      <trkpt lat="46.12888" lon="2.76489">
        <ele>686</ele>
        <time>2015-10-23T14:21:27Z</time>
      </trkpt>
      <trkpt lat="46.12893" lon="2.76512">
        <ele>686</ele>
        <time>2015-10-23T14:21:31Z</time>
      </trkpt>
      <trkpt lat="46.12896" lon="2.76536">
        <ele>686</ele>
        <time>2015-10-23T14:21:35Z</time>
      </trkpt>
      <trkpt lat="46.12906" lon="2.76559">
        <ele>687</ele>
        <time>2015-10-23T14:21:39Z</time>
      </trkpt>
      <trkpt lat="46.12909" lon="2.76585">
        <ele>687</ele>
        <time>2015-10-23T14:21:43Z</time>
      </trkpt>
      <trkpt lat="46.12915" lon="2.76607">
        <ele>687</ele>
        <time>2015-10-23T14:21:47Z</time>
      </trkpt>
      <trkpt lat="46.12927" lon="2.76629">
        <ele>688</ele>
        <time>2015-10-23T14:21:51Z</time>
      </trkpt>
      <trkpt lat="46.12939" lon="2.76648">
        <ele>688</ele>
        <time>2015-10-23T14:21:55Z</time>
      </trkpt>
      <trkpt lat="46.12953" lon="2.76666">
        <ele>689</ele>
        <time>2015-10-23T14:21:59Z</time>
      </trkpt>
      <trkpt lat="46.12966" lon="2.76686">
        <ele>689</ele>
        <time>2015-10-23T14:22:03Z</time>
      </trkpt>
      <trkpt lat="46.12975" lon="2.76712">
        <ele>690</ele>
        <time>2015-10-23T14:22:07Z</time>
      </trkpt>
      <trkpt lat="46.12982" lon="2.76735">
        <ele>690</ele>
        <time>2015-10-23T14:22:11Z</time>
      </trkpt>
      <trkpt lat="46.12986" lon="2.76761">
        <ele>691</ele>
        <time>2015-10-23T14:22:15Z</time>
      </trkpt>
      <trkpt lat="46.1299" lon="2.76787">
        <ele>691</ele>
        <time>2015-10-23T14:22:19Z</time>
      </trkpt>
      <trkpt lat="46.12996" lon="2.76817">
        <ele>692</ele>
        <time>2015-10-23T14:22:23Z</time>
      </trkpt>
      <trkpt lat="46.13001" lon="2.76844">
        <ele>692</ele>
        <time>2015-10-23T14:22:27Z</time>
      </trkpt>
      <trkpt lat="46.13006" lon="2.76868">
        <ele>693</ele>
        <time>2015-10-23T14:22:31Z</time>
      </trkpt>
      <trkpt lat="46.13013" lon="2.76892">
        <ele>693</ele>
        <time>2015-10-23T14:22:35Z</time>
      </trkpt>
      <trkpt lat="46.13018" lon="2.76914">
        <ele>694</ele>
        <time>2015-10-23T14:22:39Z</time>
      </trkpt>
      <trkpt lat="46.13027" lon="2.76938">
        <ele>694</ele>
        <time>2015-10-23T14:22:43Z</time>
      </trkpt>
      <trkpt lat="46.13037" lon="2.7696">
        <ele>694</ele>
        <time>2015-10-23T14:22:47Z</time>
      </trkpt>
      <trkpt lat="46.13045" lon="2.76987">
        <ele>694</ele>
        <time>2015-10-23T14:22:51Z</time>
      </trkpt>
      <trkpt lat="46.13057" lon="2.77005">
        <ele>695</ele>
        <time>2015-10-23T14:22:55Z</time>
      </trkpt>
      <trkpt lat="46.13072" lon="2.77023">
        <ele>695</ele>
        <time>2015-10-23T14:22:59Z</time>
      </trkpt>
      <trkpt lat="46.13085" lon="2.7704">
        <ele>695</ele>
        <time>2015-10-23T14:23:03Z</time>
      </trkpt>
      <trkpt lat="46.13101" lon="2.77055">
        <ele>696</ele>
        <time>2015-10-23T14:23:07Z</time>
      </trkpt>
      <trkpt lat="46.13117" lon="2.77067">
        <ele>696</ele>
        <time>2015-10-23T14:23:11Z</time>
      </trkpt>
      <trkpt lat="46.13134" lon="2.77075">
        <ele>697</ele>
        <time>2015-10-23T14:23:15Z</time>
      </trkpt>
      <trkpt lat="46.13151" lon="2.77086">
        <ele>697</ele>
        <time>2015-10-23T14:23:19Z</time>
      </trkpt>
      <trkpt lat="46.13165" lon="2.77103">
        <ele>698</ele>
        <time>2015-10-23T14:23:23Z</time>
      </trkpt>
      <trkpt lat="46.13181" lon="2.77122">
        <ele>698</ele>
        <time>2015-10-23T14:23:27Z</time>
      </trkpt>
      <trkpt lat="46.13196" lon="2.77139">
        <ele>699</ele>
        <time>2015-10-23T14:23:31Z</time>
      </trkpt>
      <trkpt lat="46.13211" lon="2.7716">
        <ele>699</ele>
        <time>2015-10-23T14:23:35Z</time>
      </trkpt>
      <trkpt lat="46.13228" lon="2.77171">
        <ele>699</ele>
        <time>2015-10-23T14:23:39Z</time>
      </trkpt>
      <trkpt lat="46.13245" lon="2.77184">
        <ele>700</ele>
        <time>2015-10-23T14:23:43Z</time>
      </trkpt>
      <trkpt lat="46.13264" lon="2.77194">
        <ele>700</ele>
        <time>2015-10-23T14:23:47Z</time>
      </trkpt>
      <trkpt lat="46.1328" lon="2.77209">
        <ele>701</ele>
        <time>2015-10-23T14:23:51Z</time>
      </trkpt>
      <trkpt lat="46.13292" lon="2.77224">
        <ele>702</ele>
        <time>2015-10-23T14:23:55Z</time>
      </trkpt>
      <trkpt lat="46.13304" lon="2.77235">
        <ele>702</ele>
        <time>2015-10-23T14:23:59Z</time>
      </trkpt>
      <trkpt lat="46.13314" lon="2.77252">
        <ele>702</ele>
        <time>2015-10-23T14:24:03Z</time>
      </trkpt>
      <trkpt lat="46.13325" lon="2.7727">
        <ele>702</ele>
        <time>2015-10-23T14:24:07Z</time>
      </trkpt>
      <trkpt lat="46.13333" lon="2.77287">
        <ele>702</ele>
        <time>2015-10-23T14:24:11Z</time>
      </trkpt>
      <trkpt lat="46.13345" lon="2.77298">
        <ele>703</ele>
        <time>2015-10-23T14:24:15Z</time>
      </trkpt>
      <trkpt lat="46.1336" lon="2.77307">
        <ele>703</ele>
        <time>2015-10-23T14:24:19Z</time>
      </trkpt>
      <trkpt lat="46.1337" lon="2.77322">
        <ele>704</ele>
        <time>2015-10-23T14:24:23Z</time>
      </trkpt>
      <trkpt lat="46.13381" lon="2.7734">
        <ele>704</ele>
        <time>2015-10-23T14:24:27Z</time>
      </trkpt>
      <trkpt lat="46.13393" lon="2.7736">
        <ele>705</ele>
        <time>2015-10-23T14:24:31Z</time>
      </trkpt>
      <trkpt lat="46.13407" lon="2.77374">
        <ele>705</ele>
        <time>2015-10-23T14:24:35Z</time>
      </trkpt>
      <trkpt lat="46.13419" lon="2.77394">
        <ele>705</ele>
        <time>2015-10-23T14:24:39Z</time>
      </trkpt>
      <trkpt lat="46.13431" lon="2.77411">
        <ele>706</ele>
        <time>2015-10-23T14:24:43Z</time>
      </trkpt>
      <trkpt lat="46.13446" lon="2.77425">
        <ele>706</ele>
        <time>2015-10-23T14:24:47Z</time>
      </trkpt>
      <trkpt lat="46.13459" lon="2.7744">
        <ele>707</ele>
        <time>2015-10-23T14:24:51Z</time>
      </trkpt>
      <trkpt lat="46.13473" lon="2.77454">
        <ele>707</ele>
        <time>2015-10-23T14:24:55Z</time>
      </trkpt>
      <trkpt lat="46.13489" lon="2.77474">
        <ele>708</ele>
        <time>2015-10-23T14:24:59Z</time>
      </trkpt>
      <trkpt lat="46.13503" lon="2.77488">
        <ele>708</ele>
        <time>2015-10-23T14:25:03Z</time>
      </trkpt>
      <trkpt lat="46.13516" lon="2.77501">
        <ele>709</ele>
        <time>2015-10-23T14:25:07Z</time>
      </trkpt>
      <trkpt lat="46.13529" lon="2.77509">
        <ele>709</ele>
        <time>2015-10-23T14:25:11Z</time>
      </trkpt>
      <trkpt lat="46.13542" lon="2.7752">
        <ele>709</ele>
        <time>2015-10-23T14:25:15Z</time>
      </trkpt>
      <trkpt lat="46.13555" lon="2.77534">
        <ele>710</ele>
        <time>2015-10-23T14:25:19Z</time>
      </trkpt>
      <trkpt lat="46.13565" lon="2.77549">
        <ele>711</ele>
        <time>2015-10-23T14:25:23Z</time>
      </trkpt>
      <trkpt lat="46.13575" lon="2.77565">
        <ele>711</ele>
        <time>2015-10-23T14:25:27Z</time>
      </trkpt>
      <trkpt lat="46.13585" lon="2.7758">
        <ele>712</ele>
        <time>2015-10-23T14:25:31Z</time>
      </trkpt>
      <trkpt lat="46.13595" lon="2.77597">
        <ele>712</ele>
        <time>2015-10-23T14:25:35Z</time>
      </trkpt>
      <trkpt lat="46.13604" lon="2.77613">
        <ele>712</ele>
        <time>2015-10-23T14:25:39Z</time>
      </trkpt>
      <trkpt lat="46.13615" lon="2.77628">
        <ele>713</ele>
        <time>2015-10-23T14:25:43Z</time>
      </trkpt>
      <trkpt lat="46.13624" lon="2.7765">
        <ele>713</ele>
        <time>2015-10-23T14:25:47Z</time>
      </trkpt>
      <trkpt lat="46.13637" lon="2.77667">
        <ele>714</ele>
        <time>2015-10-23T14:25:51Z</time>
      </trkpt>
      <trkpt lat="46.13647" lon="2.7768">
        <ele>714</ele>
        <time>2015-10-23T14:25:55Z</time>
      </trkpt>
      <trkpt lat="46.13659" lon="2.77696">
        <ele>714</ele>
        <time>2015-10-23T14:25:59Z</time>
      </trkpt>
      <trkpt lat="46.1367" lon="2.77715">
        <ele>714</ele>
        <time>2015-10-23T14:26:03Z</time>
      </trkpt>
      <trkpt lat="46.1368" lon="2.77735">
        <ele>715</ele>
        <time>2015-10-23T14:26:07Z</time>
      </trkpt>
      <trkpt lat="46.13691" lon="2.77755">
        <ele>715</ele>
        <time>2015-10-23T14:26:11Z</time>
      </trkpt>
      <trkpt lat="46.13705" lon="2.77771">
        <ele>715</ele>
        <time>2015-10-23T14:26:15Z</time>
      </trkpt>
      <trkpt lat="46.13717" lon="2.77794">
        <ele>716</ele>
        <time>2015-10-23T14:26:19Z</time>
      </trkpt>
      <trkpt lat="46.13731" lon="2.77814">
        <ele>716</ele>
        <time>2015-10-23T14:26:23Z</time>
      </trkpt>
      <trkpt lat="46.13745" lon="2.77832">
        <ele>716</ele>
        <time>2015-10-23T14:26:27Z</time>
      </trkpt>
      <trkpt lat="46.13759" lon="2.7785">
        <ele>716</ele>
        <time>2015-10-23T14:26:31Z</time>
      </trkpt>
      <trkpt lat="46.13769" lon="2.77874">
        <ele>717</ele>
        <time>2015-10-23T14:26:35Z</time>
      </trkpt>
      <trkpt lat="46.1378" lon="2.77893">
        <ele>717</ele>
        <time>2015-10-23T14:26:39Z</time>
      </trkpt>
      <trkpt lat="46.13793" lon="2.77912">
        <ele>717</ele>
        <time>2015-10-23T14:26:43Z</time>
      </trkpt>
      <trkpt lat="46.13806" lon="2.77934">
        <ele>718</ele>
        <time>2015-10-23T14:26:47Z</time>
      </trkpt>
      <trkpt lat="46.1382" lon="2.77951">
        <ele>718</ele>
        <time>2015-10-23T14:26:51Z</time>
      </trkpt>
      <trkpt lat="46.13832" lon="2.77973">
        <ele>718</ele>
        <time>2015-10-23T14:26:55Z</time>
      </trkpt>
      <trkpt lat="46.13843" lon="2.77991">
        <ele>718</ele>
        <time>2015-10-23T14:26:59Z</time>
      </trkpt>
      <trkpt lat="46.13853" lon="2.78009">
        <ele>719</ele>
        <time>2015-10-23T14:27:03Z</time>
      </trkpt>
      <trkpt lat="46.13864" lon="2.78024">
        <ele>719</ele>
        <time>2015-10-23T14:27:07Z</time>
      </trkpt>
      <trkpt lat="46.13874" lon="2.78038">
        <ele>719</ele>
        <time>2015-10-23T14:27:11Z</time>
      </trkpt>
      <trkpt lat="46.13885" lon="2.78054">
        <ele>719</ele>
        <time>2015-10-23T14:27:15Z</time>
      </trkpt>
      <trkpt lat="46.13894" lon="2.78071">
        <ele>719</ele>
        <time>2015-10-23T14:27:19Z</time>
      </trkpt>
      <trkpt lat="46.13905" lon="2.78088">
        <ele>719</ele>
        <time>2015-10-23T14:27:23Z</time>
      </trkpt>
      <trkpt lat="46.13916" lon="2.78105">
        <ele>718</ele>
        <time>2015-10-23T14:27:27Z</time>
      </trkpt>
      <trkpt lat="46.13928" lon="2.78122">
        <ele>718</ele>
        <time>2015-10-23T14:27:31Z</time>
      </trkpt>
      <trkpt lat="46.13939" lon="2.78139">
        <ele>718</ele>
        <time>2015-10-23T14:27:35Z</time>
      </trkpt>
      <trkpt lat="46.13951" lon="2.78154">
        <ele>718</ele>
        <time>2015-10-23T14:27:39Z</time>
      </trkpt>
      <trkpt lat="46.13955" lon="2.78176">
        <ele>716</ele>
        <time>2015-10-23T14:27:43Z</time>
      </trkpt>
      <trkpt lat="46.13944" lon="2.78195">
        <ele>714</ele>
        <time>2015-10-23T14:27:47Z</time>
      </trkpt>
      <trkpt lat="46.13923" lon="2.78203">
        <ele>711</ele>
        <time>2015-10-23T14:27:51Z</time>
      </trkpt>
      <trkpt lat="46.13892" lon="2.78206">
        <ele>709</ele>
        <time>2015-10-23T14:27:55Z</time>
      </trkpt>
      <trkpt lat="46.13859" lon="2.78209">
        <ele>708</ele>
        <time>2015-10-23T14:27:59Z</time>
      </trkpt>
      <trkpt lat="46.13829" lon="2.78225">
        <ele>708</ele>
        <time>2015-10-23T14:28:03Z</time>
      </trkpt>
      <trkpt lat="46.13802" lon="2.78246">
        <ele>707</ele>
        <time>2015-10-23T14:28:07Z</time>
      </trkpt>
      <trkpt lat="46.13776" lon="2.78271">
        <ele>705</ele>
        <time>2015-10-23T14:28:11Z</time>
      </trkpt>
      <trkpt lat="46.13755" lon="2.78296">
        <ele>704</ele>
        <time>2015-10-23T14:28:15Z</time>
      </trkpt>
      <trkpt lat="46.13732" lon="2.78322">
        <ele>704</ele>
        <time>2015-10-23T14:28:19Z</time>
      </trkpt>
      <trkpt lat="46.1371" lon="2.78344">
        <ele>704</ele>
        <time>2015-10-23T14:28:23Z</time>
      </trkpt>
      <trkpt lat="46.13688" lon="2.78363">
        <ele>703</ele>
        <time>2015-10-23T14:28:27Z</time>
      </trkpt>
      <trkpt lat="46.13664" lon="2.7838">
        <ele>702</ele>
        <time>2015-10-23T14:28:31Z</time>
      </trkpt>
      <trkpt lat="46.13644" lon="2.78397">
        <ele>702</ele>
        <time>2015-10-23T14:28:35Z</time>
      </trkpt>
      <trkpt lat="46.13625" lon="2.78412">
        <ele>702</ele>
        <time>2015-10-23T14:28:39Z</time>
      </trkpt>
      <trkpt lat="46.13604" lon="2.78416">
        <ele>702</ele>
        <time>2015-10-23T14:28:43Z</time>
      </trkpt>
      <trkpt lat="46.1358" lon="2.78411">
        <ele>702</ele>
        <time>2015-10-23T14:28:47Z</time>
      </trkpt>
      <trkpt lat="46.13559" lon="2.78404">
        <ele>703</ele>
        <time>2015-10-23T14:28:51Z</time>
      </trkpt>
      <trkpt lat="46.1354" lon="2.78397">
        <ele>703</ele>
        <time>2015-10-23T14:28:55Z</time>
      </trkpt>
      <trkpt lat="46.13519" lon="2.78389">
        <ele>704</ele>
        <time>2015-10-23T14:28:59Z</time>
      </trkpt>
      <trkpt lat="46.135" lon="2.78378">
        <ele>704</ele>
        <time>2015-10-23T14:29:03Z</time>
      </trkpt>
      <trkpt lat="46.1348" lon="2.78368">
        <ele>705</ele>
        <time>2015-10-23T14:29:07Z</time>
      </trkpt>
      <trkpt lat="46.13461" lon="2.7836">
        <ele>704</ele>
        <time>2015-10-23T14:29:11Z</time>
      </trkpt>
      <trkpt lat="46.13444" lon="2.78351">
        <ele>704</ele>
        <time>2015-10-23T14:29:15Z</time>
      </trkpt>
      <trkpt lat="46.13425" lon="2.78347">
        <ele>705</ele>
        <time>2015-10-23T14:29:19Z</time>
      </trkpt>
      <trkpt lat="46.13404" lon="2.7834">
        <ele>706</ele>
        <time>2015-10-23T14:29:23Z</time>
      </trkpt>
      <trkpt lat="46.13388" lon="2.78339">
        <ele>707</ele>
        <time>2015-10-23T14:29:27Z</time>
      </trkpt>
      <trkpt lat="46.13369" lon="2.78338">
        <ele>707</ele>
        <time>2015-10-23T14:29:31Z</time>
      </trkpt>
      <trkpt lat="46.13354" lon="2.78336">
        <ele>707</ele>
        <time>2015-10-23T14:29:35Z</time>
      </trkpt>
      <trkpt lat="46.13341" lon="2.78333">
        <ele>707</ele>
        <time>2015-10-23T14:29:39Z</time>
      </trkpt>
      <trkpt lat="46.13322" lon="2.78331">
        <ele>706</ele>
        <time>2015-10-23T14:29:43Z</time>
      </trkpt>
      <trkpt lat="46.13302" lon="2.78325">
        <ele>705</ele>
        <time>2015-10-23T14:29:47Z</time>
      </trkpt>
      <trkpt lat="46.13279" lon="2.78319">
        <ele>705</ele>
        <time>2015-10-23T14:29:51Z</time>
      </trkpt>
      <trkpt lat="46.13261" lon="2.78311">
        <ele>704</ele>
        <time>2015-10-23T14:29:55Z</time>
      </trkpt>
      <trkpt lat="46.13242" lon="2.78303">
        <ele>704</ele>
        <time>2015-10-23T14:29:59Z</time>
      </trkpt>
      <trkpt lat="46.13226" lon="2.78296">
        <ele>704</ele>
        <time>2015-10-23T14:30:03Z</time>
      </trkpt>
      <trkpt lat="46.13209" lon="2.78291">
        <ele>704</ele>
        <time>2015-10-23T14:30:07Z</time>
      </trkpt>
      <trkpt lat="46.13194" lon="2.78286">
        <ele>704</ele>
        <time>2015-10-23T14:30:11Z</time>
      </trkpt>
      <trkpt lat="46.13175" lon="2.78282">
        <ele>704</ele>
        <time>2015-10-23T14:30:15Z</time>
      </trkpt>
      <trkpt lat="46.13157" lon="2.78279">
        <ele>704</ele>
        <time>2015-10-23T14:30:19Z</time>
      </trkpt>
      <trkpt lat="46.1314" lon="2.78274">
        <ele>704</ele>
        <time>2015-10-23T14:30:23Z</time>
      </trkpt>
      <trkpt lat="46.13123" lon="2.7827">
        <ele>704</ele>
        <time>2015-10-23T14:30:27Z</time>
      </trkpt>
      <trkpt lat="46.13106" lon="2.78263">
        <ele>705</ele>
        <time>2015-10-23T14:30:31Z</time>
      </trkpt>
      <trkpt lat="46.13089" lon="2.78257">
        <ele>705</ele>
        <time>2015-10-23T14:30:35Z</time>
      </trkpt>
      <trkpt lat="46.13073" lon="2.78251">
        <ele>706</ele>
        <time>2015-10-23T14:30:39Z</time>
      </trkpt>
      <trkpt lat="46.13056" lon="2.78247">
        <ele>707</ele>
        <time>2015-10-23T14:30:43Z</time>
      </trkpt>
      <trkpt lat="46.1304" lon="2.78245">
        <ele>708</ele>
        <time>2015-10-23T14:30:47Z</time>
      </trkpt>
      <trkpt lat="46.13027" lon="2.7824">
        <ele>709</ele>
        <time>2015-10-23T14:30:51Z</time>
      </trkpt>
      <trkpt lat="46.13014" lon="2.78237">
        <ele>710</ele>
        <time>2015-10-23T14:30:55Z</time>
      </trkpt>
      <trkpt lat="46.12997" lon="2.78233">
        <ele>711</ele>
        <time>2015-10-23T14:30:59Z</time>
      </trkpt>
      <trkpt lat="46.12982" lon="2.78229">
        <ele>711</ele>
        <time>2015-10-23T14:31:03Z</time>
      </trkpt>
      <trkpt lat="46.12974" lon="2.78228">
        <ele>712</ele>
        <time>2015-10-23T14:31:07Z</time>
      </trkpt>
      <trkpt lat="46.12966" lon="2.78223">
        <ele>712</ele>
        <time>2015-10-23T14:31:11Z</time>
      </trkpt>
      <trkpt lat="46.12946" lon="2.78216">
        <ele>712</ele>
        <time>2015-10-23T14:31:15Z</time>
      </trkpt>
      <trkpt lat="46.12931" lon="2.78214">
        <ele>712</ele>
        <time>2015-10-23T14:31:19Z</time>
      </trkpt>
      <trkpt lat="46.12915" lon="2.78204">
        <ele>712</ele>
        <time>2015-10-23T14:31:23Z</time>
      </trkpt>
      <trkpt lat="46.12901" lon="2.78202">
        <ele>712</ele>
        <time>2015-10-23T14:31:27Z</time>
      </trkpt>
      <trkpt lat="46.12886" lon="2.78197">
        <ele>712</ele>
        <time>2015-10-23T14:31:31Z</time>
      </trkpt>
      <trkpt lat="46.12871" lon="2.7819">
        <ele>712</ele>
        <time>2015-10-23T14:31:35Z</time>
      </trkpt>
      <trkpt lat="46.12859" lon="2.78185">
        <ele>712</ele>
        <time>2015-10-23T14:31:39Z</time>
      </trkpt>
      <trkpt lat="46.12845" lon="2.7818">
        <ele>713</ele>
        <time>2015-10-23T14:31:43Z</time>
      </trkpt>
      <trkpt lat="46.1283" lon="2.78176">
        <ele>713</ele>
        <time>2015-10-23T14:31:47Z</time>
      </trkpt>
      <trkpt lat="46.12815" lon="2.78175">
        <ele>713</ele>
        <time>2015-10-23T14:31:51Z</time>
      </trkpt>
      <trkpt lat="46.12801" lon="2.7817">
        <ele>714</ele>
        <time>2015-10-23T14:31:55Z</time>
      </trkpt>
      <trkpt lat="46.12788" lon="2.7817">
        <ele>714</ele>
        <time>2015-10-23T14:31:59Z</time>
      </trkpt>
      <trkpt lat="46.12775" lon="2.78168">
        <ele>715</ele>
        <time>2015-10-23T14:32:03Z</time>
      </trkpt>
      <trkpt lat="46.1276" lon="2.78164">
        <ele>715</ele>
        <time>2015-10-23T14:32:07Z</time>
      </trkpt>
      <trkpt lat="46.12747" lon="2.78155">
        <ele>715</ele>
        <time>2015-10-23T14:32:11Z</time>
      </trkpt>
      <trkpt lat="46.12731" lon="2.78149">
        <ele>715</ele>
        <time>2015-10-23T14:32:15Z</time>
      </trkpt>
      <trkpt lat="46.12713" lon="2.78146">
        <ele>716</ele>
        <time>2015-10-23T14:32:19Z</time>
      </trkpt>
      <trkpt lat="46.12699" lon="2.78139">
        <ele>717</ele>
        <time>2015-10-23T14:32:23Z</time>
      </trkpt>
      <trkpt lat="46.1268" lon="2.78138">
        <ele>717</ele>
        <time>2015-10-23T14:32:27Z</time>
      </trkpt>
      <trkpt lat="46.12666" lon="2.78141">
        <ele>718</ele>
        <time>2015-10-23T14:32:31Z</time>
      </trkpt>
      <trkpt lat="46.12654" lon="2.78137">
        <ele>718</ele>
        <time>2015-10-23T14:32:35Z</time>
      </trkpt>
      <trkpt lat="46.12641" lon="2.78134">
        <ele>719</ele>
        <time>2015-10-23T14:32:39Z</time>
      </trkpt>
      <trkpt lat="46.12631" lon="2.78133">
        <ele>721</ele>
        <time>2015-10-23T14:32:43Z</time>
      </trkpt>
      <trkpt lat="46.12615" lon="2.78132">
        <ele>722</ele>
        <time>2015-10-23T14:32:47Z</time>
      </trkpt>
      <trkpt lat="46.12606" lon="2.78126">
        <ele>723</ele>
        <time>2015-10-23T14:32:51Z</time>
      </trkpt>
      <trkpt lat="46.12595" lon="2.7812">
        <ele>724</ele>
        <time>2015-10-23T14:32:55Z</time>
      </trkpt>
      <trkpt lat="46.12581" lon="2.78116">
        <ele>724</ele>
        <time>2015-10-23T14:32:59Z</time>
      </trkpt>
      <trkpt lat="46.12572" lon="2.78114">
        <ele>725</ele>
        <time>2015-10-23T14:33:03Z</time>
      </trkpt>
      <trkpt lat="46.12559" lon="2.78106">
        <ele>726</ele>
        <time>2015-10-23T14:33:07Z</time>
      </trkpt>
      <trkpt lat="46.12548" lon="2.78099">
        <ele>726</ele>
        <time>2015-10-23T14:33:11Z</time>
      </trkpt>
      <trkpt lat="46.12534" lon="2.78097">
        <ele>728</ele>
        <time>2015-10-23T14:33:15Z</time>
      </trkpt>
      <trkpt lat="46.12521" lon="2.78093">
        <ele>728</ele>
        <time>2015-10-23T14:33:19Z</time>
      </trkpt>
      <trkpt lat="46.12509" lon="2.78086">
        <ele>729</ele>
        <time>2015-10-23T14:33:23Z</time>
      </trkpt>
      <trkpt lat="46.12494" lon="2.78092">
        <ele>729</ele>
        <time>2015-10-23T14:33:27Z</time>
      </trkpt>
      <trkpt lat="46.12486" lon="2.78097">
        <ele>729</ele>
        <time>2015-10-23T14:33:31Z</time>
      </trkpt>
      <trkpt lat="46.12474" lon="2.78094">
        <ele>730</ele>
        <time>2015-10-23T14:33:35Z</time>
      </trkpt>
      <trkpt lat="46.1246" lon="2.78095">
        <ele>730</ele>
        <time>2015-10-23T14:33:39Z</time>
      </trkpt>
      <trkpt lat="46.12448" lon="2.78101">
        <ele>730</ele>
        <time>2015-10-23T14:33:43Z</time>
      </trkpt>
      <trkpt lat="46.12435" lon="2.78103">
        <ele>730</ele>
        <time>2015-10-23T14:33:47Z</time>
      </trkpt>
      <trkpt lat="46.12422" lon="2.78107">
        <ele>730</ele>
        <time>2015-10-23T14:33:51Z</time>
      </trkpt>
      <trkpt lat="46.1241" lon="2.7811">
        <ele>730</ele>
        <time>2015-10-23T14:33:55Z</time>
      </trkpt>
      <trkpt lat="46.12398" lon="2.78119">
        <ele>729</ele>
        <time>2015-10-23T14:33:59Z</time>
      </trkpt>
      <trkpt lat="46.12383" lon="2.78125">
        <ele>729</ele>
        <time>2015-10-23T14:34:03Z</time>
      </trkpt>
      <trkpt lat="46.1237" lon="2.7813">
        <ele>729</ele>
        <time>2015-10-23T14:34:07Z</time>
      </trkpt>
      <trkpt lat="46.12355" lon="2.78133">
        <ele>728</ele>
        <time>2015-10-23T14:34:11Z</time>
      </trkpt>
      <trkpt lat="46.12337" lon="2.78136">
        <ele>726</ele>
        <time>2015-10-23T14:34:15Z</time>
      </trkpt>
      <trkpt lat="46.12314" lon="2.7814">
        <ele>726</ele>
        <time>2015-10-23T14:34:19Z</time>
      </trkpt>
      <trkpt lat="46.12293" lon="2.78137">
        <ele>726</ele>
        <time>2015-10-23T14:34:23Z</time>
      </trkpt>
      <trkpt lat="46.12274" lon="2.78127">
        <ele>726</ele>
        <time>2015-10-23T14:34:27Z</time>
      </trkpt>
      <trkpt lat="46.12259" lon="2.78114">
        <ele>725</ele>
        <time>2015-10-23T14:34:31Z</time>
      </trkpt>
      <trkpt lat="46.12246" lon="2.78099">
        <ele>726</ele>
        <time>2015-10-23T14:34:35Z</time>
      </trkpt>
      <trkpt lat="46.12236" lon="2.78084">
        <ele>726</ele>
        <time>2015-10-23T14:34:39Z</time>
      </trkpt>
      <trkpt lat="46.12227" lon="2.78069">
        <ele>726</ele>
        <time>2015-10-23T14:34:43Z</time>
      </trkpt>
      <trkpt lat="46.12215" lon="2.78061">
        <ele>727</ele>
        <time>2015-10-23T14:34:47Z</time>
      </trkpt>
      <trkpt lat="46.12205" lon="2.78049">
        <ele>728</ele>
        <time>2015-10-23T14:34:51Z</time>
      </trkpt>
      <trkpt lat="46.12197" lon="2.78049">
        <ele>728</ele>
        <time>2015-10-23T14:34:55Z</time>
      </trkpt>
      <trkpt lat="46.12191" lon="2.78054">
        <ele>728</ele>
        <time>2015-10-23T14:36:43Z</time>
      </trkpt>
      <trkpt lat="46.12189" lon="2.78058">
        <ele>728</ele>
        <time>2015-10-23T14:36:47Z</time>
      </trkpt>
      <trkpt lat="46.12191" lon="2.78052">
        <ele>728</ele>
        <time>2015-10-23T14:36:51Z</time>
      </trkpt>
      <trkpt lat="46.12192" lon="2.78043">
        <ele>728</ele>
        <time>2015-10-23T14:36:55Z</time>
      </trkpt>
      <trkpt lat="46.12193" lon="2.78034">
        <ele>727</ele>
        <time>2015-10-23T14:36:59Z</time>
      </trkpt>
      <trkpt lat="46.12191" lon="2.78003">
        <ele>727</ele>
        <time>2015-10-23T14:37:19Z</time>
      </trkpt>
      <trkpt lat="46.1219" lon="2.77998">
        <ele>727</ele>
        <time>2015-10-23T14:37:23Z</time>
      </trkpt>
      <trkpt lat="46.12185" lon="2.77994">
        <ele>726</ele>
        <time>2015-10-23T14:37:27Z</time>
      </trkpt>
      <trkpt lat="46.12182" lon="2.77992">
        <ele>726</ele>
        <time>2015-10-23T14:37:31Z</time>
      </trkpt>
      <trkpt lat="46.12179" lon="2.77985">
        <ele>727</ele>
        <time>2015-10-23T14:37:35Z</time>
      </trkpt>
      <trkpt lat="46.12171" lon="2.77967">
        <ele>726</ele>
        <time>2015-10-23T14:37:39Z</time>
      </trkpt>
      <trkpt lat="46.12164" lon="2.77953">
        <ele>726</ele>
        <time>2015-10-23T14:37:43Z</time>
      </trkpt>
      <trkpt lat="46.12157" lon="2.77938">
        <ele>726</ele>
        <time>2015-10-23T14:37:47Z</time>
      </trkpt>
      <trkpt lat="46.1215" lon="2.7792">
        <ele>725</ele>
        <time>2015-10-23T14:37:51Z</time>
      </trkpt>
      <trkpt lat="46.12139" lon="2.77904">
        <ele>725</ele>
        <time>2015-10-23T14:37:55Z</time>
      </trkpt>
      <trkpt lat="46.12131" lon="2.77894">
        <ele>725</ele>
        <time>2015-10-23T14:37:59Z</time>
      </trkpt>
      <trkpt lat="46.12121" lon="2.77887">
        <ele>725</ele>
        <time>2015-10-23T14:38:03Z</time>
      </trkpt>
      <trkpt lat="46.12108" lon="2.77876">
        <ele>725</ele>
        <time>2015-10-23T14:38:07Z</time>
      </trkpt>
      <trkpt lat="46.12094" lon="2.7786">
        <ele>724</ele>
        <time>2015-10-23T14:38:11Z</time>
      </trkpt>
      <trkpt lat="46.12081" lon="2.77845">
        <ele>723</ele>
        <time>2015-10-23T14:38:15Z</time>
      </trkpt>
      <trkpt lat="46.12067" lon="2.77833">
        <ele>723</ele>
        <time>2015-10-23T14:38:19Z</time>
      </trkpt>
      <trkpt lat="46.12052" lon="2.7782">
        <ele>724</ele>
        <time>2015-10-23T14:38:23Z</time>
      </trkpt>
      <trkpt lat="46.1204" lon="2.77808">
        <ele>724</ele>
        <time>2015-10-23T14:38:27Z</time>
      </trkpt>
      <trkpt lat="46.12027" lon="2.77796">
        <ele>725</ele>
        <time>2015-10-23T14:38:31Z</time>
      </trkpt>
      <trkpt lat="46.12016" lon="2.77786">
        <ele>725</ele>
        <time>2015-10-23T14:38:35Z</time>
      </trkpt>
      <trkpt lat="46.12006" lon="2.77775">
        <ele>726</ele>
        <time>2015-10-23T14:38:39Z</time>
      </trkpt>
      <trkpt lat="46.11996" lon="2.77764">
        <ele>727</ele>
        <time>2015-10-23T14:38:43Z</time>
      </trkpt>
      <trkpt lat="46.11984" lon="2.77757">
        <ele>727</ele>
        <time>2015-10-23T14:38:47Z</time>
      </trkpt>
      <trkpt lat="46.11974" lon="2.77749">
        <ele>728</ele>
        <time>2015-10-23T14:38:51Z</time>
      </trkpt>
      <trkpt lat="46.11963" lon="2.77744">
        <ele>728</ele>
        <time>2015-10-23T14:38:55Z</time>
      </trkpt>
      <trkpt lat="46.11949" lon="2.77735">
        <ele>728</ele>
        <time>2015-10-23T14:38:59Z</time>
      </trkpt>
      <trkpt lat="46.11935" lon="2.77725">
        <ele>728</ele>
        <time>2015-10-23T14:39:03Z</time>
      </trkpt>
      <trkpt lat="46.1192" lon="2.7772">
        <ele>727</ele>
        <time>2015-10-23T14:39:07Z</time>
      </trkpt>
      <trkpt lat="46.11905" lon="2.77716">
        <ele>728</ele>
        <time>2015-10-23T14:39:11Z</time>
      </trkpt>
      <trkpt lat="46.11892" lon="2.77719">
        <ele>726</ele>
        <time>2015-10-23T14:39:15Z</time>
      </trkpt>
      <trkpt lat="46.11872" lon="2.7773">
        <ele>725</ele>
        <time>2015-10-23T14:39:19Z</time>
      </trkpt>
      <trkpt lat="46.11851" lon="2.77731">
        <ele>725</ele>
        <time>2015-10-23T14:39:23Z</time>
      </trkpt>
      <trkpt lat="46.11833" lon="2.77723">
        <ele>726</ele>
        <time>2015-10-23T14:39:27Z</time>
      </trkpt>
      <trkpt lat="46.11817" lon="2.77714">
        <ele>726</ele>
        <time>2015-10-23T14:39:31Z</time>
      </trkpt>
      <trkpt lat="46.11802" lon="2.77704">
        <ele>726</ele>
        <time>2015-10-23T14:39:35Z</time>
      </trkpt>
      <trkpt lat="46.11786" lon="2.77693">
        <ele>726</ele>
        <time>2015-10-23T14:39:39Z</time>
      </trkpt>
      <trkpt lat="46.1177" lon="2.77682">
        <ele>726</ele>
        <time>2015-10-23T14:39:43Z</time>
      </trkpt>
      <trkpt lat="46.11754" lon="2.77673">
        <ele>726</ele>
        <time>2015-10-23T14:39:47Z</time>
      </trkpt>
      <trkpt lat="46.1174" lon="2.77664">
        <ele>725</ele>
        <time>2015-10-23T14:39:51Z</time>
      </trkpt>
      <trkpt lat="46.11725" lon="2.77657">
        <ele>725</ele>
        <time>2015-10-23T14:39:55Z</time>
      </trkpt>
      <trkpt lat="46.11707" lon="2.77651">
        <ele>726</ele>
        <time>2015-10-23T14:39:59Z</time>
      </trkpt>
      <trkpt lat="46.1169" lon="2.77642">
        <ele>725</ele>
        <time>2015-10-23T14:40:03Z</time>
      </trkpt>
      <trkpt lat="46.11674" lon="2.77635">
        <ele>725</ele>
        <time>2015-10-23T14:40:07Z</time>
      </trkpt>
      <trkpt lat="46.11659" lon="2.7762">
        <ele>725</ele>
        <time>2015-10-23T14:40:11Z</time>
      </trkpt>
      <trkpt lat="46.11643" lon="2.77608">
        <ele>724</ele>
        <time>2015-10-23T14:40:15Z</time>
      </trkpt>
      <trkpt lat="46.11635" lon="2.77581">
        <ele>724</ele>
        <time>2015-10-23T14:40:19Z</time>
      </trkpt>
      <trkpt lat="46.11612" lon="2.77586">
        <ele>723</ele>
        <time>2015-10-23T14:40:23Z</time>
      </trkpt>
      <trkpt lat="46.11594" lon="2.77579">
        <ele>723</ele>
        <time>2015-10-23T14:40:27Z</time>
      </trkpt>
      <trkpt lat="46.11573" lon="2.7757">
        <ele>722</ele>
        <time>2015-10-23T14:40:31Z</time>
      </trkpt>
      <trkpt lat="46.11554" lon="2.77554">
        <ele>722</ele>
        <time>2015-10-23T14:40:35Z</time>
      </trkpt>
      <trkpt lat="46.11535" lon="2.7755">
        <ele>722</ele>
        <time>2015-10-23T14:40:39Z</time>
      </trkpt>
      <trkpt lat="46.11517" lon="2.77546">
        <ele>724</ele>
        <time>2015-10-23T14:40:43Z</time>
      </trkpt>
      <trkpt lat="46.11503" lon="2.77541">
        <ele>724</ele>
        <time>2015-10-23T14:40:47Z</time>
      </trkpt>
      <trkpt lat="46.11484" lon="2.77533">
        <ele>724</ele>
        <time>2015-10-23T14:40:51Z</time>
      </trkpt>
      <trkpt lat="46.11469" lon="2.7752">
        <ele>725</ele>
        <time>2015-10-23T14:40:55Z</time>
      </trkpt>
      <trkpt lat="46.1145" lon="2.77508">
        <ele>725</ele>
        <time>2015-10-23T14:40:59Z</time>
      </trkpt>
      <trkpt lat="46.11437" lon="2.7749">
        <ele>725</ele>
        <time>2015-10-23T14:41:03Z</time>
      </trkpt>
      <trkpt lat="46.1142" lon="2.77482">
        <ele>726</ele>
        <time>2015-10-23T14:41:07Z</time>
      </trkpt>
      <trkpt lat="46.11407" lon="2.77471">
        <ele>726</ele>
        <time>2015-10-23T14:41:11Z</time>
      </trkpt>
      <trkpt lat="46.114" lon="2.7745">
        <ele>726</ele>
        <time>2015-10-23T14:41:15Z</time>
      </trkpt>
      <trkpt lat="46.11387" lon="2.77438">
        <ele>726</ele>
        <time>2015-10-23T14:41:19Z</time>
      </trkpt>
      <trkpt lat="46.11382" lon="2.77413">
        <ele>726</ele>
        <time>2015-10-23T14:41:23Z</time>
      </trkpt>
      <trkpt lat="46.11368" lon="2.77408">
        <ele>727</ele>
        <time>2015-10-23T14:41:27Z</time>
      </trkpt>
      <trkpt lat="46.11347" lon="2.77405">
        <ele>726</ele>
        <time>2015-10-23T14:41:31Z</time>
      </trkpt>
      <trkpt lat="46.11328" lon="2.77397">
        <ele>726</ele>
        <time>2015-10-23T14:41:35Z</time>
      </trkpt>
      <trkpt lat="46.11316" lon="2.77375">
        <ele>726</ele>
        <time>2015-10-23T14:41:39Z</time>
      </trkpt>
      <trkpt lat="46.11304" lon="2.77364">
        <ele>726</ele>
        <time>2015-10-23T14:41:43Z</time>
      </trkpt>
      <trkpt lat="46.11286" lon="2.7735">
        <ele>726</ele>
        <time>2015-10-23T14:41:47Z</time>
      </trkpt>
      <trkpt lat="46.11269" lon="2.77344">
        <ele>727</ele>
        <time>2015-10-23T14:41:51Z</time>
      </trkpt>
      <trkpt lat="46.11256" lon="2.7734">
        <ele>728</ele>
        <time>2015-10-23T14:41:55Z</time>
      </trkpt>
      <trkpt lat="46.1124" lon="2.77338">
        <ele>728</ele>
        <time>2015-10-23T14:41:59Z</time>
      </trkpt>
      <trkpt lat="46.11222" lon="2.77336">
        <ele>728</ele>
        <time>2015-10-23T14:42:03Z</time>
      </trkpt>
      <trkpt lat="46.11208" lon="2.77332">
        <ele>729</ele>
        <time>2015-10-23T14:42:07Z</time>
      </trkpt>
      <trkpt lat="46.11194" lon="2.77328">
        <ele>729</ele>
        <time>2015-10-23T14:42:11Z</time>
      </trkpt>
      <trkpt lat="46.11185" lon="2.77325">
        <ele>731</ele>
        <time>2015-10-23T14:42:15Z</time>
      </trkpt>
      <trkpt lat="46.11174" lon="2.77324">
        <ele>731</ele>
        <time>2015-10-23T14:42:19Z</time>
      </trkpt>
      <trkpt lat="46.11164" lon="2.77324">
        <ele>732</ele>
        <time>2015-10-23T14:42:23Z</time>
      </trkpt>
      <trkpt lat="46.11153" lon="2.77324">
        <ele>734</ele>
        <time>2015-10-23T14:42:27Z</time>
      </trkpt>
      <trkpt lat="46.11145" lon="2.77326">
        <ele>735</ele>
        <time>2015-10-23T14:44:43Z</time>
      </trkpt>
      <trkpt lat="46.1114" lon="2.77328">
        <ele>736</ele>
        <time>2015-10-23T14:44:47Z</time>
      </trkpt>
      <trkpt lat="46.11138" lon="2.77333">
        <ele>737</ele>
        <time>2015-10-23T14:44:51Z</time>
      </trkpt>
      <trkpt lat="46.11134" lon="2.77337">
        <ele>737</ele>
        <time>2015-10-23T14:44:55Z</time>
      </trkpt>
      <trkpt lat="46.11123" lon="2.77337">
        <ele>739</ele>
        <time>2015-10-23T14:44:59Z</time>
      </trkpt>
      <trkpt lat="46.11114" lon="2.77337">
        <ele>739</ele>
        <time>2015-10-23T14:45:03Z</time>
      </trkpt>
      <trkpt lat="46.11102" lon="2.77346">
        <ele>740</ele>
        <time>2015-10-23T14:45:07Z</time>
      </trkpt>
      <trkpt lat="46.11093" lon="2.7735">
        <ele>741</ele>
        <time>2015-10-23T14:45:11Z</time>
      </trkpt>
      <trkpt lat="46.11086" lon="2.7735">
        <ele>742</ele>
        <time>2015-10-23T14:45:15Z</time>
      </trkpt>
      <trkpt lat="46.11079" lon="2.77357">
        <ele>743</ele>
        <time>2015-10-23T14:45:19Z</time>
      </trkpt>
      <trkpt lat="46.11079" lon="2.77369">
        <ele>745</ele>
        <time>2015-10-23T14:45:23Z</time>
      </trkpt>
      <trkpt lat="46.11071" lon="2.77379">
        <ele>746</ele>
        <time>2015-10-23T14:45:27Z</time>
      </trkpt>
      <trkpt lat="46.11065" lon="2.77387">
        <ele>748</ele>
        <time>2015-10-23T14:45:31Z</time>
      </trkpt>
      <trkpt lat="46.11058" lon="2.77396">
        <ele>748</ele>
        <time>2015-10-23T14:45:35Z</time>
      </trkpt>
      <trkpt lat="46.11055" lon="2.77407">
        <ele>749</ele>
        <time>2015-10-23T14:45:39Z</time>
      </trkpt>
      <trkpt lat="46.11053" lon="2.77414">
        <ele>750</ele>
        <time>2015-10-23T14:45:43Z</time>
      </trkpt>
      <trkpt lat="46.11049" lon="2.77424">
        <ele>750</ele>
        <time>2015-10-23T14:45:47Z</time>
      </trkpt>
      <trkpt lat="46.1105" lon="2.7743">
        <ele>750</ele>
        <time>2015-10-23T14:45:51Z</time>
      </trkpt>
      <trkpt lat="46.1105" lon="2.77438">
        <ele>751</ele>
        <time>2015-10-23T14:45:55Z</time>
      </trkpt>
      <trkpt lat="46.11049" lon="2.77448">
        <ele>751</ele>
        <time>2015-10-23T14:45:59Z</time>
      </trkpt>
      <trkpt lat="46.11047" lon="2.77456">
        <ele>751</ele>
        <time>2015-10-23T14:46:03Z</time>
      </trkpt>
      <trkpt lat="46.11042" lon="2.77464">
        <ele>752</ele>
        <time>2015-10-23T14:46:07Z</time>
      </trkpt>
      <trkpt lat="46.11039" lon="2.77478">
        <ele>752</ele>
        <time>2015-10-23T14:46:11Z</time>
      </trkpt>
      <trkpt lat="46.11036" lon="2.77489">
        <ele>753</ele>
        <time>2015-10-23T14:46:15Z</time>
      </trkpt>
      <trkpt lat="46.11031" lon="2.77497">
        <ele>753</ele>
        <time>2015-10-23T14:46:19Z</time>
      </trkpt>
      <trkpt lat="46.11025" lon="2.77505">
        <ele>754</ele>
        <time>2015-10-23T14:46:23Z</time>
      </trkpt>
      <trkpt lat="46.11018" lon="2.77512">
        <ele>755</ele>
        <time>2015-10-23T14:46:27Z</time>
      </trkpt>
      <trkpt lat="46.11012" lon="2.77519">
        <ele>756</ele>
        <time>2015-10-23T14:46:31Z</time>
      </trkpt>
      <trkpt lat="46.11007" lon="2.7753">
        <ele>757</ele>
        <time>2015-10-23T14:46:35Z</time>
      </trkpt>
      <trkpt lat="46.11002" lon="2.77541">
        <ele>758</ele>
        <time>2015-10-23T14:46:39Z</time>
      </trkpt>
      <trkpt lat="46.10999" lon="2.77554">
        <ele>759</ele>
        <time>2015-10-23T14:46:43Z</time>
      </trkpt>
      <trkpt lat="46.10999" lon="2.77563">
        <ele>760</ele>
        <time>2015-10-23T14:46:47Z</time>
      </trkpt>
      <trkpt lat="46.10996" lon="2.77564">
        <ele>760</ele>
        <time>2015-10-23T14:46:51Z</time>
      </trkpt>
      <trkpt lat="46.10988" lon="2.77574">
        <ele>761</ele>
        <time>2015-10-23T14:46:55Z</time>
      </trkpt>
      <trkpt lat="46.10983" lon="2.77586">
        <ele>762</ele>
        <time>2015-10-23T14:46:59Z</time>
      </trkpt>
      <trkpt lat="46.10977" lon="2.77597">
        <ele>763</ele>
        <time>2015-10-23T14:47:03Z</time>
      </trkpt>
      <trkpt lat="46.10973" lon="2.77609">
        <ele>763</ele>
        <time>2015-10-23T14:47:07Z</time>
      </trkpt>
      <trkpt lat="46.1097" lon="2.77616">
        <ele>765</ele>
        <time>2015-10-23T14:47:15Z</time>
      </trkpt>
      <trkpt lat="46.10969" lon="2.77624">
        <ele>765</ele>
        <time>2015-10-23T14:47:19Z</time>
      </trkpt>
      <trkpt lat="46.10968" lon="2.77633">
        <ele>767</ele>
        <time>2015-10-23T14:47:23Z</time>
      </trkpt>
      <trkpt lat="46.10962" lon="2.77646">
        <ele>767</ele>
        <time>2015-10-23T14:47:27Z</time>
      </trkpt>
      <trkpt lat="46.10961" lon="2.77652">
        <ele>768</ele>
        <time>2015-10-23T14:47:31Z</time>
      </trkpt>
      <trkpt lat="46.10959" lon="2.77662">
        <ele>769</ele>
        <time>2015-10-23T14:47:35Z</time>
      </trkpt>
      <trkpt lat="46.10958" lon="2.7767">
        <ele>769</ele>
        <time>2015-10-23T14:47:39Z</time>
      </trkpt>
      <trkpt lat="46.10958" lon="2.77686">
        <ele>770</ele>
        <time>2015-10-23T14:47:43Z</time>
      </trkpt>
      <trkpt lat="46.10957" lon="2.77693">
        <ele>771</ele>
        <time>2015-10-23T14:47:47Z</time>
      </trkpt>
      <trkpt lat="46.10954" lon="2.77701">
        <ele>772</ele>
        <time>2015-10-23T14:47:51Z</time>
      </trkpt>
      <trkpt lat="46.10951" lon="2.77712">
        <ele>773</ele>
        <time>2015-10-23T14:47:55Z</time>
      </trkpt>
      <trkpt lat="46.10951" lon="2.77718">
        <ele>774</ele>
        <time>2015-10-23T14:47:59Z</time>
      </trkpt>
      <trkpt lat="46.10947" lon="2.7773">
        <ele>775</ele>
        <time>2015-10-23T14:48:03Z</time>
      </trkpt>
      <trkpt lat="46.10945" lon="2.77745">
        <ele>775</ele>
        <time>2015-10-23T14:48:07Z</time>
      </trkpt>
      <trkpt lat="46.10943" lon="2.77757">
        <ele>776</ele>
        <time>2015-10-23T14:48:11Z</time>
      </trkpt>
      <trkpt lat="46.10941" lon="2.77766">
        <ele>776</ele>
        <time>2015-10-23T14:48:15Z</time>
      </trkpt>
      <trkpt lat="46.10939" lon="2.77776">
        <ele>776</ele>
        <time>2015-10-23T14:48:31Z</time>
      </trkpt>
      <trkpt lat="46.10931" lon="2.77785">
        <ele>776</ele>
        <time>2015-10-23T14:48:35Z</time>
      </trkpt>
      <trkpt lat="46.10923" lon="2.77782">
        <ele>776</ele>
        <time>2015-10-23T14:48:39Z</time>
      </trkpt>
      <trkpt lat="46.10913" lon="2.77783">
        <ele>777</ele>
        <time>2015-10-23T14:48:43Z</time>
      </trkpt>
      <trkpt lat="46.10901" lon="2.77778">
        <ele>777</ele>
        <time>2015-10-23T14:48:47Z</time>
      </trkpt>
      <trkpt lat="46.1089" lon="2.77773">
        <ele>777</ele>
        <time>2015-10-23T14:48:51Z</time>
      </trkpt>
      <trkpt lat="46.1088" lon="2.77773">
        <ele>777</ele>
        <time>2015-10-23T14:48:55Z</time>
      </trkpt>
      <trkpt lat="46.10871" lon="2.77777">
        <ele>777</ele>
        <time>2015-10-23T14:48:59Z</time>
      </trkpt>
      <trkpt lat="46.10863" lon="2.77777">
        <ele>777</ele>
        <time>2015-10-23T14:49:03Z</time>
      </trkpt>
      <trkpt lat="46.10862" lon="2.77794">
        <ele>777</ele>
        <time>2015-10-23T14:49:07Z</time>
      </trkpt>
      <trkpt lat="46.10872" lon="2.77812">
        <ele>776</ele>
        <time>2015-10-23T14:49:11Z</time>
      </trkpt>
      <trkpt lat="46.10881" lon="2.77831">
        <ele>775</ele>
        <time>2015-10-23T14:49:15Z</time>
      </trkpt>
      <trkpt lat="46.10893" lon="2.77853">
        <ele>773</ele>
        <time>2015-10-23T14:49:19Z</time>
      </trkpt>
      <trkpt lat="46.10905" lon="2.77874">
        <ele>772</ele>
        <time>2015-10-23T14:49:23Z</time>
      </trkpt>
      <trkpt lat="46.10914" lon="2.77901">
        <ele>772</ele>
        <time>2015-10-23T14:49:27Z</time>
      </trkpt>
      <trkpt lat="46.10926" lon="2.77921">
        <ele>771</ele>
        <time>2015-10-23T14:49:31Z</time>
      </trkpt>
      <trkpt lat="46.10929" lon="2.77951">
        <ele>770</ele>
        <time>2015-10-23T14:49:35Z</time>
      </trkpt>
      <trkpt lat="46.10936" lon="2.77977">
        <ele>770</ele>
        <time>2015-10-23T14:49:39Z</time>
      </trkpt>
      <trkpt lat="46.1094" lon="2.78008">
        <ele>769</ele>
        <time>2015-10-23T14:49:43Z</time>
      </trkpt>
      <trkpt lat="46.10946" lon="2.7804">
        <ele>768</ele>
        <time>2015-10-23T14:49:47Z</time>
      </trkpt>
      <trkpt lat="46.10952" lon="2.78069">
        <ele>767</ele>
        <time>2015-10-23T14:49:51Z</time>
      </trkpt>
      <trkpt lat="46.10954" lon="2.78091">
        <ele>766</ele>
        <time>2015-10-23T14:49:55Z</time>
      </trkpt>
      <trkpt lat="46.10957" lon="2.78116">
        <ele>766</ele>
        <time>2015-10-23T14:49:59Z</time>
      </trkpt>
      <trkpt lat="46.10959" lon="2.78134">
        <ele>765</ele>
        <time>2015-10-23T14:50:03Z</time>
      </trkpt>
      <trkpt lat="46.10962" lon="2.78155">
        <ele>765</ele>
        <time>2015-10-23T14:50:07Z</time>
      </trkpt>
      <trkpt lat="46.10963" lon="2.78178">
        <ele>765</ele>
        <time>2015-10-23T14:50:11Z</time>
      </trkpt>
      <trkpt lat="46.10965" lon="2.782">
        <ele>764</ele>
        <time>2015-10-23T14:50:15Z</time>
      </trkpt>
      <trkpt lat="46.10963" lon="2.78213">
        <ele>764</ele>
        <time>2015-10-23T14:50:19Z</time>
      </trkpt>
      <trkpt lat="46.10964" lon="2.78229">
        <ele>764</ele>
        <time>2015-10-23T14:50:23Z</time>
      </trkpt>
      <trkpt lat="46.10966" lon="2.78246">
        <ele>764</ele>
        <time>2015-10-23T14:50:27Z</time>
      </trkpt>
      <trkpt lat="46.10967" lon="2.78267">
        <ele>763</ele>
        <time>2015-10-23T14:50:31Z</time>
      </trkpt>
      <trkpt lat="46.10967" lon="2.78289">
        <ele>763</ele>
        <time>2015-10-23T14:50:35Z</time>
      </trkpt>
      <trkpt lat="46.10969" lon="2.78313">
        <ele>762</ele>
        <time>2015-10-23T14:50:39Z</time>
      </trkpt>
      <trkpt lat="46.10972" lon="2.78338">
        <ele>761</ele>
        <time>2015-10-23T14:50:43Z</time>
      </trkpt>
      <trkpt lat="46.10976" lon="2.78363">
        <ele>760</ele>
        <time>2015-10-23T14:50:47Z</time>
      </trkpt>
      <trkpt lat="46.10983" lon="2.78395">
        <ele>758</ele>
        <time>2015-10-23T14:50:51Z</time>
      </trkpt>
      <trkpt lat="46.1099" lon="2.78426">
        <ele>756</ele>
        <time>2015-10-23T14:50:55Z</time>
      </trkpt>
      <trkpt lat="46.10991" lon="2.78467">
        <ele>753</ele>
        <time>2015-10-23T14:50:59Z</time>
      </trkpt>
      <trkpt lat="46.10987" lon="2.78509">
        <ele>752</ele>
        <time>2015-10-23T14:51:03Z</time>
      </trkpt>
      <trkpt lat="46.10983" lon="2.78546">
        <ele>751</ele>
        <time>2015-10-23T14:51:07Z</time>
      </trkpt>
      <trkpt lat="46.10983" lon="2.78577">
        <ele>751</ele>
        <time>2015-10-23T14:51:11Z</time>
      </trkpt>
      <trkpt lat="46.10983" lon="2.78597">
        <ele>751</ele>
        <time>2015-10-23T14:51:15Z</time>
      </trkpt>
      <trkpt lat="46.1098" lon="2.78614">
        <ele>751</ele>
        <time>2015-10-23T14:51:19Z</time>
      </trkpt>
      <trkpt lat="46.10972" lon="2.78619">
        <ele>752</ele>
        <time>2015-10-23T14:51:23Z</time>
      </trkpt>
      <trkpt lat="46.10963" lon="2.78608">
        <ele>752</ele>
        <time>2015-10-23T14:51:27Z</time>
      </trkpt>
      <trkpt lat="46.10954" lon="2.78596">
        <ele>752</ele>
        <time>2015-10-23T14:51:31Z</time>
      </trkpt>
      <trkpt lat="46.10943" lon="2.78585">
        <ele>752</ele>
        <time>2015-10-23T14:51:35Z</time>
      </trkpt>
      <trkpt lat="46.10928" lon="2.78572">
        <ele>751</ele>
        <time>2015-10-23T14:51:39Z</time>
      </trkpt>
      <trkpt lat="46.10921" lon="2.78561">
        <ele>751</ele>
        <time>2015-10-23T14:51:43Z</time>
      </trkpt>
      <trkpt lat="46.10913" lon="2.78549">
        <ele>750</ele>
        <time>2015-10-23T14:51:47Z</time>
      </trkpt>
      <trkpt lat="46.109" lon="2.78539">
        <ele>750</ele>
        <time>2015-10-23T14:51:51Z</time>
      </trkpt>
      <trkpt lat="46.10886" lon="2.78528">
        <ele>749</ele>
        <time>2015-10-23T14:51:55Z</time>
      </trkpt>
      <trkpt lat="46.10877" lon="2.78512">
        <ele>747</ele>
        <time>2015-10-23T14:51:59Z</time>
      </trkpt>
      <trkpt lat="46.10867" lon="2.78494">
        <ele>747</ele>
        <time>2015-10-23T14:52:03Z</time>
      </trkpt>
      <trkpt lat="46.10858" lon="2.78474">
        <ele>747</ele>
        <time>2015-10-23T14:52:07Z</time>
      </trkpt>
      <trkpt lat="46.10848" lon="2.78462">
        <ele>747</ele>
        <time>2015-10-23T14:52:11Z</time>
      </trkpt>
      <trkpt lat="46.10839" lon="2.78453">
        <ele>746</ele>
        <time>2015-10-23T14:52:15Z</time>
      </trkpt>
      <trkpt lat="46.10834" lon="2.78441">
        <ele>746</ele>
        <time>2015-10-23T14:52:19Z</time>
      </trkpt>
      <trkpt lat="46.10823" lon="2.78426">
        <ele>744</ele>
        <time>2015-10-23T14:52:23Z</time>
      </trkpt>
      <trkpt lat="46.1081" lon="2.78409">
        <ele>742</ele>
        <time>2015-10-23T14:52:27Z</time>
      </trkpt>
      <trkpt lat="46.10799" lon="2.784">
        <ele>742</ele>
        <time>2015-10-23T14:52:31Z</time>
      </trkpt>
      <trkpt lat="46.10793" lon="2.78389">
        <ele>741</ele>
        <time>2015-10-23T14:52:35Z</time>
      </trkpt>
      <trkpt lat="46.10783" lon="2.7838">
        <ele>740</ele>
        <time>2015-10-23T14:52:39Z</time>
      </trkpt>
      <trkpt lat="46.10768" lon="2.78377">
        <ele>739</ele>
        <time>2015-10-23T14:52:43Z</time>
      </trkpt>
      <trkpt lat="46.10752" lon="2.78362">
        <ele>737</ele>
        <time>2015-10-23T14:52:47Z</time>
      </trkpt>
      <trkpt lat="46.10735" lon="2.78347">
        <ele>737</ele>
        <time>2015-10-23T14:52:51Z</time>
      </trkpt>
      <trkpt lat="46.10717" lon="2.78344">
        <ele>736</ele>
        <time>2015-10-23T14:52:55Z</time>
      </trkpt>
      <trkpt lat="46.10698" lon="2.78345">
        <ele>736</ele>
        <time>2015-10-23T14:52:59Z</time>
      </trkpt>
      <trkpt lat="46.10682" lon="2.78344">
        <ele>735</ele>
        <time>2015-10-23T14:53:03Z</time>
      </trkpt>
      <trkpt lat="46.10663" lon="2.78345">
        <ele>734</ele>
        <time>2015-10-23T14:53:07Z</time>
      </trkpt>
      <trkpt lat="46.10648" lon="2.78334">
        <ele>734</ele>
        <time>2015-10-23T14:53:11Z</time>
      </trkpt>
      <trkpt lat="46.10631" lon="2.7833">
        <ele>733</ele>
        <time>2015-10-23T14:53:15Z</time>
      </trkpt>
      <trkpt lat="46.10617" lon="2.7832">
        <ele>733</ele>
        <time>2015-10-23T14:53:19Z</time>
      </trkpt>
      <trkpt lat="46.10603" lon="2.78317">
        <ele>733</ele>
        <time>2015-10-23T14:53:23Z</time>
      </trkpt>
      <trkpt lat="46.10586" lon="2.78306">
        <ele>732</ele>
        <time>2015-10-23T14:53:27Z</time>
      </trkpt>
      <trkpt lat="46.1057" lon="2.78299">
        <ele>732</ele>
        <time>2015-10-23T14:53:31Z</time>
      </trkpt>
      <trkpt lat="46.1055" lon="2.7829">
        <ele>731</ele>
        <time>2015-10-23T14:53:35Z</time>
      </trkpt>
      <trkpt lat="46.10532" lon="2.78284">
        <ele>729</ele>
        <time>2015-10-23T14:53:39Z</time>
      </trkpt>
      <trkpt lat="46.10514" lon="2.78283">
        <ele>727</ele>
        <time>2015-10-23T14:53:43Z</time>
      </trkpt>
      <trkpt lat="46.10493" lon="2.78278">
        <ele>726</ele>
        <time>2015-10-23T14:53:47Z</time>
      </trkpt>
      <trkpt lat="46.10471" lon="2.78266">
        <ele>724</ele>
        <time>2015-10-23T14:53:51Z</time>
      </trkpt>
      <trkpt lat="46.10455" lon="2.78255">
        <ele>723</ele>
        <time>2015-10-23T14:53:55Z</time>
      </trkpt>
      <trkpt lat="46.1044" lon="2.78257">
        <ele>721</ele>
        <time>2015-10-23T14:53:59Z</time>
      </trkpt>
      <trkpt lat="46.10414" lon="2.78249">
        <ele>720</ele>
        <time>2015-10-23T14:54:03Z</time>
      </trkpt>
      <trkpt lat="46.10394" lon="2.78255">
        <ele>717</ele>
        <time>2015-10-23T14:54:07Z</time>
      </trkpt>
      <trkpt lat="46.10379" lon="2.78269">
        <ele>716</ele>
        <time>2015-10-23T14:54:11Z</time>
      </trkpt>
      <trkpt lat="46.10369" lon="2.78284">
        <ele>715</ele>
        <time>2015-10-23T14:54:19Z</time>
      </trkpt>
      <trkpt lat="46.10354" lon="2.78289">
        <ele>712</ele>
        <time>2015-10-23T14:54:23Z</time>
      </trkpt>
      <trkpt lat="46.10341" lon="2.78307">
        <ele>710</ele>
        <time>2015-10-23T14:54:27Z</time>
      </trkpt>
      <trkpt lat="46.10325" lon="2.78329">
        <ele>708</ele>
        <time>2015-10-23T14:54:31Z</time>
      </trkpt>
      <trkpt lat="46.1031" lon="2.78351">
        <ele>708</ele>
        <time>2015-10-23T14:54:35Z</time>
      </trkpt>
      <trkpt lat="46.10303" lon="2.78385">
        <ele>707</ele>
        <time>2015-10-23T14:54:39Z</time>
      </trkpt>
      <trkpt lat="46.10299" lon="2.78416">
        <ele>706</ele>
        <time>2015-10-23T14:54:43Z</time>
      </trkpt>
      <trkpt lat="46.1029" lon="2.78439">
        <ele>703</ele>
        <time>2015-10-23T14:54:47Z</time>
      </trkpt>
      <trkpt lat="46.10287" lon="2.78472">
        <ele>700</ele>
        <time>2015-10-23T14:54:51Z</time>
      </trkpt>
      <trkpt lat="46.10278" lon="2.78498">
        <ele>700</ele>
        <time>2015-10-23T14:54:55Z</time>
      </trkpt>
      <trkpt lat="46.10261" lon="2.7852">
        <ele>697</ele>
        <time>2015-10-23T14:54:59Z</time>
      </trkpt>
      <trkpt lat="46.10254" lon="2.78544">
        <ele>695</ele>
        <time>2015-10-23T14:55:03Z</time>
      </trkpt>
      <trkpt lat="46.10245" lon="2.78571">
        <ele>693</ele>
        <time>2015-10-23T14:55:07Z</time>
      </trkpt>
      <trkpt lat="46.10233" lon="2.78608">
        <ele>691</ele>
        <time>2015-10-23T14:55:11Z</time>
      </trkpt>
      <trkpt lat="46.10223" lon="2.78643">
        <ele>690</ele>
        <time>2015-10-23T14:55:15Z</time>
      </trkpt>
      <trkpt lat="46.10219" lon="2.78681">
        <ele>690</ele>
        <time>2015-10-23T14:55:19Z</time>
      </trkpt>
      <trkpt lat="46.10212" lon="2.78706">
        <ele>689</ele>
        <time>2015-10-23T14:55:23Z</time>
      </trkpt>
      <trkpt lat="46.10204" lon="2.78733">
        <ele>688</ele>
        <time>2015-10-23T14:55:27Z</time>
      </trkpt>
      <trkpt lat="46.10195" lon="2.78754">
        <ele>688</ele>
        <time>2015-10-23T14:55:31Z</time>
      </trkpt>
      <trkpt lat="46.10186" lon="2.7878">
        <ele>687</ele>
        <time>2015-10-23T14:55:35Z</time>
      </trkpt>
      <trkpt lat="46.1018" lon="2.78804">
        <ele>686</ele>
        <time>2015-10-23T14:55:39Z</time>
      </trkpt>
      <trkpt lat="46.10172" lon="2.78828">
        <ele>686</ele>
        <time>2015-10-23T14:55:43Z</time>
      </trkpt>
      <trkpt lat="46.10165" lon="2.78852">
        <ele>686</ele>
        <time>2015-10-23T14:55:47Z</time>
      </trkpt>
      <trkpt lat="46.10161" lon="2.78886">
        <ele>687</ele>
        <time>2015-10-23T14:55:51Z</time>
      </trkpt>
      <trkpt lat="46.10155" lon="2.78908">
        <ele>688</ele>
        <time>2015-10-23T14:55:55Z</time>
      </trkpt>
      <trkpt lat="46.10149" lon="2.78931">
        <ele>687</ele>
        <time>2015-10-23T14:55:59Z</time>
      </trkpt>
      <trkpt lat="46.10152" lon="2.78942">
        <ele>687</ele>
        <time>2015-10-23T14:56:03Z</time>
      </trkpt>
      <trkpt lat="46.10149" lon="2.78954">
        <ele>687</ele>
        <time>2015-10-23T14:56:07Z</time>
      </trkpt>
      <trkpt lat="46.10143" lon="2.78972">
        <ele>686</ele>
        <time>2015-10-23T14:56:11Z</time>
      </trkpt>
      <trkpt lat="46.10138" lon="2.78982">
        <ele>685</ele>
        <time>2015-10-23T14:56:15Z</time>
      </trkpt>
      <trkpt lat="46.10136" lon="2.78999">
        <ele>683</ele>
        <time>2015-10-23T14:56:19Z</time>
      </trkpt>
      <trkpt lat="46.10133" lon="2.79018">
        <ele>682</ele>
        <time>2015-10-23T14:59:15Z</time>
      </trkpt>
      <trkpt lat="46.10132" lon="2.79019">
        <ele>682</ele>
        <time>2015-10-23T14:59:19Z</time>
      </trkpt>
      <trkpt lat="46.10137" lon="2.79027">
        <ele>680</ele>
        <time>2015-10-23T14:59:23Z</time>
      </trkpt>
      <trkpt lat="46.10145" lon="2.7904">
        <ele>679</ele>
        <time>2015-10-23T14:59:27Z</time>
      </trkpt>
      <trkpt lat="46.10157" lon="2.79051">
        <ele>678</ele>
        <time>2015-10-23T14:59:31Z</time>
      </trkpt>
      <trkpt lat="46.10171" lon="2.79068">
        <ele>675</ele>
        <time>2015-10-23T14:59:35Z</time>
      </trkpt>
      <trkpt lat="46.10188" lon="2.79086">
        <ele>671</ele>
        <time>2015-10-23T14:59:39Z</time>
      </trkpt>
      <trkpt lat="46.10207" lon="2.79119">
        <ele>668</ele>
        <time>2015-10-23T14:59:43Z</time>
      </trkpt>
      <trkpt lat="46.10224" lon="2.79138">
        <ele>665</ele>
        <time>2015-10-23T14:59:47Z</time>
      </trkpt>
      <trkpt lat="46.10241" lon="2.79157">
        <ele>663</ele>
        <time>2015-10-23T14:59:51Z</time>
      </trkpt>
      <trkpt lat="46.10257" lon="2.79157">
        <ele>663</ele>
        <time>2015-10-23T15:00:31Z</time>
      </trkpt>
      <trkpt lat="46.10255" lon="2.7917">
        <ele>663</ele>
        <time>2015-10-23T15:00:35Z</time>
      </trkpt>
      <trkpt lat="46.1025" lon="2.79176">
        <ele>662</ele>
        <time>2015-10-23T15:00:39Z</time>
      </trkpt>
      <trkpt lat="46.10245" lon="2.79186">
        <ele>662</ele>
        <time>2015-10-23T15:00:43Z</time>
      </trkpt>
      <trkpt lat="46.10237" lon="2.79202">
        <ele>661</ele>
        <time>2015-10-23T15:00:47Z</time>
      </trkpt>
      <trkpt lat="46.10225" lon="2.79205">
        <ele>661</ele>
        <time>2015-10-23T15:00:51Z</time>
      </trkpt>
      <trkpt lat="46.10215" lon="2.79203">
        <ele>661</ele>
        <time>2015-10-23T15:00:55Z</time>
      </trkpt>
      <trkpt lat="46.10207" lon="2.79213">
        <ele>661</ele>
        <time>2015-10-23T15:00:59Z</time>
      </trkpt>
      <trkpt lat="46.102" lon="2.79232">
        <ele>660</ele>
        <time>2015-10-23T15:01:03Z</time>
      </trkpt>
      <trkpt lat="46.10195" lon="2.79246">
        <ele>659</ele>
        <time>2015-10-23T15:03:23Z</time>
      </trkpt>
      <trkpt lat="46.10184" lon="2.79243">
        <ele>657</ele>
        <time>2015-10-23T15:03:27Z</time>
      </trkpt>
      <trkpt lat="46.10169" lon="2.79232">
        <ele>656</ele>
        <time>2015-10-23T15:03:31Z</time>
      </trkpt>
      <trkpt lat="46.10153" lon="2.79218">
        <ele>656</ele>
        <time>2015-10-23T15:03:35Z</time>
      </trkpt>
      <trkpt lat="46.10138" lon="2.79202">
        <ele>655</ele>
        <time>2015-10-23T15:03:39Z</time>
      </trkpt>
      <trkpt lat="46.10124" lon="2.79182">
        <ele>655</ele>
        <time>2015-10-23T15:03:43Z</time>
      </trkpt>
      <trkpt lat="46.10109" lon="2.79165">
        <ele>654</ele>
        <time>2015-10-23T15:03:47Z</time>
      </trkpt>
      <trkpt lat="46.10092" lon="2.79155">
        <ele>652</ele>
        <time>2015-10-23T15:03:51Z</time>
      </trkpt>
      <trkpt lat="46.10079" lon="2.79141">
        <ele>651</ele>
        <time>2015-10-23T15:03:55Z</time>
      </trkpt>
      <trkpt lat="46.10061" lon="2.79128">
        <ele>648</ele>
        <time>2015-10-23T15:03:59Z</time>
      </trkpt>
      <trkpt lat="46.10037" lon="2.79114">
        <ele>647</ele>
        <time>2015-10-23T15:04:03Z</time>
      </trkpt>
      <trkpt lat="46.10015" lon="2.79098">
        <ele>648</ele>
        <time>2015-10-23T15:04:07Z</time>
      </trkpt>
      <trkpt lat="46.09999" lon="2.79096">
        <ele>650</ele>
        <time>2015-10-23T15:04:11Z</time>
      </trkpt>
      <trkpt lat="46.09987" lon="2.79085">
        <ele>651</ele>
        <time>2015-10-23T15:04:15Z</time>
      </trkpt>
      <trkpt lat="46.09973" lon="2.79089">
        <ele>652</ele>
        <time>2015-10-23T15:04:19Z</time>
      </trkpt>
      <trkpt lat="46.09961" lon="2.79095">
        <ele>653</ele>
        <time>2015-10-23T15:04:23Z</time>
      </trkpt>
      <trkpt lat="46.09951" lon="2.79099">
        <ele>653</ele>
        <time>2015-10-23T15:04:27Z</time>
      </trkpt>
      <trkpt lat="46.09944" lon="2.791">
        <ele>653</ele>
        <time>2015-10-23T15:04:31Z</time>
      </trkpt>
      <trkpt lat="46.09937" lon="2.79102">
        <ele>652</ele>
        <time>2015-10-23T15:04:35Z</time>
      </trkpt>
      <trkpt lat="46.09926" lon="2.79116">
        <ele>649</ele>
        <time>2015-10-23T15:04:39Z</time>
      </trkpt>
      <trkpt lat="46.09916" lon="2.79138">
        <ele>647</ele>
        <time>2015-10-23T15:04:43Z</time>
      </trkpt>
      <trkpt lat="46.09908" lon="2.79158">
        <ele>644</ele>
        <time>2015-10-23T15:04:47Z</time>
      </trkpt>
      <trkpt lat="46.09903" lon="2.79191">
        <ele>641</ele>
        <time>2015-10-23T15:04:51Z</time>
      </trkpt>
      <trkpt lat="46.09896" lon="2.79227">
        <ele>639</ele>
        <time>2015-10-23T15:04:55Z</time>
      </trkpt>
      <trkpt lat="46.09891" lon="2.79266">
        <ele>636</ele>
        <time>2015-10-23T15:04:59Z</time>
      </trkpt>
      <trkpt lat="46.0988" lon="2.79306">
        <ele>635</ele>
        <time>2015-10-23T15:05:03Z</time>
      </trkpt>
      <trkpt lat="46.09868" lon="2.79341">
        <ele>634</ele>
        <time>2015-10-23T15:05:07Z</time>
      </trkpt>
      <trkpt lat="46.09856" lon="2.79366">
        <ele>631</ele>
        <time>2015-10-23T15:05:11Z</time>
      </trkpt>
      <trkpt lat="46.09836" lon="2.79381">
        <ele>629</ele>
        <time>2015-10-23T15:05:15Z</time>
      </trkpt>
      <trkpt lat="46.09815" lon="2.79388">
        <ele>627</ele>
        <time>2015-10-23T15:05:19Z</time>
      </trkpt>
      <trkpt lat="46.09795" lon="2.79409">
        <ele>625</ele>
        <time>2015-10-23T15:05:23Z</time>
      </trkpt>
      <trkpt lat="46.09776" lon="2.79436">
        <ele>623</ele>
        <time>2015-10-23T15:05:27Z</time>
      </trkpt>
      <trkpt lat="46.09759" lon="2.79461">
        <ele>622</ele>
        <time>2015-10-23T15:05:31Z</time>
      </trkpt>
      <trkpt lat="46.09746" lon="2.79482">
        <ele>620</ele>
        <time>2015-10-23T15:05:35Z</time>
      </trkpt>
      <trkpt lat="46.09735" lon="2.79487">
        <ele>620</ele>
        <time>2015-10-23T15:06:55Z</time>
      </trkpt>
      <trkpt lat="46.09735" lon="2.7948">
        <ele>620</ele>
        <time>2015-10-23T15:07:03Z</time>
      </trkpt>
      <trkpt lat="46.09734" lon="2.79482">
        <ele>620</ele>
        <time>2015-10-23T15:07:15Z</time>
      </trkpt>
      <trkpt lat="46.09736" lon="2.79474">
        <ele>620</ele>
        <time>2015-10-23T15:07:31Z</time>
      </trkpt>
      <trkpt lat="46.09725" lon="2.79497">
        <ele>620</ele>
        <time>2015-10-23T15:07:35Z</time>
      </trkpt>
      <trkpt lat="46.0972" lon="2.79489">
        <ele>620</ele>
        <time>2015-10-23T15:07:39Z</time>
      </trkpt>
      <trkpt lat="46.09713" lon="2.79477">
        <ele>620</ele>
        <time>2015-10-23T15:07:43Z</time>
      </trkpt>
      <trkpt lat="46.09708" lon="2.79455">
        <ele>621</ele>
        <time>2015-10-23T15:07:47Z</time>
      </trkpt>
      <trkpt lat="46.09703" lon="2.79437">
        <ele>621</ele>
        <time>2015-10-23T15:07:51Z</time>
      </trkpt>
      <trkpt lat="46.09693" lon="2.79414">
        <ele>621</ele>
        <time>2015-10-23T15:07:55Z</time>
      </trkpt>
      <trkpt lat="46.09687" lon="2.79398">
        <ele>622</ele>
        <time>2015-10-23T15:07:59Z</time>
      </trkpt>
      <trkpt lat="46.09683" lon="2.79373">
        <ele>623</ele>
        <time>2015-10-23T15:08:03Z</time>
      </trkpt>
      <trkpt lat="46.0968" lon="2.79355">
        <ele>623</ele>
        <time>2015-10-23T15:08:07Z</time>
      </trkpt>
      <trkpt lat="46.0967" lon="2.79335">
        <ele>624</ele>
        <time>2015-10-23T15:08:11Z</time>
      </trkpt>
      <trkpt lat="46.09665" lon="2.79318">
        <ele>625</ele>
        <time>2015-10-23T15:08:15Z</time>
      </trkpt>
      <trkpt lat="46.09658" lon="2.79301">
        <ele>627</ele>
        <time>2015-10-23T15:08:19Z</time>
      </trkpt>
      <trkpt lat="46.09651" lon="2.79288">
        <ele>627</ele>
        <time>2015-10-23T15:08:23Z</time>
      </trkpt>
      <trkpt lat="46.09644" lon="2.79274">
        <ele>628</ele>
        <time>2015-10-23T15:08:27Z</time>
      </trkpt>
      <trkpt lat="46.09634" lon="2.79253">
        <ele>629</ele>
        <time>2015-10-23T15:08:31Z</time>
      </trkpt>
      <trkpt lat="46.09626" lon="2.79242">
        <ele>630</ele>
        <time>2015-10-23T15:08:35Z</time>
      </trkpt>
      <trkpt lat="46.09617" lon="2.79227">
        <ele>631</ele>
        <time>2015-10-23T15:08:39Z</time>
      </trkpt>
      <trkpt lat="46.09609" lon="2.79217">
        <ele>632</ele>
        <time>2015-10-23T15:08:43Z</time>
      </trkpt>
      <trkpt lat="46.09599" lon="2.79205">
        <ele>633</ele>
        <time>2015-10-23T15:08:47Z</time>
      </trkpt>
      <trkpt lat="46.09593" lon="2.79193">
        <ele>633</ele>
        <time>2015-10-23T15:08:51Z</time>
      </trkpt>
      <trkpt lat="46.09585" lon="2.79177">
        <ele>634</ele>
        <time>2015-10-23T15:08:55Z</time>
      </trkpt>
      <trkpt lat="46.09578" lon="2.79163">
        <ele>635</ele>
        <time>2015-10-23T15:08:59Z</time>
      </trkpt>
      <trkpt lat="46.09569" lon="2.79149">
        <ele>636</ele>
        <time>2015-10-23T15:09:03Z</time>
      </trkpt>
      <trkpt lat="46.09562" lon="2.79134">
        <ele>637</ele>
        <time>2015-10-23T15:09:07Z</time>
      </trkpt>
      <trkpt lat="46.09549" lon="2.79122">
        <ele>638</ele>
        <time>2015-10-23T15:09:11Z</time>
      </trkpt>
      <trkpt lat="46.09538" lon="2.79115">
        <ele>638</ele>
        <time>2015-10-23T15:09:15Z</time>
      </trkpt>
      <trkpt lat="46.09526" lon="2.79103">
        <ele>639</ele>
        <time>2015-10-23T15:09:19Z</time>
      </trkpt>
      <trkpt lat="46.09518" lon="2.79091">
        <ele>640</ele>
        <time>2015-10-23T15:09:23Z</time>
      </trkpt>
      <trkpt lat="46.09506" lon="2.79085">
        <ele>641</ele>
        <time>2015-10-23T15:09:27Z</time>
      </trkpt>
      <trkpt lat="46.09494" lon="2.79078">
        <ele>642</ele>
        <time>2015-10-23T15:09:31Z</time>
      </trkpt>
      <trkpt lat="46.09483" lon="2.79076">
        <ele>642</ele>
        <time>2015-10-23T15:09:35Z</time>
      </trkpt>
      <trkpt lat="46.09473" lon="2.79069">
        <ele>643</ele>
        <time>2015-10-23T15:09:39Z</time>
      </trkpt>
      <trkpt lat="46.09462" lon="2.79068">
        <ele>644</ele>
        <time>2015-10-23T15:09:43Z</time>
      </trkpt>
      <trkpt lat="46.09451" lon="2.79066">
        <ele>645</ele>
        <time>2015-10-23T15:09:47Z</time>
      </trkpt>
      <trkpt lat="46.09443" lon="2.79069">
        <ele>645</ele>
        <time>2015-10-23T15:09:51Z</time>
      </trkpt>
      <trkpt lat="46.09434" lon="2.79074">
        <ele>646</ele>
        <time>2015-10-23T15:09:55Z</time>
      </trkpt>
      <trkpt lat="46.09421" lon="2.79084">
        <ele>647</ele>
        <time>2015-10-23T15:09:59Z</time>
      </trkpt>
      <trkpt lat="46.09412" lon="2.79087">
        <ele>648</ele>
        <time>2015-10-23T15:10:03Z</time>
      </trkpt>
      <trkpt lat="46.09401" lon="2.79094">
        <ele>649</ele>
        <time>2015-10-23T15:10:07Z</time>
      </trkpt>
      <trkpt lat="46.0939" lon="2.79099">
        <ele>650</ele>
        <time>2015-10-23T15:10:11Z</time>
      </trkpt>
      <trkpt lat="46.09378" lon="2.79102">
        <ele>651</ele>
        <time>2015-10-23T15:10:15Z</time>
      </trkpt>
      <trkpt lat="46.09368" lon="2.79097">
        <ele>651</ele>
        <time>2015-10-23T15:10:19Z</time>
      </trkpt>
      <trkpt lat="46.09355" lon="2.79092">
        <ele>652</ele>
        <time>2015-10-23T15:10:23Z</time>
      </trkpt>
      <trkpt lat="46.09342" lon="2.79087">
        <ele>652</ele>
        <time>2015-10-23T15:10:27Z</time>
      </trkpt>
      <trkpt lat="46.09329" lon="2.7908">
        <ele>652</ele>
        <time>2015-10-23T15:10:31Z</time>
      </trkpt>
      <trkpt lat="46.09316" lon="2.79068">
        <ele>651</ele>
        <time>2015-10-23T15:10:35Z</time>
      </trkpt>
      <trkpt lat="46.09301" lon="2.79053">
        <ele>651</ele>
        <time>2015-10-23T15:10:39Z</time>
      </trkpt>
      <trkpt lat="46.09285" lon="2.79034">
        <ele>650</ele>
        <time>2015-10-23T15:10:43Z</time>
      </trkpt>
      <trkpt lat="46.09268" lon="2.79014">
        <ele>650</ele>
        <time>2015-10-23T15:10:47Z</time>
      </trkpt>
      <trkpt lat="46.09251" lon="2.78997">
        <ele>650</ele>
        <time>2015-10-23T15:10:51Z</time>
      </trkpt>
      <trkpt lat="46.09239" lon="2.7897">
        <ele>650</ele>
        <time>2015-10-23T15:10:55Z</time>
      </trkpt>
      <trkpt lat="46.09225" lon="2.78942">
        <ele>650</ele>
        <time>2015-10-23T15:10:59Z</time>
      </trkpt>
      <trkpt lat="46.09214" lon="2.78917">
        <ele>650</ele>
        <time>2015-10-23T15:11:03Z</time>
      </trkpt>
      <trkpt lat="46.09201" lon="2.78892">
        <ele>650</ele>
        <time>2015-10-23T15:11:07Z</time>
      </trkpt>
      <trkpt lat="46.09189" lon="2.78869">
        <ele>650</ele>
        <time>2015-10-23T15:11:11Z</time>
      </trkpt>
      <trkpt lat="46.09176" lon="2.78839">
        <ele>650</ele>
        <time>2015-10-23T15:11:15Z</time>
      </trkpt>
      <trkpt lat="46.09164" lon="2.78817">
        <ele>650</ele>
        <time>2015-10-23T15:11:19Z</time>
      </trkpt>
      <trkpt lat="46.0915" lon="2.7879">
        <ele>650</ele>
        <time>2015-10-23T15:11:23Z</time>
      </trkpt>
      <trkpt lat="46.09133" lon="2.78769">
        <ele>651</ele>
        <time>2015-10-23T15:11:27Z</time>
      </trkpt>
      <trkpt lat="46.09112" lon="2.78762">
        <ele>651</ele>
        <time>2015-10-23T15:11:31Z</time>
      </trkpt>
      <trkpt lat="46.09095" lon="2.7876">
        <ele>651</ele>
        <time>2015-10-23T15:11:35Z</time>
      </trkpt>
      <trkpt lat="46.09075" lon="2.78759">
        <ele>653</ele>
        <time>2015-10-23T15:11:39Z</time>
      </trkpt>
      <trkpt lat="46.09059" lon="2.78766">
        <ele>653</ele>
        <time>2015-10-23T15:11:43Z</time>
      </trkpt>
      <trkpt lat="46.09043" lon="2.78777">
        <ele>654</ele>
        <time>2015-10-23T15:11:47Z</time>
      </trkpt>
      <trkpt lat="46.09028" lon="2.78789">
        <ele>655</ele>
        <time>2015-10-23T15:11:51Z</time>
      </trkpt>
      <trkpt lat="46.09015" lon="2.78809">
        <ele>656</ele>
        <time>2015-10-23T15:11:55Z</time>
      </trkpt>
      <trkpt lat="46.0901" lon="2.78834">
        <ele>657</ele>
        <time>2015-10-23T15:11:59Z</time>
      </trkpt>
      <trkpt lat="46.09009" lon="2.78852">
        <ele>658</ele>
        <time>2015-10-23T15:12:03Z</time>
      </trkpt>
      <trkpt lat="46.0901" lon="2.78868">
        <ele>659</ele>
        <time>2015-10-23T15:12:07Z</time>
      </trkpt>
      <trkpt lat="46.09008" lon="2.78884">
        <ele>659</ele>
        <time>2015-10-23T15:12:11Z</time>
      </trkpt>
      <trkpt lat="46.09004" lon="2.78903">
        <ele>660</ele>
        <time>2015-10-23T15:12:15Z</time>
      </trkpt>
      <trkpt lat="46.09" lon="2.78925">
        <ele>661</ele>
        <time>2015-10-23T15:12:19Z</time>
      </trkpt>
      <trkpt lat="46.0899" lon="2.78941">
        <ele>662</ele>
        <time>2015-10-23T15:12:23Z</time>
      </trkpt>
      <trkpt lat="46.08981" lon="2.78958">
        <ele>663</ele>
        <time>2015-10-23T15:12:27Z</time>
      </trkpt>
      <trkpt lat="46.08968" lon="2.78972">
        <ele>663</ele>
        <time>2015-10-23T15:12:31Z</time>
      </trkpt>
      <trkpt lat="46.08959" lon="2.78985">
        <ele>664</ele>
        <time>2015-10-23T15:12:35Z</time>
      </trkpt>
      <trkpt lat="46.0895" lon="2.78989">
        <ele>665</ele>
        <time>2015-10-23T15:12:39Z</time>
      </trkpt>
      <trkpt lat="46.08937" lon="2.7899">
        <ele>666</ele>
        <time>2015-10-23T15:12:43Z</time>
      </trkpt>
      <trkpt lat="46.08922" lon="2.78993">
        <ele>667</ele>
        <time>2015-10-23T15:12:47Z</time>
      </trkpt>
      <trkpt lat="46.08907" lon="2.78992">
        <ele>668</ele>
        <time>2015-10-23T15:12:51Z</time>
      </trkpt>
      <trkpt lat="46.08896" lon="2.78994">
        <ele>669</ele>
        <time>2015-10-23T15:12:55Z</time>
      </trkpt>
      <trkpt lat="46.08886" lon="2.78992">
        <ele>669</ele>
        <time>2015-10-23T15:12:59Z</time>
      </trkpt>
      <trkpt lat="46.08874" lon="2.78993">
        <ele>670</ele>
        <time>2015-10-23T15:13:03Z</time>
      </trkpt>
      <trkpt lat="46.08864" lon="2.78991">
        <ele>671</ele>
        <time>2015-10-23T15:13:07Z</time>
      </trkpt>
      <trkpt lat="46.08853" lon="2.78991">
        <ele>671</ele>
        <time>2015-10-23T15:13:11Z</time>
      </trkpt>
      <trkpt lat="46.08841" lon="2.78987">
        <ele>672</ele>
        <time>2015-10-23T15:13:15Z</time>
      </trkpt>
      <trkpt lat="46.0883" lon="2.78974">
        <ele>673</ele>
        <time>2015-10-23T15:13:19Z</time>
      </trkpt>
      <trkpt lat="46.08824" lon="2.78959">
        <ele>674</ele>
        <time>2015-10-23T15:13:23Z</time>
      </trkpt>
      <trkpt lat="46.08817" lon="2.78941">
        <ele>674</ele>
        <time>2015-10-23T15:13:27Z</time>
      </trkpt>
      <trkpt lat="46.08807" lon="2.78926">
        <ele>675</ele>
        <time>2015-10-23T15:13:31Z</time>
      </trkpt>
      <trkpt lat="46.08804" lon="2.78908">
        <ele>676</ele>
        <time>2015-10-23T15:13:35Z</time>
      </trkpt>
      <trkpt lat="46.08802" lon="2.78895">
        <ele>677</ele>
        <time>2015-10-23T15:13:39Z</time>
      </trkpt>
      <trkpt lat="46.08797" lon="2.78883">
        <ele>678</ele>
        <time>2015-10-23T15:13:43Z</time>
      </trkpt>
      <trkpt lat="46.08791" lon="2.78864">
        <ele>678</ele>
        <time>2015-10-23T15:13:47Z</time>
      </trkpt>
      <trkpt lat="46.08786" lon="2.78854">
        <ele>679</ele>
        <time>2015-10-23T15:13:51Z</time>
      </trkpt>
      <trkpt lat="46.08777" lon="2.78846">
        <ele>680</ele>
        <time>2015-10-23T15:13:55Z</time>
      </trkpt>
      <trkpt lat="46.08769" lon="2.78833">
        <ele>681</ele>
        <time>2015-10-23T15:13:59Z</time>
      </trkpt>
      <trkpt lat="46.08763" lon="2.78816">
        <ele>681</ele>
        <time>2015-10-23T15:14:03Z</time>
      </trkpt>
      <trkpt lat="46.08751" lon="2.7881">
        <ele>682</ele>
        <time>2015-10-23T15:14:07Z</time>
      </trkpt>
      <trkpt lat="46.0874" lon="2.78806">
        <ele>683</ele>
        <time>2015-10-23T15:14:11Z</time>
      </trkpt>
      <trkpt lat="46.08728" lon="2.78798">
        <ele>683</ele>
        <time>2015-10-23T15:14:15Z</time>
      </trkpt>
      <trkpt lat="46.08718" lon="2.78787">
        <ele>684</ele>
        <time>2015-10-23T15:14:19Z</time>
      </trkpt>
      <trkpt lat="46.08706" lon="2.78776">
        <ele>684</ele>
        <time>2015-10-23T15:14:23Z</time>
      </trkpt>
      <trkpt lat="46.08689" lon="2.78773">
        <ele>684</ele>
        <time>2015-10-23T15:14:27Z</time>
      </trkpt>
      <trkpt lat="46.08674" lon="2.7876">
        <ele>684</ele>
        <time>2015-10-23T15:14:31Z</time>
      </trkpt>
      <trkpt lat="46.08658" lon="2.78749">
        <ele>683</ele>
        <time>2015-10-23T15:14:35Z</time>
      </trkpt>
      <trkpt lat="46.08645" lon="2.78737">
        <ele>683</ele>
        <time>2015-10-23T15:14:39Z</time>
      </trkpt>
      <trkpt lat="46.08629" lon="2.78713">
        <ele>683</ele>
        <time>2015-10-23T15:14:43Z</time>
      </trkpt>
      <trkpt lat="46.08614" lon="2.78693">
        <ele>683</ele>
        <time>2015-10-23T15:14:47Z</time>
      </trkpt>
      <trkpt lat="46.08592" lon="2.7868">
        <ele>683</ele>
        <time>2015-10-23T15:14:51Z</time>
      </trkpt>
      <trkpt lat="46.0857" lon="2.78674">
        <ele>683</ele>
        <time>2015-10-23T15:14:55Z</time>
      </trkpt>
      <trkpt lat="46.08548" lon="2.78669">
        <ele>683</ele>
        <time>2015-10-23T15:14:59Z</time>
      </trkpt>
      <trkpt lat="46.0853" lon="2.78663">
        <ele>683</ele>
        <time>2015-10-23T15:15:03Z</time>
      </trkpt>
      <trkpt lat="46.08507" lon="2.78662">
        <ele>684</ele>
        <time>2015-10-23T15:15:07Z</time>
      </trkpt>
      <trkpt lat="46.08486" lon="2.78658">
        <ele>684</ele>
        <time>2015-10-23T15:15:11Z</time>
      </trkpt>
      <trkpt lat="46.08466" lon="2.78648">
        <ele>684</ele>
        <time>2015-10-23T15:15:15Z</time>
      </trkpt>
      <trkpt lat="46.08444" lon="2.78648">
        <ele>684</ele>
        <time>2015-10-23T15:15:19Z</time>
      </trkpt>
      <trkpt lat="46.08424" lon="2.78655">
        <ele>685</ele>
        <time>2015-10-23T15:15:23Z</time>
      </trkpt>
      <trkpt lat="46.08405" lon="2.78665">
        <ele>685</ele>
        <time>2015-10-23T15:15:27Z</time>
      </trkpt>
      <trkpt lat="46.08382" lon="2.78672">
        <ele>686</ele>
        <time>2015-10-23T15:15:31Z</time>
      </trkpt>
      <trkpt lat="46.08359" lon="2.78674">
        <ele>687</ele>
        <time>2015-10-23T15:15:35Z</time>
      </trkpt>
      <trkpt lat="46.08341" lon="2.78669">
        <ele>688</ele>
        <time>2015-10-23T15:15:39Z</time>
      </trkpt>
      <trkpt lat="46.08329" lon="2.78651">
        <ele>688</ele>
        <time>2015-10-23T15:15:43Z</time>
      </trkpt>
      <trkpt lat="46.08309" lon="2.78641">
        <ele>689</ele>
        <time>2015-10-23T15:15:47Z</time>
      </trkpt>
      <trkpt lat="46.08294" lon="2.78636">
        <ele>690</ele>
        <time>2015-10-23T15:15:51Z</time>
      </trkpt>
      <trkpt lat="46.08274" lon="2.78632">
        <ele>690</ele>
        <time>2015-10-23T15:15:55Z</time>
      </trkpt>
      <trkpt lat="46.08254" lon="2.7864">
        <ele>689</ele>
        <time>2015-10-23T15:15:59Z</time>
      </trkpt>
      <trkpt lat="46.08237" lon="2.78646">
        <ele>689</ele>
        <time>2015-10-23T15:16:03Z</time>
      </trkpt>
      <trkpt lat="46.08206" lon="2.78651">
        <ele>689</ele>
        <time>2015-10-23T15:16:07Z</time>
      </trkpt>
      <trkpt lat="46.08181" lon="2.78656">
        <ele>689</ele>
        <time>2015-10-23T15:16:11Z</time>
      </trkpt>
      <trkpt lat="46.08163" lon="2.78655">
        <ele>688</ele>
        <time>2015-10-23T15:16:15Z</time>
      </trkpt>
      <trkpt lat="46.08145" lon="2.78658">
        <ele>687</ele>
        <time>2015-10-23T15:16:19Z</time>
      </trkpt>
      <trkpt lat="46.0812" lon="2.78659">
        <ele>686</ele>
        <time>2015-10-23T15:16:23Z</time>
      </trkpt>
      <trkpt lat="46.08093" lon="2.78667">
        <ele>685</ele>
        <time>2015-10-23T15:16:27Z</time>
      </trkpt>
      <trkpt lat="46.08074" lon="2.78666">
        <ele>686</ele>
        <time>2015-10-23T15:16:31Z</time>
      </trkpt>
      <trkpt lat="46.0806" lon="2.78675">
        <ele>686</ele>
        <time>2015-10-23T15:16:35Z</time>
      </trkpt>
      <trkpt lat="46.08054" lon="2.78682">
        <ele>686</ele>
        <time>2015-10-23T15:16:39Z</time>
      </trkpt>
      <trkpt lat="46.0806" lon="2.78682">
        <ele>685</ele>
        <time>2015-10-23T15:16:43Z</time>
      </trkpt>
      <trkpt lat="46.08068" lon="2.78672">
        <ele>686</ele>
        <time>2015-10-23T15:16:47Z</time>
      </trkpt>
      <trkpt lat="46.08076" lon="2.78665">
        <ele>685</ele>
        <time>2015-10-23T15:16:51Z</time>
      </trkpt>
      <trkpt lat="46.08077" lon="2.78656">
        <ele>685</ele>
        <time>2015-10-23T15:16:55Z</time>
      </trkpt>
      <trkpt lat="46.08075" lon="2.78638">
        <ele>685</ele>
        <time>2015-10-23T15:16:59Z</time>
      </trkpt>
      <trkpt lat="46.08075" lon="2.78615">
        <ele>685</ele>
        <time>2015-10-23T15:17:03Z</time>
      </trkpt>
      <trkpt lat="46.08076" lon="2.7859">
        <ele>685</ele>
        <time>2015-10-23T15:17:07Z</time>
      </trkpt>
      <trkpt lat="46.0808" lon="2.78568">
        <ele>686</ele>
        <time>2015-10-23T15:17:11Z</time>
      </trkpt>
      <trkpt lat="46.08086" lon="2.78545">
        <ele>686</ele>
        <time>2015-10-23T15:17:15Z</time>
      </trkpt>
      <trkpt lat="46.0809" lon="2.78525">
        <ele>686</ele>
        <time>2015-10-23T15:17:19Z</time>
      </trkpt>
      <trkpt lat="46.08097" lon="2.78501">
        <ele>687</ele>
        <time>2015-10-23T15:17:23Z</time>
      </trkpt>
      <trkpt lat="46.08105" lon="2.78476">
        <ele>687</ele>
        <time>2015-10-23T15:17:27Z</time>
      </trkpt>
      <trkpt lat="46.08112" lon="2.78448">
        <ele>688</ele>
        <time>2015-10-23T15:17:31Z</time>
      </trkpt>
      <trkpt lat="46.08115" lon="2.78425">
        <ele>689</ele>
        <time>2015-10-23T15:17:35Z</time>
      </trkpt>
      <trkpt lat="46.08116" lon="2.78405">
        <ele>689</ele>
        <time>2015-10-23T15:17:39Z</time>
      </trkpt>
      <trkpt lat="46.0812" lon="2.7838">
        <ele>690</ele>
        <time>2015-10-23T15:17:43Z</time>
      </trkpt>
      <trkpt lat="46.08121" lon="2.78354">
        <ele>690</ele>
        <time>2015-10-23T15:17:47Z</time>
      </trkpt>
      <trkpt lat="46.08126" lon="2.78325">
        <ele>691</ele>
        <time>2015-10-23T15:17:51Z</time>
      </trkpt>
      <trkpt lat="46.08129" lon="2.78298">
        <ele>692</ele>
        <time>2015-10-23T15:17:55Z</time>
      </trkpt>
      <trkpt lat="46.08127" lon="2.78273">
        <ele>693</ele>
        <time>2015-10-23T15:17:59Z</time>
      </trkpt>
      <trkpt lat="46.08122" lon="2.78253">
        <ele>694</ele>
        <time>2015-10-23T15:18:03Z</time>
      </trkpt>
      <trkpt lat="46.08121" lon="2.78231">
        <ele>695</ele>
        <time>2015-10-23T15:18:07Z</time>
      </trkpt>
      <trkpt lat="46.08118" lon="2.78208">
        <ele>696</ele>
        <time>2015-10-23T15:18:11Z</time>
      </trkpt>
      <trkpt lat="46.08119" lon="2.78191">
        <ele>697</ele>
        <time>2015-10-23T15:18:15Z</time>
      </trkpt>
      <trkpt lat="46.0812" lon="2.78163">
        <ele>697</ele>
        <time>2015-10-23T15:18:19Z</time>
      </trkpt>
      <trkpt lat="46.08114" lon="2.78147">
        <ele>697</ele>
        <time>2015-10-23T15:18:23Z</time>
      </trkpt>
      <trkpt lat="46.08108" lon="2.78124">
        <ele>697</ele>
        <time>2015-10-23T15:18:27Z</time>
      </trkpt>
      <trkpt lat="46.08099" lon="2.78106">
        <ele>697</ele>
        <time>2015-10-23T15:18:31Z</time>
      </trkpt>
      <trkpt lat="46.08092" lon="2.78087">
        <ele>697</ele>
        <time>2015-10-23T15:18:35Z</time>
      </trkpt>
      <trkpt lat="46.08083" lon="2.78063">
        <ele>698</ele>
        <time>2015-10-23T15:18:39Z</time>
      </trkpt>
      <trkpt lat="46.08077" lon="2.78044">
        <ele>698</ele>
        <time>2015-10-23T15:18:43Z</time>
      </trkpt>
      <trkpt lat="46.08068" lon="2.78021">
        <ele>699</ele>
        <time>2015-10-23T15:18:47Z</time>
      </trkpt>
      <trkpt lat="46.08062" lon="2.78002">
        <ele>699</ele>
        <time>2015-10-23T15:18:51Z</time>
      </trkpt>
      <trkpt lat="46.08054" lon="2.77981">
        <ele>699</ele>
        <time>2015-10-23T15:18:55Z</time>
      </trkpt>
      <trkpt lat="46.08047" lon="2.77964">
        <ele>699</ele>
        <time>2015-10-23T15:18:59Z</time>
      </trkpt>
      <trkpt lat="46.08038" lon="2.77943">
        <ele>700</ele>
        <time>2015-10-23T15:19:03Z</time>
      </trkpt>
      <trkpt lat="46.08028" lon="2.77926">
        <ele>700</ele>
        <time>2015-10-23T15:19:07Z</time>
      </trkpt>
      <trkpt lat="46.08017" lon="2.77908">
        <ele>701</ele>
        <time>2015-10-23T15:19:11Z</time>
      </trkpt>
      <trkpt lat="46.08007" lon="2.77894">
        <ele>701</ele>
        <time>2015-10-23T15:19:15Z</time>
      </trkpt>
      <trkpt lat="46.07992" lon="2.77876">
        <ele>702</ele>
        <time>2015-10-23T15:19:19Z</time>
      </trkpt>
      <trkpt lat="46.07979" lon="2.77861">
        <ele>702</ele>
        <time>2015-10-23T15:19:23Z</time>
      </trkpt>
      <trkpt lat="46.07965" lon="2.77846">
        <ele>702</ele>
        <time>2015-10-23T15:19:27Z</time>
      </trkpt>
      <trkpt lat="46.07951" lon="2.77832">
        <ele>703</ele>
        <time>2015-10-23T15:19:31Z</time>
      </trkpt>
      <trkpt lat="46.07935" lon="2.77816">
        <ele>703</ele>
        <time>2015-10-23T15:19:35Z</time>
      </trkpt>
      <trkpt lat="46.07921" lon="2.77801">
        <ele>704</ele>
        <time>2015-10-23T15:19:39Z</time>
      </trkpt>
      <trkpt lat="46.07905" lon="2.77781">
        <ele>705</ele>
        <time>2015-10-23T15:19:43Z</time>
      </trkpt>
      <trkpt lat="46.07891" lon="2.77771">
        <ele>705</ele>
        <time>2015-10-23T15:19:47Z</time>
      </trkpt>
      <trkpt lat="46.07875" lon="2.77754">
        <ele>705</ele>
        <time>2015-10-23T15:19:51Z</time>
      </trkpt>
      <trkpt lat="46.07858" lon="2.77742">
        <ele>705</ele>
        <time>2015-10-23T15:19:55Z</time>
      </trkpt>
      <trkpt lat="46.07841" lon="2.77732">
        <ele>706</ele>
        <time>2015-10-23T15:19:59Z</time>
      </trkpt>
      <trkpt lat="46.07829" lon="2.77713">
        <ele>707</ele>
        <time>2015-10-23T15:20:03Z</time>
      </trkpt>
      <trkpt lat="46.07818" lon="2.77696">
        <ele>707</ele>
        <time>2015-10-23T15:20:07Z</time>
      </trkpt>
      <trkpt lat="46.07806" lon="2.77676">
        <ele>707</ele>
        <time>2015-10-23T15:20:11Z</time>
      </trkpt>
      <trkpt lat="46.07795" lon="2.77652">
        <ele>708</ele>
        <time>2015-10-23T15:20:15Z</time>
      </trkpt>
      <trkpt lat="46.07781" lon="2.7763">
        <ele>708</ele>
        <time>2015-10-23T15:20:19Z</time>
      </trkpt>
      <trkpt lat="46.07772" lon="2.77605">
        <ele>708</ele>
        <time>2015-10-23T15:20:23Z</time>
      </trkpt>
      <trkpt lat="46.07762" lon="2.77579">
        <ele>709</ele>
        <time>2015-10-23T15:20:27Z</time>
      </trkpt>
      <trkpt lat="46.07756" lon="2.77554">
        <ele>709</ele>
        <time>2015-10-23T15:20:31Z</time>
      </trkpt>
      <trkpt lat="46.07749" lon="2.77526">
        <ele>709</ele>
        <time>2015-10-23T15:20:35Z</time>
      </trkpt>
      <trkpt lat="46.07743" lon="2.77504">
        <ele>710</ele>
        <time>2015-10-23T15:20:39Z</time>
      </trkpt>
      <trkpt lat="46.07735" lon="2.77478">
        <ele>711</ele>
        <time>2015-10-23T15:20:43Z</time>
      </trkpt>
      <trkpt lat="46.07726" lon="2.77451">
        <ele>711</ele>
        <time>2015-10-23T15:20:47Z</time>
      </trkpt>
      <trkpt lat="46.0772" lon="2.77426">
        <ele>711</ele>
        <time>2015-10-23T15:20:51Z</time>
      </trkpt>
      <trkpt lat="46.07714" lon="2.77397">
        <ele>712</ele>
        <time>2015-10-23T15:20:55Z</time>
      </trkpt>
      <trkpt lat="46.0771" lon="2.77373">
        <ele>712</ele>
        <time>2015-10-23T15:20:59Z</time>
      </trkpt>
      <trkpt lat="46.07705" lon="2.77349">
        <ele>712</ele>
        <time>2015-10-23T15:21:03Z</time>
      </trkpt>
      <trkpt lat="46.07698" lon="2.77326">
        <ele>713</ele>
        <time>2015-10-23T15:21:07Z</time>
      </trkpt>
      <trkpt lat="46.07691" lon="2.77302">
        <ele>713</ele>
        <time>2015-10-23T15:21:11Z</time>
      </trkpt>
      <trkpt lat="46.07684" lon="2.77273">
        <ele>714</ele>
        <time>2015-10-23T15:21:15Z</time>
      </trkpt>
      <trkpt lat="46.07675" lon="2.77247">
        <ele>714</ele>
        <time>2015-10-23T15:21:19Z</time>
      </trkpt>
      <trkpt lat="46.07673" lon="2.7722">
        <ele>714</ele>
        <time>2015-10-23T15:21:23Z</time>
      </trkpt>
      <trkpt lat="46.07671" lon="2.77185">
        <ele>714</ele>
        <time>2015-10-23T15:21:27Z</time>
      </trkpt>
      <trkpt lat="46.07667" lon="2.77156">
        <ele>714</ele>
        <time>2015-10-23T15:21:31Z</time>
      </trkpt>
      <trkpt lat="46.07666" lon="2.77123">
        <ele>714</ele>
        <time>2015-10-23T15:21:35Z</time>
      </trkpt>
      <trkpt lat="46.07666" lon="2.77089">
        <ele>713</ele>
        <time>2015-10-23T15:21:39Z</time>
      </trkpt>
      <trkpt lat="46.07671" lon="2.77062">
        <ele>714</ele>
        <time>2015-10-23T15:21:43Z</time>
      </trkpt>
      <trkpt lat="46.07676" lon="2.77032">
        <ele>714</ele>
        <time>2015-10-23T15:21:47Z</time>
      </trkpt>
      <trkpt lat="46.07684" lon="2.77003">
        <ele>714</ele>
        <time>2015-10-23T15:21:51Z</time>
      </trkpt>
      <trkpt lat="46.07696" lon="2.76972">
        <ele>714</ele>
        <time>2015-10-23T15:21:55Z</time>
      </trkpt>
      <trkpt lat="46.07707" lon="2.76947">
        <ele>713</ele>
        <time>2015-10-23T15:21:59Z</time>
      </trkpt>
      <trkpt lat="46.07719" lon="2.76909">
        <ele>714</ele>
        <time>2015-10-23T15:22:03Z</time>
      </trkpt>
      <trkpt lat="46.07729" lon="2.76879">
        <ele>714</ele>
        <time>2015-10-23T15:22:07Z</time>
      </trkpt>
      <trkpt lat="46.07742" lon="2.76857">
        <ele>714</ele>
        <time>2015-10-23T15:22:11Z</time>
      </trkpt>
      <trkpt lat="46.0776" lon="2.76821">
        <ele>714</ele>
        <time>2015-10-23T15:22:15Z</time>
      </trkpt>
      <trkpt lat="46.0777" lon="2.76795">
        <ele>713</ele>
        <time>2015-10-23T15:22:19Z</time>
      </trkpt>
      <trkpt lat="46.07783" lon="2.76766">
        <ele>713</ele>
        <time>2015-10-23T15:22:23Z</time>
      </trkpt>
      <trkpt lat="46.07792" lon="2.76739">
        <ele>714</ele>
        <time>2015-10-23T15:22:27Z</time>
      </trkpt>
      <trkpt lat="46.07804" lon="2.76708">
        <ele>715</ele>
        <time>2015-10-23T15:22:31Z</time>
      </trkpt>
      <trkpt lat="46.07814" lon="2.76679">
        <ele>715</ele>
        <time>2015-10-23T15:22:35Z</time>
      </trkpt>
      <trkpt lat="46.07817" lon="2.76653">
        <ele>716</ele>
        <time>2015-10-23T15:22:39Z</time>
      </trkpt>
      <trkpt lat="46.07824" lon="2.76622">
        <ele>717</ele>
        <time>2015-10-23T15:22:43Z</time>
      </trkpt>
      <trkpt lat="46.07831" lon="2.766">
        <ele>717</ele>
        <time>2015-10-23T15:22:47Z</time>
      </trkpt>
      <trkpt lat="46.07838" lon="2.76573">
        <ele>717</ele>
        <time>2015-10-23T15:22:51Z</time>
      </trkpt>
      <trkpt lat="46.07847" lon="2.76542">
        <ele>717</ele>
        <time>2015-10-23T15:22:55Z</time>
      </trkpt>
      <trkpt lat="46.07856" lon="2.76517">
        <ele>718</ele>
        <time>2015-10-23T15:22:59Z</time>
      </trkpt>
      <trkpt lat="46.07865" lon="2.76491">
        <ele>718</ele>
        <time>2015-10-23T15:23:03Z</time>
      </trkpt>
      <trkpt lat="46.07872" lon="2.7647">
        <ele>719</ele>
        <time>2015-10-23T15:23:07Z</time>
      </trkpt>
      <trkpt lat="46.0788" lon="2.76438">
        <ele>719</ele>
        <time>2015-10-23T15:23:11Z</time>
      </trkpt>
      <trkpt lat="46.07887" lon="2.76413">
        <ele>720</ele>
        <time>2015-10-23T15:23:15Z</time>
      </trkpt>
      <trkpt lat="46.07896" lon="2.76381">
        <ele>721</ele>
        <time>2015-10-23T15:23:19Z</time>
      </trkpt>
      <trkpt lat="46.07902" lon="2.76356">
        <ele>721</ele>
        <time>2015-10-23T15:23:23Z</time>
      </trkpt>
      <trkpt lat="46.0791" lon="2.7633">
        <ele>721</ele>
        <time>2015-10-23T15:23:27Z</time>
      </trkpt>
      <trkpt lat="46.07916" lon="2.76303">
        <ele>721</ele>
        <time>2015-10-23T15:23:31Z</time>
      </trkpt>
      <trkpt lat="46.0792" lon="2.76277">
        <ele>722</ele>
        <time>2015-10-23T15:23:35Z</time>
      </trkpt>
      <trkpt lat="46.0793" lon="2.76251">
        <ele>722</ele>
        <time>2015-10-23T15:23:39Z</time>
      </trkpt>
      <trkpt lat="46.07936" lon="2.76226">
        <ele>722</ele>
        <time>2015-10-23T15:23:43Z</time>
      </trkpt>
      <trkpt lat="46.07941" lon="2.76198">
        <ele>722</ele>
        <time>2015-10-23T15:23:47Z</time>
      </trkpt>
      <trkpt lat="46.07947" lon="2.76173">
        <ele>722</ele>
        <time>2015-10-23T15:23:51Z</time>
      </trkpt>
      <trkpt lat="46.07955" lon="2.76144">
        <ele>722</ele>
        <time>2015-10-23T15:23:55Z</time>
      </trkpt>
      <trkpt lat="46.07962" lon="2.76117">
        <ele>722</ele>
        <time>2015-10-23T15:23:59Z</time>
      </trkpt>
      <trkpt lat="46.07968" lon="2.76094">
        <ele>722</ele>
        <time>2015-10-23T15:24:03Z</time>
      </trkpt>
      <trkpt lat="46.07973" lon="2.76066">
        <ele>722</ele>
        <time>2015-10-23T15:24:07Z</time>
      </trkpt>
      <trkpt lat="46.07987" lon="2.7603">
        <ele>722</ele>
        <time>2015-10-23T15:24:11Z</time>
      </trkpt>
      <trkpt lat="46.07995" lon="2.76005">
        <ele>722</ele>
        <time>2015-10-23T15:24:15Z</time>
      </trkpt>
      <trkpt lat="46.08" lon="2.75973">
        <ele>722</ele>
        <time>2015-10-23T15:24:19Z</time>
      </trkpt>
      <trkpt lat="46.08006" lon="2.75938">
        <ele>722</ele>
        <time>2015-10-23T15:24:23Z</time>
      </trkpt>
      <trkpt lat="46.08012" lon="2.75907">
        <ele>722</ele>
        <time>2015-10-23T15:24:27Z</time>
      </trkpt>
      <trkpt lat="46.08014" lon="2.75871">
        <ele>722</ele>
        <time>2015-10-23T15:24:31Z</time>
      </trkpt>
      <trkpt lat="46.08013" lon="2.75837">
        <ele>722</ele>
        <time>2015-10-23T15:24:35Z</time>
      </trkpt>
      <trkpt lat="46.08011" lon="2.75806">
        <ele>722</ele>
        <time>2015-10-23T15:24:39Z</time>
      </trkpt>
      <trkpt lat="46.08007" lon="2.75775">
        <ele>722</ele>
        <time>2015-10-23T15:24:43Z</time>
      </trkpt>
      <trkpt lat="46.07998" lon="2.75746">
        <ele>722</ele>
        <time>2015-10-23T15:24:47Z</time>
      </trkpt>
      <trkpt lat="46.0799" lon="2.75716">
        <ele>722</ele>
        <time>2015-10-23T15:24:51Z</time>
      </trkpt>
      <trkpt lat="46.07978" lon="2.7569">
        <ele>722</ele>
        <time>2015-10-23T15:24:55Z</time>
      </trkpt>
      <trkpt lat="46.07964" lon="2.75663">
        <ele>722</ele>
        <time>2015-10-23T15:24:59Z</time>
      </trkpt>
      <trkpt lat="46.07953" lon="2.75642">
        <ele>722</ele>
        <time>2015-10-23T15:25:03Z</time>
      </trkpt>
      <trkpt lat="46.07938" lon="2.75616">
        <ele>722</ele>
        <time>2015-10-23T15:25:07Z</time>
      </trkpt>
      <trkpt lat="46.07922" lon="2.75594">
        <ele>722</ele>
        <time>2015-10-23T15:25:11Z</time>
      </trkpt>
      <trkpt lat="46.07906" lon="2.75569">
        <ele>722</ele>
        <time>2015-10-23T15:25:15Z</time>
      </trkpt>
      <trkpt lat="46.0789" lon="2.75546">
        <ele>722</ele>
        <time>2015-10-23T15:25:19Z</time>
      </trkpt>
      <trkpt lat="46.07873" lon="2.75519">
        <ele>722</ele>
        <time>2015-10-23T15:25:23Z</time>
      </trkpt>
      <trkpt lat="46.0786" lon="2.75496">
        <ele>722</ele>
        <time>2015-10-23T15:25:27Z</time>
      </trkpt>
      <trkpt lat="46.07842" lon="2.75473">
        <ele>722</ele>
        <time>2015-10-23T15:25:31Z</time>
      </trkpt>
      <trkpt lat="46.07829" lon="2.75448">
        <ele>722</ele>
        <time>2015-10-23T15:25:35Z</time>
      </trkpt>
      <trkpt lat="46.07816" lon="2.75426">
        <ele>722</ele>
        <time>2015-10-23T15:25:39Z</time>
      </trkpt>
      <trkpt lat="46.07806" lon="2.75408">
        <ele>722</ele>
        <time>2015-10-23T15:25:43Z</time>
      </trkpt>
      <trkpt lat="46.07801" lon="2.75389">
        <ele>722</ele>
        <time>2015-10-23T15:25:47Z</time>
      </trkpt>
      <trkpt lat="46.07794" lon="2.75371">
        <ele>722</ele>
        <time>2015-10-23T15:25:51Z</time>
      </trkpt>
      <trkpt lat="46.07789" lon="2.75347">
        <ele>721</ele>
        <time>2015-10-23T15:25:55Z</time>
      </trkpt>
      <trkpt lat="46.07778" lon="2.75316">
        <ele>719</ele>
        <time>2015-10-23T15:25:59Z</time>
      </trkpt>
      <trkpt lat="46.07769" lon="2.75274">
        <ele>716</ele>
        <time>2015-10-23T15:26:03Z</time>
      </trkpt>
      <trkpt lat="46.0775" lon="2.75231">
        <ele>714</ele>
        <time>2015-10-23T15:26:07Z</time>
      </trkpt>
      <trkpt lat="46.07726" lon="2.75201">
        <ele>714</ele>
        <time>2015-10-23T15:26:11Z</time>
      </trkpt>
      <trkpt lat="46.07703" lon="2.75183">
        <ele>714</ele>
        <time>2015-10-23T15:26:15Z</time>
      </trkpt>
      <trkpt lat="46.07678" lon="2.75172">
        <ele>715</ele>
        <time>2015-10-23T15:26:19Z</time>
      </trkpt>
      <trkpt lat="46.07658" lon="2.75163">
        <ele>716</ele>
        <time>2015-10-23T15:26:23Z</time>
      </trkpt>
      <trkpt lat="46.07648" lon="2.75153">
        <ele>717</ele>
        <time>2015-10-23T15:26:27Z</time>
      </trkpt>
      <trkpt lat="46.07636" lon="2.75142">
        <ele>719</ele>
        <time>2015-10-23T15:26:31Z</time>
      </trkpt>
      <trkpt lat="46.07627" lon="2.75136">
        <ele>721</ele>
        <time>2015-10-23T15:26:35Z</time>
      </trkpt>
      <trkpt lat="46.07624" lon="2.75122">
        <ele>722</ele>
        <time>2015-10-23T15:26:39Z</time>
      </trkpt>
      <trkpt lat="46.07623" lon="2.75112">
        <ele>723</ele>
        <time>2015-10-23T15:26:43Z</time>
      </trkpt>
      <trkpt lat="46.07616" lon="2.75103">
        <ele>724</ele>
        <time>2015-10-23T15:26:47Z</time>
      </trkpt>
      <trkpt lat="46.07617" lon="2.75091">
        <ele>726</ele>
        <time>2015-10-23T15:26:51Z</time>
      </trkpt>
      <trkpt lat="46.07619" lon="2.75073">
        <ele>727</ele>
        <time>2015-10-23T15:26:55Z</time>
      </trkpt>
      <trkpt lat="46.07618" lon="2.75059">
        <ele>728</ele>
        <time>2015-10-23T15:26:59Z</time>
      </trkpt>
      <trkpt lat="46.07618" lon="2.75044">
        <ele>730</ele>
        <time>2015-10-23T15:27:03Z</time>
      </trkpt>
      <trkpt lat="46.07617" lon="2.75026">
        <ele>730</ele>
        <time>2015-10-23T15:27:07Z</time>
      </trkpt>
      <trkpt lat="46.07614" lon="2.75015">
        <ele>731</ele>
        <time>2015-10-23T15:27:11Z</time>
      </trkpt>
      <trkpt lat="46.07611" lon="2.75008">
        <ele>732</ele>
        <time>2015-10-23T15:27:15Z</time>
      </trkpt>
      <trkpt lat="46.07608" lon="2.74999">
        <ele>733</ele>
        <time>2015-10-23T15:27:19Z</time>
      </trkpt>
      <trkpt lat="46.07605" lon="2.7499">
        <ele>734</ele>
        <time>2015-10-23T15:27:23Z</time>
      </trkpt>
      <trkpt lat="46.07604" lon="2.74975">
        <ele>735</ele>
        <time>2015-10-23T15:27:27Z</time>
      </trkpt>
      <trkpt lat="46.07604" lon="2.74969">
        <ele>735</ele>
        <time>2015-10-23T15:27:31Z</time>
      </trkpt>
      <trkpt lat="46.07603" lon="2.74958">
        <ele>735</ele>
        <time>2015-10-23T15:27:35Z</time>
      </trkpt>
      <trkpt lat="46.07594" lon="2.74949">
        <ele>736</ele>
        <time>2015-10-23T15:27:39Z</time>
      </trkpt>
      <trkpt lat="46.07593" lon="2.74939">
        <ele>737</ele>
        <time>2015-10-23T15:27:43Z</time>
      </trkpt>
      <trkpt lat="46.07591" lon="2.74915">
        <ele>737</ele>
        <time>2015-10-23T15:27:47Z</time>
      </trkpt>
      <trkpt lat="46.07585" lon="2.74904">
        <ele>737</ele>
        <time>2015-10-23T15:27:51Z</time>
      </trkpt>
      <trkpt lat="46.07583" lon="2.74895">
        <ele>738</ele>
        <time>2015-10-23T15:27:55Z</time>
      </trkpt>
      <trkpt lat="46.07576" lon="2.74883">
        <ele>738</ele>
        <time>2015-10-23T15:27:59Z</time>
      </trkpt>
      <trkpt lat="46.07567" lon="2.7487">
        <ele>738</ele>
        <time>2015-10-23T15:28:03Z</time>
      </trkpt>
      <trkpt lat="46.07559" lon="2.74857">
        <ele>738</ele>
        <time>2015-10-23T15:28:07Z</time>
      </trkpt>
      <trkpt lat="46.07553" lon="2.74841">
        <ele>739</ele>
        <time>2015-10-23T15:28:11Z</time>
      </trkpt>
      <trkpt lat="46.07548" lon="2.74832">
        <ele>739</ele>
        <time>2015-10-23T15:28:15Z</time>
      </trkpt>
      <trkpt lat="46.07535" lon="2.74817">
        <ele>740</ele>
        <time>2015-10-23T15:28:19Z</time>
      </trkpt>
      <trkpt lat="46.0753" lon="2.74803">
        <ele>740</ele>
        <time>2015-10-23T15:28:23Z</time>
      </trkpt>
      <trkpt lat="46.07523" lon="2.74792">
        <ele>740</ele>
        <time>2015-10-23T15:28:27Z</time>
      </trkpt>
      <trkpt lat="46.07518" lon="2.7478">
        <ele>741</ele>
        <time>2015-10-23T15:28:31Z</time>
      </trkpt>
      <trkpt lat="46.07513" lon="2.74769">
        <ele>741</ele>
        <time>2015-10-23T15:28:35Z</time>
      </trkpt>
      <trkpt lat="46.07502" lon="2.74767">
        <ele>741</ele>
        <time>2015-10-23T15:28:39Z</time>
      </trkpt>
      <trkpt lat="46.0749" lon="2.74751">
        <ele>742</ele>
        <time>2015-10-23T15:28:43Z</time>
      </trkpt>
      <trkpt lat="46.07483" lon="2.74731">
        <ele>742</ele>
        <time>2015-10-23T15:28:47Z</time>
      </trkpt>
      <trkpt lat="46.0747" lon="2.74713">
        <ele>743</ele>
        <time>2015-10-23T15:28:51Z</time>
      </trkpt>
      <trkpt lat="46.0746" lon="2.74703">
        <ele>743</ele>
        <time>2015-10-23T15:28:55Z</time>
      </trkpt>
      <trkpt lat="46.07454" lon="2.74688">
        <ele>744</ele>
        <time>2015-10-23T15:28:59Z</time>
      </trkpt>
      <trkpt lat="46.07446" lon="2.74678">
        <ele>744</ele>
        <time>2015-10-23T15:29:03Z</time>
      </trkpt>
      <trkpt lat="46.07439" lon="2.74668">
        <ele>745</ele>
        <time>2015-10-23T15:29:07Z</time>
      </trkpt>
      <trkpt lat="46.07432" lon="2.74653">
        <ele>746</ele>
        <time>2015-10-23T15:29:11Z</time>
      </trkpt>
      <trkpt lat="46.07423" lon="2.74638">
        <ele>746</ele>
        <time>2015-10-23T15:29:15Z</time>
      </trkpt>
      <trkpt lat="46.07414" lon="2.74622">
        <ele>746</ele>
        <time>2015-10-23T15:29:19Z</time>
      </trkpt>
      <trkpt lat="46.07404" lon="2.74606">
        <ele>747</ele>
        <time>2015-10-23T15:29:23Z</time>
      </trkpt>
      <trkpt lat="46.07393" lon="2.74591">
        <ele>747</ele>
        <time>2015-10-23T15:29:27Z</time>
      </trkpt>
      <trkpt lat="46.07382" lon="2.74574">
        <ele>748</ele>
        <time>2015-10-23T15:29:31Z</time>
      </trkpt>
      <trkpt lat="46.07375" lon="2.74553">
        <ele>748</ele>
        <time>2015-10-23T15:29:35Z</time>
      </trkpt>
      <trkpt lat="46.07367" lon="2.74534">
        <ele>748</ele>
        <time>2015-10-23T15:29:39Z</time>
      </trkpt>
      <trkpt lat="46.07364" lon="2.74516">
        <ele>748</ele>
        <time>2015-10-23T15:29:43Z</time>
      </trkpt>
      <trkpt lat="46.07362" lon="2.74495">
        <ele>749</ele>
        <time>2015-10-23T15:29:47Z</time>
      </trkpt>
      <trkpt lat="46.07363" lon="2.74478">
        <ele>750</ele>
        <time>2015-10-23T15:29:51Z</time>
      </trkpt>
      <trkpt lat="46.07366" lon="2.74466">
        <ele>751</ele>
        <time>2015-10-23T15:29:55Z</time>
      </trkpt>
      <trkpt lat="46.07368" lon="2.74452">
        <ele>752</ele>
        <time>2015-10-23T15:29:59Z</time>
      </trkpt>
      <trkpt lat="46.07369" lon="2.74437">
        <ele>753</ele>
        <time>2015-10-23T15:30:03Z</time>
      </trkpt>
      <trkpt lat="46.07374" lon="2.74426">
        <ele>754</ele>
        <time>2015-10-23T15:30:07Z</time>
      </trkpt>
      <trkpt lat="46.07371" lon="2.74415">
        <ele>753</ele>
        <time>2015-10-23T15:30:11Z</time>
      </trkpt>
      <trkpt lat="46.07364" lon="2.744">
        <ele>752</ele>
        <time>2015-10-23T15:30:15Z</time>
      </trkpt>
      <trkpt lat="46.07357" lon="2.74388">
        <ele>752</ele>
        <time>2015-10-23T15:30:19Z</time>
      </trkpt>
      <trkpt lat="46.07347" lon="2.74376">
        <ele>752</ele>
        <time>2015-10-23T15:30:23Z</time>
      </trkpt>
      <trkpt lat="46.07334" lon="2.74368">
        <ele>751</ele>
        <time>2015-10-23T15:30:27Z</time>
      </trkpt>
      <trkpt lat="46.07326" lon="2.7436">
        <ele>751</ele>
        <time>2015-10-23T15:30:31Z</time>
      </trkpt>
      <trkpt lat="46.07316" lon="2.74349">
        <ele>751</ele>
        <time>2015-10-23T15:30:35Z</time>
      </trkpt>
      <trkpt lat="46.07308" lon="2.74341">
        <ele>751</ele>
        <time>2015-10-23T15:30:39Z</time>
      </trkpt>
      <trkpt lat="46.07297" lon="2.7433">
        <ele>751</ele>
        <time>2015-10-23T15:30:43Z</time>
      </trkpt>
      <trkpt lat="46.07285" lon="2.74319">
        <ele>751</ele>
        <time>2015-10-23T15:30:47Z</time>
      </trkpt>
      <trkpt lat="46.07276" lon="2.7431">
        <ele>752</ele>
        <time>2015-10-23T15:30:51Z</time>
      </trkpt>
      <trkpt lat="46.07263" lon="2.74302">
        <ele>753</ele>
        <time>2015-10-23T15:30:55Z</time>
      </trkpt>
      <trkpt lat="46.07251" lon="2.74292">
        <ele>753</ele>
        <time>2015-10-23T15:30:59Z</time>
      </trkpt>
      <trkpt lat="46.07239" lon="2.74285">
        <ele>754</ele>
        <time>2015-10-23T15:31:03Z</time>
      </trkpt>
      <trkpt lat="46.07227" lon="2.74285">
        <ele>754</ele>
        <time>2015-10-23T15:31:07Z</time>
      </trkpt>
      <trkpt lat="46.07211" lon="2.74288">
        <ele>753</ele>
        <time>2015-10-23T15:31:11Z</time>
      </trkpt>
      <trkpt lat="46.07196" lon="2.74295">
        <ele>753</ele>
        <time>2015-10-23T15:31:15Z</time>
      </trkpt>
      <trkpt lat="46.07179" lon="2.74309">
        <ele>753</ele>
        <time>2015-10-23T15:31:19Z</time>
      </trkpt>
      <trkpt lat="46.0716" lon="2.74315">
        <ele>753</ele>
        <time>2015-10-23T15:31:23Z</time>
      </trkpt>
      <trkpt lat="46.07142" lon="2.7431">
        <ele>754</ele>
        <time>2015-10-23T15:31:27Z</time>
      </trkpt>
      <trkpt lat="46.07124" lon="2.74302">
        <ele>753</ele>
        <time>2015-10-23T15:31:31Z</time>
      </trkpt>
      <trkpt lat="46.07103" lon="2.74296">
        <ele>753</ele>
        <time>2015-10-23T15:31:35Z</time>
      </trkpt>
      <trkpt lat="46.07082" lon="2.74292">
        <ele>753</ele>
        <time>2015-10-23T15:31:39Z</time>
      </trkpt>
      <trkpt lat="46.07061" lon="2.7429">
        <ele>753</ele>
        <time>2015-10-23T15:31:43Z</time>
      </trkpt>
      <trkpt lat="46.0704" lon="2.7429">
        <ele>753</ele>
        <time>2015-10-23T15:31:47Z</time>
      </trkpt>
      <trkpt lat="46.07021" lon="2.74292">
        <ele>754</ele>
        <time>2015-10-23T15:31:51Z</time>
      </trkpt>
      <trkpt lat="46.07003" lon="2.74296">
        <ele>754</ele>
        <time>2015-10-23T15:31:55Z</time>
      </trkpt>
      <trkpt lat="46.06985" lon="2.74301">
        <ele>754</ele>
        <time>2015-10-23T15:31:59Z</time>
      </trkpt>
      <trkpt lat="46.06966" lon="2.74306">
        <ele>755</ele>
        <time>2015-10-23T15:32:03Z</time>
      </trkpt>
      <trkpt lat="46.06946" lon="2.74305">
        <ele>754</ele>
        <time>2015-10-23T15:32:07Z</time>
      </trkpt>
      <trkpt lat="46.06925" lon="2.74304">
        <ele>753</ele>
        <time>2015-10-23T15:32:11Z</time>
      </trkpt>
      <trkpt lat="46.06903" lon="2.74302">
        <ele>753</ele>
        <time>2015-10-23T15:32:15Z</time>
      </trkpt>
      <trkpt lat="46.06883" lon="2.74304">
        <ele>752</ele>
        <time>2015-10-23T15:32:19Z</time>
      </trkpt>
      <trkpt lat="46.0687" lon="2.74297">
        <ele>753</ele>
        <time>2015-10-23T15:32:23Z</time>
      </trkpt>
      <trkpt lat="46.06873" lon="2.74278">
        <ele>753</ele>
        <time>2015-10-23T15:32:27Z</time>
      </trkpt>
      <trkpt lat="46.06879" lon="2.74253">
        <ele>753</ele>
        <time>2015-10-23T15:32:31Z</time>
      </trkpt>
      <trkpt lat="46.06885" lon="2.74228">
        <ele>753</ele>
        <time>2015-10-23T15:32:35Z</time>
      </trkpt>
      <trkpt lat="46.06892" lon="2.74201">
        <ele>753</ele>
        <time>2015-10-23T15:32:39Z</time>
      </trkpt>
      <trkpt lat="46.06899" lon="2.74176">
        <ele>754</ele>
        <time>2015-10-23T15:32:43Z</time>
      </trkpt>
      <trkpt lat="46.06905" lon="2.74147">
        <ele>752</ele>
        <time>2015-10-23T15:32:47Z</time>
      </trkpt>
      <trkpt lat="46.06915" lon="2.74119">
        <ele>751</ele>
        <time>2015-10-23T15:32:51Z</time>
      </trkpt>
      <trkpt lat="46.06928" lon="2.74085">
        <ele>749</ele>
        <time>2015-10-23T15:32:55Z</time>
      </trkpt>
      <trkpt lat="46.0694" lon="2.74054">
        <ele>749</ele>
        <time>2015-10-23T15:32:59Z</time>
      </trkpt>
      <trkpt lat="46.06953" lon="2.74023">
        <ele>748</ele>
        <time>2015-10-23T15:33:03Z</time>
      </trkpt>
      <trkpt lat="46.06963" lon="2.73998">
        <ele>748</ele>
        <time>2015-10-23T15:33:07Z</time>
      </trkpt>
      <trkpt lat="46.06968" lon="2.73978">
        <ele>748</ele>
        <time>2015-10-23T15:33:11Z</time>
      </trkpt>
      <trkpt lat="46.06963" lon="2.73957">
        <ele>749</ele>
        <time>2015-10-23T15:33:15Z</time>
      </trkpt>
      <trkpt lat="46.06958" lon="2.73937">
        <ele>750</ele>
        <time>2015-10-23T15:33:19Z</time>
      </trkpt>
      <trkpt lat="46.0695" lon="2.73919">
        <ele>750</ele>
        <time>2015-10-23T15:33:23Z</time>
      </trkpt>
      <trkpt lat="46.06948" lon="2.73897">
        <ele>750</ele>
        <time>2015-10-23T15:33:27Z</time>
      </trkpt>
      <trkpt lat="46.06943" lon="2.73875">
        <ele>751</ele>
        <time>2015-10-23T15:33:31Z</time>
      </trkpt>
      <trkpt lat="46.06938" lon="2.73856">
        <ele>751</ele>
        <time>2015-10-23T15:33:35Z</time>
      </trkpt>
      <trkpt lat="46.06934" lon="2.73838">
        <ele>751</ele>
        <time>2015-10-23T15:33:39Z</time>
      </trkpt>
      <trkpt lat="46.06936" lon="2.7382">
        <ele>751</ele>
        <time>2015-10-23T15:33:43Z</time>
      </trkpt>
      <trkpt lat="46.06941" lon="2.73809">
        <ele>752</ele>
        <time>2015-10-23T15:33:47Z</time>
      </trkpt>
      <trkpt lat="46.06955" lon="2.73804">
        <ele>752</ele>
        <time>2015-10-23T15:33:51Z</time>
      </trkpt>
      <trkpt lat="46.06963" lon="2.73802">
        <ele>753</ele>
        <time>2015-10-23T15:33:55Z</time>
      </trkpt>
      <trkpt lat="46.06968" lon="2.73797">
        <ele>753</ele>
        <time>2015-10-23T15:33:59Z</time>
      </trkpt>
      <trkpt lat="46.06976" lon="2.73788">
        <ele>754</ele>
        <time>2015-10-23T15:34:03Z</time>
      </trkpt>
      <trkpt lat="46.06981" lon="2.73789">
        <ele>755</ele>
        <time>2015-10-23T15:35:07Z</time>
      </trkpt>
      <trkpt lat="46.06976" lon="2.73795">
        <ele>755</ele>
        <time>2015-10-23T15:35:11Z</time>
      </trkpt>
      <trkpt lat="46.0697" lon="2.738">
        <ele>756</ele>
        <time>2015-10-23T15:37:27Z</time>
      </trkpt>
      <trkpt lat="46.06981" lon="2.73803">
        <ele>756</ele>
        <time>2015-10-23T15:37:31Z</time>
      </trkpt>
      <trkpt lat="46.06985" lon="2.73803">
        <ele>757</ele>
        <time>2015-10-23T15:37:35Z</time>
      </trkpt>
      <trkpt lat="46.06992" lon="2.73802">
        <ele>758</ele>
        <time>2015-10-23T15:37:39Z</time>
      </trkpt>
      <trkpt lat="46.06998" lon="2.73803">
        <ele>759</ele>
        <time>2015-10-23T15:37:43Z</time>
      </trkpt>
      <trkpt lat="46.07004" lon="2.73805">
        <ele>760</ele>
        <time>2015-10-23T15:37:47Z</time>
      </trkpt>
      <trkpt lat="46.07009" lon="2.73809">
        <ele>761</ele>
        <time>2015-10-23T15:37:51Z</time>
      </trkpt>
      <trkpt lat="46.07015" lon="2.73813">
        <ele>762</ele>
        <time>2015-10-23T15:37:55Z</time>
      </trkpt>
      <trkpt lat="46.07021" lon="2.73817">
        <ele>763</ele>
        <time>2015-10-23T15:37:59Z</time>
      </trkpt>
      <trkpt lat="46.07025" lon="2.73823">
        <ele>764</ele>
        <time>2015-10-23T15:38:03Z</time>
      </trkpt>
      <trkpt lat="46.07031" lon="2.73827">
        <ele>765</ele>
        <time>2015-10-23T15:38:07Z</time>
      </trkpt>
      <trkpt lat="46.0704" lon="2.73832">
        <ele>767</ele>
        <time>2015-10-23T15:38:15Z</time>
      </trkpt>
      <trkpt lat="46.07049" lon="2.73831">
        <ele>767</ele>
        <time>2015-10-23T15:38:19Z</time>
      </trkpt>
      <trkpt lat="46.0705" lon="2.73818">
        <ele>767</ele>
        <time>2015-10-23T15:38:23Z</time>
      </trkpt>
      <trkpt lat="46.07052" lon="2.73802">
        <ele>769</ele>
        <time>2015-10-23T15:38:31Z</time>
      </trkpt>
      <trkpt lat="46.0705" lon="2.73792">
        <ele>769</ele>
        <time>2015-10-23T15:38:35Z</time>
      </trkpt>
      <trkpt lat="46.07057" lon="2.73779">
        <ele>771</ele>
        <time>2015-10-23T15:38:43Z</time>
      </trkpt>
      <trkpt lat="46.07055" lon="2.73763">
        <ele>772</ele>
        <time>2015-10-23T15:38:47Z</time>
      </trkpt>
      <trkpt lat="46.07057" lon="2.73751">
        <ele>773</ele>
        <time>2015-10-23T15:38:55Z</time>
      </trkpt>
      <trkpt lat="46.07055" lon="2.73741">
        <ele>774</ele>
        <time>2015-10-23T15:38:59Z</time>
      </trkpt>
      <trkpt lat="46.07057" lon="2.73735">
        <ele>775</ele>
        <time>2015-10-23T15:39:03Z</time>
      </trkpt>
      <trkpt lat="46.07061" lon="2.73727">
        <ele>775</ele>
        <time>2015-10-23T15:39:07Z</time>
      </trkpt>
      <trkpt lat="46.07063" lon="2.73716">
        <ele>778</ele>
        <time>2015-10-23T15:39:19Z</time>
      </trkpt>
      <trkpt lat="46.07063" lon="2.73699">
        <ele>780</ele>
        <time>2015-10-23T15:39:27Z</time>
      </trkpt>
      <trkpt lat="46.07069" lon="2.73677">
        <ele>780</ele>
        <time>2015-10-23T15:39:31Z</time>
      </trkpt>
      <trkpt lat="46.07071" lon="2.73668">
        <ele>781</ele>
        <time>2015-10-23T15:39:35Z</time>
      </trkpt>
      <trkpt lat="46.07073" lon="2.73659">
        <ele>782</ele>
        <time>2015-10-23T15:39:39Z</time>
      </trkpt>
      <trkpt lat="46.07074" lon="2.73649">
        <ele>783</ele>
        <time>2015-10-23T15:39:43Z</time>
      </trkpt>
      <trkpt lat="46.07075" lon="2.73641">
        <ele>783</ele>
        <time>2015-10-23T15:39:47Z</time>
      </trkpt>
      <trkpt lat="46.07078" lon="2.73633">
        <ele>784</ele>
        <time>2015-10-23T15:39:51Z</time>
      </trkpt>
      <trkpt lat="46.07081" lon="2.7362">
        <ele>785</ele>
        <time>2015-10-23T15:39:59Z</time>
      </trkpt>
      <trkpt lat="46.07085" lon="2.73608">
        <ele>786</ele>
        <time>2015-10-23T15:40:03Z</time>
      </trkpt>
      <trkpt lat="46.0709" lon="2.73597">
        <ele>787</ele>
        <time>2015-10-23T15:40:07Z</time>
      </trkpt>
      <trkpt lat="46.07094" lon="2.73588">
        <ele>787</ele>
        <time>2015-10-23T15:40:11Z</time>
      </trkpt>
      <trkpt lat="46.07098" lon="2.73575">
        <ele>787</ele>
        <time>2015-10-23T15:40:15Z</time>
      </trkpt>
      <trkpt lat="46.07102" lon="2.73565">
        <ele>787</ele>
        <time>2015-10-23T15:40:19Z</time>
      </trkpt>
      <trkpt lat="46.07107" lon="2.73554">
        <ele>788</ele>
        <time>2015-10-23T15:40:23Z</time>
      </trkpt>
      <trkpt lat="46.07111" lon="2.73541">
        <ele>789</ele>
        <time>2015-10-23T15:40:27Z</time>
      </trkpt>
      <trkpt lat="46.07114" lon="2.73529">
        <ele>789</ele>
        <time>2015-10-23T15:40:31Z</time>
      </trkpt>
      <trkpt lat="46.07119" lon="2.73519">
        <ele>790</ele>
        <time>2015-10-23T15:40:35Z</time>
      </trkpt>
      <trkpt lat="46.07125" lon="2.7351">
        <ele>790</ele>
        <time>2015-10-23T15:40:39Z</time>
      </trkpt>
      <trkpt lat="46.0713" lon="2.73503">
        <ele>791</ele>
        <time>2015-10-23T15:40:43Z</time>
      </trkpt>
      <trkpt lat="46.07135" lon="2.73495">
        <ele>792</ele>
        <time>2015-10-23T15:40:47Z</time>
      </trkpt>
      <trkpt lat="46.07139" lon="2.73488">
        <ele>792</ele>
        <time>2015-10-23T15:40:51Z</time>
      </trkpt>
      <trkpt lat="46.07143" lon="2.73483">
        <ele>793</ele>
        <time>2015-10-23T15:40:55Z</time>
      </trkpt>
      <trkpt lat="46.0715" lon="2.73477">
        <ele>794</ele>
        <time>2015-10-23T15:40:59Z</time>
      </trkpt>
      <trkpt lat="46.07156" lon="2.73468">
        <ele>794</ele>
        <time>2015-10-23T15:41:03Z</time>
      </trkpt>
      <trkpt lat="46.07161" lon="2.73459">
        <ele>795</ele>
        <time>2015-10-23T15:41:07Z</time>
      </trkpt>
      <trkpt lat="46.07167" lon="2.73451">
        <ele>796</ele>
        <time>2015-10-23T15:41:11Z</time>
      </trkpt>
      <trkpt lat="46.07172" lon="2.73444">
        <ele>797</ele>
        <time>2015-10-23T15:41:15Z</time>
      </trkpt>
      <trkpt lat="46.07177" lon="2.73434">
        <ele>797</ele>
        <time>2015-10-23T15:41:19Z</time>
      </trkpt>
      <trkpt lat="46.07182" lon="2.73425">
        <ele>798</ele>
        <time>2015-10-23T15:41:23Z</time>
      </trkpt>
      <trkpt lat="46.07186" lon="2.73418">
        <ele>799</ele>
        <time>2015-10-23T15:41:27Z</time>
      </trkpt>
      <trkpt lat="46.0719" lon="2.7341">
        <ele>800</ele>
        <time>2015-10-23T15:41:31Z</time>
      </trkpt>
      <trkpt lat="46.07193" lon="2.73402">
        <ele>801</ele>
        <time>2015-10-23T15:41:35Z</time>
      </trkpt>
      <trkpt lat="46.07197" lon="2.73394">
        <ele>802</ele>
        <time>2015-10-23T15:41:39Z</time>
      </trkpt>
      <trkpt lat="46.072" lon="2.73387">
        <ele>803</ele>
        <time>2015-10-23T15:41:43Z</time>
      </trkpt>
      <trkpt lat="46.07203" lon="2.7338">
        <ele>804</ele>
        <time>2015-10-23T15:41:47Z</time>
      </trkpt>
      <trkpt lat="46.07207" lon="2.73373">
        <ele>805</ele>
        <time>2015-10-23T15:41:51Z</time>
      </trkpt>
      <trkpt lat="46.0721" lon="2.73367">
        <ele>806</ele>
        <time>2015-10-23T15:41:59Z</time>
      </trkpt>
      <trkpt lat="46.07215" lon="2.73358">
        <ele>807</ele>
        <time>2015-10-23T15:42:03Z</time>
      </trkpt>
      <trkpt lat="46.07219" lon="2.73352">
        <ele>807</ele>
        <time>2015-10-23T15:42:07Z</time>
      </trkpt>
      <trkpt lat="46.07224" lon="2.73345">
        <ele>808</ele>
        <time>2015-10-23T15:42:11Z</time>
      </trkpt>
      <trkpt lat="46.07229" lon="2.7334">
        <ele>809</ele>
        <time>2015-10-23T15:42:15Z</time>
      </trkpt>
      <trkpt lat="46.07233" lon="2.73334">
        <ele>809</ele>
        <time>2015-10-23T15:42:19Z</time>
      </trkpt>
      <trkpt lat="46.07238" lon="2.73328">
        <ele>809</ele>
        <time>2015-10-23T15:42:23Z</time>
      </trkpt>
      <trkpt lat="46.07242" lon="2.73323">
        <ele>810</ele>
        <time>2015-10-23T15:42:27Z</time>
      </trkpt>
      <trkpt lat="46.07246" lon="2.73318">
        <ele>811</ele>
        <time>2015-10-23T15:42:31Z</time>
      </trkpt>
      <trkpt lat="46.07251" lon="2.73314">
        <ele>812</ele>
        <time>2015-10-23T15:42:35Z</time>
      </trkpt>
      <trkpt lat="46.07257" lon="2.73312">
        <ele>812</ele>
        <time>2015-10-23T15:42:39Z</time>
      </trkpt>
      <trkpt lat="46.07265" lon="2.7331">
        <ele>813</ele>
        <time>2015-10-23T15:42:43Z</time>
      </trkpt>
      <trkpt lat="46.07271" lon="2.73307">
        <ele>814</ele>
        <time>2015-10-23T15:42:47Z</time>
      </trkpt>
      <trkpt lat="46.07279" lon="2.73303">
        <ele>814</ele>
        <time>2015-10-23T15:42:51Z</time>
      </trkpt>
      <trkpt lat="46.07286" lon="2.73299">
        <ele>815</ele>
        <time>2015-10-23T15:42:55Z</time>
      </trkpt>
      <trkpt lat="46.07293" lon="2.73297">
        <ele>816</ele>
        <time>2015-10-23T15:42:59Z</time>
      </trkpt>
      <trkpt lat="46.07301" lon="2.73293">
        <ele>816</ele>
        <time>2015-10-23T15:43:03Z</time>
      </trkpt>
      <trkpt lat="46.07308" lon="2.73289">
        <ele>817</ele>
        <time>2015-10-23T15:43:07Z</time>
      </trkpt>
      <trkpt lat="46.07316" lon="2.73286">
        <ele>817</ele>
        <time>2015-10-23T15:43:11Z</time>
      </trkpt>
      <trkpt lat="46.07325" lon="2.73283">
        <ele>818</ele>
        <time>2015-10-23T15:43:15Z</time>
      </trkpt>
      <trkpt lat="46.07334" lon="2.73281">
        <ele>818</ele>
        <time>2015-10-23T15:43:19Z</time>
      </trkpt>
      <trkpt lat="46.0734" lon="2.73278">
        <ele>818</ele>
        <time>2015-10-23T15:43:23Z</time>
      </trkpt>
      <trkpt lat="46.07347" lon="2.73273">
        <ele>818</ele>
        <time>2015-10-23T15:43:27Z</time>
      </trkpt>
      <trkpt lat="46.07355" lon="2.7327">
        <ele>818</ele>
        <time>2015-10-23T15:43:31Z</time>
      </trkpt>
      <trkpt lat="46.07365" lon="2.73273">
        <ele>819</ele>
        <time>2015-10-23T15:43:35Z</time>
      </trkpt>
      <trkpt lat="46.07376" lon="2.73276">
        <ele>819</ele>
        <time>2015-10-23T15:43:39Z</time>
      </trkpt>
      <trkpt lat="46.07386" lon="2.7328">
        <ele>819</ele>
        <time>2015-10-23T15:43:43Z</time>
      </trkpt>
      <trkpt lat="46.07396" lon="2.73283">
        <ele>819</ele>
        <time>2015-10-23T15:43:47Z</time>
      </trkpt>
      <trkpt lat="46.07406" lon="2.73283">
        <ele>819</ele>
        <time>2015-10-23T15:43:51Z</time>
      </trkpt>
      <trkpt lat="46.07416" lon="2.73282">
        <ele>819</ele>
        <time>2015-10-23T15:43:55Z</time>
      </trkpt>
      <trkpt lat="46.07424" lon="2.73282">
        <ele>819</ele>
        <time>2015-10-23T15:43:59Z</time>
      </trkpt>
      <trkpt lat="46.07433" lon="2.73288">
        <ele>819</ele>
        <time>2015-10-23T15:44:03Z</time>
      </trkpt>
      <trkpt lat="46.07446" lon="2.73293">
        <ele>818</ele>
        <time>2015-10-23T15:44:07Z</time>
      </trkpt>
      <trkpt lat="46.07462" lon="2.733">
        <ele>817</ele>
        <time>2015-10-23T15:44:11Z</time>
      </trkpt>
      <trkpt lat="46.07478" lon="2.73305">
        <ele>815</ele>
        <time>2015-10-23T15:44:15Z</time>
      </trkpt>
      <trkpt lat="46.07491" lon="2.73308">
        <ele>813</ele>
        <time>2015-10-23T15:44:19Z</time>
      </trkpt>
      <trkpt lat="46.07506" lon="2.73314">
        <ele>810</ele>
        <time>2015-10-23T15:44:23Z</time>
      </trkpt>
      <trkpt lat="46.07525" lon="2.73322">
        <ele>806</ele>
        <time>2015-10-23T15:44:27Z</time>
      </trkpt>
      <trkpt lat="46.0754" lon="2.7333">
        <ele>802</ele>
        <time>2015-10-23T15:44:31Z</time>
      </trkpt>
      <trkpt lat="46.07556" lon="2.73333">
        <ele>801</ele>
        <time>2015-10-23T15:44:35Z</time>
      </trkpt>
      <trkpt lat="46.0757" lon="2.73331">
        <ele>797</ele>
        <time>2015-10-23T15:44:39Z</time>
      </trkpt>
      <trkpt lat="46.07585" lon="2.73328">
        <ele>794</ele>
        <time>2015-10-23T15:44:43Z</time>
      </trkpt>
      <trkpt lat="46.07601" lon="2.73319">
        <ele>790</ele>
        <time>2015-10-23T15:44:47Z</time>
      </trkpt>
      <trkpt lat="46.07614" lon="2.73306">
        <ele>787</ele>
        <time>2015-10-23T15:44:51Z</time>
      </trkpt>
      <trkpt lat="46.07625" lon="2.73285">
        <ele>783</ele>
        <time>2015-10-23T15:44:55Z</time>
      </trkpt>
      <trkpt lat="46.07634" lon="2.73265">
        <ele>780</ele>
        <time>2015-10-23T15:44:59Z</time>
      </trkpt>
      <trkpt lat="46.07646" lon="2.73249">
        <ele>777</ele>
        <time>2015-10-23T15:45:03Z</time>
      </trkpt>
      <trkpt lat="46.07665" lon="2.73233">
        <ele>774</ele>
        <time>2015-10-23T15:45:07Z</time>
      </trkpt>
      <trkpt lat="46.07682" lon="2.73218">
        <ele>772</ele>
        <time>2015-10-23T15:45:11Z</time>
      </trkpt>
      <trkpt lat="46.07696" lon="2.73205">
        <ele>769</ele>
        <time>2015-10-23T15:45:15Z</time>
      </trkpt>
      <trkpt lat="46.07714" lon="2.73187">
        <ele>766</ele>
        <time>2015-10-23T15:45:19Z</time>
      </trkpt>
      <trkpt lat="46.07738" lon="2.73169">
        <ele>763</ele>
        <time>2015-10-23T15:45:23Z</time>
      </trkpt>
      <trkpt lat="46.07757" lon="2.73157">
        <ele>761</ele>
        <time>2015-10-23T15:45:27Z</time>
      </trkpt>
      <trkpt lat="46.07778" lon="2.73144">
        <ele>759</ele>
        <time>2015-10-23T15:45:31Z</time>
      </trkpt>
      <trkpt lat="46.07798" lon="2.73135">
        <ele>757</ele>
        <time>2015-10-23T15:45:35Z</time>
      </trkpt>
      <trkpt lat="46.07819" lon="2.73124">
        <ele>756</ele>
        <time>2015-10-23T15:45:39Z</time>
      </trkpt>
      <trkpt lat="46.07833" lon="2.73111">
        <ele>754</ele>
        <time>2015-10-23T15:45:43Z</time>
      </trkpt>
      <trkpt lat="46.07849" lon="2.73095">
        <ele>754</ele>
        <time>2015-10-23T15:45:47Z</time>
      </trkpt>
      <trkpt lat="46.07869" lon="2.73074">
        <ele>753</ele>
        <time>2015-10-23T15:45:51Z</time>
      </trkpt>
      <trkpt lat="46.07886" lon="2.73054">
        <ele>752</ele>
        <time>2015-10-23T15:45:55Z</time>
      </trkpt>
      <trkpt lat="46.07901" lon="2.73038">
        <ele>751</ele>
        <time>2015-10-23T15:45:59Z</time>
      </trkpt>
      <trkpt lat="46.0791" lon="2.73015">
        <ele>750</ele>
        <time>2015-10-23T15:46:03Z</time>
      </trkpt>
      <trkpt lat="46.07924" lon="2.72998">
        <ele>750</ele>
        <time>2015-10-23T15:46:07Z</time>
      </trkpt>
      <trkpt lat="46.07941" lon="2.72985">
        <ele>752</ele>
        <time>2015-10-23T15:46:11Z</time>
      </trkpt>
      <trkpt lat="46.07952" lon="2.7297">
        <ele>752</ele>
        <time>2015-10-23T15:46:15Z</time>
      </trkpt>
      <trkpt lat="46.07958" lon="2.72953">
        <ele>753</ele>
        <time>2015-10-23T15:46:19Z</time>
      </trkpt>
      <trkpt lat="46.07966" lon="2.72938">
        <ele>754</ele>
        <time>2015-10-23T15:46:23Z</time>
      </trkpt>
      <trkpt lat="46.07972" lon="2.7292">
        <ele>755</ele>
        <time>2015-10-23T15:46:27Z</time>
      </trkpt>
      <trkpt lat="46.07978" lon="2.72899">
        <ele>755</ele>
        <time>2015-10-23T15:46:31Z</time>
      </trkpt>
      <trkpt lat="46.0798" lon="2.72879">
        <ele>755</ele>
        <time>2015-10-23T15:46:35Z</time>
      </trkpt>
      <trkpt lat="46.07983" lon="2.7286">
        <ele>755</ele>
        <time>2015-10-23T15:46:39Z</time>
      </trkpt>
      <trkpt lat="46.07986" lon="2.7284">
        <ele>755</ele>
        <time>2015-10-23T15:46:43Z</time>
      </trkpt>
      <trkpt lat="46.07986" lon="2.7282">
        <ele>755</ele>
        <time>2015-10-23T15:46:47Z</time>
      </trkpt>
      <trkpt lat="46.07985" lon="2.72804">
        <ele>756</ele>
        <time>2015-10-23T15:46:51Z</time>
      </trkpt>
      <trkpt lat="46.07983" lon="2.72784">
        <ele>756</ele>
        <time>2015-10-23T15:46:55Z</time>
      </trkpt>
      <trkpt lat="46.07982" lon="2.72765">
        <ele>756</ele>
        <time>2015-10-23T15:46:59Z</time>
      </trkpt>
      <trkpt lat="46.0798" lon="2.72745">
        <ele>757</ele>
        <time>2015-10-23T15:47:03Z</time>
      </trkpt>
      <trkpt lat="46.07978" lon="2.72727">
        <ele>757</ele>
        <time>2015-10-23T15:47:07Z</time>
      </trkpt>
      <trkpt lat="46.07974" lon="2.72708">
        <ele>758</ele>
        <time>2015-10-23T15:47:11Z</time>
      </trkpt>
      <trkpt lat="46.07971" lon="2.72687">
        <ele>759</ele>
        <time>2015-10-23T15:47:15Z</time>
      </trkpt>
      <trkpt lat="46.07966" lon="2.72666">
        <ele>760</ele>
        <time>2015-10-23T15:47:19Z</time>
      </trkpt>
      <trkpt lat="46.07964" lon="2.72645">
        <ele>759</ele>
        <time>2015-10-23T15:47:23Z</time>
      </trkpt>
      <trkpt lat="46.07966" lon="2.72622">
        <ele>760</ele>
        <time>2015-10-23T15:47:27Z</time>
      </trkpt>
      <trkpt lat="46.07969" lon="2.72601">
        <ele>760</ele>
        <time>2015-10-23T15:47:31Z</time>
      </trkpt>
      <trkpt lat="46.07973" lon="2.72581">
        <ele>760</ele>
        <time>2015-10-23T15:47:35Z</time>
      </trkpt>
      <trkpt lat="46.07975" lon="2.7256">
        <ele>759</ele>
        <time>2015-10-23T15:47:39Z</time>
      </trkpt>
      <trkpt lat="46.07977" lon="2.72539">
        <ele>758</ele>
        <time>2015-10-23T15:47:43Z</time>
      </trkpt>
      <trkpt lat="46.07979" lon="2.72511">
        <ele>756</ele>
        <time>2015-10-23T15:47:47Z</time>
      </trkpt>
      <trkpt lat="46.07984" lon="2.72475">
        <ele>753</ele>
        <time>2015-10-23T15:47:51Z</time>
      </trkpt>
      <trkpt lat="46.07989" lon="2.72439">
        <ele>749</ele>
        <time>2015-10-23T15:47:55Z</time>
      </trkpt>
      <trkpt lat="46.07999" lon="2.72413">
        <ele>749</ele>
        <time>2015-10-23T15:47:59Z</time>
      </trkpt>
      <trkpt lat="46.08006" lon="2.72401">
        <ele>748</ele>
        <time>2015-10-23T15:48:03Z</time>
      </trkpt>
      <trkpt lat="46.08011" lon="2.72394">
        <ele>748</ele>
        <time>2015-10-23T15:49:47Z</time>
      </trkpt>
      <trkpt lat="46.08014" lon="2.7237">
        <ele>748</ele>
        <time>2015-10-23T15:49:51Z</time>
      </trkpt>
      <trkpt lat="46.08024" lon="2.72365">
        <ele>746</ele>
        <time>2015-10-23T15:49:55Z</time>
      </trkpt>
      <trkpt lat="46.08034" lon="2.72352">
        <ele>745</ele>
        <time>2015-10-23T15:49:59Z</time>
      </trkpt>
      <trkpt lat="46.08045" lon="2.72339">
        <ele>742</ele>
        <time>2015-10-23T15:50:03Z</time>
      </trkpt>
      <trkpt lat="46.08064" lon="2.72325">
        <ele>739</ele>
        <time>2015-10-23T15:50:07Z</time>
      </trkpt>
      <trkpt lat="46.08084" lon="2.72308">
        <ele>733</ele>
        <time>2015-10-23T15:50:11Z</time>
      </trkpt>
      <trkpt lat="46.08106" lon="2.72298">
        <ele>733</ele>
        <time>2015-10-23T15:50:15Z</time>
      </trkpt>
      <trkpt lat="46.08122" lon="2.72288">
        <ele>730</ele>
        <time>2015-10-23T15:50:19Z</time>
      </trkpt>
      <trkpt lat="46.08143" lon="2.7227">
        <ele>726</ele>
        <time>2015-10-23T15:50:23Z</time>
      </trkpt>
      <trkpt lat="46.08164" lon="2.72252">
        <ele>723</ele>
        <time>2015-10-23T15:50:27Z</time>
      </trkpt>
      <trkpt lat="46.0819" lon="2.72243">
        <ele>720</ele>
        <time>2015-10-23T15:50:31Z</time>
      </trkpt>
      <trkpt lat="46.08213" lon="2.72231">
        <ele>716</ele>
        <time>2015-10-23T15:50:35Z</time>
      </trkpt>
      <trkpt lat="46.08236" lon="2.72212">
        <ele>713</ele>
        <time>2015-10-23T15:50:39Z</time>
      </trkpt>
      <trkpt lat="46.08255" lon="2.72186">
        <ele>708</ele>
        <time>2015-10-23T15:50:43Z</time>
      </trkpt>
      <trkpt lat="46.0827" lon="2.72167">
        <ele>705</ele>
        <time>2015-10-23T15:50:47Z</time>
      </trkpt>
      <trkpt lat="46.08286" lon="2.72143">
        <ele>703</ele>
        <time>2015-10-23T15:50:51Z</time>
      </trkpt>
      <trkpt lat="46.0829" lon="2.72109">
        <ele>701</ele>
        <time>2015-10-23T15:50:55Z</time>
      </trkpt>
      <trkpt lat="46.08287" lon="2.72077">
        <ele>697</ele>
        <time>2015-10-23T15:50:59Z</time>
      </trkpt>
      <trkpt lat="46.08293" lon="2.72036">
        <ele>694</ele>
        <time>2015-10-23T15:51:03Z</time>
      </trkpt>
      <trkpt lat="46.08303" lon="2.72">
        <ele>691</ele>
        <time>2015-10-23T15:51:07Z</time>
      </trkpt>
      <trkpt lat="46.08309" lon="2.71963">
        <ele>689</ele>
        <time>2015-10-23T15:51:11Z</time>
      </trkpt>
      <trkpt lat="46.08314" lon="2.71925">
        <ele>688</ele>
        <time>2015-10-23T15:51:15Z</time>
      </trkpt>
      <trkpt lat="46.08315" lon="2.71887">
        <ele>686</ele>
        <time>2015-10-23T15:51:19Z</time>
      </trkpt>
      <trkpt lat="46.08306" lon="2.7185">
        <ele>685</ele>
        <time>2015-10-23T15:51:23Z</time>
      </trkpt>
      <trkpt lat="46.08299" lon="2.71815">
        <ele>684</ele>
        <time>2015-10-23T15:51:27Z</time>
      </trkpt>
      <trkpt lat="46.08292" lon="2.71782">
        <ele>681</ele>
        <time>2015-10-23T15:51:31Z</time>
      </trkpt>
      <trkpt lat="46.08289" lon="2.7175">
        <ele>679</ele>
        <time>2015-10-23T15:51:35Z</time>
      </trkpt>
      <trkpt lat="46.08287" lon="2.71717">
        <ele>676</ele>
        <time>2015-10-23T15:51:39Z</time>
      </trkpt>
      <trkpt lat="46.08298" lon="2.71681">
        <ele>675</ele>
        <time>2015-10-23T15:51:43Z</time>
      </trkpt>
      <trkpt lat="46.0831" lon="2.71649">
        <ele>674</ele>
        <time>2015-10-23T15:51:47Z</time>
      </trkpt>
      <trkpt lat="46.08323" lon="2.71618">
        <ele>673</ele>
        <time>2015-10-23T15:51:51Z</time>
      </trkpt>
      <trkpt lat="46.08334" lon="2.71589">
        <ele>673</ele>
        <time>2015-10-23T15:51:55Z</time>
      </trkpt>
      <trkpt lat="46.08348" lon="2.71556">
        <ele>671</ele>
        <time>2015-10-23T15:51:59Z</time>
      </trkpt>
      <trkpt lat="46.08361" lon="2.71521">
        <ele>667</ele>
        <time>2015-10-23T15:52:03Z</time>
      </trkpt>
      <trkpt lat="46.08375" lon="2.71481">
        <ele>662</ele>
        <time>2015-10-23T15:52:07Z</time>
      </trkpt>
      <trkpt lat="46.08394" lon="2.71439">
        <ele>660</ele>
        <time>2015-10-23T15:52:11Z</time>
      </trkpt>
      <trkpt lat="46.08413" lon="2.71402">
        <ele>657</ele>
        <time>2015-10-23T15:52:15Z</time>
      </trkpt>
      <trkpt lat="46.08437" lon="2.71378">
        <ele>654</ele>
        <time>2015-10-23T15:52:19Z</time>
      </trkpt>
      <trkpt lat="46.08462" lon="2.71355">
        <ele>651</ele>
        <time>2015-10-23T15:52:23Z</time>
      </trkpt>
      <trkpt lat="46.08487" lon="2.71339">
        <ele>646</ele>
        <time>2015-10-23T15:52:27Z</time>
      </trkpt>
      <trkpt lat="46.08513" lon="2.71331">
        <ele>642</ele>
        <time>2015-10-23T15:52:31Z</time>
      </trkpt>
      <trkpt lat="46.08536" lon="2.71326">
        <ele>638</ele>
        <time>2015-10-23T15:52:35Z</time>
      </trkpt>
      <trkpt lat="46.08561" lon="2.71297">
        <ele>635</ele>
        <time>2015-10-23T15:52:39Z</time>
      </trkpt>
      <trkpt lat="46.08579" lon="2.71252">
        <ele>633</ele>
        <time>2015-10-23T15:52:43Z</time>
      </trkpt>
      <trkpt lat="46.08589" lon="2.71204">
        <ele>631</ele>
        <time>2015-10-23T15:52:47Z</time>
      </trkpt>
      <trkpt lat="46.08598" lon="2.71158">
        <ele>630</ele>
        <time>2015-10-23T15:52:51Z</time>
      </trkpt>
      <trkpt lat="46.08608" lon="2.71116">
        <ele>629</ele>
        <time>2015-10-23T15:52:55Z</time>
      </trkpt>
      <trkpt lat="46.08619" lon="2.71081">
        <ele>629</ele>
        <time>2015-10-23T15:52:59Z</time>
      </trkpt>
      <trkpt lat="46.08633" lon="2.71049">
        <ele>628</ele>
        <time>2015-10-23T15:53:03Z</time>
      </trkpt>
      <trkpt lat="46.08646" lon="2.71026">
        <ele>628</ele>
        <time>2015-10-23T15:53:07Z</time>
      </trkpt>
      <trkpt lat="46.08652" lon="2.71012">
        <ele>628</ele>
        <time>2015-10-23T15:53:11Z</time>
      </trkpt>
      <trkpt lat="46.08662" lon="2.71003">
        <ele>628</ele>
        <time>2015-10-23T15:53:15Z</time>
      </trkpt>
      <trkpt lat="46.08674" lon="2.71004">
        <ele>628</ele>
        <time>2015-10-23T15:53:19Z</time>
      </trkpt>
      <trkpt lat="46.08686" lon="2.71012">
        <ele>629</ele>
        <time>2015-10-23T15:53:23Z</time>
      </trkpt>
      <trkpt lat="46.08696" lon="2.7102">
        <ele>630</ele>
        <time>2015-10-23T15:53:27Z</time>
      </trkpt>
      <trkpt lat="46.0871" lon="2.71022">
        <ele>631</ele>
        <time>2015-10-23T15:53:31Z</time>
      </trkpt>
      <trkpt lat="46.08725" lon="2.7101">
        <ele>630</ele>
        <time>2015-10-23T15:53:35Z</time>
      </trkpt>
      <trkpt lat="46.08736" lon="2.70993">
        <ele>630</ele>
        <time>2015-10-23T15:53:39Z</time>
      </trkpt>
      <trkpt lat="46.08749" lon="2.70969">
        <ele>629</ele>
        <time>2015-10-23T15:53:43Z</time>
      </trkpt>
      <trkpt lat="46.08757" lon="2.70935">
        <ele>627</ele>
        <time>2015-10-23T15:53:47Z</time>
      </trkpt>
      <trkpt lat="46.08757" lon="2.70892">
        <ele>626</ele>
        <time>2015-10-23T15:53:51Z</time>
      </trkpt>
      <trkpt lat="46.08758" lon="2.70849">
        <ele>624</ele>
        <time>2015-10-23T15:53:55Z</time>
      </trkpt>
      <trkpt lat="46.08765" lon="2.70806">
        <ele>623</ele>
        <time>2015-10-23T15:53:59Z</time>
      </trkpt>
      <trkpt lat="46.08778" lon="2.70774">
        <ele>622</ele>
        <time>2015-10-23T15:54:03Z</time>
      </trkpt>
      <trkpt lat="46.08789" lon="2.70751">
        <ele>622</ele>
        <time>2015-10-23T15:54:07Z</time>
      </trkpt>
      <trkpt lat="46.08792" lon="2.70723">
        <ele>621</ele>
        <time>2015-10-23T15:54:11Z</time>
      </trkpt>
      <trkpt lat="46.08798" lon="2.70697">
        <ele>621</ele>
        <time>2015-10-23T15:54:15Z</time>
      </trkpt>
      <trkpt lat="46.0881" lon="2.70669">
        <ele>621</ele>
        <time>2015-10-23T15:54:19Z</time>
      </trkpt>
      <trkpt lat="46.08819" lon="2.70633">
        <ele>619</ele>
        <time>2015-10-23T15:54:23Z</time>
      </trkpt>
      <trkpt lat="46.08828" lon="2.70594">
        <ele>618</ele>
        <time>2015-10-23T15:54:27Z</time>
      </trkpt>
      <trkpt lat="46.0884" lon="2.70552">
        <ele>617</ele>
        <time>2015-10-23T15:54:31Z</time>
      </trkpt>
      <trkpt lat="46.08849" lon="2.70509">
        <ele>615</ele>
        <time>2015-10-23T15:54:35Z</time>
      </trkpt>
      <trkpt lat="46.08862" lon="2.70473">
        <ele>615</ele>
        <time>2015-10-23T15:54:39Z</time>
      </trkpt>
      <trkpt lat="46.0888" lon="2.70439">
        <ele>614</ele>
        <time>2015-10-23T15:54:43Z</time>
      </trkpt>
      <trkpt lat="46.08898" lon="2.70412">
        <ele>614</ele>
        <time>2015-10-23T15:54:47Z</time>
      </trkpt>
      <trkpt lat="46.08918" lon="2.70387">
        <ele>614</ele>
        <time>2015-10-23T15:54:51Z</time>
      </trkpt>
      <trkpt lat="46.08936" lon="2.70366">
        <ele>615</ele>
        <time>2015-10-23T15:54:55Z</time>
      </trkpt>
      <trkpt lat="46.08953" lon="2.70345">
        <ele>616</ele>
        <time>2015-10-23T15:54:59Z</time>
      </trkpt>
      <trkpt lat="46.08966" lon="2.70324">
        <ele>617</ele>
        <time>2015-10-23T15:55:03Z</time>
      </trkpt>
      <trkpt lat="46.08977" lon="2.70304">
        <ele>618</ele>
        <time>2015-10-23T15:55:07Z</time>
      </trkpt>
      <trkpt lat="46.08988" lon="2.70282">
        <ele>619</ele>
        <time>2015-10-23T15:55:11Z</time>
      </trkpt>
      <trkpt lat="46.09" lon="2.70261">
        <ele>619</ele>
        <time>2015-10-23T15:55:15Z</time>
      </trkpt>
      <trkpt lat="46.09008" lon="2.70241">
        <ele>620</ele>
        <time>2015-10-23T15:55:19Z</time>
      </trkpt>
      <trkpt lat="46.09015" lon="2.70218">
        <ele>621</ele>
        <time>2015-10-23T15:55:23Z</time>
      </trkpt>
      <trkpt lat="46.09022" lon="2.70194">
        <ele>623</ele>
        <time>2015-10-23T15:55:27Z</time>
      </trkpt>
      <trkpt lat="46.09024" lon="2.70168">
        <ele>624</ele>
        <time>2015-10-23T15:55:31Z</time>
      </trkpt>
      <trkpt lat="46.09025" lon="2.70145">
        <ele>624</ele>
        <time>2015-10-23T15:55:35Z</time>
      </trkpt>
      <trkpt lat="46.09026" lon="2.70121">
        <ele>624</ele>
        <time>2015-10-23T15:55:39Z</time>
      </trkpt>
      <trkpt lat="46.0903" lon="2.70089">
        <ele>622</ele>
        <time>2015-10-23T15:55:43Z</time>
      </trkpt>
      <trkpt lat="46.09035" lon="2.7005">
        <ele>620</ele>
        <time>2015-10-23T15:55:47Z</time>
      </trkpt>
      <trkpt lat="46.09036" lon="2.7001">
        <ele>618</ele>
        <time>2015-10-23T15:55:51Z</time>
      </trkpt>
      <trkpt lat="46.09043" lon="2.69965">
        <ele>615</ele>
        <time>2015-10-23T15:55:55Z</time>
      </trkpt>
      <trkpt lat="46.09055" lon="2.69924">
        <ele>612</ele>
        <time>2015-10-23T15:55:59Z</time>
      </trkpt>
      <trkpt lat="46.09075" lon="2.69875">
        <ele>610</ele>
        <time>2015-10-23T15:56:03Z</time>
      </trkpt>
      <trkpt lat="46.09091" lon="2.69835">
        <ele>608</ele>
        <time>2015-10-23T15:56:07Z</time>
      </trkpt>
      <trkpt lat="46.09099" lon="2.69805">
        <ele>608</ele>
        <time>2015-10-23T15:56:11Z</time>
      </trkpt>
      <trkpt lat="46.09106" lon="2.69785">
        <ele>607</ele>
        <time>2015-10-23T15:56:15Z</time>
      </trkpt>
      <trkpt lat="46.09111" lon="2.6976">
        <ele>607</ele>
        <time>2015-10-23T15:56:19Z</time>
      </trkpt>
      <trkpt lat="46.0912" lon="2.69731">
        <ele>607</ele>
        <time>2015-10-23T15:56:23Z</time>
      </trkpt>
      <trkpt lat="46.0913" lon="2.69708">
        <ele>606</ele>
        <time>2015-10-23T15:56:27Z</time>
      </trkpt>
      <trkpt lat="46.09142" lon="2.69679">
        <ele>605</ele>
        <time>2015-10-23T15:56:31Z</time>
      </trkpt>
      <trkpt lat="46.09156" lon="2.69653">
        <ele>605</ele>
        <time>2015-10-23T15:56:35Z</time>
      </trkpt>
      <trkpt lat="46.09166" lon="2.69626">
        <ele>606</ele>
        <time>2015-10-23T15:56:39Z</time>
      </trkpt>
      <trkpt lat="46.0918" lon="2.69596">
        <ele>606</ele>
        <time>2015-10-23T15:56:43Z</time>
      </trkpt>
      <trkpt lat="46.09192" lon="2.69567">
        <ele>606</ele>
        <time>2015-10-23T15:56:47Z</time>
      </trkpt>
      <trkpt lat="46.092" lon="2.69539">
        <ele>607</ele>
        <time>2015-10-23T15:56:51Z</time>
      </trkpt>
      <trkpt lat="46.09207" lon="2.69508">
        <ele>608</ele>
        <time>2015-10-23T15:56:55Z</time>
      </trkpt>
      <trkpt lat="46.09213" lon="2.69483">
        <ele>609</ele>
        <time>2015-10-23T15:56:59Z</time>
      </trkpt>
      <trkpt lat="46.09217" lon="2.69459">
        <ele>611</ele>
        <time>2015-10-23T15:57:03Z</time>
      </trkpt>
      <trkpt lat="46.09221" lon="2.69434">
        <ele>611</ele>
        <time>2015-10-23T15:57:07Z</time>
      </trkpt>
      <trkpt lat="46.09224" lon="2.69412">
        <ele>613</ele>
        <time>2015-10-23T15:57:11Z</time>
      </trkpt>
      <trkpt lat="46.09228" lon="2.6939">
        <ele>614</ele>
        <time>2015-10-23T15:57:15Z</time>
      </trkpt>
      <trkpt lat="46.09233" lon="2.69364">
        <ele>615</ele>
        <time>2015-10-23T15:57:19Z</time>
      </trkpt>
      <trkpt lat="46.09242" lon="2.69342">
        <ele>616</ele>
        <time>2015-10-23T15:57:23Z</time>
      </trkpt>
      <trkpt lat="46.09248" lon="2.6932">
        <ele>617</ele>
        <time>2015-10-23T15:57:27Z</time>
      </trkpt>
      <trkpt lat="46.09256" lon="2.69305">
        <ele>617</ele>
        <time>2015-10-23T15:57:31Z</time>
      </trkpt>
      <trkpt lat="46.09263" lon="2.693">
        <ele>618</ele>
        <time>2015-10-23T15:57:35Z</time>
      </trkpt>
      <trkpt lat="46.09263" lon="2.69291">
        <ele>617</ele>
        <time>2015-10-23T15:57:39Z</time>
      </trkpt>
      <trkpt lat="46.09266" lon="2.69278">
        <ele>617</ele>
        <time>2015-10-23T15:57:43Z</time>
      </trkpt>
      <trkpt lat="46.09272" lon="2.69267">
        <ele>617</ele>
        <time>2015-10-23T15:57:47Z</time>
      </trkpt>
      <trkpt lat="46.09279" lon="2.69254">
        <ele>617</ele>
        <time>2015-10-23T15:57:51Z</time>
      </trkpt>
      <trkpt lat="46.09283" lon="2.69246">
        <ele>617</ele>
        <time>2015-10-23T15:57:55Z</time>
      </trkpt>
      <trkpt lat="46.0929" lon="2.69237">
        <ele>617</ele>
        <time>2015-10-23T15:57:59Z</time>
      </trkpt>
      <trkpt lat="46.09295" lon="2.69222">
        <ele>617</ele>
        <time>2015-10-23T15:58:03Z</time>
      </trkpt>
      <trkpt lat="46.09303" lon="2.69212">
        <ele>617</ele>
        <time>2015-10-23T15:58:07Z</time>
      </trkpt>
      <trkpt lat="46.09308" lon="2.69202">
        <ele>617</ele>
        <time>2015-10-23T15:58:11Z</time>
      </trkpt>
      <trkpt lat="46.09314" lon="2.69189">
        <ele>617</ele>
        <time>2015-10-23T15:58:15Z</time>
      </trkpt>
      <trkpt lat="46.09324" lon="2.69178">
        <ele>617</ele>
        <time>2015-10-23T15:58:19Z</time>
      </trkpt>
      <trkpt lat="46.09329" lon="2.69168">
        <ele>617</ele>
        <time>2015-10-23T15:58:23Z</time>
      </trkpt>
      <trkpt lat="46.09339" lon="2.69161">
        <ele>617</ele>
        <time>2015-10-23T15:58:27Z</time>
      </trkpt>
      <trkpt lat="46.09343" lon="2.69156">
        <ele>617</ele>
        <time>2015-10-23T15:58:31Z</time>
      </trkpt>
      <trkpt lat="46.0935" lon="2.69145">
        <ele>617</ele>
        <time>2015-10-23T15:58:35Z</time>
      </trkpt>
      <trkpt lat="46.09354" lon="2.69137">
        <ele>617</ele>
        <time>2015-10-23T15:58:39Z</time>
      </trkpt>
      <trkpt lat="46.09362" lon="2.69128">
        <ele>617</ele>
        <time>2015-10-23T15:58:43Z</time>
      </trkpt>
      <trkpt lat="46.09368" lon="2.6912">
        <ele>617</ele>
        <time>2015-10-23T15:58:47Z</time>
      </trkpt>
      <trkpt lat="46.09372" lon="2.69109">
        <ele>618</ele>
        <time>2015-10-23T15:58:51Z</time>
      </trkpt>
      <trkpt lat="46.09377" lon="2.69095">
        <ele>618</ele>
        <time>2015-10-23T15:58:55Z</time>
      </trkpt>
      <trkpt lat="46.09385" lon="2.69082">
        <ele>619</ele>
        <time>2015-10-23T15:58:59Z</time>
      </trkpt>
      <trkpt lat="46.09392" lon="2.69068">
        <ele>619</ele>
        <time>2015-10-23T15:59:03Z</time>
      </trkpt>
      <trkpt lat="46.09397" lon="2.69058">
        <ele>619</ele>
        <time>2015-10-23T15:59:07Z</time>
      </trkpt>
      <trkpt lat="46.09405" lon="2.69052">
        <ele>619</ele>
        <time>2015-10-23T15:59:11Z</time>
      </trkpt>
      <trkpt lat="46.09417" lon="2.69046">
        <ele>619</ele>
        <time>2015-10-23T15:59:15Z</time>
      </trkpt>
      <trkpt lat="46.09429" lon="2.69036">
        <ele>620</ele>
        <time>2015-10-23T15:59:19Z</time>
      </trkpt>
      <trkpt lat="46.09439" lon="2.69033">
        <ele>620</ele>
        <time>2015-10-23T15:59:23Z</time>
      </trkpt>
      <trkpt lat="46.09449" lon="2.69033">
        <ele>621</ele>
        <time>2015-10-23T15:59:27Z</time>
      </trkpt>
      <trkpt lat="46.09457" lon="2.69031">
        <ele>621</ele>
        <time>2015-10-23T15:59:31Z</time>
      </trkpt>
      <trkpt lat="46.09467" lon="2.69027">
        <ele>621</ele>
        <time>2015-10-23T15:59:35Z</time>
      </trkpt>
      <trkpt lat="46.09476" lon="2.69026">
        <ele>622</ele>
        <time>2015-10-23T15:59:39Z</time>
      </trkpt>
      <trkpt lat="46.09494" lon="2.69023">
        <ele>622</ele>
        <time>2015-10-23T15:59:43Z</time>
      </trkpt>
      <trkpt lat="46.09508" lon="2.69018">
        <ele>622</ele>
        <time>2015-10-23T15:59:47Z</time>
      </trkpt>
      <trkpt lat="46.09523" lon="2.69013">
        <ele>623</ele>
        <time>2015-10-23T15:59:51Z</time>
      </trkpt>
      <trkpt lat="46.09539" lon="2.69015">
        <ele>622</ele>
        <time>2015-10-23T15:59:55Z</time>
      </trkpt>
      <trkpt lat="46.09556" lon="2.69017">
        <ele>621</ele>
        <time>2015-10-23T15:59:59Z</time>
      </trkpt>
      <trkpt lat="46.09577" lon="2.69013">
        <ele>620</ele>
        <time>2015-10-23T16:00:03Z</time>
      </trkpt>
      <trkpt lat="46.09598" lon="2.69013">
        <ele>620</ele>
        <time>2015-10-23T16:00:07Z</time>
      </trkpt>
      <trkpt lat="46.0962" lon="2.69012">
        <ele>619</ele>
        <time>2015-10-23T16:00:11Z</time>
      </trkpt>
      <trkpt lat="46.09641" lon="2.6901">
        <ele>618</ele>
        <time>2015-10-23T16:00:15Z</time>
      </trkpt>
      <trkpt lat="46.09663" lon="2.69008">
        <ele>618</ele>
        <time>2015-10-23T16:00:19Z</time>
      </trkpt>
      <trkpt lat="46.09684" lon="2.69005">
        <ele>618</ele>
        <time>2015-10-23T16:00:23Z</time>
      </trkpt>
      <trkpt lat="46.09707" lon="2.69">
        <ele>617</ele>
        <time>2015-10-23T16:00:27Z</time>
      </trkpt>
      <trkpt lat="46.09732" lon="2.68995">
        <ele>615</ele>
        <time>2015-10-23T16:00:31Z</time>
      </trkpt>
      <trkpt lat="46.09758" lon="2.68988">
        <ele>614</ele>
        <time>2015-10-23T16:00:35Z</time>
      </trkpt>
      <trkpt lat="46.09786" lon="2.68983">
        <ele>612</ele>
        <time>2015-10-23T16:00:39Z</time>
      </trkpt>
      <trkpt lat="46.09815" lon="2.6898">
        <ele>610</ele>
        <time>2015-10-23T16:00:43Z</time>
      </trkpt>
      <trkpt lat="46.09846" lon="2.68973">
        <ele>608</ele>
        <time>2015-10-23T16:00:47Z</time>
      </trkpt>
      <trkpt lat="46.09872" lon="2.68959">
        <ele>607</ele>
        <time>2015-10-23T16:00:51Z</time>
      </trkpt>
      <trkpt lat="46.09898" lon="2.68944">
        <ele>605</ele>
        <time>2015-10-23T16:00:55Z</time>
      </trkpt>
      <trkpt lat="46.09923" lon="2.6893">
        <ele>604</ele>
        <time>2015-10-23T16:00:59Z</time>
      </trkpt>
      <trkpt lat="46.09947" lon="2.68912">
        <ele>603</ele>
        <time>2015-10-23T16:01:03Z</time>
      </trkpt>
      <trkpt lat="46.09969" lon="2.68894">
        <ele>602</ele>
        <time>2015-10-23T16:01:07Z</time>
      </trkpt>
      <trkpt lat="46.09997" lon="2.68877">
        <ele>598</ele>
        <time>2015-10-23T16:01:11Z</time>
      </trkpt>
      <trkpt lat="46.10024" lon="2.68872">
        <ele>595</ele>
        <time>2015-10-23T16:01:15Z</time>
      </trkpt>
      <trkpt lat="46.10057" lon="2.68877">
        <ele>591</ele>
        <time>2015-10-23T16:01:19Z</time>
      </trkpt>
      <trkpt lat="46.10086" lon="2.6888">
        <ele>588</ele>
        <time>2015-10-23T16:01:23Z</time>
      </trkpt>
      <trkpt lat="46.10114" lon="2.68884">
        <ele>585</ele>
        <time>2015-10-23T16:01:27Z</time>
      </trkpt>
      <trkpt lat="46.10134" lon="2.68889">
        <ele>582</ele>
        <time>2015-10-23T16:01:31Z</time>
      </trkpt>
      <trkpt lat="46.10147" lon="2.68891">
        <ele>581</ele>
        <time>2015-10-23T16:01:35Z</time>
      </trkpt>
      <trkpt lat="46.10158" lon="2.68895">
        <ele>581</ele>
        <time>2015-10-23T16:01:39Z</time>
      </trkpt>
      <trkpt lat="46.10173" lon="2.68905">
        <ele>580</ele>
        <time>2015-10-23T16:01:43Z</time>
      </trkpt>
      <trkpt lat="46.10193" lon="2.68913">
        <ele>579</ele>
        <time>2015-10-23T16:01:47Z</time>
      </trkpt>
      <trkpt lat="46.10214" lon="2.68922">
        <ele>577</ele>
        <time>2015-10-23T16:01:51Z</time>
      </trkpt>
      <trkpt lat="46.10238" lon="2.68932">
        <ele>576</ele>
        <time>2015-10-23T16:01:55Z</time>
      </trkpt>
      <trkpt lat="46.10261" lon="2.6894">
        <ele>575</ele>
        <time>2015-10-23T16:01:59Z</time>
      </trkpt>
      <trkpt lat="46.10283" lon="2.68952">
        <ele>574</ele>
        <time>2015-10-23T16:02:03Z</time>
      </trkpt>
      <trkpt lat="46.10307" lon="2.68967">
        <ele>572</ele>
        <time>2015-10-23T16:02:07Z</time>
      </trkpt>
      <trkpt lat="46.10334" lon="2.68977">
        <ele>570</ele>
        <time>2015-10-23T16:02:11Z</time>
      </trkpt>
      <trkpt lat="46.1036" lon="2.6899">
        <ele>568</ele>
        <time>2015-10-23T16:02:15Z</time>
      </trkpt>
      <trkpt lat="46.10387" lon="2.69008">
        <ele>566</ele>
        <time>2015-10-23T16:02:19Z</time>
      </trkpt>
      <trkpt lat="46.10415" lon="2.69026">
        <ele>564</ele>
        <time>2015-10-23T16:02:23Z</time>
      </trkpt>
      <trkpt lat="46.10444" lon="2.69045">
        <ele>562</ele>
        <time>2015-10-23T16:02:27Z</time>
      </trkpt>
      <trkpt lat="46.10475" lon="2.69063">
        <ele>560</ele>
        <time>2015-10-23T16:02:31Z</time>
      </trkpt>
      <trkpt lat="46.10499" lon="2.69085">
        <ele>558</ele>
        <time>2015-10-23T16:02:35Z</time>
      </trkpt>
      <trkpt lat="46.10528" lon="2.69103">
        <ele>556</ele>
        <time>2015-10-23T16:02:39Z</time>
      </trkpt>
      <trkpt lat="46.10557" lon="2.69123">
        <ele>555</ele>
        <time>2015-10-23T16:02:43Z</time>
      </trkpt>
      <trkpt lat="46.10585" lon="2.69135">
        <ele>555</ele>
        <time>2015-10-23T16:02:47Z</time>
      </trkpt>
      <trkpt lat="46.10611" lon="2.6914">
        <ele>555</ele>
        <time>2015-10-23T16:02:51Z</time>
      </trkpt>
      <trkpt lat="46.10637" lon="2.69147">
        <ele>555</ele>
        <time>2015-10-23T16:02:55Z</time>
      </trkpt>
      <trkpt lat="46.1066" lon="2.69159">
        <ele>554</ele>
        <time>2015-10-23T16:02:59Z</time>
      </trkpt>
      <trkpt lat="46.10682" lon="2.69164">
        <ele>554</ele>
        <time>2015-10-23T16:03:03Z</time>
      </trkpt>
      <trkpt lat="46.10704" lon="2.69175">
        <ele>554</ele>
        <time>2015-10-23T16:03:07Z</time>
      </trkpt>
      <trkpt lat="46.10722" lon="2.69188">
        <ele>555</ele>
        <time>2015-10-23T16:03:11Z</time>
      </trkpt>
      <trkpt lat="46.10735" lon="2.69205">
        <ele>555</ele>
        <time>2015-10-23T16:03:15Z</time>
      </trkpt>
      <trkpt lat="46.10748" lon="2.69217">
        <ele>556</ele>
        <time>2015-10-23T16:03:19Z</time>
      </trkpt>
      <trkpt lat="46.10763" lon="2.69228">
        <ele>556</ele>
        <time>2015-10-23T16:03:23Z</time>
      </trkpt>
      <trkpt lat="46.10782" lon="2.69241">
        <ele>557</ele>
        <time>2015-10-23T16:03:27Z</time>
      </trkpt>
      <trkpt lat="46.108" lon="2.69253">
        <ele>557</ele>
        <time>2015-10-23T16:03:31Z</time>
      </trkpt>
      <trkpt lat="46.1081" lon="2.6927">
        <ele>558</ele>
        <time>2015-10-23T16:03:35Z</time>
      </trkpt>
      <trkpt lat="46.10825" lon="2.69288">
        <ele>558</ele>
        <time>2015-10-23T16:03:39Z</time>
      </trkpt>
      <trkpt lat="46.10833" lon="2.69295">
        <ele>559</ele>
        <time>2015-10-23T16:03:43Z</time>
      </trkpt>
      <trkpt lat="46.10846" lon="2.69298">
        <ele>559</ele>
        <time>2015-10-23T16:03:47Z</time>
      </trkpt>
      <trkpt lat="46.10862" lon="2.69308">
        <ele>559</ele>
        <time>2015-10-23T16:03:51Z</time>
      </trkpt>
      <trkpt lat="46.10873" lon="2.69307">
        <ele>560</ele>
        <time>2015-10-23T16:03:55Z</time>
      </trkpt>
      <trkpt lat="46.10891" lon="2.69305">
        <ele>561</ele>
        <time>2015-10-23T16:03:59Z</time>
      </trkpt>
      <trkpt lat="46.10904" lon="2.69302">
        <ele>561</ele>
        <time>2015-10-23T16:04:03Z</time>
      </trkpt>
      <trkpt lat="46.10921" lon="2.69309">
        <ele>562</ele>
        <time>2015-10-23T16:04:07Z</time>
      </trkpt>
      <trkpt lat="46.10936" lon="2.69307">
        <ele>562</ele>
        <time>2015-10-23T16:04:11Z</time>
      </trkpt>
      <trkpt lat="46.10953" lon="2.69304">
        <ele>563</ele>
        <time>2015-10-23T16:04:15Z</time>
      </trkpt>
      <trkpt lat="46.10965" lon="2.69302">
        <ele>563</ele>
        <time>2015-10-23T16:04:19Z</time>
      </trkpt>
      <trkpt lat="46.10977" lon="2.69283">
        <ele>563</ele>
        <time>2015-10-23T16:04:23Z</time>
      </trkpt>
      <trkpt lat="46.10979" lon="2.69268">
        <ele>564</ele>
        <time>2015-10-23T16:04:27Z</time>
      </trkpt>
      <trkpt lat="46.10982" lon="2.69249">
        <ele>564</ele>
        <time>2015-10-23T16:04:31Z</time>
      </trkpt>
      <trkpt lat="46.1098" lon="2.69219">
        <ele>564</ele>
        <time>2015-10-23T16:04:35Z</time>
      </trkpt>
      <trkpt lat="46.10982" lon="2.69193">
        <ele>565</ele>
        <time>2015-10-23T16:04:39Z</time>
      </trkpt>
      <trkpt lat="46.10978" lon="2.69168">
        <ele>565</ele>
        <time>2015-10-23T16:04:43Z</time>
      </trkpt>
      <trkpt lat="46.10974" lon="2.69145">
        <ele>565</ele>
        <time>2015-10-23T16:04:47Z</time>
      </trkpt>
      <trkpt lat="46.10976" lon="2.69122">
        <ele>565</ele>
        <time>2015-10-23T16:04:51Z</time>
      </trkpt>
      <trkpt lat="46.10972" lon="2.69097">
        <ele>565</ele>
        <time>2015-10-23T16:04:55Z</time>
      </trkpt>
      <trkpt lat="46.10969" lon="2.69074">
        <ele>565</ele>
        <time>2015-10-23T16:04:59Z</time>
      </trkpt>
      <trkpt lat="46.10968" lon="2.6905">
        <ele>565</ele>
        <time>2015-10-23T16:05:03Z</time>
      </trkpt>
      <trkpt lat="46.10965" lon="2.69033">
        <ele>565</ele>
        <time>2015-10-23T16:05:07Z</time>
      </trkpt>
      <trkpt lat="46.10961" lon="2.69007">
        <ele>566</ele>
        <time>2015-10-23T16:05:11Z</time>
      </trkpt>
      <trkpt lat="46.10959" lon="2.68978">
        <ele>566</ele>
        <time>2015-10-23T16:05:15Z</time>
      </trkpt>
      <trkpt lat="46.10958" lon="2.68954">
        <ele>567</ele>
        <time>2015-10-23T16:05:19Z</time>
      </trkpt>
      <trkpt lat="46.10952" lon="2.68928">
        <ele>567</ele>
        <time>2015-10-23T16:05:23Z</time>
      </trkpt>
      <trkpt lat="46.10947" lon="2.68903">
        <ele>567</ele>
        <time>2015-10-23T16:05:27Z</time>
      </trkpt>
      <trkpt lat="46.10942" lon="2.68875">
        <ele>568</ele>
        <time>2015-10-23T16:05:31Z</time>
      </trkpt>
      <trkpt lat="46.1094" lon="2.6885">
        <ele>568</ele>
        <time>2015-10-23T16:05:35Z</time>
      </trkpt>
      <trkpt lat="46.10938" lon="2.68824">
        <ele>569</ele>
        <time>2015-10-23T16:05:39Z</time>
      </trkpt>
      <trkpt lat="46.10937" lon="2.68793">
        <ele>569</ele>
        <time>2015-10-23T16:05:43Z</time>
      </trkpt>
      <trkpt lat="46.10939" lon="2.68764">
        <ele>570</ele>
        <time>2015-10-23T16:05:47Z</time>
      </trkpt>
      <trkpt lat="46.10939" lon="2.68741">
        <ele>570</ele>
        <time>2015-10-23T16:05:51Z</time>
      </trkpt>
      <trkpt lat="46.10944" lon="2.68717">
        <ele>571</ele>
        <time>2015-10-23T16:05:55Z</time>
      </trkpt>
      <trkpt lat="46.10951" lon="2.6869">
        <ele>571</ele>
        <time>2015-10-23T16:05:59Z</time>
      </trkpt>
      <trkpt lat="46.1096" lon="2.68669">
        <ele>571</ele>
        <time>2015-10-23T16:06:03Z</time>
      </trkpt>
      <trkpt lat="46.10968" lon="2.68646">
        <ele>571</ele>
        <time>2015-10-23T16:06:07Z</time>
      </trkpt>
      <trkpt lat="46.1098" lon="2.68623">
        <ele>572</ele>
        <time>2015-10-23T16:06:11Z</time>
      </trkpt>
      <trkpt lat="46.10989" lon="2.68606">
        <ele>572</ele>
        <time>2015-10-23T16:06:15Z</time>
      </trkpt>
      <trkpt lat="46.10999" lon="2.6859">
        <ele>572</ele>
        <time>2015-10-23T16:06:19Z</time>
      </trkpt>
      <trkpt lat="46.11012" lon="2.68569">
        <ele>572</ele>
        <time>2015-10-23T16:06:23Z</time>
      </trkpt>
      <trkpt lat="46.11029" lon="2.68545">
        <ele>572</ele>
        <time>2015-10-23T16:06:27Z</time>
      </trkpt>
      <trkpt lat="46.11044" lon="2.68519">
        <ele>571</ele>
        <time>2015-10-23T16:06:31Z</time>
      </trkpt>
      <trkpt lat="46.1106" lon="2.68494">
        <ele>571</ele>
        <time>2015-10-23T16:06:35Z</time>
      </trkpt>
      <trkpt lat="46.11077" lon="2.68473">
        <ele>570</ele>
        <time>2015-10-23T16:06:39Z</time>
      </trkpt>
      <trkpt lat="46.11107" lon="2.68462">
        <ele>568</ele>
        <time>2015-10-23T16:06:43Z</time>
      </trkpt>
      <trkpt lat="46.11142" lon="2.68455">
        <ele>566</ele>
        <time>2015-10-23T16:06:47Z</time>
      </trkpt>
      <trkpt lat="46.11165" lon="2.68433">
        <ele>566</ele>
        <time>2015-10-23T16:06:51Z</time>
      </trkpt>
      <trkpt lat="46.11182" lon="2.68405">
        <ele>566</ele>
        <time>2015-10-23T16:06:55Z</time>
      </trkpt>
      <trkpt lat="46.11205" lon="2.68383">
        <ele>566</ele>
        <time>2015-10-23T16:06:59Z</time>
      </trkpt>
      <trkpt lat="46.11221" lon="2.68364">
        <ele>568</ele>
        <time>2015-10-23T16:07:03Z</time>
      </trkpt>
      <trkpt lat="46.11234" lon="2.68345">
        <ele>569</ele>
        <time>2015-10-23T16:07:07Z</time>
      </trkpt>
      <trkpt lat="46.11246" lon="2.68321">
        <ele>570</ele>
        <time>2015-10-23T16:07:11Z</time>
      </trkpt>
      <trkpt lat="46.11257" lon="2.68299">
        <ele>572</ele>
        <time>2015-10-23T16:07:15Z</time>
      </trkpt>
      <trkpt lat="46.11265" lon="2.6828">
        <ele>572</ele>
        <time>2015-10-23T16:07:19Z</time>
      </trkpt>
      <trkpt lat="46.11274" lon="2.6826">
        <ele>573</ele>
        <time>2015-10-23T16:07:23Z</time>
      </trkpt>
      <trkpt lat="46.11275" lon="2.68238">
        <ele>574</ele>
        <time>2015-10-23T16:07:27Z</time>
      </trkpt>
      <trkpt lat="46.11283" lon="2.68213">
        <ele>575</ele>
        <time>2015-10-23T16:07:31Z</time>
      </trkpt>
      <trkpt lat="46.11288" lon="2.68192">
        <ele>576</ele>
        <time>2015-10-23T16:07:35Z</time>
      </trkpt>
      <trkpt lat="46.11293" lon="2.68174">
        <ele>577</ele>
        <time>2015-10-23T16:07:39Z</time>
      </trkpt>
      <trkpt lat="46.11297" lon="2.68155">
        <ele>578</ele>
        <time>2015-10-23T16:07:43Z</time>
      </trkpt>
      <trkpt lat="46.11305" lon="2.68135">
        <ele>578</ele>
        <time>2015-10-23T16:07:47Z</time>
      </trkpt>
      <trkpt lat="46.1131" lon="2.68115">
        <ele>579</ele>
        <time>2015-10-23T16:07:51Z</time>
      </trkpt>
      <trkpt lat="46.11314" lon="2.68092">
        <ele>579</ele>
        <time>2015-10-23T16:07:55Z</time>
      </trkpt>
      <trkpt lat="46.11321" lon="2.68071">
        <ele>579</ele>
        <time>2015-10-23T16:07:59Z</time>
      </trkpt>
      <trkpt lat="46.11329" lon="2.68047">
        <ele>578</ele>
        <time>2015-10-23T16:08:03Z</time>
      </trkpt>
      <trkpt lat="46.11331" lon="2.68021">
        <ele>579</ele>
        <time>2015-10-23T16:08:07Z</time>
      </trkpt>
      <trkpt lat="46.11334" lon="2.67993">
        <ele>579</ele>
        <time>2015-10-23T16:08:11Z</time>
      </trkpt>
      <trkpt lat="46.11338" lon="2.67966">
        <ele>578</ele>
        <time>2015-10-23T16:08:15Z</time>
      </trkpt>
      <trkpt lat="46.11344" lon="2.6794">
        <ele>579</ele>
        <time>2015-10-23T16:08:19Z</time>
      </trkpt>
      <trkpt lat="46.11352" lon="2.67917">
        <ele>579</ele>
        <time>2015-10-23T16:08:23Z</time>
      </trkpt>
      <trkpt lat="46.11357" lon="2.67895">
        <ele>579</ele>
        <time>2015-10-23T16:08:27Z</time>
      </trkpt>
      <trkpt lat="46.11364" lon="2.67869">
        <ele>579</ele>
        <time>2015-10-23T16:08:31Z</time>
      </trkpt>
      <trkpt lat="46.11369" lon="2.67845">
        <ele>578</ele>
        <time>2015-10-23T16:08:35Z</time>
      </trkpt>
      <trkpt lat="46.11379" lon="2.67819">
        <ele>577</ele>
        <time>2015-10-23T16:08:39Z</time>
      </trkpt>
      <trkpt lat="46.11394" lon="2.67794">
        <ele>577</ele>
        <time>2015-10-23T16:08:43Z</time>
      </trkpt>
      <trkpt lat="46.11417" lon="2.67769">
        <ele>577</ele>
        <time>2015-10-23T16:08:47Z</time>
      </trkpt>
      <trkpt lat="46.1144" lon="2.67745">
        <ele>577</ele>
        <time>2015-10-23T16:08:51Z</time>
      </trkpt>
      <trkpt lat="46.11462" lon="2.67723">
        <ele>577</ele>
        <time>2015-10-23T16:08:55Z</time>
      </trkpt>
      <trkpt lat="46.11482" lon="2.67707">
        <ele>576</ele>
        <time>2015-10-23T16:08:59Z</time>
      </trkpt>
      <trkpt lat="46.11504" lon="2.67691">
        <ele>577</ele>
        <time>2015-10-23T16:09:03Z</time>
      </trkpt>
      <trkpt lat="46.11523" lon="2.67669">
        <ele>577</ele>
        <time>2015-10-23T16:09:07Z</time>
      </trkpt>
      <trkpt lat="46.11534" lon="2.67645">
        <ele>578</ele>
        <time>2015-10-23T16:09:11Z</time>
      </trkpt>
      <trkpt lat="46.11543" lon="2.67621">
        <ele>579</ele>
        <time>2015-10-23T16:09:15Z</time>
      </trkpt>
      <trkpt lat="46.11551" lon="2.67602">
        <ele>579</ele>
        <time>2015-10-23T16:09:19Z</time>
      </trkpt>
      <trkpt lat="46.11563" lon="2.67582">
        <ele>581</ele>
        <time>2015-10-23T16:09:23Z</time>
      </trkpt>
      <trkpt lat="46.11567" lon="2.67566">
        <ele>582</ele>
        <time>2015-10-23T16:09:27Z</time>
      </trkpt>
      <trkpt lat="46.11576" lon="2.6755">
        <ele>583</ele>
        <time>2015-10-23T16:09:31Z</time>
      </trkpt>
      <trkpt lat="46.11581" lon="2.67536">
        <ele>584</ele>
        <time>2015-10-23T16:09:35Z</time>
      </trkpt>
      <trkpt lat="46.1159" lon="2.67523">
        <ele>585</ele>
        <time>2015-10-23T16:09:39Z</time>
      </trkpt>
      <trkpt lat="46.11597" lon="2.67508">
        <ele>586</ele>
        <time>2015-10-23T16:09:43Z</time>
      </trkpt>
      <trkpt lat="46.11601" lon="2.67492">
        <ele>587</ele>
        <time>2015-10-23T16:09:47Z</time>
      </trkpt>
      <trkpt lat="46.11604" lon="2.67475">
        <ele>588</ele>
        <time>2015-10-23T16:09:51Z</time>
      </trkpt>
      <trkpt lat="46.1161" lon="2.67459">
        <ele>588</ele>
        <time>2015-10-23T16:09:55Z</time>
      </trkpt>
      <trkpt lat="46.11619" lon="2.67445">
        <ele>589</ele>
        <time>2015-10-23T16:09:59Z</time>
      </trkpt>
      <trkpt lat="46.11623" lon="2.67432">
        <ele>590</ele>
        <time>2015-10-23T16:10:03Z</time>
      </trkpt>
      <trkpt lat="46.11628" lon="2.67425">
        <ele>591</ele>
        <time>2015-10-23T16:10:07Z</time>
      </trkpt>
      <trkpt lat="46.11639" lon="2.67416">
        <ele>592</ele>
        <time>2015-10-23T16:10:11Z</time>
      </trkpt>
      <trkpt lat="46.11652" lon="2.67405">
        <ele>592</ele>
        <time>2015-10-23T16:10:15Z</time>
      </trkpt>
      <trkpt lat="46.11663" lon="2.67398">
        <ele>593</ele>
        <time>2015-10-23T16:10:19Z</time>
      </trkpt>
      <trkpt lat="46.11674" lon="2.67393">
        <ele>594</ele>
        <time>2015-10-23T16:10:23Z</time>
      </trkpt>
      <trkpt lat="46.11685" lon="2.6739">
        <ele>595</ele>
        <time>2015-10-23T16:10:27Z</time>
      </trkpt>
      <trkpt lat="46.11696" lon="2.67387">
        <ele>596</ele>
        <time>2015-10-23T16:10:31Z</time>
      </trkpt>
      <trkpt lat="46.11707" lon="2.67382">
        <ele>596</ele>
        <time>2015-10-23T16:10:35Z</time>
      </trkpt>
      <trkpt lat="46.1172" lon="2.67373">
        <ele>597</ele>
        <time>2015-10-23T16:10:39Z</time>
      </trkpt>
      <trkpt lat="46.11732" lon="2.67367">
        <ele>597</ele>
        <time>2015-10-23T16:10:43Z</time>
      </trkpt>
      <trkpt lat="46.11743" lon="2.67363">
        <ele>598</ele>
        <time>2015-10-23T16:10:47Z</time>
      </trkpt>
      <trkpt lat="46.11757" lon="2.67357">
        <ele>598</ele>
        <time>2015-10-23T16:10:51Z</time>
      </trkpt>
      <trkpt lat="46.1177" lon="2.67351">
        <ele>598</ele>
        <time>2015-10-23T16:10:55Z</time>
      </trkpt>
      <trkpt lat="46.11785" lon="2.67341">
        <ele>597</ele>
        <time>2015-10-23T16:10:59Z</time>
      </trkpt>
      <trkpt lat="46.11801" lon="2.67327">
        <ele>597</ele>
        <time>2015-10-23T16:11:03Z</time>
      </trkpt>
      <trkpt lat="46.11819" lon="2.67313">
        <ele>596</ele>
        <time>2015-10-23T16:11:07Z</time>
      </trkpt>
      <trkpt lat="46.11833" lon="2.67299">
        <ele>596</ele>
        <time>2015-10-23T16:11:11Z</time>
      </trkpt>
      <trkpt lat="46.11845" lon="2.67271">
        <ele>595</ele>
        <time>2015-10-23T16:11:15Z</time>
      </trkpt>
      <trkpt lat="46.11861" lon="2.67239">
        <ele>593</ele>
        <time>2015-10-23T16:11:19Z</time>
      </trkpt>
      <trkpt lat="46.11878" lon="2.6721">
        <ele>593</ele>
        <time>2015-10-23T16:11:23Z</time>
      </trkpt>
      <trkpt lat="46.119" lon="2.67183">
        <ele>592</ele>
        <time>2015-10-23T16:11:27Z</time>
      </trkpt>
      <trkpt lat="46.11921" lon="2.67159">
        <ele>592</ele>
        <time>2015-10-23T16:11:31Z</time>
      </trkpt>
      <trkpt lat="46.11941" lon="2.67134">
        <ele>591</ele>
        <time>2015-10-23T16:11:35Z</time>
      </trkpt>
      <trkpt lat="46.11957" lon="2.67098">
        <ele>590</ele>
        <time>2015-10-23T16:11:39Z</time>
      </trkpt>
      <trkpt lat="46.11973" lon="2.67064">
        <ele>589</ele>
        <time>2015-10-23T16:11:43Z</time>
      </trkpt>
      <trkpt lat="46.11989" lon="2.67024">
        <ele>588</ele>
        <time>2015-10-23T16:11:47Z</time>
      </trkpt>
      <trkpt lat="46.12003" lon="2.66987">
        <ele>588</ele>
        <time>2015-10-23T16:11:51Z</time>
      </trkpt>
      <trkpt lat="46.12016" lon="2.66949">
        <ele>589</ele>
        <time>2015-10-23T16:11:55Z</time>
      </trkpt>
      <trkpt lat="46.12026" lon="2.66916">
        <ele>590</ele>
        <time>2015-10-23T16:11:59Z</time>
      </trkpt>
      <trkpt lat="46.12033" lon="2.66883">
        <ele>590</ele>
        <time>2015-10-23T16:12:03Z</time>
      </trkpt>
      <trkpt lat="46.12037" lon="2.66852">
        <ele>591</ele>
        <time>2015-10-23T16:12:07Z</time>
      </trkpt>
      <trkpt lat="46.12042" lon="2.66826">
        <ele>592</ele>
        <time>2015-10-23T16:12:11Z</time>
      </trkpt>
      <trkpt lat="46.12048" lon="2.66797">
        <ele>592</ele>
        <time>2015-10-23T16:12:15Z</time>
      </trkpt>
      <trkpt lat="46.12058" lon="2.66774">
        <ele>593</ele>
        <time>2015-10-23T16:12:19Z</time>
      </trkpt>
      <trkpt lat="46.12067" lon="2.66754">
        <ele>594</ele>
        <time>2015-10-23T16:12:23Z</time>
      </trkpt>
      <trkpt lat="46.12079" lon="2.6674">
        <ele>595</ele>
        <time>2015-10-23T16:12:27Z</time>
      </trkpt>
      <trkpt lat="46.12093" lon="2.66725">
        <ele>595</ele>
        <time>2015-10-23T16:12:31Z</time>
      </trkpt>
      <trkpt lat="46.12106" lon="2.66711">
        <ele>596</ele>
        <time>2015-10-23T16:12:35Z</time>
      </trkpt>
      <trkpt lat="46.12118" lon="2.66695">
        <ele>596</ele>
        <time>2015-10-23T16:12:39Z</time>
      </trkpt>
      <trkpt lat="46.12134" lon="2.66681">
        <ele>596</ele>
        <time>2015-10-23T16:12:43Z</time>
      </trkpt>
      <trkpt lat="46.12146" lon="2.66667">
        <ele>597</ele>
        <time>2015-10-23T16:12:47Z</time>
      </trkpt>
      <trkpt lat="46.12156" lon="2.66652">
        <ele>598</ele>
        <time>2015-10-23T16:12:51Z</time>
      </trkpt>
      <trkpt lat="46.12168" lon="2.66639">
        <ele>599</ele>
        <time>2015-10-23T16:12:55Z</time>
      </trkpt>
      <trkpt lat="46.12182" lon="2.66622">
        <ele>598</ele>
        <time>2015-10-23T16:12:59Z</time>
      </trkpt>
      <trkpt lat="46.12194" lon="2.666">
        <ele>598</ele>
        <time>2015-10-23T16:13:03Z</time>
      </trkpt>
      <trkpt lat="46.12209" lon="2.66571">
        <ele>596</ele>
        <time>2015-10-23T16:13:07Z</time>
      </trkpt>
      <trkpt lat="46.12225" lon="2.66535">
        <ele>595</ele>
        <time>2015-10-23T16:13:11Z</time>
      </trkpt>
      <trkpt lat="46.12239" lon="2.66499">
        <ele>593</ele>
        <time>2015-10-23T16:13:15Z</time>
      </trkpt>
      <trkpt lat="46.12254" lon="2.66464">
        <ele>593</ele>
        <time>2015-10-23T16:13:19Z</time>
      </trkpt>
      <trkpt lat="46.12267" lon="2.66429">
        <ele>592</ele>
        <time>2015-10-23T16:13:23Z</time>
      </trkpt>
      <trkpt lat="46.12277" lon="2.66392">
        <ele>593</ele>
        <time>2015-10-23T16:13:27Z</time>
      </trkpt>
      <trkpt lat="46.12289" lon="2.66357">
        <ele>594</ele>
        <time>2015-10-23T16:13:31Z</time>
      </trkpt>
      <trkpt lat="46.12304" lon="2.66328">
        <ele>595</ele>
        <time>2015-10-23T16:13:35Z</time>
      </trkpt>
      <trkpt lat="46.12315" lon="2.66304">
        <ele>595</ele>
        <time>2015-10-23T16:13:39Z</time>
      </trkpt>
      <trkpt lat="46.1233" lon="2.66285">
        <ele>596</ele>
        <time>2015-10-23T16:13:43Z</time>
      </trkpt>
      <trkpt lat="46.12345" lon="2.66265">
        <ele>596</ele>
        <time>2015-10-23T16:13:47Z</time>
      </trkpt>
      <trkpt lat="46.12356" lon="2.66245">
        <ele>597</ele>
        <time>2015-10-23T16:13:51Z</time>
      </trkpt>
      <trkpt lat="46.12368" lon="2.66225">
        <ele>598</ele>
        <time>2015-10-23T16:13:55Z</time>
      </trkpt>
      <trkpt lat="46.12379" lon="2.66204">
        <ele>598</ele>
        <time>2015-10-23T16:13:59Z</time>
      </trkpt>
      <trkpt lat="46.1239" lon="2.66182">
        <ele>599</ele>
        <time>2015-10-23T16:14:03Z</time>
      </trkpt>
      <trkpt lat="46.12403" lon="2.66159">
        <ele>599</ele>
        <time>2015-10-23T16:14:07Z</time>
      </trkpt>
      <trkpt lat="46.12413" lon="2.66138">
        <ele>600</ele>
        <time>2015-10-23T16:14:11Z</time>
      </trkpt>
      <trkpt lat="46.12423" lon="2.66114">
        <ele>600</ele>
        <time>2015-10-23T16:14:15Z</time>
      </trkpt>
      <trkpt lat="46.12431" lon="2.66091">
        <ele>600</ele>
        <time>2015-10-23T16:14:19Z</time>
      </trkpt>
      <trkpt lat="46.12442" lon="2.66066">
        <ele>601</ele>
        <time>2015-10-23T16:14:23Z</time>
      </trkpt>
      <trkpt lat="46.12452" lon="2.66043">
        <ele>601</ele>
        <time>2015-10-23T16:14:27Z</time>
      </trkpt>
      <trkpt lat="46.1246" lon="2.6602">
        <ele>601</ele>
        <time>2015-10-23T16:14:31Z</time>
      </trkpt>
      <trkpt lat="46.12469" lon="2.65997">
        <ele>602</ele>
        <time>2015-10-23T16:14:35Z</time>
      </trkpt>
      <trkpt lat="46.12482" lon="2.65975">
        <ele>602</ele>
        <time>2015-10-23T16:14:39Z</time>
      </trkpt>
      <trkpt lat="46.12492" lon="2.65955">
        <ele>602</ele>
        <time>2015-10-23T16:14:43Z</time>
      </trkpt>
      <trkpt lat="46.12503" lon="2.65936">
        <ele>603</ele>
        <time>2015-10-23T16:14:47Z</time>
      </trkpt>
      <trkpt lat="46.12514" lon="2.65918">
        <ele>603</ele>
        <time>2015-10-23T16:14:51Z</time>
      </trkpt>
      <trkpt lat="46.12527" lon="2.65896">
        <ele>603</ele>
        <time>2015-10-23T16:14:55Z</time>
      </trkpt>
      <trkpt lat="46.12538" lon="2.65875">
        <ele>602</ele>
        <time>2015-10-23T16:14:59Z</time>
      </trkpt>
      <trkpt lat="46.12546" lon="2.65854">
        <ele>602</ele>
        <time>2015-10-23T16:15:03Z</time>
      </trkpt>
      <trkpt lat="46.12554" lon="2.65822">
        <ele>602</ele>
        <time>2015-10-23T16:15:07Z</time>
      </trkpt>
      <trkpt lat="46.12558" lon="2.6579">
        <ele>601</ele>
        <time>2015-10-23T16:15:11Z</time>
      </trkpt>
      <trkpt lat="46.12565" lon="2.65755">
        <ele>599</ele>
        <time>2015-10-23T16:15:15Z</time>
      </trkpt>
      <trkpt lat="46.12573" lon="2.65712">
        <ele>597</ele>
        <time>2015-10-23T16:15:19Z</time>
      </trkpt>
      <trkpt lat="46.12584" lon="2.65667">
        <ele>596</ele>
        <time>2015-10-23T16:15:23Z</time>
      </trkpt>
      <trkpt lat="46.12596" lon="2.65623">
        <ele>596</ele>
        <time>2015-10-23T16:15:27Z</time>
      </trkpt>
      <trkpt lat="46.12607" lon="2.6558">
        <ele>595</ele>
        <time>2015-10-23T16:15:31Z</time>
      </trkpt>
      <trkpt lat="46.1262" lon="2.65536">
        <ele>594</ele>
        <time>2015-10-23T16:15:35Z</time>
      </trkpt>
      <trkpt lat="46.12634" lon="2.65495">
        <ele>593</ele>
        <time>2015-10-23T16:15:39Z</time>
      </trkpt>
      <trkpt lat="46.12644" lon="2.65453">
        <ele>592</ele>
        <time>2015-10-23T16:15:43Z</time>
      </trkpt>
      <trkpt lat="46.12659" lon="2.65412">
        <ele>592</ele>
        <time>2015-10-23T16:15:47Z</time>
      </trkpt>
      <trkpt lat="46.12669" lon="2.65368">
        <ele>592</ele>
        <time>2015-10-23T16:15:51Z</time>
      </trkpt>
      <trkpt lat="46.12682" lon="2.65329">
        <ele>592</ele>
        <time>2015-10-23T16:15:55Z</time>
      </trkpt>
      <trkpt lat="46.12694" lon="2.65294">
        <ele>592</ele>
        <time>2015-10-23T16:15:59Z</time>
      </trkpt>
      <trkpt lat="46.12704" lon="2.65259">
        <ele>593</ele>
        <time>2015-10-23T16:16:03Z</time>
      </trkpt>
      <trkpt lat="46.12713" lon="2.65229">
        <ele>594</ele>
        <time>2015-10-23T16:16:07Z</time>
      </trkpt>
      <trkpt lat="46.12723" lon="2.65199">
        <ele>594</ele>
        <time>2015-10-23T16:16:11Z</time>
      </trkpt>
      <trkpt lat="46.12724" lon="2.65176">
        <ele>595</ele>
        <time>2015-10-23T16:16:15Z</time>
      </trkpt>
      <trkpt lat="46.12732" lon="2.65148">
        <ele>596</ele>
        <time>2015-10-23T16:16:19Z</time>
      </trkpt>
      <trkpt lat="46.12736" lon="2.6512">
        <ele>597</ele>
        <time>2015-10-23T16:16:23Z</time>
      </trkpt>
      <trkpt lat="46.12739" lon="2.65094">
        <ele>598</ele>
        <time>2015-10-23T16:16:27Z</time>
      </trkpt>
      <trkpt lat="46.12739" lon="2.65065">
        <ele>598</ele>
        <time>2015-10-23T16:16:31Z</time>
      </trkpt>
      <trkpt lat="46.12737" lon="2.65037">
        <ele>598</ele>
        <time>2015-10-23T16:16:35Z</time>
      </trkpt>
      <trkpt lat="46.12731" lon="2.65011">
        <ele>597</ele>
        <time>2015-10-23T16:16:39Z</time>
      </trkpt>
      <trkpt lat="46.12734" lon="2.64975">
        <ele>596</ele>
        <time>2015-10-23T16:16:43Z</time>
      </trkpt>
      <trkpt lat="46.1274" lon="2.64944">
        <ele>595</ele>
        <time>2015-10-23T16:16:47Z</time>
      </trkpt>
      <trkpt lat="46.12745" lon="2.64907">
        <ele>594</ele>
        <time>2015-10-23T16:16:51Z</time>
      </trkpt>
      <trkpt lat="46.12754" lon="2.64869">
        <ele>593</ele>
        <time>2015-10-23T16:16:55Z</time>
      </trkpt>
      <trkpt lat="46.12761" lon="2.64826">
        <ele>593</ele>
        <time>2015-10-23T16:16:59Z</time>
      </trkpt>
      <trkpt lat="46.12768" lon="2.64779">
        <ele>592</ele>
        <time>2015-10-23T16:17:03Z</time>
      </trkpt>
      <trkpt lat="46.12769" lon="2.64735">
        <ele>592</ele>
        <time>2015-10-23T16:17:07Z</time>
      </trkpt>
      <trkpt lat="46.12769" lon="2.64692">
        <ele>591</ele>
        <time>2015-10-23T16:17:11Z</time>
      </trkpt>
      <trkpt lat="46.12768" lon="2.64655">
        <ele>591</ele>
        <time>2015-10-23T16:17:15Z</time>
      </trkpt>
      <trkpt lat="46.1277" lon="2.64615">
        <ele>592</ele>
        <time>2015-10-23T16:17:19Z</time>
      </trkpt>
      <trkpt lat="46.12769" lon="2.64579">
        <ele>592</ele>
        <time>2015-10-23T16:17:23Z</time>
      </trkpt>
      <trkpt lat="46.12775" lon="2.64544">
        <ele>593</ele>
        <time>2015-10-23T16:17:27Z</time>
      </trkpt>
      <trkpt lat="46.12787" lon="2.64517">
        <ele>593</ele>
        <time>2015-10-23T16:17:31Z</time>
      </trkpt>
      <trkpt lat="46.12804" lon="2.6449">
        <ele>593</ele>
        <time>2015-10-23T16:17:35Z</time>
      </trkpt>
      <trkpt lat="46.12824" lon="2.64465">
        <ele>593</ele>
        <time>2015-10-23T16:17:39Z</time>
      </trkpt>
      <trkpt lat="46.12842" lon="2.64439">
        <ele>594</ele>
        <time>2015-10-23T16:17:43Z</time>
      </trkpt>
      <trkpt lat="46.12858" lon="2.64415">
        <ele>594</ele>
        <time>2015-10-23T16:17:47Z</time>
      </trkpt>
      <trkpt lat="46.12875" lon="2.64395">
        <ele>594</ele>
        <time>2015-10-23T16:17:51Z</time>
      </trkpt>
      <trkpt lat="46.1289" lon="2.6437">
        <ele>595</ele>
        <time>2015-10-23T16:17:55Z</time>
      </trkpt>
      <trkpt lat="46.12906" lon="2.64344">
        <ele>595</ele>
        <time>2015-10-23T16:17:59Z</time>
      </trkpt>
      <trkpt lat="46.12919" lon="2.6432">
        <ele>594</ele>
        <time>2015-10-23T16:18:03Z</time>
      </trkpt>
      <trkpt lat="46.12933" lon="2.64293">
        <ele>593</ele>
        <time>2015-10-23T16:18:07Z</time>
      </trkpt>
      <trkpt lat="46.12949" lon="2.64265">
        <ele>593</ele>
        <time>2015-10-23T16:18:11Z</time>
      </trkpt>
      <trkpt lat="46.12968" lon="2.64232">
        <ele>592</ele>
        <time>2015-10-23T16:18:15Z</time>
      </trkpt>
      <trkpt lat="46.12987" lon="2.64195">
        <ele>589</ele>
        <time>2015-10-23T16:18:19Z</time>
      </trkpt>
      <trkpt lat="46.13012" lon="2.64153">
        <ele>586</ele>
        <time>2015-10-23T16:18:23Z</time>
      </trkpt>
      <trkpt lat="46.13035" lon="2.64111">
        <ele>584</ele>
        <time>2015-10-23T16:18:27Z</time>
      </trkpt>
      <trkpt lat="46.13057" lon="2.64068">
        <ele>583</ele>
        <time>2015-10-23T16:18:31Z</time>
      </trkpt>
      <trkpt lat="46.13077" lon="2.64024">
        <ele>582</ele>
        <time>2015-10-23T16:18:35Z</time>
      </trkpt>
      <trkpt lat="46.13093" lon="2.63981">
        <ele>582</ele>
        <time>2015-10-23T16:18:39Z</time>
      </trkpt>
      <trkpt lat="46.13105" lon="2.6394">
        <ele>582</ele>
        <time>2015-10-23T16:18:43Z</time>
      </trkpt>
      <trkpt lat="46.13121" lon="2.63905">
        <ele>582</ele>
        <time>2015-10-23T16:18:47Z</time>
      </trkpt>
      <trkpt lat="46.13136" lon="2.63874">
        <ele>582</ele>
        <time>2015-10-23T16:18:51Z</time>
      </trkpt>
      <trkpt lat="46.13154" lon="2.63846">
        <ele>583</ele>
        <time>2015-10-23T16:18:55Z</time>
      </trkpt>
      <trkpt lat="46.13171" lon="2.6382">
        <ele>584</ele>
        <time>2015-10-23T16:18:59Z</time>
      </trkpt>
      <trkpt lat="46.13188" lon="2.63793">
        <ele>584</ele>
        <time>2015-10-23T16:19:03Z</time>
      </trkpt>
      <trkpt lat="46.13205" lon="2.63768">
        <ele>584</ele>
        <time>2015-10-23T16:19:07Z</time>
      </trkpt>
      <trkpt lat="46.13221" lon="2.63742">
        <ele>585</ele>
        <time>2015-10-23T16:19:11Z</time>
      </trkpt>
      <trkpt lat="46.13237" lon="2.63716">
        <ele>585</ele>
        <time>2015-10-23T16:19:15Z</time>
      </trkpt>
      <trkpt lat="46.13253" lon="2.63691">
        <ele>586</ele>
        <time>2015-10-23T16:19:19Z</time>
      </trkpt>
      <trkpt lat="46.13269" lon="2.63671">
        <ele>587</ele>
        <time>2015-10-23T16:19:23Z</time>
      </trkpt>
      <trkpt lat="46.13286" lon="2.63646">
        <ele>587</ele>
        <time>2015-10-23T16:19:27Z</time>
      </trkpt>
      <trkpt lat="46.13301" lon="2.63625">
        <ele>587</ele>
        <time>2015-10-23T16:19:31Z</time>
      </trkpt>
      <trkpt lat="46.13319" lon="2.63604">
        <ele>586</ele>
        <time>2015-10-23T16:19:35Z</time>
      </trkpt>
      <trkpt lat="46.1334" lon="2.63584">
        <ele>586</ele>
        <time>2015-10-23T16:19:39Z</time>
      </trkpt>
      <trkpt lat="46.13362" lon="2.63565">
        <ele>585</ele>
        <time>2015-10-23T16:19:43Z</time>
      </trkpt>
      <trkpt lat="46.13385" lon="2.63542">
        <ele>585</ele>
        <time>2015-10-23T16:19:47Z</time>
      </trkpt>
      <trkpt lat="46.13405" lon="2.63527">
        <ele>585</ele>
        <time>2015-10-23T16:19:51Z</time>
      </trkpt>
      <trkpt lat="46.13426" lon="2.63511">
        <ele>585</ele>
        <time>2015-10-23T16:19:55Z</time>
      </trkpt>
      <trkpt lat="46.13449" lon="2.63493">
        <ele>585</ele>
        <time>2015-10-23T16:19:59Z</time>
      </trkpt>
      <trkpt lat="46.13471" lon="2.63474">
        <ele>584</ele>
        <time>2015-10-23T16:20:03Z</time>
      </trkpt>
      <trkpt lat="46.13491" lon="2.63453">
        <ele>584</ele>
        <time>2015-10-23T16:20:07Z</time>
      </trkpt>
      <trkpt lat="46.13503" lon="2.63427">
        <ele>583</ele>
        <time>2015-10-23T16:20:11Z</time>
      </trkpt>
      <trkpt lat="46.13521" lon="2.63401">
        <ele>583</ele>
        <time>2015-10-23T16:20:15Z</time>
      </trkpt>
      <trkpt lat="46.13537" lon="2.63373">
        <ele>583</ele>
        <time>2015-10-23T16:20:19Z</time>
      </trkpt>
      <trkpt lat="46.13554" lon="2.63341">
        <ele>583</ele>
        <time>2015-10-23T16:20:23Z</time>
      </trkpt>
      <trkpt lat="46.13569" lon="2.63313">
        <ele>583</ele>
        <time>2015-10-23T16:20:27Z</time>
      </trkpt>
      <trkpt lat="46.13585" lon="2.63282">
        <ele>583</ele>
        <time>2015-10-23T16:20:31Z</time>
      </trkpt>
      <trkpt lat="46.136" lon="2.63253">
        <ele>583</ele>
        <time>2015-10-23T16:20:35Z</time>
      </trkpt>
      <trkpt lat="46.13614" lon="2.63225">
        <ele>584</ele>
        <time>2015-10-23T16:20:39Z</time>
      </trkpt>
      <trkpt lat="46.1363" lon="2.63195">
        <ele>584</ele>
        <time>2015-10-23T16:20:43Z</time>
      </trkpt>
      <trkpt lat="46.13642" lon="2.63168">
        <ele>584</ele>
        <time>2015-10-23T16:20:47Z</time>
      </trkpt>
      <trkpt lat="46.13655" lon="2.6314">
        <ele>585</ele>
        <time>2015-10-23T16:20:51Z</time>
      </trkpt>
      <trkpt lat="46.13665" lon="2.6311">
        <ele>585</ele>
        <time>2015-10-23T16:20:55Z</time>
      </trkpt>
      <trkpt lat="46.13681" lon="2.63082">
        <ele>585</ele>
        <time>2015-10-23T16:20:59Z</time>
      </trkpt>
      <trkpt lat="46.13698" lon="2.63054">
        <ele>585</ele>
        <time>2015-10-23T16:21:03Z</time>
      </trkpt>
      <trkpt lat="46.13706" lon="2.63027">
        <ele>585</ele>
        <time>2015-10-23T16:21:07Z</time>
      </trkpt>
      <trkpt lat="46.13718" lon="2.63">
        <ele>585</ele>
        <time>2015-10-23T16:21:11Z</time>
      </trkpt>
      <trkpt lat="46.13727" lon="2.62972">
        <ele>584</ele>
        <time>2015-10-23T16:21:15Z</time>
      </trkpt>
      <trkpt lat="46.13738" lon="2.62941">
        <ele>584</ele>
        <time>2015-10-23T16:21:19Z</time>
      </trkpt>
      <trkpt lat="46.13752" lon="2.62912">
        <ele>585</ele>
        <time>2015-10-23T16:21:23Z</time>
      </trkpt>
      <trkpt lat="46.13761" lon="2.62886">
        <ele>584</ele>
        <time>2015-10-23T16:21:27Z</time>
      </trkpt>
      <trkpt lat="46.13774" lon="2.62855">
        <ele>585</ele>
        <time>2015-10-23T16:21:31Z</time>
      </trkpt>
      <trkpt lat="46.13786" lon="2.62826">
        <ele>585</ele>
        <time>2015-10-23T16:21:35Z</time>
      </trkpt>
      <trkpt lat="46.13792" lon="2.62791">
        <ele>585</ele>
        <time>2015-10-23T16:21:39Z</time>
      </trkpt>
      <trkpt lat="46.13785" lon="2.62757">
        <ele>584</ele>
        <time>2015-10-23T16:21:43Z</time>
      </trkpt>
      <trkpt lat="46.13794" lon="2.62725">
        <ele>584</ele>
        <time>2015-10-23T16:21:47Z</time>
      </trkpt>
      <trkpt lat="46.13819" lon="2.62712">
        <ele>584</ele>
        <time>2015-10-23T16:21:51Z</time>
      </trkpt>
      <trkpt lat="46.13834" lon="2.62701">
        <ele>584</ele>
        <time>2015-10-23T16:22:03Z</time>
      </trkpt>
      <trkpt lat="46.13834" lon="2.62693">
        <ele>584</ele>
        <time>2015-10-23T16:22:07Z</time>
      </trkpt>
      <trkpt lat="46.13829" lon="2.62698">
        <ele>584</ele>
        <time>2015-10-23T16:22:11Z</time>
      </trkpt>
      <trkpt lat="46.13821" lon="2.62706">
        <ele>584</ele>
        <time>2015-10-23T16:22:15Z</time>
      </trkpt>
      <trkpt lat="46.1381" lon="2.62712">
        <ele>584</ele>
        <time>2015-10-23T16:22:19Z</time>
      </trkpt>
      <trkpt lat="46.13801" lon="2.6272">
        <ele>585</ele>
        <time>2015-10-23T16:25:15Z</time>
      </trkpt>
      <trkpt lat="46.138" lon="2.6272">
        <ele>585</ele>
        <time>2015-10-23T16:25:19Z</time>
      </trkpt>
      <trkpt lat="46.13807" lon="2.62718">
        <ele>585</ele>
        <time>2015-10-23T16:25:23Z</time>
      </trkpt>
      <trkpt lat="46.13819" lon="2.62716">
        <ele>585</ele>
        <time>2015-10-23T16:25:27Z</time>
      </trkpt>
      <trkpt lat="46.13833" lon="2.62705">
        <ele>584</ele>
        <time>2015-10-23T16:25:31Z</time>
      </trkpt>
      <trkpt lat="46.13846" lon="2.62684">
        <ele>584</ele>
        <time>2015-10-23T16:25:35Z</time>
      </trkpt>
      <trkpt lat="46.13858" lon="2.6266">
        <ele>583</ele>
        <time>2015-10-23T16:25:39Z</time>
      </trkpt>
      <trkpt lat="46.13868" lon="2.62636">
        <ele>583</ele>
        <time>2015-10-23T16:25:43Z</time>
      </trkpt>
      <trkpt lat="46.13883" lon="2.62611">
        <ele>582</ele>
        <time>2015-10-23T16:25:47Z</time>
      </trkpt>
      <trkpt lat="46.13901" lon="2.62584">
        <ele>581</ele>
        <time>2015-10-23T16:25:51Z</time>
      </trkpt>
      <trkpt lat="46.13921" lon="2.62555">
        <ele>580</ele>
        <time>2015-10-23T16:25:55Z</time>
      </trkpt>
      <trkpt lat="46.13944" lon="2.62526">
        <ele>578</ele>
        <time>2015-10-23T16:25:59Z</time>
      </trkpt>
      <trkpt lat="46.13967" lon="2.62496">
        <ele>577</ele>
        <time>2015-10-23T16:26:03Z</time>
      </trkpt>
      <trkpt lat="46.13995" lon="2.62474">
        <ele>575</ele>
        <time>2015-10-23T16:26:07Z</time>
      </trkpt>
      <trkpt lat="46.14018" lon="2.6245">
        <ele>575</ele>
        <time>2015-10-23T16:26:11Z</time>
      </trkpt>
      <trkpt lat="46.14039" lon="2.62417">
        <ele>574</ele>
        <time>2015-10-23T16:26:15Z</time>
      </trkpt>
      <trkpt lat="46.14056" lon="2.62379">
        <ele>573</ele>
        <time>2015-10-23T16:26:19Z</time>
      </trkpt>
      <trkpt lat="46.14072" lon="2.62338">
        <ele>572</ele>
        <time>2015-10-23T16:26:23Z</time>
      </trkpt>
      <trkpt lat="46.14096" lon="2.62303">
        <ele>571</ele>
        <time>2015-10-23T16:26:27Z</time>
      </trkpt>
      <trkpt lat="46.1412" lon="2.62273">
        <ele>570</ele>
        <time>2015-10-23T16:26:31Z</time>
      </trkpt>
      <trkpt lat="46.14145" lon="2.62246">
        <ele>569</ele>
        <time>2015-10-23T16:26:35Z</time>
      </trkpt>
      <trkpt lat="46.14168" lon="2.6222">
        <ele>569</ele>
        <time>2015-10-23T16:26:39Z</time>
      </trkpt>
      <trkpt lat="46.14191" lon="2.62195">
        <ele>569</ele>
        <time>2015-10-23T16:26:43Z</time>
      </trkpt>
      <trkpt lat="46.14212" lon="2.62172">
        <ele>569</ele>
        <time>2015-10-23T16:26:47Z</time>
      </trkpt>
      <trkpt lat="46.14231" lon="2.62151">
        <ele>569</ele>
        <time>2015-10-23T16:26:51Z</time>
      </trkpt>
      <trkpt lat="46.14248" lon="2.62122">
        <ele>570</ele>
        <time>2015-10-23T16:26:55Z</time>
      </trkpt>
      <trkpt lat="46.1426" lon="2.62088">
        <ele>569</ele>
        <time>2015-10-23T16:26:59Z</time>
      </trkpt>
      <trkpt lat="46.14277" lon="2.62059">
        <ele>569</ele>
        <time>2015-10-23T16:27:03Z</time>
      </trkpt>
      <trkpt lat="46.14296" lon="2.62032">
        <ele>569</ele>
        <time>2015-10-23T16:27:07Z</time>
      </trkpt>
      <trkpt lat="46.14313" lon="2.62004">
        <ele>568</ele>
        <time>2015-10-23T16:27:11Z</time>
      </trkpt>
      <trkpt lat="46.14329" lon="2.61975">
        <ele>568</ele>
        <time>2015-10-23T16:27:15Z</time>
      </trkpt>
      <trkpt lat="46.14346" lon="2.61948">
        <ele>568</ele>
        <time>2015-10-23T16:27:19Z</time>
      </trkpt>
      <trkpt lat="46.14361" lon="2.61918">
        <ele>568</ele>
        <time>2015-10-23T16:27:23Z</time>
      </trkpt>
      <trkpt lat="46.14364" lon="2.6188">
        <ele>568</ele>
        <time>2015-10-23T16:27:27Z</time>
      </trkpt>
      <trkpt lat="46.14363" lon="2.61841">
        <ele>568</ele>
        <time>2015-10-23T16:27:31Z</time>
      </trkpt>
      <trkpt lat="46.14362" lon="2.61807">
        <ele>567</ele>
        <time>2015-10-23T16:27:35Z</time>
      </trkpt>
      <trkpt lat="46.14369" lon="2.61773">
        <ele>568</ele>
        <time>2015-10-23T16:27:39Z</time>
      </trkpt>
      <trkpt lat="46.14377" lon="2.6174">
        <ele>568</ele>
        <time>2015-10-23T16:27:43Z</time>
      </trkpt>
      <trkpt lat="46.14386" lon="2.61706">
        <ele>567</ele>
        <time>2015-10-23T16:27:47Z</time>
      </trkpt>
      <trkpt lat="46.14395" lon="2.61672">
        <ele>567</ele>
        <time>2015-10-23T16:27:51Z</time>
      </trkpt>
      <trkpt lat="46.14402" lon="2.61637">
        <ele>567</ele>
        <time>2015-10-23T16:27:55Z</time>
      </trkpt>
      <trkpt lat="46.14406" lon="2.616">
        <ele>567</ele>
        <time>2015-10-23T16:27:59Z</time>
      </trkpt>
      <trkpt lat="46.14414" lon="2.61564">
        <ele>567</ele>
        <time>2015-10-23T16:28:03Z</time>
      </trkpt>
      <trkpt lat="46.1442" lon="2.6153">
        <ele>568</ele>
        <time>2015-10-23T16:28:07Z</time>
      </trkpt>
      <trkpt lat="46.14426" lon="2.61496">
        <ele>568</ele>
        <time>2015-10-23T16:28:11Z</time>
      </trkpt>
      <trkpt lat="46.14435" lon="2.61462">
        <ele>568</ele>
        <time>2015-10-23T16:28:15Z</time>
      </trkpt>
      <trkpt lat="46.14445" lon="2.6143">
        <ele>567</ele>
        <time>2015-10-23T16:28:19Z</time>
      </trkpt>
      <trkpt lat="46.14458" lon="2.61398">
        <ele>567</ele>
        <time>2015-10-23T16:28:23Z</time>
      </trkpt>
      <trkpt lat="46.1447" lon="2.61365">
        <ele>567</ele>
        <time>2015-10-23T16:28:27Z</time>
      </trkpt>
      <trkpt lat="46.14481" lon="2.61332">
        <ele>566</ele>
        <time>2015-10-23T16:28:31Z</time>
      </trkpt>
      <trkpt lat="46.1449" lon="2.61299">
        <ele>566</ele>
        <time>2015-10-23T16:28:35Z</time>
      </trkpt>
      <trkpt lat="46.14501" lon="2.61264">
        <ele>566</ele>
        <time>2015-10-23T16:28:39Z</time>
      </trkpt>
      <trkpt lat="46.14512" lon="2.61226">
        <ele>566</ele>
        <time>2015-10-23T16:28:43Z</time>
      </trkpt>
      <trkpt lat="46.14518" lon="2.61189">
        <ele>566</ele>
        <time>2015-10-23T16:28:47Z</time>
      </trkpt>
      <trkpt lat="46.14524" lon="2.61155">
        <ele>566</ele>
        <time>2015-10-23T16:28:51Z</time>
      </trkpt>
      <trkpt lat="46.1453" lon="2.61126">
        <ele>566</ele>
        <time>2015-10-23T16:28:55Z</time>
      </trkpt>
      <trkpt lat="46.14538" lon="2.61091">
        <ele>566</ele>
        <time>2015-10-23T16:28:59Z</time>
      </trkpt>
      <trkpt lat="46.14543" lon="2.61065">
        <ele>566</ele>
        <time>2015-10-23T16:29:03Z</time>
      </trkpt>
      <trkpt lat="46.14548" lon="2.61034">
        <ele>566</ele>
        <time>2015-10-23T16:29:07Z</time>
      </trkpt>
      <trkpt lat="46.14553" lon="2.61006">
        <ele>566</ele>
        <time>2015-10-23T16:29:11Z</time>
      </trkpt>
      <trkpt lat="46.1456" lon="2.60975">
        <ele>565</ele>
        <time>2015-10-23T16:29:15Z</time>
      </trkpt>
      <trkpt lat="46.14568" lon="2.60941">
        <ele>564</ele>
        <time>2015-10-23T16:29:19Z</time>
      </trkpt>
      <trkpt lat="46.14573" lon="2.60904">
        <ele>563</ele>
        <time>2015-10-23T16:29:23Z</time>
      </trkpt>
      <trkpt lat="46.14577" lon="2.60865">
        <ele>562</ele>
        <time>2015-10-23T16:29:27Z</time>
      </trkpt>
      <trkpt lat="46.14582" lon="2.60823">
        <ele>562</ele>
        <time>2015-10-23T16:29:31Z</time>
      </trkpt>
      <trkpt lat="46.14583" lon="2.60785">
        <ele>562</ele>
        <time>2015-10-23T16:29:35Z</time>
      </trkpt>
      <trkpt lat="46.14585" lon="2.6075">
        <ele>563</ele>
        <time>2015-10-23T16:29:39Z</time>
      </trkpt>
      <trkpt lat="46.14587" lon="2.60715">
        <ele>563</ele>
        <time>2015-10-23T16:29:43Z</time>
      </trkpt>
      <trkpt lat="46.1459" lon="2.6068">
        <ele>563</ele>
        <time>2015-10-23T16:29:47Z</time>
      </trkpt>
      <trkpt lat="46.14591" lon="2.60649">
        <ele>564</ele>
        <time>2015-10-23T16:29:51Z</time>
      </trkpt>
      <trkpt lat="46.14592" lon="2.60621">
        <ele>564</ele>
        <time>2015-10-23T16:29:55Z</time>
      </trkpt>
      <trkpt lat="46.14596" lon="2.60599">
        <ele>564</ele>
        <time>2015-10-23T16:29:59Z</time>
      </trkpt>
      <trkpt lat="46.14594" lon="2.6058">
        <ele>565</ele>
        <time>2015-10-23T16:30:03Z</time>
      </trkpt>
      <trkpt lat="46.14595" lon="2.60561">
        <ele>565</ele>
        <time>2015-10-23T16:30:07Z</time>
      </trkpt>
      <trkpt lat="46.14599" lon="2.60538">
        <ele>565</ele>
        <time>2015-10-23T16:30:11Z</time>
      </trkpt>
      <trkpt lat="46.14601" lon="2.60513">
        <ele>565</ele>
        <time>2015-10-23T16:30:15Z</time>
      </trkpt>
      <trkpt lat="46.14604" lon="2.6049">
        <ele>566</ele>
        <time>2015-10-23T16:30:19Z</time>
      </trkpt>
      <trkpt lat="46.14606" lon="2.6048">
        <ele>566</ele>
        <time>2015-10-23T16:30:23Z</time>
      </trkpt>
      <trkpt lat="46.14608" lon="2.60466">
        <ele>566</ele>
        <time>2015-10-23T16:30:27Z</time>
      </trkpt>
      <trkpt lat="46.14611" lon="2.60449">
        <ele>566</ele>
        <time>2015-10-23T16:30:31Z</time>
      </trkpt>
      <trkpt lat="46.14613" lon="2.60434">
        <ele>566</ele>
        <time>2015-10-23T16:30:35Z</time>
      </trkpt>
      <trkpt lat="46.14616" lon="2.60426">
        <ele>566</ele>
        <time>2015-10-23T16:30:39Z</time>
      </trkpt>
      <trkpt lat="46.14616" lon="2.60415">
        <ele>567</ele>
        <time>2015-10-23T16:30:43Z</time>
      </trkpt>
      <trkpt lat="46.14619" lon="2.60403">
        <ele>567</ele>
        <time>2015-10-23T16:30:47Z</time>
      </trkpt>
      <trkpt lat="46.14623" lon="2.60385">
        <ele>568</ele>
        <time>2015-10-23T16:30:51Z</time>
      </trkpt>
      <trkpt lat="46.14624" lon="2.60368">
        <ele>568</ele>
        <time>2015-10-23T16:30:55Z</time>
      </trkpt>
      <trkpt lat="46.14627" lon="2.60351">
        <ele>568</ele>
        <time>2015-10-23T16:30:59Z</time>
      </trkpt>
      <trkpt lat="46.14629" lon="2.60331">
        <ele>568</ele>
        <time>2015-10-23T16:31:03Z</time>
      </trkpt>
      <trkpt lat="46.14629" lon="2.60311">
        <ele>568</ele>
        <time>2015-10-23T16:31:07Z</time>
      </trkpt>
      <trkpt lat="46.1463" lon="2.60293">
        <ele>568</ele>
        <time>2015-10-23T16:31:11Z</time>
      </trkpt>
      <trkpt lat="46.1463" lon="2.60271">
        <ele>568</ele>
        <time>2015-10-23T16:31:15Z</time>
      </trkpt>
      <trkpt lat="46.14627" lon="2.60248">
        <ele>568</ele>
        <time>2015-10-23T16:31:19Z</time>
      </trkpt>
      <trkpt lat="46.14619" lon="2.60226">
        <ele>568</ele>
        <time>2015-10-23T16:31:23Z</time>
      </trkpt>
      <trkpt lat="46.14612" lon="2.60204">
        <ele>567</ele>
        <time>2015-10-23T16:31:27Z</time>
      </trkpt>
      <trkpt lat="46.14603" lon="2.60177">
        <ele>567</ele>
        <time>2015-10-23T16:31:31Z</time>
      </trkpt>
      <trkpt lat="46.14595" lon="2.6015">
        <ele>567</ele>
        <time>2015-10-23T16:31:35Z</time>
      </trkpt>
      <trkpt lat="46.14584" lon="2.60121">
        <ele>567</ele>
        <time>2015-10-23T16:31:39Z</time>
      </trkpt>
      <trkpt lat="46.14575" lon="2.60096">
        <ele>566</ele>
        <time>2015-10-23T16:31:43Z</time>
      </trkpt>
      <trkpt lat="46.14564" lon="2.60072">
        <ele>566</ele>
        <time>2015-10-23T16:31:47Z</time>
      </trkpt>
      <trkpt lat="46.14552" lon="2.60047">
        <ele>565</ele>
        <time>2015-10-23T16:31:51Z</time>
      </trkpt>
      <trkpt lat="46.14539" lon="2.60016">
        <ele>564</ele>
        <time>2015-10-23T16:31:55Z</time>
      </trkpt>
      <trkpt lat="46.1453" lon="2.59976">
        <ele>562</ele>
        <time>2015-10-23T16:31:59Z</time>
      </trkpt>
      <trkpt lat="46.14523" lon="2.59931">
        <ele>560</ele>
        <time>2015-10-23T16:32:03Z</time>
      </trkpt>
      <trkpt lat="46.14514" lon="2.59885">
        <ele>558</ele>
        <time>2015-10-23T16:32:07Z</time>
      </trkpt>
      <trkpt lat="46.14504" lon="2.59837">
        <ele>557</ele>
        <time>2015-10-23T16:32:11Z</time>
      </trkpt>
      <trkpt lat="46.14493" lon="2.5979">
        <ele>556</ele>
        <time>2015-10-23T16:32:15Z</time>
      </trkpt>
      <trkpt lat="46.14477" lon="2.5975">
        <ele>557</ele>
        <time>2015-10-23T16:32:19Z</time>
      </trkpt>
      <trkpt lat="46.14461" lon="2.59719">
        <ele>558</ele>
        <time>2015-10-23T16:32:23Z</time>
      </trkpt>
      <trkpt lat="46.14449" lon="2.59689">
        <ele>559</ele>
        <time>2015-10-23T16:32:27Z</time>
      </trkpt>
      <trkpt lat="46.14439" lon="2.5966">
        <ele>560</ele>
        <time>2015-10-23T16:32:31Z</time>
      </trkpt>
      <trkpt lat="46.14432" lon="2.59634">
        <ele>560</ele>
        <time>2015-10-23T16:32:35Z</time>
      </trkpt>
      <trkpt lat="46.14428" lon="2.59609">
        <ele>561</ele>
        <time>2015-10-23T16:32:39Z</time>
      </trkpt>
      <trkpt lat="46.14424" lon="2.59586">
        <ele>562</ele>
        <time>2015-10-23T16:32:43Z</time>
      </trkpt>
      <trkpt lat="46.14422" lon="2.59564">
        <ele>562</ele>
        <time>2015-10-23T16:32:47Z</time>
      </trkpt>
      <trkpt lat="46.14421" lon="2.59536">
        <ele>562</ele>
        <time>2015-10-23T16:32:51Z</time>
      </trkpt>
      <trkpt lat="46.14419" lon="2.59508">
        <ele>563</ele>
        <time>2015-10-23T16:32:55Z</time>
      </trkpt>
      <trkpt lat="46.14419" lon="2.59478">
        <ele>563</ele>
        <time>2015-10-23T16:32:59Z</time>
      </trkpt>
      <trkpt lat="46.14418" lon="2.59448">
        <ele>563</ele>
        <time>2015-10-23T16:33:03Z</time>
      </trkpt>
      <trkpt lat="46.14418" lon="2.59424">
        <ele>564</ele>
        <time>2015-10-23T16:33:07Z</time>
      </trkpt>
      <trkpt lat="46.14422" lon="2.59396">
        <ele>563</ele>
        <time>2015-10-23T16:33:11Z</time>
      </trkpt>
      <trkpt lat="46.14425" lon="2.59368">
        <ele>563</ele>
        <time>2015-10-23T16:33:15Z</time>
      </trkpt>
      <trkpt lat="46.14427" lon="2.59339">
        <ele>563</ele>
        <time>2015-10-23T16:33:19Z</time>
      </trkpt>
      <trkpt lat="46.14429" lon="2.59312">
        <ele>562</ele>
        <time>2015-10-23T16:33:23Z</time>
      </trkpt>
      <trkpt lat="46.14428" lon="2.5928">
        <ele>561</ele>
        <time>2015-10-23T16:33:27Z</time>
      </trkpt>
      <trkpt lat="46.14426" lon="2.59243">
        <ele>560</ele>
        <time>2015-10-23T16:33:31Z</time>
      </trkpt>
      <trkpt lat="46.14425" lon="2.59209">
        <ele>560</ele>
        <time>2015-10-23T16:33:35Z</time>
      </trkpt>
      <trkpt lat="46.14427" lon="2.59182">
        <ele>560</ele>
        <time>2015-10-23T16:33:39Z</time>
      </trkpt>
      <trkpt lat="46.14434" lon="2.59159">
        <ele>561</ele>
        <time>2015-10-23T16:33:43Z</time>
      </trkpt>
      <trkpt lat="46.14444" lon="2.5914">
        <ele>561</ele>
        <time>2015-10-23T16:33:47Z</time>
      </trkpt>
      <trkpt lat="46.14455" lon="2.5912">
        <ele>562</ele>
        <time>2015-10-23T16:33:51Z</time>
      </trkpt>
      <trkpt lat="46.14473" lon="2.59102">
        <ele>562</ele>
        <time>2015-10-23T16:33:55Z</time>
      </trkpt>
      <trkpt lat="46.14488" lon="2.59075">
        <ele>562</ele>
        <time>2015-10-23T16:33:59Z</time>
      </trkpt>
      <trkpt lat="46.14495" lon="2.59054">
        <ele>561</ele>
        <time>2015-10-23T16:34:03Z</time>
      </trkpt>
      <trkpt lat="46.145" lon="2.59032">
        <ele>560</ele>
        <time>2015-10-23T16:34:07Z</time>
      </trkpt>
      <trkpt lat="46.14509" lon="2.58999">
        <ele>559</ele>
        <time>2015-10-23T16:34:11Z</time>
      </trkpt>
      <trkpt lat="46.14515" lon="2.58964">
        <ele>558</ele>
        <time>2015-10-23T16:34:15Z</time>
      </trkpt>
      <trkpt lat="46.14519" lon="2.58937">
        <ele>556</ele>
        <time>2015-10-23T16:34:19Z</time>
      </trkpt>
      <trkpt lat="46.14528" lon="2.58903">
        <ele>556</ele>
        <time>2015-10-23T16:34:23Z</time>
      </trkpt>
      <trkpt lat="46.14544" lon="2.58876">
        <ele>556</ele>
        <time>2015-10-23T16:34:27Z</time>
      </trkpt>
      <trkpt lat="46.14565" lon="2.58863">
        <ele>556</ele>
        <time>2015-10-23T16:34:31Z</time>
      </trkpt>
      <trkpt lat="46.14577" lon="2.5886">
        <ele>557</ele>
        <time>2015-10-23T16:34:35Z</time>
      </trkpt>
      <trkpt lat="46.14596" lon="2.58858">
        <ele>557</ele>
        <time>2015-10-23T16:34:39Z</time>
      </trkpt>
      <trkpt lat="46.14612" lon="2.58859">
        <ele>558</ele>
        <time>2015-10-23T16:34:43Z</time>
      </trkpt>
      <trkpt lat="46.14628" lon="2.58855">
        <ele>558</ele>
        <time>2015-10-23T16:34:47Z</time>
      </trkpt>
      <trkpt lat="46.14646" lon="2.5886">
        <ele>558</ele>
        <time>2015-10-23T16:34:51Z</time>
      </trkpt>
      <trkpt lat="46.14662" lon="2.58865">
        <ele>557</ele>
        <time>2015-10-23T16:34:55Z</time>
      </trkpt>
      <trkpt lat="46.14682" lon="2.58868">
        <ele>557</ele>
        <time>2015-10-23T16:34:59Z</time>
      </trkpt>
      <trkpt lat="46.14708" lon="2.58877">
        <ele>556</ele>
        <time>2015-10-23T16:35:03Z</time>
      </trkpt>
      <trkpt lat="46.1473" lon="2.5889">
        <ele>555</ele>
        <time>2015-10-23T16:35:07Z</time>
      </trkpt>
      <trkpt lat="46.1475" lon="2.58902">
        <ele>556</ele>
        <time>2015-10-23T16:35:11Z</time>
      </trkpt>
      <trkpt lat="46.14772" lon="2.58912">
        <ele>556</ele>
        <time>2015-10-23T16:35:15Z</time>
      </trkpt>
      <trkpt lat="46.14792" lon="2.5892">
        <ele>556</ele>
        <time>2015-10-23T16:35:19Z</time>
      </trkpt>
      <trkpt lat="46.1481" lon="2.58918">
        <ele>555</ele>
        <time>2015-10-23T16:35:23Z</time>
      </trkpt>
      <trkpt lat="46.14831" lon="2.58915">
        <ele>555</ele>
        <time>2015-10-23T16:35:27Z</time>
      </trkpt>
      <trkpt lat="46.14852" lon="2.58909">
        <ele>555</ele>
        <time>2015-10-23T16:35:31Z</time>
      </trkpt>
      <trkpt lat="46.14872" lon="2.58906">
        <ele>555</ele>
        <time>2015-10-23T16:35:35Z</time>
      </trkpt>
      <trkpt lat="46.14893" lon="2.58902">
        <ele>555</ele>
        <time>2015-10-23T16:35:39Z</time>
      </trkpt>
      <trkpt lat="46.14917" lon="2.58903">
        <ele>556</ele>
        <time>2015-10-23T16:35:43Z</time>
      </trkpt>
      <trkpt lat="46.1493" lon="2.58892">
        <ele>556</ele>
        <time>2015-10-23T16:35:47Z</time>
      </trkpt>
      <trkpt lat="46.14947" lon="2.58882">
        <ele>556</ele>
        <time>2015-10-23T16:35:51Z</time>
      </trkpt>
      <trkpt lat="46.14961" lon="2.58869">
        <ele>556</ele>
        <time>2015-10-23T16:35:55Z</time>
      </trkpt>
      <trkpt lat="46.1498" lon="2.58857">
        <ele>557</ele>
        <time>2015-10-23T16:35:59Z</time>
      </trkpt>
      <trkpt lat="46.14996" lon="2.58839">
        <ele>556</ele>
        <time>2015-10-23T16:36:03Z</time>
      </trkpt>
      <trkpt lat="46.15015" lon="2.5882">
        <ele>555</ele>
        <time>2015-10-23T16:36:07Z</time>
      </trkpt>
      <trkpt lat="46.15034" lon="2.588">
        <ele>554</ele>
        <time>2015-10-23T16:36:11Z</time>
      </trkpt>
      <trkpt lat="46.15058" lon="2.58787">
        <ele>553</ele>
        <time>2015-10-23T16:36:15Z</time>
      </trkpt>
      <trkpt lat="46.15083" lon="2.58777">
        <ele>552</ele>
        <time>2015-10-23T16:36:19Z</time>
      </trkpt>
      <trkpt lat="46.15109" lon="2.58767">
        <ele>551</ele>
        <time>2015-10-23T16:36:23Z</time>
      </trkpt>
      <trkpt lat="46.15137" lon="2.58756">
        <ele>551</ele>
        <time>2015-10-23T16:36:27Z</time>
      </trkpt>
      <trkpt lat="46.15164" lon="2.58744">
        <ele>551</ele>
        <time>2015-10-23T16:36:31Z</time>
      </trkpt>
      <trkpt lat="46.15188" lon="2.58734">
        <ele>550</ele>
        <time>2015-10-23T16:36:35Z</time>
      </trkpt>
      <trkpt lat="46.15211" lon="2.58726">
        <ele>550</ele>
        <time>2015-10-23T16:36:39Z</time>
      </trkpt>
      <trkpt lat="46.15235" lon="2.58724">
        <ele>550</ele>
        <time>2015-10-23T16:36:43Z</time>
      </trkpt>
      <trkpt lat="46.15259" lon="2.58728">
        <ele>550</ele>
        <time>2015-10-23T16:36:47Z</time>
      </trkpt>
      <trkpt lat="46.15281" lon="2.58725">
        <ele>549</ele>
        <time>2015-10-23T16:36:51Z</time>
      </trkpt>
      <trkpt lat="46.15304" lon="2.58714">
        <ele>548</ele>
        <time>2015-10-23T16:36:55Z</time>
      </trkpt>
      <trkpt lat="46.15327" lon="2.58701">
        <ele>547</ele>
        <time>2015-10-23T16:36:59Z</time>
      </trkpt>
      <trkpt lat="46.15355" lon="2.58695">
        <ele>546</ele>
        <time>2015-10-23T16:37:03Z</time>
      </trkpt>
      <trkpt lat="46.15383" lon="2.58694">
        <ele>545</ele>
        <time>2015-10-23T16:37:07Z</time>
      </trkpt>
      <trkpt lat="46.15411" lon="2.58694">
        <ele>544</ele>
        <time>2015-10-23T16:37:11Z</time>
      </trkpt>
      <trkpt lat="46.1544" lon="2.5869">
        <ele>543</ele>
        <time>2015-10-23T16:37:15Z</time>
      </trkpt>
      <trkpt lat="46.15469" lon="2.58694">
        <ele>542</ele>
        <time>2015-10-23T16:37:19Z</time>
      </trkpt>
      <trkpt lat="46.15498" lon="2.58699">
        <ele>542</ele>
        <time>2015-10-23T16:37:23Z</time>
      </trkpt>
      <trkpt lat="46.15523" lon="2.58703">
        <ele>542</ele>
        <time>2015-10-23T16:37:27Z</time>
      </trkpt>
      <trkpt lat="46.15551" lon="2.5871">
        <ele>541</ele>
        <time>2015-10-23T16:37:31Z</time>
      </trkpt>
      <trkpt lat="46.15579" lon="2.58719">
        <ele>539</ele>
        <time>2015-10-23T16:37:35Z</time>
      </trkpt>
      <trkpt lat="46.15604" lon="2.58727">
        <ele>539</ele>
        <time>2015-10-23T16:37:39Z</time>
      </trkpt>
      <trkpt lat="46.1563" lon="2.58731">
        <ele>539</ele>
        <time>2015-10-23T16:37:43Z</time>
      </trkpt>
      <trkpt lat="46.15657" lon="2.58739">
        <ele>539</ele>
        <time>2015-10-23T16:37:47Z</time>
      </trkpt>
      <trkpt lat="46.15684" lon="2.58745">
        <ele>539</ele>
        <time>2015-10-23T16:37:51Z</time>
      </trkpt>
      <trkpt lat="46.15703" lon="2.5875">
        <ele>539</ele>
        <time>2015-10-23T16:37:55Z</time>
      </trkpt>
      <trkpt lat="46.15723" lon="2.58756">
        <ele>539</ele>
        <time>2015-10-23T16:37:59Z</time>
      </trkpt>
      <trkpt lat="46.15736" lon="2.58757">
        <ele>539</ele>
        <time>2015-10-23T16:38:03Z</time>
      </trkpt>
      <trkpt lat="46.15749" lon="2.5876">
        <ele>539</ele>
        <time>2015-10-23T16:38:07Z</time>
      </trkpt>
      <trkpt lat="46.15763" lon="2.58751">
        <ele>539</ele>
        <time>2015-10-23T16:38:11Z</time>
      </trkpt>
      <trkpt lat="46.1577" lon="2.58727">
        <ele>539</ele>
        <time>2015-10-23T16:38:15Z</time>
      </trkpt>
      <trkpt lat="46.15776" lon="2.58698">
        <ele>539</ele>
        <time>2015-10-23T16:38:19Z</time>
      </trkpt>
      <trkpt lat="46.15785" lon="2.58666">
        <ele>539</ele>
        <time>2015-10-23T16:38:23Z</time>
      </trkpt>
      <trkpt lat="46.15793" lon="2.58631">
        <ele>538</ele>
        <time>2015-10-23T16:38:27Z</time>
      </trkpt>
      <trkpt lat="46.158" lon="2.58593">
        <ele>538</ele>
        <time>2015-10-23T16:38:31Z</time>
      </trkpt>
      <trkpt lat="46.15809" lon="2.58555">
        <ele>538</ele>
        <time>2015-10-23T16:38:35Z</time>
      </trkpt>
      <trkpt lat="46.15814" lon="2.58513">
        <ele>537</ele>
        <time>2015-10-23T16:38:39Z</time>
      </trkpt>
      <trkpt lat="46.15822" lon="2.58474">
        <ele>536</ele>
        <time>2015-10-23T16:38:43Z</time>
      </trkpt>
      <trkpt lat="46.15832" lon="2.58436">
        <ele>536</ele>
        <time>2015-10-23T16:38:47Z</time>
      </trkpt>
      <trkpt lat="46.15839" lon="2.58393">
        <ele>535</ele>
        <time>2015-10-23T16:38:51Z</time>
      </trkpt>
      <trkpt lat="46.15843" lon="2.58349">
        <ele>535</ele>
        <time>2015-10-23T16:38:55Z</time>
      </trkpt>
      <trkpt lat="46.15848" lon="2.58306">
        <ele>535</ele>
        <time>2015-10-23T16:38:59Z</time>
      </trkpt>
      <trkpt lat="46.15843" lon="2.58266">
        <ele>534</ele>
        <time>2015-10-23T16:39:03Z</time>
      </trkpt>
      <trkpt lat="46.1584" lon="2.58227">
        <ele>533</ele>
        <time>2015-10-23T16:39:07Z</time>
      </trkpt>
      <trkpt lat="46.15837" lon="2.58186">
        <ele>532</ele>
        <time>2015-10-23T16:39:11Z</time>
      </trkpt>
      <trkpt lat="46.15834" lon="2.58142">
        <ele>531</ele>
        <time>2015-10-23T16:39:15Z</time>
      </trkpt>
      <trkpt lat="46.15835" lon="2.58095">
        <ele>529</ele>
        <time>2015-10-23T16:39:19Z</time>
      </trkpt>
      <trkpt lat="46.15836" lon="2.5805">
        <ele>528</ele>
        <time>2015-10-23T16:39:23Z</time>
      </trkpt>
      <trkpt lat="46.15836" lon="2.58005">
        <ele>527</ele>
        <time>2015-10-23T16:39:27Z</time>
      </trkpt>
      <trkpt lat="46.15836" lon="2.57958">
        <ele>526</ele>
        <time>2015-10-23T16:39:31Z</time>
      </trkpt>
      <trkpt lat="46.15836" lon="2.5791">
        <ele>526</ele>
        <time>2015-10-23T16:39:35Z</time>
      </trkpt>
      <trkpt lat="46.15831" lon="2.57866">
        <ele>525</ele>
        <time>2015-10-23T16:39:39Z</time>
      </trkpt>
      <trkpt lat="46.15821" lon="2.57821">
        <ele>524</ele>
        <time>2015-10-23T16:39:43Z</time>
      </trkpt>
      <trkpt lat="46.15817" lon="2.57773">
        <ele>523</ele>
        <time>2015-10-23T16:39:47Z</time>
      </trkpt>
      <trkpt lat="46.15828" lon="2.57735">
        <ele>522</ele>
        <time>2015-10-23T16:39:51Z</time>
      </trkpt>
      <trkpt lat="46.1584" lon="2.57694">
        <ele>521</ele>
        <time>2015-10-23T16:39:55Z</time>
      </trkpt>
      <trkpt lat="46.15852" lon="2.57652">
        <ele>520</ele>
        <time>2015-10-23T16:39:59Z</time>
      </trkpt>
      <trkpt lat="46.15872" lon="2.57615">
        <ele>518</ele>
        <time>2015-10-23T16:40:03Z</time>
      </trkpt>
      <trkpt lat="46.15895" lon="2.57585">
        <ele>516</ele>
        <time>2015-10-23T16:40:07Z</time>
      </trkpt>
      <trkpt lat="46.15923" lon="2.57561">
        <ele>515</ele>
        <time>2015-10-23T16:40:11Z</time>
      </trkpt>
      <trkpt lat="46.15951" lon="2.57538">
        <ele>514</ele>
        <time>2015-10-23T16:40:15Z</time>
      </trkpt>
      <trkpt lat="46.15982" lon="2.57521">
        <ele>512</ele>
        <time>2015-10-23T16:40:19Z</time>
      </trkpt>
      <trkpt lat="46.16012" lon="2.57504">
        <ele>511</ele>
        <time>2015-10-23T16:40:23Z</time>
      </trkpt>
      <trkpt lat="46.1604" lon="2.57489">
        <ele>511</ele>
        <time>2015-10-23T16:40:27Z</time>
      </trkpt>
      <trkpt lat="46.16072" lon="2.57471">
        <ele>511</ele>
        <time>2015-10-23T16:40:31Z</time>
      </trkpt>
      <trkpt lat="46.16101" lon="2.57454">
        <ele>510</ele>
        <time>2015-10-23T16:40:35Z</time>
      </trkpt>
      <trkpt lat="46.1613" lon="2.57437">
        <ele>510</ele>
        <time>2015-10-23T16:40:39Z</time>
      </trkpt>
      <trkpt lat="46.16158" lon="2.57422">
        <ele>509</ele>
        <time>2015-10-23T16:40:43Z</time>
      </trkpt>
      <trkpt lat="46.16182" lon="2.57402">
        <ele>508</ele>
        <time>2015-10-23T16:40:47Z</time>
      </trkpt>
      <trkpt lat="46.162" lon="2.57372">
        <ele>508</ele>
        <time>2015-10-23T16:40:51Z</time>
      </trkpt>
      <trkpt lat="46.16217" lon="2.57343">
        <ele>507</ele>
        <time>2015-10-23T16:40:55Z</time>
      </trkpt>
      <trkpt lat="46.16237" lon="2.57311">
        <ele>505</ele>
        <time>2015-10-23T16:40:59Z</time>
      </trkpt>
      <trkpt lat="46.16258" lon="2.57273">
        <ele>503</ele>
        <time>2015-10-23T16:41:03Z</time>
      </trkpt>
      <trkpt lat="46.16284" lon="2.57229">
        <ele>500</ele>
        <time>2015-10-23T16:41:07Z</time>
      </trkpt>
      <trkpt lat="46.16304" lon="2.57185">
        <ele>498</ele>
        <time>2015-10-23T16:41:11Z</time>
      </trkpt>
      <trkpt lat="46.16325" lon="2.57143">
        <ele>497</ele>
        <time>2015-10-23T16:41:15Z</time>
      </trkpt>
      <trkpt lat="46.1635" lon="2.57115">
        <ele>496</ele>
        <time>2015-10-23T16:41:19Z</time>
      </trkpt>
      <trkpt lat="46.1638" lon="2.571">
        <ele>498</ele>
        <time>2015-10-23T16:41:23Z</time>
      </trkpt>
      <trkpt lat="46.164" lon="2.57093">
        <ele>499</ele>
        <time>2015-10-23T16:41:27Z</time>
      </trkpt>
      <trkpt lat="46.16419" lon="2.57093">
        <ele>499</ele>
        <time>2015-10-23T16:41:31Z</time>
      </trkpt>
      <trkpt lat="46.16433" lon="2.57089">
        <ele>500</ele>
        <time>2015-10-23T16:41:35Z</time>
      </trkpt>
      <trkpt lat="46.16447" lon="2.57089">
        <ele>500</ele>
        <time>2015-10-23T16:41:39Z</time>
      </trkpt>
      <trkpt lat="46.16463" lon="2.57085">
        <ele>501</ele>
        <time>2015-10-23T16:41:43Z</time>
      </trkpt>
      <trkpt lat="46.16477" lon="2.57081">
        <ele>501</ele>
        <time>2015-10-23T16:41:47Z</time>
      </trkpt>
      <trkpt lat="46.16491" lon="2.57086">
        <ele>501</ele>
        <time>2015-10-23T16:41:51Z</time>
      </trkpt>
      <trkpt lat="46.16505" lon="2.5709">
        <ele>502</ele>
        <time>2015-10-23T16:41:55Z</time>
      </trkpt>
      <trkpt lat="46.1652" lon="2.57117">
        <ele>502</ele>
        <time>2015-10-23T16:41:59Z</time>
      </trkpt>
      <trkpt lat="46.16528" lon="2.57141">
        <ele>502</ele>
        <time>2015-10-23T16:42:03Z</time>
      </trkpt>
      <trkpt lat="46.16534" lon="2.57158">
        <ele>503</ele>
        <time>2015-10-23T16:42:07Z</time>
      </trkpt>
      <trkpt lat="46.16534" lon="2.57174">
        <ele>504</ele>
        <time>2015-10-23T16:42:11Z</time>
      </trkpt>
      <trkpt lat="46.16533" lon="2.57191">
        <ele>504</ele>
        <time>2015-10-23T16:42:15Z</time>
      </trkpt>
      <trkpt lat="46.16534" lon="2.57209">
        <ele>505</ele>
        <time>2015-10-23T16:42:19Z</time>
      </trkpt>
      <trkpt lat="46.16538" lon="2.57223">
        <ele>506</ele>
        <time>2015-10-23T16:42:23Z</time>
      </trkpt>
      <trkpt lat="46.16544" lon="2.5724">
        <ele>507</ele>
        <time>2015-10-23T16:42:27Z</time>
      </trkpt>
      <trkpt lat="46.16547" lon="2.57252">
        <ele>508</ele>
        <time>2015-10-23T16:42:31Z</time>
      </trkpt>
      <trkpt lat="46.16544" lon="2.57266">
        <ele>509</ele>
        <time>2015-10-23T16:42:35Z</time>
      </trkpt>
      <trkpt lat="46.16546" lon="2.57285">
        <ele>509</ele>
        <time>2015-10-23T16:42:51Z</time>
      </trkpt>
      <trkpt lat="46.16547" lon="2.57303">
        <ele>509</ele>
        <time>2015-10-23T16:42:55Z</time>
      </trkpt>
    </trkseg>
  </trk>
  <rte>
      <rtept lat="46.16543" lon="2.573">
        <ele>475.9</ele>
      </rtept>
      <rtept lat="46.16547" lon="2.57303">
        <ele>476</ele>
      </rtept>
    </rte>
</gpx>